<?xml version='1.0' encoding='UTF-8'?><gpx version="1.1" creator="JPX - https://github.com/jenetics/jpx" xmlns="http://www.topografix.com/GPX/1/1"><trk><trkseg><trkpt lat="30.3464717" lon="-5.8381283"><ele>731.0</ele><time>2026-05-03T09:37:14.936Z</time></trkpt><trkpt lat="30.34654" lon="-5.8381383"><ele>731.0</ele><time>2026-05-03T09:37:37.955Z</time></trkpt><trkpt lat="30.346575" lon="-5.83821"><ele>731.0</ele><time>2026-05-03T09:37:40.958Z</time></trkpt><trkpt lat="30.3466467" lon="-5.8382633"><ele>731.0</ele><time>2026-05-03T09:37:49.963Z</time></trkpt><trkpt lat="30.3467717" lon="-5.83829"><ele>731.0</ele><time>2026-05-03T09:37:51.962Z</time></trkpt><trkpt lat="30.3468417" lon="-5.838305"><ele>731.0</ele><time>2026-05-03T09:37:52.972Z</time></trkpt><trkpt lat="30.346905" lon="-5.8383267"><ele>731.0</ele><time>2026-05-03T09:37:53.987Z</time></trkpt><trkpt lat="30.3469767" lon="-5.838345"><ele>731.0</ele><time>2026-05-03T09:37:54.969Z</time></trkpt><trkpt lat="30.3470567" lon="-5.838365"><ele>731.0</ele><time>2026-05-03T09:37:55.992Z</time></trkpt><trkpt lat="30.347145" lon="-5.8383867"><ele>731.0</ele><time>2026-05-03T09:37:56.963Z</time></trkpt><trkpt lat="30.3472383" lon="-5.838415"><ele>731.0</ele><time>2026-05-03T09:37:57.993Z</time></trkpt><trkpt lat="30.34733" lon="-5.8384417"><ele>731.0</ele><time>2026-05-03T09:37:58.966Z</time></trkpt><trkpt lat="30.3474233" lon="-5.8384683"><ele>730.8333333333333</ele><time>2026-05-03T09:37:59.948Z</time></trkpt><trkpt lat="30.3475067" lon="-5.8384917"><ele>730.6666666666666</ele><time>2026-05-03T09:38:00.973Z</time></trkpt><trkpt lat="30.34758" lon="-5.8385133"><ele>730.5</ele><time>2026-05-03T09:38:01.961Z</time></trkpt><trkpt lat="30.347655" lon="-5.8385333"><ele>730.3333333333334</ele><time>2026-05-03T09:38:02.973Z</time></trkpt><trkpt lat="30.347735" lon="-5.838555"><ele>730.1666666666667</ele><time>2026-05-03T09:38:03.951Z</time></trkpt><trkpt lat="30.34782" lon="-5.83858"><ele>730.0</ele><time>2026-05-03T09:38:04.963Z</time></trkpt><trkpt lat="30.3479083" lon="-5.8386033"><ele>730.0</ele><time>2026-05-03T09:38:05.942Z</time></trkpt><trkpt lat="30.3479983" lon="-5.83863"><ele>730.0</ele><time>2026-05-03T09:38:06.969Z</time></trkpt><trkpt lat="30.34809" lon="-5.8386567"><ele>730.0</ele><time>2026-05-03T09:38:07.951Z</time></trkpt><trkpt lat="30.34818" lon="-5.83868"><ele>730.0</ele><time>2026-05-03T09:38:08.949Z</time></trkpt><trkpt lat="30.3482667" lon="-5.8387033"><ele>730.0</ele><time>2026-05-03T09:38:09.96Z</time></trkpt><trkpt lat="30.34834" lon="-5.8387233"><ele>730.0</ele><time>2026-05-03T09:38:10.976Z</time></trkpt><trkpt lat="30.3484483" lon="-5.8387517"><ele>729.8</ele><time>2026-05-03T09:38:12.952Z</time></trkpt><trkpt lat="30.3485467" lon="-5.83878"><ele>729.6</ele><time>2026-05-03T09:38:14.979Z</time></trkpt><trkpt lat="30.3486667" lon="-5.8388133"><ele>729.4000000000001</ele><time>2026-05-03T09:38:16.974Z</time></trkpt><trkpt lat="30.348745" lon="-5.8388333"><ele>729.2</ele><time>2026-05-03T09:38:17.98Z</time></trkpt><trkpt lat="30.3488317" lon="-5.838855"><ele>729.0</ele><time>2026-05-03T09:38:18.999Z</time></trkpt><trkpt lat="30.348925" lon="-5.83888"><ele>729.0</ele><time>2026-05-03T09:38:19.98Z</time></trkpt><trkpt lat="30.349025" lon="-5.8389083"><ele>729.0</ele><time>2026-05-03T09:38:20.957Z</time></trkpt><trkpt lat="30.3491233" lon="-5.8389367"><ele>729.0</ele><time>2026-05-03T09:38:21.977Z</time></trkpt><trkpt lat="30.3492217" lon="-5.838965"><ele>729.0</ele><time>2026-05-03T09:38:22.973Z</time></trkpt><trkpt lat="30.3493233" lon="-5.838995"><ele>729.0</ele><time>2026-05-03T09:38:23.987Z</time></trkpt><trkpt lat="30.3494267" lon="-5.839025"><ele>729.0</ele><time>2026-05-03T09:38:24.966Z</time></trkpt><trkpt lat="30.349535" lon="-5.8390533"><ele>729.0</ele><time>2026-05-03T09:38:25.952Z</time></trkpt><trkpt lat="30.3496467" lon="-5.8390817"><ele>729.0</ele><time>2026-05-03T09:38:26.958Z</time></trkpt><trkpt lat="30.3497583" lon="-5.839115"><ele>729.0</ele><time>2026-05-03T09:38:27.968Z</time></trkpt><trkpt lat="30.34987" lon="-5.839145"><ele>729.0</ele><time>2026-05-03T09:38:28.981Z</time></trkpt><trkpt lat="30.3499833" lon="-5.8391767"><ele>729.0</ele><time>2026-05-03T09:38:29.983Z</time></trkpt><trkpt lat="30.3500933" lon="-5.839205"><ele>729.0</ele><time>2026-05-03T09:38:30.959Z</time></trkpt><trkpt lat="30.3502033" lon="-5.8392283"><ele>729.0</ele><time>2026-05-03T09:38:31.958Z</time></trkpt><trkpt lat="30.35031" lon="-5.8392483"><ele>729.0</ele><time>2026-05-03T09:38:32.971Z</time></trkpt><trkpt lat="30.350405" lon="-5.839265"><ele>729.0</ele><time>2026-05-03T09:38:33.976Z</time></trkpt><trkpt lat="30.3504983" lon="-5.8392883"><ele>729.0</ele><time>2026-05-03T09:38:34.969Z</time></trkpt><trkpt lat="30.3505983" lon="-5.8393133"><ele>729.0</ele><time>2026-05-03T09:38:35.962Z</time></trkpt><trkpt lat="30.3506967" lon="-5.8393383"><ele>729.0</ele><time>2026-05-03T09:38:36.979Z</time></trkpt><trkpt lat="30.3507967" lon="-5.839365"><ele>729.0</ele><time>2026-05-03T09:38:37.97Z</time></trkpt><trkpt lat="30.3509067" lon="-5.8393983"><ele>729.25</ele><time>2026-05-03T09:38:38.964Z</time></trkpt><trkpt lat="30.3510167" lon="-5.83943"><ele>729.5</ele><time>2026-05-03T09:38:39.961Z</time></trkpt><trkpt lat="30.351135" lon="-5.8394633"><ele>729.75</ele><time>2026-05-03T09:38:40.978Z</time></trkpt><trkpt lat="30.35126" lon="-5.8394917"><ele>730.0</ele><time>2026-05-03T09:38:42.02Z</time></trkpt><trkpt lat="30.3513883" lon="-5.83953"><ele>730.0</ele><time>2026-05-03T09:38:43.005Z</time></trkpt><trkpt lat="30.3515167" lon="-5.8395683"><ele>730.0</ele><time>2026-05-03T09:38:43.96Z</time></trkpt><trkpt lat="30.35165" lon="-5.839605"><ele>730.0</ele><time>2026-05-03T09:38:44.966Z</time></trkpt><trkpt lat="30.3517817" lon="-5.83964"><ele>730.0</ele><time>2026-05-03T09:38:45.967Z</time></trkpt><trkpt lat="30.3519117" lon="-5.8396783"><ele>730.0</ele><time>2026-05-03T09:38:46.972Z</time></trkpt><trkpt lat="30.3520483" lon="-5.839715"><ele>730.0</ele><time>2026-05-03T09:38:47.981Z</time></trkpt><trkpt lat="30.3521833" lon="-5.8397483"><ele>730.0</ele><time>2026-05-03T09:38:48.982Z</time></trkpt><trkpt lat="30.3523167" lon="-5.8397867"><ele>730.0</ele><time>2026-05-03T09:38:49.964Z</time></trkpt><trkpt lat="30.3524533" lon="-5.839825"><ele>730.25</ele><time>2026-05-03T09:38:50.958Z</time></trkpt><trkpt lat="30.3525917" lon="-5.8398583"><ele>730.5</ele><time>2026-05-03T09:38:51.968Z</time></trkpt><trkpt lat="30.3527233" lon="-5.8398967"><ele>730.75</ele><time>2026-05-03T09:38:52.972Z</time></trkpt><trkpt lat="30.352855" lon="-5.839935"><ele>731.0</ele><time>2026-05-03T09:38:53.998Z</time></trkpt><trkpt lat="30.3529867" lon="-5.8399667"><ele>731.25</ele><time>2026-05-03T09:38:54.959Z</time></trkpt><trkpt lat="30.3531167" lon="-5.8399967"><ele>731.5</ele><time>2026-05-03T09:38:55.961Z</time></trkpt><trkpt lat="30.353245" lon="-5.8400217"><ele>731.75</ele><time>2026-05-03T09:38:56.948Z</time></trkpt><trkpt lat="30.3533717" lon="-5.8400483"><ele>732.0</ele><time>2026-05-03T09:38:57.954Z</time></trkpt><trkpt lat="30.3535" lon="-5.8400833"><ele>732.0</ele><time>2026-05-03T09:38:58.97Z</time></trkpt><trkpt lat="30.3536283" lon="-5.8401117"><ele>732.0</ele><time>2026-05-03T09:38:59.989Z</time></trkpt><trkpt lat="30.3537533" lon="-5.84014"><ele>732.0</ele><time>2026-05-03T09:39:00.958Z</time></trkpt><trkpt lat="30.353875" lon="-5.84017"><ele>732.0</ele><time>2026-05-03T09:39:01.955Z</time></trkpt><trkpt lat="30.3540033" lon="-5.840195"><ele>732.0</ele><time>2026-05-03T09:39:02.973Z</time></trkpt><trkpt lat="30.354125" lon="-5.840225"><ele>732.0</ele><time>2026-05-03T09:39:03.957Z</time></trkpt><trkpt lat="30.3542467" lon="-5.8402517"><ele>732.0</ele><time>2026-05-03T09:39:04.981Z</time></trkpt><trkpt lat="30.3543617" lon="-5.8402867"><ele>732.0</ele><time>2026-05-03T09:39:05.957Z</time></trkpt><trkpt lat="30.3544783" lon="-5.8403267"><ele>732.0</ele><time>2026-05-03T09:39:06.971Z</time></trkpt><trkpt lat="30.3545833" lon="-5.84037"><ele>732.0</ele><time>2026-05-03T09:39:07.961Z</time></trkpt><trkpt lat="30.3546833" lon="-5.8404083"><ele>732.0</ele><time>2026-05-03T09:39:08.962Z</time></trkpt><trkpt lat="30.354775" lon="-5.84045"><ele>732.0</ele><time>2026-05-03T09:39:09.961Z</time></trkpt><trkpt lat="30.3548667" lon="-5.84049"><ele>732.0</ele><time>2026-05-03T09:39:10.963Z</time></trkpt><trkpt lat="30.3549583" lon="-5.840535"><ele>732.25</ele><time>2026-05-03T09:39:11.992Z</time></trkpt><trkpt lat="30.35505" lon="-5.840585"><ele>732.5</ele><time>2026-05-03T09:39:12.973Z</time></trkpt><trkpt lat="30.3551433" lon="-5.8406433"><ele>732.75</ele><time>2026-05-03T09:39:13.957Z</time></trkpt><trkpt lat="30.355245" lon="-5.8407117"><ele>733.0</ele><time>2026-05-03T09:39:14.956Z</time></trkpt><trkpt lat="30.3553517" lon="-5.8407867"><ele>733.0</ele><time>2026-05-03T09:39:15.958Z</time></trkpt><trkpt lat="30.355465" lon="-5.8408667"><ele>733.0</ele><time>2026-05-03T09:39:16.958Z</time></trkpt><trkpt lat="30.35558" lon="-5.8409517"><ele>733.0</ele><time>2026-05-03T09:39:17.991Z</time></trkpt><trkpt lat="30.3556933" lon="-5.8410417"><ele>733.0</ele><time>2026-05-03T09:39:18.963Z</time></trkpt><trkpt lat="30.3558033" lon="-5.8411267"><ele>733.75</ele><time>2026-05-03T09:39:19.954Z</time></trkpt><trkpt lat="30.3559133" lon="-5.8412183"><ele>734.5</ele><time>2026-05-03T09:39:20.96Z</time></trkpt><trkpt lat="30.3560233" lon="-5.8413083"><ele>735.25</ele><time>2026-05-03T09:39:21.959Z</time></trkpt><trkpt lat="30.356135" lon="-5.8413967"><ele>736.0</ele><time>2026-05-03T09:39:22.976Z</time></trkpt><trkpt lat="30.3562517" lon="-5.841485"><ele>736.25</ele><time>2026-05-03T09:39:23.957Z</time></trkpt><trkpt lat="30.3563717" lon="-5.841575"><ele>736.5</ele><time>2026-05-03T09:39:25.013Z</time></trkpt><trkpt lat="30.356495" lon="-5.84167"><ele>736.75</ele><time>2026-05-03T09:39:26Z</time></trkpt><trkpt lat="30.3566133" lon="-5.8417633"><ele>737.0</ele><time>2026-05-03T09:39:27.019Z</time></trkpt><trkpt lat="30.3567317" lon="-5.8418517"><ele>736.5</ele><time>2026-05-03T09:39:27.991Z</time></trkpt><trkpt lat="30.3568483" lon="-5.8419367"><ele>736.0</ele><time>2026-05-03T09:39:29.08Z</time></trkpt><trkpt lat="30.3569617" lon="-5.842025"><ele>735.5</ele><time>2026-05-03T09:39:30.035Z</time></trkpt><trkpt lat="30.357075" lon="-5.8421133"><ele>735.0</ele><time>2026-05-03T09:39:30.975Z</time></trkpt><trkpt lat="30.35719" lon="-5.8422067"><ele>735.75</ele><time>2026-05-03T09:39:31.965Z</time></trkpt><trkpt lat="30.3573033" lon="-5.842295"><ele>736.5</ele><time>2026-05-03T09:39:32.981Z</time></trkpt><trkpt lat="30.3574117" lon="-5.8423817"><ele>737.25</ele><time>2026-05-03T09:39:33.977Z</time></trkpt><trkpt lat="30.3575183" lon="-5.8424617"><ele>738.0</ele><time>2026-05-03T09:39:34.995Z</time></trkpt><trkpt lat="30.357625" lon="-5.8425367"><ele>737.3333333333334</ele><time>2026-05-03T09:39:36.014Z</time></trkpt><trkpt lat="30.357845" lon="-5.8426733"><ele>736.6666666666667</ele><time>2026-05-03T09:39:37.977Z</time></trkpt><trkpt lat="30.3579617" lon="-5.84274"><ele>736.0</ele><time>2026-05-03T09:39:38.961Z</time></trkpt><trkpt lat="30.3580817" lon="-5.84281"><ele>736.0</ele><time>2026-05-03T09:39:39.974Z</time></trkpt><trkpt lat="30.35821" lon="-5.84287"><ele>736.0</ele><time>2026-05-03T09:39:40.951Z</time></trkpt><trkpt lat="30.35834" lon="-5.842925"><ele>736.0</ele><time>2026-05-03T09:39:41.986Z</time></trkpt><trkpt lat="30.3584683" lon="-5.84297"><ele>736.0</ele><time>2026-05-03T09:39:42.968Z</time></trkpt><trkpt lat="30.3586017" lon="-5.8430117"><ele>736.0</ele><time>2026-05-03T09:39:43.974Z</time></trkpt><trkpt lat="30.3587367" lon="-5.8430517"><ele>736.0</ele><time>2026-05-03T09:39:44.953Z</time></trkpt><trkpt lat="30.3588767" lon="-5.8430833"><ele>736.0</ele><time>2026-05-03T09:39:45.952Z</time></trkpt><trkpt lat="30.35902" lon="-5.8431083"><ele>736.0</ele><time>2026-05-03T09:39:46.967Z</time></trkpt><trkpt lat="30.359155" lon="-5.8431283"><ele>736.75</ele><time>2026-05-03T09:39:47.972Z</time></trkpt><trkpt lat="30.3592833" lon="-5.8431433"><ele>737.5</ele><time>2026-05-03T09:39:48.957Z</time></trkpt><trkpt lat="30.3594033" lon="-5.8431517"><ele>738.25</ele><time>2026-05-03T09:39:49.958Z</time></trkpt><trkpt lat="30.359515" lon="-5.8431533"><ele>739.0</ele><time>2026-05-03T09:39:50.961Z</time></trkpt><trkpt lat="30.359625" lon="-5.843155"><ele>739.2</ele><time>2026-05-03T09:39:51.942Z</time></trkpt><trkpt lat="30.35973" lon="-5.8431583"><ele>739.4000000000001</ele><time>2026-05-03T09:39:52.977Z</time></trkpt><trkpt lat="30.3598317" lon="-5.8431617"><ele>739.6</ele><time>2026-05-03T09:39:53.965Z</time></trkpt><trkpt lat="30.359935" lon="-5.843165"><ele>739.8</ele><time>2026-05-03T09:39:54.97Z</time></trkpt><trkpt lat="30.36004" lon="-5.84317"><ele>740.0</ele><time>2026-05-03T09:39:55.97Z</time></trkpt><trkpt lat="30.360145" lon="-5.843175"><ele>740.0</ele><time>2026-05-03T09:39:56.951Z</time></trkpt><trkpt lat="30.3602517" lon="-5.8431767"><ele>740.0</ele><time>2026-05-03T09:39:57.949Z</time></trkpt><trkpt lat="30.3603583" lon="-5.8431817"><ele>740.0</ele><time>2026-05-03T09:39:58.959Z</time></trkpt><trkpt lat="30.3604683" lon="-5.8431833"><ele>740.0</ele><time>2026-05-03T09:39:59.963Z</time></trkpt><trkpt lat="30.3605817" lon="-5.8431883"><ele>740.0</ele><time>2026-05-03T09:40:00.962Z</time></trkpt><trkpt lat="30.3606967" lon="-5.84319"><ele>739.5</ele><time>2026-05-03T09:40:01.966Z</time></trkpt><trkpt lat="30.3608183" lon="-5.8431933"><ele>739.0</ele><time>2026-05-03T09:40:02.967Z</time></trkpt><trkpt lat="30.3609417" lon="-5.843195"><ele>738.5</ele><time>2026-05-03T09:40:03.962Z</time></trkpt><trkpt lat="30.3610667" lon="-5.8431967"><ele>738.0</ele><time>2026-05-03T09:40:04.949Z</time></trkpt><trkpt lat="30.3611883" lon="-5.8431983"><ele>738.0</ele><time>2026-05-03T09:40:05.965Z</time></trkpt><trkpt lat="30.3613067" lon="-5.8432"><ele>738.0</ele><time>2026-05-03T09:40:06.962Z</time></trkpt><trkpt lat="30.3614183" lon="-5.8432017"><ele>738.0</ele><time>2026-05-03T09:40:07.965Z</time></trkpt><trkpt lat="30.3615317" lon="-5.8432033"><ele>738.0</ele><time>2026-05-03T09:40:08.983Z</time></trkpt><trkpt lat="30.3616483" lon="-5.8432017"><ele>737.25</ele><time>2026-05-03T09:40:09.954Z</time></trkpt><trkpt lat="30.3617667" lon="-5.8432033"><ele>736.5</ele><time>2026-05-03T09:40:10.976Z</time></trkpt><trkpt lat="30.3618883" lon="-5.843205"><ele>735.75</ele><time>2026-05-03T09:40:11.964Z</time></trkpt><trkpt lat="30.3620117" lon="-5.84321"><ele>735.0</ele><time>2026-05-03T09:40:12.961Z</time></trkpt><trkpt lat="30.36214" lon="-5.8432167"><ele>734.5</ele><time>2026-05-03T09:40:13.963Z</time></trkpt><trkpt lat="30.3622683" lon="-5.8432233"><ele>734.0</ele><time>2026-05-03T09:40:14.975Z</time></trkpt><trkpt lat="30.3624017" lon="-5.84323"><ele>733.5</ele><time>2026-05-03T09:40:15.978Z</time></trkpt><trkpt lat="30.3625333" lon="-5.843235"><ele>733.0</ele><time>2026-05-03T09:40:16.964Z</time></trkpt><trkpt lat="30.3626667" lon="-5.84324"><ele>733.0</ele><time>2026-05-03T09:40:17.965Z</time></trkpt><trkpt lat="30.3628017" lon="-5.8432417"><ele>733.0</ele><time>2026-05-03T09:40:18.965Z</time></trkpt><trkpt lat="30.3629333" lon="-5.8432433"><ele>733.0</ele><time>2026-05-03T09:40:19.962Z</time></trkpt><trkpt lat="30.3630633" lon="-5.843245"><ele>733.0</ele><time>2026-05-03T09:40:20.966Z</time></trkpt><trkpt lat="30.36319" lon="-5.8432467"><ele>733.25</ele><time>2026-05-03T09:40:21.979Z</time></trkpt><trkpt lat="30.363315" lon="-5.8432467"><ele>733.5</ele><time>2026-05-03T09:40:22.966Z</time></trkpt><trkpt lat="30.36344" lon="-5.843245"><ele>733.75</ele><time>2026-05-03T09:40:23.96Z</time></trkpt><trkpt lat="30.3635633" lon="-5.843245"><ele>734.0</ele><time>2026-05-03T09:40:24.972Z</time></trkpt><trkpt lat="30.3636867" lon="-5.8432467"><ele>734.0</ele><time>2026-05-03T09:40:25.96Z</time></trkpt><trkpt lat="30.3638067" lon="-5.8432517"><ele>734.0</ele><time>2026-05-03T09:40:26.975Z</time></trkpt><trkpt lat="30.3639217" lon="-5.8432567"><ele>734.0</ele><time>2026-05-03T09:40:27.97Z</time></trkpt><trkpt lat="30.3640283" lon="-5.8432617"><ele>734.0</ele><time>2026-05-03T09:40:28.958Z</time></trkpt><trkpt lat="30.36413" lon="-5.843265"><ele>734.0</ele><time>2026-05-03T09:40:29.949Z</time></trkpt><trkpt lat="30.36423" lon="-5.8432667"><ele>734.0</ele><time>2026-05-03T09:40:30.975Z</time></trkpt><trkpt lat="30.364325" lon="-5.8432667"><ele>734.0</ele><time>2026-05-03T09:40:31.961Z</time></trkpt><trkpt lat="30.364415" lon="-5.84326"><ele>734.0</ele><time>2026-05-03T09:40:32.983Z</time></trkpt><trkpt lat="30.3644983" lon="-5.8432483"><ele>734.0</ele><time>2026-05-03T09:40:33.954Z</time></trkpt><trkpt lat="30.364575" lon="-5.8432317"><ele>734.0</ele><time>2026-05-03T09:40:34.962Z</time></trkpt><trkpt lat="30.3646433" lon="-5.84322"><ele>734.0</ele><time>2026-05-03T09:40:35.962Z</time></trkpt><trkpt lat="30.36474" lon="-5.84324"><ele>734.0</ele><time>2026-05-03T09:40:37.956Z</time></trkpt><trkpt lat="30.364795" lon="-5.843305"><ele>734.0</ele><time>2026-05-03T09:40:39.976Z</time></trkpt><trkpt lat="30.3648567" lon="-5.84341"><ele>734.0</ele><time>2026-05-03T09:40:41.951Z</time></trkpt><trkpt lat="30.3648967" lon="-5.8434767"><ele>734.0</ele><time>2026-05-03T09:40:42.968Z</time></trkpt><trkpt lat="30.3649417" lon="-5.8435467"><ele>734.0</ele><time>2026-05-03T09:40:43.96Z</time></trkpt><trkpt lat="30.364985" lon="-5.8436183"><ele>734.0</ele><time>2026-05-03T09:40:44.952Z</time></trkpt><trkpt lat="30.3650183" lon="-5.843695"><ele>734.2</ele><time>2026-05-03T09:40:45.961Z</time></trkpt><trkpt lat="30.3650367" lon="-5.8437833"><ele>734.4000000000001</ele><time>2026-05-03T09:40:46.953Z</time></trkpt><trkpt lat="30.3650483" lon="-5.8438933"><ele>734.6</ele><time>2026-05-03T09:40:48.012Z</time></trkpt><trkpt lat="30.3650533" lon="-5.8440233"><ele>734.8</ele><time>2026-05-03T09:40:48.969Z</time></trkpt><trkpt lat="30.365055" lon="-5.8441667"><ele>735.0</ele><time>2026-05-03T09:40:49.983Z</time></trkpt><trkpt lat="30.3650567" lon="-5.84432"><ele>735.0</ele><time>2026-05-03T09:40:50.959Z</time></trkpt><trkpt lat="30.3650567" lon="-5.8444833"><ele>735.0</ele><time>2026-05-03T09:40:51.967Z</time></trkpt><trkpt lat="30.365055" lon="-5.8446567"><ele>735.0</ele><time>2026-05-03T09:40:52.972Z</time></trkpt><trkpt lat="30.36505" lon="-5.8448333"><ele>735.0</ele><time>2026-05-03T09:40:53.962Z</time></trkpt><trkpt lat="30.3650433" lon="-5.8450233"><ele>735.3333333333334</ele><time>2026-05-03T09:40:54.964Z</time></trkpt><trkpt lat="30.365035" lon="-5.8452217"><ele>735.6666666666667</ele><time>2026-05-03T09:40:56.008Z</time></trkpt><trkpt lat="30.365025" lon="-5.8454233"><ele>736.0</ele><time>2026-05-03T09:40:56.967Z</time></trkpt><trkpt lat="30.3650167" lon="-5.84562"><ele>736.0</ele><time>2026-05-03T09:40:57.966Z</time></trkpt><trkpt lat="30.36501" lon="-5.845815"><ele>736.0</ele><time>2026-05-03T09:40:58.968Z</time></trkpt><trkpt lat="30.3650033" lon="-5.8460083"><ele>736.0</ele><time>2026-05-03T09:40:59.966Z</time></trkpt><trkpt lat="30.365" lon="-5.8462"><ele>736.3333333333334</ele><time>2026-05-03T09:41:00.982Z</time></trkpt><trkpt lat="30.3649983" lon="-5.8463933"><ele>736.6666666666666</ele><time>2026-05-03T09:41:01.977Z</time></trkpt><trkpt lat="30.3649983" lon="-5.846585"><ele>737.0</ele><time>2026-05-03T09:41:02.984Z</time></trkpt><trkpt lat="30.365" lon="-5.8467783"><ele>737.3333333333333</ele><time>2026-05-03T09:41:03.948Z</time></trkpt><trkpt lat="30.3650033" lon="-5.8469733"><ele>737.6666666666666</ele><time>2026-05-03T09:41:04.981Z</time></trkpt><trkpt lat="30.365005" lon="-5.847165"><ele>738.0</ele><time>2026-05-03T09:41:05.963Z</time></trkpt><trkpt lat="30.3650067" lon="-5.847355"><ele>738.0</ele><time>2026-05-03T09:41:06.956Z</time></trkpt><trkpt lat="30.3650067" lon="-5.8475417"><ele>738.0</ele><time>2026-05-03T09:41:07.97Z</time></trkpt><trkpt lat="30.3650083" lon="-5.847725"><ele>738.0</ele><time>2026-05-03T09:41:08.954Z</time></trkpt><trkpt lat="30.3650083" lon="-5.847895"><ele>738.25</ele><time>2026-05-03T09:41:09.974Z</time></trkpt><trkpt lat="30.3650083" lon="-5.8480567"><ele>738.5</ele><time>2026-05-03T09:41:10.96Z</time></trkpt><trkpt lat="30.3650083" lon="-5.8482167"><ele>738.75</ele><time>2026-05-03T09:41:11.956Z</time></trkpt><trkpt lat="30.3650083" lon="-5.8483733"><ele>739.0</ele><time>2026-05-03T09:41:12.967Z</time></trkpt><trkpt lat="30.3650083" lon="-5.8485283"><ele>740.25</ele><time>2026-05-03T09:41:13.964Z</time></trkpt><trkpt lat="30.3650083" lon="-5.8486817"><ele>741.5</ele><time>2026-05-03T09:41:14.992Z</time></trkpt><trkpt lat="30.3650067" lon="-5.8488333"><ele>742.75</ele><time>2026-05-03T09:41:15.957Z</time></trkpt><trkpt lat="30.365005" lon="-5.84898"><ele>744.0</ele><time>2026-05-03T09:41:16.952Z</time></trkpt><trkpt lat="30.365005" lon="-5.84912"><ele>744.0</ele><time>2026-05-03T09:41:17.983Z</time></trkpt><trkpt lat="30.3650067" lon="-5.8492533"><ele>744.0</ele><time>2026-05-03T09:41:18.984Z</time></trkpt><trkpt lat="30.3650083" lon="-5.8493817"><ele>744.0</ele><time>2026-05-03T09:41:19.963Z</time></trkpt><trkpt lat="30.3650067" lon="-5.84949"><ele>744.0</ele><time>2026-05-03T09:41:20.939Z</time></trkpt><trkpt lat="30.3649967" lon="-5.849575"><ele>744.0</ele><time>2026-05-03T09:41:21.96Z</time></trkpt><trkpt lat="30.364935" lon="-5.8496883"><ele>743.8000000000001</ele><time>2026-05-03T09:41:23.952Z</time></trkpt><trkpt lat="30.3648167" lon="-5.8497283"><ele>743.6</ele><time>2026-05-03T09:41:25.959Z</time></trkpt><trkpt lat="30.3647383" lon="-5.8497183"><ele>743.4</ele><time>2026-05-03T09:41:27.011Z</time></trkpt><trkpt lat="30.364645" lon="-5.8496817"><ele>743.2</ele><time>2026-05-03T09:41:27.968Z</time></trkpt><trkpt lat="30.3645417" lon="-5.849635"><ele>743.0</ele><time>2026-05-03T09:41:28.962Z</time></trkpt><trkpt lat="30.3644283" lon="-5.8495867"><ele>743.0</ele><time>2026-05-03T09:41:29.968Z</time></trkpt><trkpt lat="30.364305" lon="-5.849535"><ele>743.0</ele><time>2026-05-03T09:41:30.967Z</time></trkpt><trkpt lat="30.3641767" lon="-5.84948"><ele>743.0</ele><time>2026-05-03T09:41:31.971Z</time></trkpt><trkpt lat="30.36405" lon="-5.8494217"><ele>743.0</ele><time>2026-05-03T09:41:32.968Z</time></trkpt><trkpt lat="30.3639333" lon="-5.8493683"><ele>742.6666666666666</ele><time>2026-05-03T09:41:33.99Z</time></trkpt><trkpt lat="30.363845" lon="-5.8493283"><ele>742.3333333333333</ele><time>2026-05-03T09:41:34.966Z</time></trkpt><trkpt lat="30.3637817" lon="-5.8492967"><ele>742.0</ele><time>2026-05-03T09:41:35.952Z</time></trkpt><trkpt lat="30.3637233" lon="-5.8492683"><ele>741.6666666666666</ele><time>2026-05-03T09:41:37.966Z</time></trkpt><trkpt lat="30.3636483" lon="-5.8492333"><ele>741.3333333333334</ele><time>2026-05-03T09:41:39.964Z</time></trkpt><trkpt lat="30.3635817" lon="-5.8492083"><ele>741.0</ele><time>2026-05-03T09:41:40.961Z</time></trkpt><trkpt lat="30.3635033" lon="-5.849175"><ele>740.5999999999999</ele><time>2026-05-03T09:41:41.964Z</time></trkpt><trkpt lat="30.36341" lon="-5.849135"><ele>740.2</ele><time>2026-05-03T09:41:42.964Z</time></trkpt><trkpt lat="30.363315" lon="-5.849095"><ele>739.8</ele><time>2026-05-03T09:41:43.969Z</time></trkpt><trkpt lat="30.36322" lon="-5.8490567"><ele>739.4000000000001</ele><time>2026-05-03T09:41:44.955Z</time></trkpt><trkpt lat="30.3631217" lon="-5.849015"><ele>739.0</ele><time>2026-05-03T09:41:45.956Z</time></trkpt><trkpt lat="30.3630167" lon="-5.8489683"><ele>738.75</ele><time>2026-05-03T09:41:46.963Z</time></trkpt><trkpt lat="30.362905" lon="-5.8489217"><ele>738.5</ele><time>2026-05-03T09:41:47.952Z</time></trkpt><trkpt lat="30.36279" lon="-5.8488733"><ele>738.25</ele><time>2026-05-03T09:41:48.982Z</time></trkpt><trkpt lat="30.3626717" lon="-5.8488217"><ele>738.0</ele><time>2026-05-03T09:41:49.965Z</time></trkpt><trkpt lat="30.36255" lon="-5.8487667"><ele>738.0</ele><time>2026-05-03T09:41:50.966Z</time></trkpt><trkpt lat="30.3624233" lon="-5.84871"><ele>738.0</ele><time>2026-05-03T09:41:51.965Z</time></trkpt><trkpt lat="30.3622933" lon="-5.8486533"><ele>738.0</ele><time>2026-05-03T09:41:52.952Z</time></trkpt><trkpt lat="30.3621617" lon="-5.8485967"><ele>738.0</ele><time>2026-05-03T09:41:53.973Z</time></trkpt><trkpt lat="30.3620317" lon="-5.8485417"><ele>738.5</ele><time>2026-05-03T09:41:54.986Z</time></trkpt><trkpt lat="30.3619" lon="-5.848485"><ele>739.0</ele><time>2026-05-03T09:41:55.956Z</time></trkpt><trkpt lat="30.3617683" lon="-5.84843"><ele>739.5</ele><time>2026-05-03T09:41:56.95Z</time></trkpt><trkpt lat="30.3616383" lon="-5.848375"><ele>740.0</ele><time>2026-05-03T09:41:57.966Z</time></trkpt><trkpt lat="30.3615067" lon="-5.8483183"><ele>740.0</ele><time>2026-05-03T09:41:58.952Z</time></trkpt><trkpt lat="30.361375" lon="-5.84826"><ele>740.0</ele><time>2026-05-03T09:41:59.958Z</time></trkpt><trkpt lat="30.36124" lon="-5.8481967"><ele>740.0</ele><time>2026-05-03T09:42:00.987Z</time></trkpt><trkpt lat="30.3611017" lon="-5.848135"><ele>740.0</ele><time>2026-05-03T09:42:01.945Z</time></trkpt><trkpt lat="30.360825" lon="-5.8480117"><ele>739.75</ele><time>2026-05-03T09:42:03.963Z</time></trkpt><trkpt lat="30.3606867" lon="-5.8479517"><ele>739.5</ele><time>2026-05-03T09:42:04.993Z</time></trkpt><trkpt lat="30.36055" lon="-5.8478933"><ele>739.25</ele><time>2026-05-03T09:42:05.967Z</time></trkpt><trkpt lat="30.3604133" lon="-5.8478317"><ele>739.0</ele><time>2026-05-03T09:42:06.961Z</time></trkpt><trkpt lat="30.3602767" lon="-5.84777"><ele>739.0</ele><time>2026-05-03T09:42:08.11Z</time></trkpt><trkpt lat="30.360005" lon="-5.8476467"><ele>739.0</ele><time>2026-05-03T09:42:09.958Z</time></trkpt><trkpt lat="30.3598717" lon="-5.8475833"><ele>739.0</ele><time>2026-05-03T09:42:10.965Z</time></trkpt><trkpt lat="30.3597433" lon="-5.8475217"><ele>739.25</ele><time>2026-05-03T09:42:11.97Z</time></trkpt><trkpt lat="30.3596183" lon="-5.847465"><ele>739.5</ele><time>2026-05-03T09:42:12.973Z</time></trkpt><trkpt lat="30.3594917" lon="-5.8474083"><ele>739.75</ele><time>2026-05-03T09:42:13.951Z</time></trkpt><trkpt lat="30.3593617" lon="-5.8473533"><ele>740.0</ele><time>2026-05-03T09:42:14.984Z</time></trkpt><trkpt lat="30.3592317" lon="-5.8472967"><ele>740.0</ele><time>2026-05-03T09:42:15.97Z</time></trkpt><trkpt lat="30.3590983" lon="-5.8472383"><ele>740.0</ele><time>2026-05-03T09:42:16.952Z</time></trkpt><trkpt lat="30.3589617" lon="-5.84718"><ele>740.0</ele><time>2026-05-03T09:42:17.958Z</time></trkpt><trkpt lat="30.3588233" lon="-5.8471217"><ele>740.0</ele><time>2026-05-03T09:42:18.959Z</time></trkpt><trkpt lat="30.358685" lon="-5.8470633"><ele>740.25</ele><time>2026-05-03T09:42:20Z</time></trkpt><trkpt lat="30.3585517" lon="-5.847005"><ele>740.5</ele><time>2026-05-03T09:42:20.983Z</time></trkpt><trkpt lat="30.358425" lon="-5.8469483"><ele>740.75</ele><time>2026-05-03T09:42:21.972Z</time></trkpt><trkpt lat="30.3583" lon="-5.8468917"><ele>741.0</ele><time>2026-05-03T09:42:22.946Z</time></trkpt><trkpt lat="30.3581783" lon="-5.8468367"><ele>741.25</ele><time>2026-05-03T09:42:23.972Z</time></trkpt><trkpt lat="30.3580533" lon="-5.8467833"><ele>741.5</ele><time>2026-05-03T09:42:24.957Z</time></trkpt><trkpt lat="30.3579283" lon="-5.8467317"><ele>741.75</ele><time>2026-05-03T09:42:25.946Z</time></trkpt><trkpt lat="30.3578017" lon="-5.8466783"><ele>742.0</ele><time>2026-05-03T09:42:26.969Z</time></trkpt><trkpt lat="30.3576733" lon="-5.846625"><ele>741.25</ele><time>2026-05-03T09:42:27.966Z</time></trkpt><trkpt lat="30.3575417" lon="-5.84657"><ele>740.5</ele><time>2026-05-03T09:42:28.965Z</time></trkpt><trkpt lat="30.3574117" lon="-5.8465117"><ele>739.75</ele><time>2026-05-03T09:42:29.974Z</time></trkpt><trkpt lat="30.3572783" lon="-5.8464517"><ele>739.0</ele><time>2026-05-03T09:42:30.966Z</time></trkpt><trkpt lat="30.35714" lon="-5.84639"><ele>739.0</ele><time>2026-05-03T09:42:31.964Z</time></trkpt><trkpt lat="30.357" lon="-5.8463283"><ele>739.0</ele><time>2026-05-03T09:42:32.953Z</time></trkpt><trkpt lat="30.3568583" lon="-5.8462667"><ele>739.0</ele><time>2026-05-03T09:42:33.961Z</time></trkpt><trkpt lat="30.356715" lon="-5.8462033"><ele>739.0</ele><time>2026-05-03T09:42:34.972Z</time></trkpt><trkpt lat="30.3565733" lon="-5.84614"><ele>739.0</ele><time>2026-05-03T09:42:35.993Z</time></trkpt><trkpt lat="30.3564367" lon="-5.8460783"><ele>739.0</ele><time>2026-05-03T09:42:36.952Z</time></trkpt><trkpt lat="30.356305" lon="-5.8460183"><ele>739.0</ele><time>2026-05-03T09:42:37.956Z</time></trkpt><trkpt lat="30.356175" lon="-5.84596"><ele>738.5</ele><time>2026-05-03T09:42:38.962Z</time></trkpt><trkpt lat="30.3560467" lon="-5.8459033"><ele>738.0</ele><time>2026-05-03T09:42:39.958Z</time></trkpt><trkpt lat="30.3559167" lon="-5.8458467"><ele>737.5</ele><time>2026-05-03T09:42:40.975Z</time></trkpt><trkpt lat="30.3557817" lon="-5.845785"><ele>737.0</ele><time>2026-05-03T09:42:41.976Z</time></trkpt><trkpt lat="30.3556467" lon="-5.8457233"><ele>736.6666666666666</ele><time>2026-05-03T09:42:42.953Z</time></trkpt><trkpt lat="30.3555067" lon="-5.8456633"><ele>736.3333333333334</ele><time>2026-05-03T09:42:43.968Z</time></trkpt><trkpt lat="30.355365" lon="-5.8456"><ele>736.0</ele><time>2026-05-03T09:42:44.952Z</time></trkpt><trkpt lat="30.3552217" lon="-5.84554"><ele>736.0</ele><time>2026-05-03T09:42:45.967Z</time></trkpt><trkpt lat="30.3550767" lon="-5.8454767"><ele>736.0</ele><time>2026-05-03T09:42:46.977Z</time></trkpt><trkpt lat="30.3549333" lon="-5.8454133"><ele>736.0</ele><time>2026-05-03T09:42:47.974Z</time></trkpt><trkpt lat="30.3547917" lon="-5.8453483"><ele>735.5</ele><time>2026-05-03T09:42:48.959Z</time></trkpt><trkpt lat="30.3546517" lon="-5.8452833"><ele>735.0</ele><time>2026-05-03T09:42:49.952Z</time></trkpt><trkpt lat="30.3545183" lon="-5.84522"><ele>734.5</ele><time>2026-05-03T09:42:50.958Z</time></trkpt><trkpt lat="30.3543833" lon="-5.84516"><ele>734.0</ele><time>2026-05-03T09:42:51.98Z</time></trkpt><trkpt lat="30.3542483" lon="-5.8451017"><ele>735.0</ele><time>2026-05-03T09:42:52.968Z</time></trkpt><trkpt lat="30.354115" lon="-5.8450467"><ele>736.0</ele><time>2026-05-03T09:42:53.965Z</time></trkpt><trkpt lat="30.3539917" lon="-5.844995"><ele>737.0</ele><time>2026-05-03T09:42:54.954Z</time></trkpt><trkpt lat="30.3538817" lon="-5.8449483"><ele>738.0</ele><time>2026-05-03T09:42:55.947Z</time></trkpt><trkpt lat="30.3537883" lon="-5.84491"><ele>738.0</ele><time>2026-05-03T09:42:56.978Z</time></trkpt><trkpt lat="30.3537026" lon="-5.8448752"><ele>738.0</ele><time>2026-05-03T09:42:57.98Z</time></trkpt><trkpt lat="30.3536184" lon="-5.8448445"><ele>738.0</ele><time>2026-05-03T09:42:58.965Z</time></trkpt><trkpt lat="30.3535291" lon="-5.8448116"><ele>738.0</ele><time>2026-05-03T09:43:00.001Z</time></trkpt><trkpt lat="30.3534391" lon="-5.8447701"><ele>738.0</ele><time>2026-05-03T09:43:00.98Z</time></trkpt><trkpt lat="30.3533432" lon="-5.8447211"><ele>738.0</ele><time>2026-05-03T09:43:01.963Z</time></trkpt><trkpt lat="30.3532385" lon="-5.844674"><ele>738.0</ele><time>2026-05-03T09:43:02.958Z</time></trkpt><trkpt lat="30.3531301" lon="-5.8446305"><ele>738.0</ele><time>2026-05-03T09:43:03.95Z</time></trkpt><trkpt lat="30.3530227" lon="-5.8445883"><ele>738.0</ele><time>2026-05-03T09:43:04.953Z</time></trkpt><trkpt lat="30.3529171" lon="-5.8445484"><ele>737.8</ele><time>2026-05-03T09:43:05.948Z</time></trkpt><trkpt lat="30.3528175" lon="-5.8445094"><ele>737.5999999999999</ele><time>2026-05-03T09:43:06.964Z</time></trkpt><trkpt lat="30.3527231" lon="-5.8444712"><ele>737.4000000000001</ele><time>2026-05-03T09:43:07.959Z</time></trkpt><trkpt lat="30.3526288" lon="-5.8444312"><ele>737.2</ele><time>2026-05-03T09:43:08.953Z</time></trkpt><trkpt lat="30.352533" lon="-5.8443901"><ele>737.0</ele><time>2026-05-03T09:43:09.973Z</time></trkpt><trkpt lat="30.3524366" lon="-5.8443468"><ele>737.0</ele><time>2026-05-03T09:43:10.975Z</time></trkpt><trkpt lat="30.3523409" lon="-5.8443015"><ele>737.0</ele><time>2026-05-03T09:43:11.98Z</time></trkpt><trkpt lat="30.3522465" lon="-5.8442588"><ele>737.0</ele><time>2026-05-03T09:43:12.977Z</time></trkpt><trkpt lat="30.3521576" lon="-5.8442216"><ele>737.0</ele><time>2026-05-03T09:43:13.953Z</time></trkpt><trkpt lat="30.3520659" lon="-5.8441817"><ele>737.0</ele><time>2026-05-03T09:43:14.975Z</time></trkpt><trkpt lat="30.3519726" lon="-5.8441397"><ele>736.6</ele><time>2026-05-03T09:43:15.957Z</time></trkpt><trkpt lat="30.3518772" lon="-5.8440992"><ele>736.2</ele><time>2026-05-03T09:43:16.97Z</time></trkpt><trkpt lat="30.3517792" lon="-5.844059"><ele>735.8</ele><time>2026-05-03T09:43:17.956Z</time></trkpt><trkpt lat="30.3516715" lon="-5.8440177"><ele>735.4</ele><time>2026-05-03T09:43:18.972Z</time></trkpt><trkpt lat="30.3515623" lon="-5.8439729"><ele>735.0</ele><time>2026-05-03T09:43:19.964Z</time></trkpt><trkpt lat="30.3514542" lon="-5.8439266"><ele>735.25</ele><time>2026-05-03T09:43:20.97Z</time></trkpt><trkpt lat="30.3513512" lon="-5.8438747"><ele>735.5</ele><time>2026-05-03T09:43:21.964Z</time></trkpt><trkpt lat="30.3512453" lon="-5.843819"><ele>735.75</ele><time>2026-05-03T09:43:22.965Z</time></trkpt><trkpt lat="30.3511309" lon="-5.8437644"><ele>736.0</ele><time>2026-05-03T09:43:23.961Z</time></trkpt><trkpt lat="30.3510072" lon="-5.8437147"><ele>736.0</ele><time>2026-05-03T09:43:24.955Z</time></trkpt><trkpt lat="30.3508728" lon="-5.8436716"><ele>736.0</ele><time>2026-05-03T09:43:25.973Z</time></trkpt><trkpt lat="30.3507355" lon="-5.8436241"><ele>736.0</ele><time>2026-05-03T09:43:26.979Z</time></trkpt><trkpt lat="30.3506007" lon="-5.8435703"><ele>736.0</ele><time>2026-05-03T09:43:27.949Z</time></trkpt><trkpt lat="30.3504625" lon="-5.843508"><ele>736.0</ele><time>2026-05-03T09:43:28.963Z</time></trkpt><trkpt lat="30.3503237" lon="-5.843448"><ele>736.0</ele><time>2026-05-03T09:43:29.969Z</time></trkpt><trkpt lat="30.3501853" lon="-5.8433935"><ele>736.0</ele><time>2026-05-03T09:43:30.962Z</time></trkpt><trkpt lat="30.3500503" lon="-5.843346"><ele>736.0</ele><time>2026-05-03T09:43:31.959Z</time></trkpt><trkpt lat="30.3499196" lon="-5.8432997"><ele>736.0</ele><time>2026-05-03T09:43:32.967Z</time></trkpt><trkpt lat="30.3497948" lon="-5.8432459"><ele>736.0</ele><time>2026-05-03T09:43:34.023Z</time></trkpt><trkpt lat="30.3496754" lon="-5.8431968"><ele>736.0</ele><time>2026-05-03T09:43:34.964Z</time></trkpt><trkpt lat="30.3495461" lon="-5.8431453"><ele>736.0</ele><time>2026-05-03T09:43:35.966Z</time></trkpt><trkpt lat="30.3494155" lon="-5.8430915"><ele>735.5</ele><time>2026-05-03T09:43:36.953Z</time></trkpt><trkpt lat="30.349283" lon="-5.8430369"><ele>735.0</ele><time>2026-05-03T09:43:37.953Z</time></trkpt><trkpt lat="30.3491568" lon="-5.8429874"><ele>734.5</ele><time>2026-05-03T09:43:38.948Z</time></trkpt><trkpt lat="30.3490425" lon="-5.8429398"><ele>734.0</ele><time>2026-05-03T09:43:39.967Z</time></trkpt><trkpt lat="30.3489316" lon="-5.8428981"><ele>734.0</ele><time>2026-05-03T09:43:40.963Z</time></trkpt><trkpt lat="30.3488159" lon="-5.8428566"><ele>734.0</ele><time>2026-05-03T09:43:41.958Z</time></trkpt><trkpt lat="30.3486941" lon="-5.842813"><ele>734.0</ele><time>2026-05-03T09:43:42.979Z</time></trkpt><trkpt lat="30.3485687" lon="-5.8427618"><ele>734.0</ele><time>2026-05-03T09:43:43.973Z</time></trkpt><trkpt lat="30.3484381" lon="-5.8427093"><ele>734.0</ele><time>2026-05-03T09:43:44.948Z</time></trkpt><trkpt lat="30.3483043" lon="-5.8426573"><ele>734.0</ele><time>2026-05-03T09:43:45.968Z</time></trkpt><trkpt lat="30.3481688" lon="-5.8426134"><ele>734.0</ele><time>2026-05-03T09:43:46.964Z</time></trkpt><trkpt lat="30.348032" lon="-5.8425757"><ele>734.0</ele><time>2026-05-03T09:43:47.96Z</time></trkpt><trkpt lat="30.3478909" lon="-5.842539"><ele>734.0</ele><time>2026-05-03T09:43:48.97Z</time></trkpt><trkpt lat="30.3477524" lon="-5.8424995"><ele>734.0</ele><time>2026-05-03T09:43:49.961Z</time></trkpt><trkpt lat="30.347617" lon="-5.8424604"><ele>734.0</ele><time>2026-05-03T09:43:50.958Z</time></trkpt><trkpt lat="30.3474859" lon="-5.8424265"><ele>734.0</ele><time>2026-05-03T09:43:51.968Z</time></trkpt><trkpt lat="30.347357" lon="-5.842394"><ele>734.0</ele><time>2026-05-03T09:43:52.959Z</time></trkpt><trkpt lat="30.3472262" lon="-5.842362"><ele>734.0</ele><time>2026-05-03T09:43:53.981Z</time></trkpt><trkpt lat="30.3470989" lon="-5.8423338"><ele>734.0</ele><time>2026-05-03T09:43:54.958Z</time></trkpt><trkpt lat="30.3469677" lon="-5.8423048"><ele>734.0</ele><time>2026-05-03T09:43:55.953Z</time></trkpt><trkpt lat="30.3468341" lon="-5.8422736"><ele>734.25</ele><time>2026-05-03T09:43:57.019Z</time></trkpt><trkpt lat="30.3467088" lon="-5.8422438"><ele>734.5</ele><time>2026-05-03T09:43:57.955Z</time></trkpt><trkpt lat="30.346579" lon="-5.8422121"><ele>734.75</ele><time>2026-05-03T09:43:58.961Z</time></trkpt><trkpt lat="30.3464479" lon="-5.8421778"><ele>735.0</ele><time>2026-05-03T09:43:59.993Z</time></trkpt><trkpt lat="30.3463203" lon="-5.8421438"><ele>734.25</ele><time>2026-05-03T09:44:00.972Z</time></trkpt><trkpt lat="30.3461925" lon="-5.8421111"><ele>733.5</ele><time>2026-05-03T09:44:01.953Z</time></trkpt><trkpt lat="30.346069" lon="-5.8420815"><ele>732.75</ele><time>2026-05-03T09:44:02.963Z</time></trkpt><trkpt lat="30.3459493" lon="-5.8420539"><ele>732.0</ele><time>2026-05-03T09:44:03.974Z</time></trkpt><trkpt lat="30.3458349" lon="-5.8420286"><ele>732.0</ele><time>2026-05-03T09:44:04.953Z</time></trkpt><trkpt lat="30.3457238" lon="-5.8420036"><ele>732.0</ele><time>2026-05-03T09:44:05.955Z</time></trkpt><trkpt lat="30.345623" lon="-5.8419846"><ele>732.0</ele><time>2026-05-03T09:44:06.963Z</time></trkpt><trkpt lat="30.3455238" lon="-5.8419645"><ele>732.0</ele><time>2026-05-03T09:44:07.977Z</time></trkpt><trkpt lat="30.3454245" lon="-5.8419394"><ele>732.0</ele><time>2026-05-03T09:44:08.981Z</time></trkpt><trkpt lat="30.3453213" lon="-5.8419155"><ele>731.6</ele><time>2026-05-03T09:44:09.975Z</time></trkpt><trkpt lat="30.3452121" lon="-5.8418934"><ele>731.2</ele><time>2026-05-03T09:44:10.951Z</time></trkpt><trkpt lat="30.3451025" lon="-5.8418745"><ele>730.8</ele><time>2026-05-03T09:44:11.963Z</time></trkpt><trkpt lat="30.3449994" lon="-5.8418543"><ele>730.4</ele><time>2026-05-03T09:44:12.949Z</time></trkpt><trkpt lat="30.3448979" lon="-5.8418339"><ele>730.0</ele><time>2026-05-03T09:44:13.954Z</time></trkpt><trkpt lat="30.3447987" lon="-5.8418138"><ele>730.6</ele><time>2026-05-03T09:44:14.98Z</time></trkpt><trkpt lat="30.3446986" lon="-5.8417926"><ele>731.2</ele><time>2026-05-03T09:44:15.978Z</time></trkpt><trkpt lat="30.3445965" lon="-5.8417657"><ele>731.8</ele><time>2026-05-03T09:44:16.996Z</time></trkpt><trkpt lat="30.3444975" lon="-5.8417353"><ele>732.4</ele><time>2026-05-03T09:44:17.958Z</time></trkpt><trkpt lat="30.3443988" lon="-5.8417021"><ele>733.0</ele><time>2026-05-03T09:44:18.962Z</time></trkpt><trkpt lat="30.3443008" lon="-5.8416776"><ele>733.0</ele><time>2026-05-03T09:44:19.96Z</time></trkpt><trkpt lat="30.3442001" lon="-5.8416592"><ele>733.0</ele><time>2026-05-03T09:44:20.971Z</time></trkpt><trkpt lat="30.3441029" lon="-5.8416449"><ele>733.0</ele><time>2026-05-03T09:44:21.977Z</time></trkpt><trkpt lat="30.3440153" lon="-5.8416366"><ele>733.0</ele><time>2026-05-03T09:44:22.965Z</time></trkpt><trkpt lat="30.3439306" lon="-5.8416282"><ele>733.0</ele><time>2026-05-03T09:44:23.968Z</time></trkpt><trkpt lat="30.3438445" lon="-5.8416116"><ele>732.4</ele><time>2026-05-03T09:44:24.954Z</time></trkpt><trkpt lat="30.3437494" lon="-5.8415854"><ele>731.8</ele><time>2026-05-03T09:44:25.963Z</time></trkpt><trkpt lat="30.3436474" lon="-5.8415568"><ele>731.2</ele><time>2026-05-03T09:44:26.986Z</time></trkpt><trkpt lat="30.3435461" lon="-5.8415291"><ele>730.6</ele><time>2026-05-03T09:44:27.96Z</time></trkpt><trkpt lat="30.3434398" lon="-5.8415039"><ele>730.0</ele><time>2026-05-03T09:44:28.958Z</time></trkpt><trkpt lat="30.3433317" lon="-5.8414781"><ele>730.0</ele><time>2026-05-03T09:44:29.988Z</time></trkpt><trkpt lat="30.343222" lon="-5.8414556"><ele>730.0</ele><time>2026-05-03T09:44:30.982Z</time></trkpt><trkpt lat="30.3431104" lon="-5.8414354"><ele>730.0</ele><time>2026-05-03T09:44:31.966Z</time></trkpt><trkpt lat="30.3429968" lon="-5.8414126"><ele>730.0</ele><time>2026-05-03T09:44:32.954Z</time></trkpt><trkpt lat="30.3428827" lon="-5.8413856"><ele>730.25</ele><time>2026-05-03T09:44:33.965Z</time></trkpt><trkpt lat="30.3427701" lon="-5.8413564"><ele>730.5</ele><time>2026-05-03T09:44:34.953Z</time></trkpt><trkpt lat="30.3426603" lon="-5.8413251"><ele>730.75</ele><time>2026-05-03T09:44:35.96Z</time></trkpt><trkpt lat="30.3425523" lon="-5.8412966"><ele>731.0</ele><time>2026-05-03T09:44:36.981Z</time></trkpt><trkpt lat="30.3424436" lon="-5.8412744"><ele>731.0</ele><time>2026-05-03T09:44:37.948Z</time></trkpt><trkpt lat="30.3423357" lon="-5.8412547"><ele>731.0</ele><time>2026-05-03T09:44:38.947Z</time></trkpt><trkpt lat="30.3422326" lon="-5.8412315"><ele>731.0</ele><time>2026-05-03T09:44:39.962Z</time></trkpt><trkpt lat="30.3421396" lon="-5.841211"><ele>731.0</ele><time>2026-05-03T09:44:40.955Z</time></trkpt><trkpt lat="30.3420515" lon="-5.8411879"><ele>731.0</ele><time>2026-05-03T09:44:41.973Z</time></trkpt><trkpt lat="30.341974" lon="-5.8411628"><ele>731.1999999999999</ele><time>2026-05-03T09:44:42.968Z</time></trkpt><trkpt lat="30.3418973" lon="-5.8411368"><ele>731.4</ele><time>2026-05-03T09:44:43.954Z</time></trkpt><trkpt lat="30.3418169" lon="-5.8411038"><ele>731.6</ele><time>2026-05-03T09:44:44.962Z</time></trkpt><trkpt lat="30.3417424" lon="-5.8410526"><ele>731.8</ele><time>2026-05-03T09:44:45.979Z</time></trkpt><trkpt lat="30.3416648" lon="-5.8409837"><ele>732.0</ele><time>2026-05-03T09:44:46.957Z</time></trkpt><trkpt lat="30.3415861" lon="-5.8409099"><ele>732.0</ele><time>2026-05-03T09:44:47.958Z</time></trkpt><trkpt lat="30.3415092" lon="-5.840834"><ele>732.0</ele><time>2026-05-03T09:44:48.96Z</time></trkpt><trkpt lat="30.3414384" lon="-5.8407648"><ele>732.0</ele><time>2026-05-03T09:44:49.963Z</time></trkpt><trkpt lat="30.3413737" lon="-5.8407034"><ele>732.0</ele><time>2026-05-03T09:44:50.959Z</time></trkpt><trkpt lat="30.3413096" lon="-5.8406463"><ele>732.0</ele><time>2026-05-03T09:44:51.959Z</time></trkpt><trkpt lat="30.3412451" lon="-5.8405858"><ele>732.0</ele><time>2026-05-03T09:44:52.974Z</time></trkpt><trkpt lat="30.3411791" lon="-5.8405156"><ele>731.6</ele><time>2026-05-03T09:44:53.958Z</time></trkpt><trkpt lat="30.3411055" lon="-5.840446"><ele>731.2</ele><time>2026-05-03T09:44:54.956Z</time></trkpt><trkpt lat="30.341029" lon="-5.8403769"><ele>730.8</ele><time>2026-05-03T09:44:55.954Z</time></trkpt><trkpt lat="30.3409529" lon="-5.8403065"><ele>730.4</ele><time>2026-05-03T09:44:56.97Z</time></trkpt><trkpt lat="30.3408806" lon="-5.8402381"><ele>730.0</ele><time>2026-05-03T09:44:57.955Z</time></trkpt><trkpt lat="30.3408074" lon="-5.840172"><ele>729.6</ele><time>2026-05-03T09:44:58.958Z</time></trkpt><trkpt lat="30.3407336" lon="-5.8401056"><ele>729.2</ele><time>2026-05-03T09:44:59.968Z</time></trkpt><trkpt lat="30.3406601" lon="-5.8400394"><ele>728.8</ele><time>2026-05-03T09:45:00.97Z</time></trkpt><trkpt lat="30.3405856" lon="-5.8399767"><ele>728.4</ele><time>2026-05-03T09:45:01.962Z</time></trkpt><trkpt lat="30.3405107" lon="-5.8399151"><ele>728.0</ele><time>2026-05-03T09:45:02.95Z</time></trkpt><trkpt lat="30.340436" lon="-5.8398573"><ele>728.6666666666666</ele><time>2026-05-03T09:45:03.979Z</time></trkpt><trkpt lat="30.3403619" lon="-5.8398091"><ele>729.3333333333333</ele><time>2026-05-03T09:45:04.963Z</time></trkpt><trkpt lat="30.3402867" lon="-5.8397765"><ele>730.0</ele><time>2026-05-03T09:45:05.953Z</time></trkpt><trkpt lat="30.3402131" lon="-5.8397534"><ele>730.6666666666666</ele><time>2026-05-03T09:45:06.96Z</time></trkpt><trkpt lat="30.3401483" lon="-5.8397389"><ele>731.3333333333334</ele><time>2026-05-03T09:45:07.964Z</time></trkpt><trkpt lat="30.3400243" lon="-5.839722"><ele>732.0</ele><time>2026-05-03T09:45:09.972Z</time></trkpt><trkpt lat="30.3399575" lon="-5.8397193"><ele>732.0</ele><time>2026-05-03T09:45:10.958Z</time></trkpt><trkpt lat="30.3398833" lon="-5.8397185"><ele>732.0</ele><time>2026-05-03T09:45:11.962Z</time></trkpt><trkpt lat="30.3398037" lon="-5.8397162"><ele>732.0</ele><time>2026-05-03T09:45:12.954Z</time></trkpt><trkpt lat="30.3397196" lon="-5.8397142"><ele>732.0</ele><time>2026-05-03T09:45:13.962Z</time></trkpt><trkpt lat="30.3396341" lon="-5.8397126"><ele>732.0</ele><time>2026-05-03T09:45:14.971Z</time></trkpt><trkpt lat="30.3395494" lon="-5.8397101"><ele>732.0</ele><time>2026-05-03T09:45:15.952Z</time></trkpt><trkpt lat="30.3394667" lon="-5.8397079"><ele>732.6666666666666</ele><time>2026-05-03T09:45:16.956Z</time></trkpt><trkpt lat="30.3393849" lon="-5.8397025"><ele>733.3333333333334</ele><time>2026-05-03T09:45:17.961Z</time></trkpt><trkpt lat="30.3393017" lon="-5.8396998"><ele>734.0</ele><time>2026-05-03T09:45:18.963Z</time></trkpt><trkpt lat="30.339213" lon="-5.8396941"><ele>734.6666666666667</ele><time>2026-05-03T09:45:19.96Z</time></trkpt><trkpt lat="30.3391195" lon="-5.8396889"><ele>735.3333333333334</ele><time>2026-05-03T09:45:20.976Z</time></trkpt><trkpt lat="30.3390281" lon="-5.8396826"><ele>736.0</ele><time>2026-05-03T09:45:21.952Z</time></trkpt><trkpt lat="30.3389371" lon="-5.839673"><ele>736.6666666666667</ele><time>2026-05-03T09:45:22.963Z</time></trkpt><trkpt lat="30.3388474" lon="-5.8396616"><ele>737.3333333333334</ele><time>2026-05-03T09:45:23.962Z</time></trkpt><trkpt lat="30.3387626" lon="-5.8396548"><ele>738.0</ele><time>2026-05-03T09:45:24.965Z</time></trkpt><trkpt lat="30.3386807" lon="-5.8396467"><ele>738.6666666666666</ele><time>2026-05-03T09:45:25.96Z</time></trkpt><trkpt lat="30.3386027" lon="-5.8396407"><ele>739.3333333333333</ele><time>2026-05-03T09:45:26.964Z</time></trkpt><trkpt lat="30.3385367" lon="-5.8396356"><ele>740.0</ele><time>2026-05-03T09:45:27.951Z</time></trkpt><trkpt lat="30.3384726" lon="-5.839613"><ele>740.0</ele><time>2026-05-03T09:45:30.955Z</time></trkpt><trkpt lat="30.3383974" lon="-5.8396057"><ele>740.0</ele><time>2026-05-03T09:45:35.964Z</time></trkpt><trkpt lat="30.3383146" lon="-5.8395882"><ele>740.0</ele><time>2026-05-03T09:45:37.979Z</time></trkpt><trkpt lat="30.3382498" lon="-5.8395855"><ele>740.0</ele><time>2026-05-03T09:45:38.966Z</time></trkpt><trkpt lat="30.3381726" lon="-5.8395855"><ele>740.0</ele><time>2026-05-03T09:45:39.959Z</time></trkpt><trkpt lat="30.3380871" lon="-5.8395846"><ele>740.0</ele><time>2026-05-03T09:45:40.972Z</time></trkpt><trkpt lat="30.3379976" lon="-5.839583"><ele>740.4</ele><time>2026-05-03T09:45:41.975Z</time></trkpt><trkpt lat="30.337905" lon="-5.8395775"><ele>740.8</ele><time>2026-05-03T09:45:42.972Z</time></trkpt><trkpt lat="30.3378118" lon="-5.8395735"><ele>741.2</ele><time>2026-05-03T09:45:43.972Z</time></trkpt><trkpt lat="30.3377087" lon="-5.839565"><ele>741.6</ele><time>2026-05-03T09:45:44.973Z</time></trkpt><trkpt lat="30.3376058" lon="-5.8395586"><ele>742.0</ele><time>2026-05-03T09:45:45.975Z</time></trkpt><trkpt lat="30.3375053" lon="-5.839553"><ele>742.0</ele><time>2026-05-03T09:45:46.949Z</time></trkpt><trkpt lat="30.3374062" lon="-5.8395504"><ele>742.0</ele><time>2026-05-03T09:45:47.967Z</time></trkpt><trkpt lat="30.3373057" lon="-5.8395509"><ele>742.0</ele><time>2026-05-03T09:45:48.964Z</time></trkpt><trkpt lat="30.3372063" lon="-5.8395462"><ele>742.0</ele><time>2026-05-03T09:45:49.963Z</time></trkpt><trkpt lat="30.3371074" lon="-5.8395465"><ele>742.0</ele><time>2026-05-03T09:45:50.96Z</time></trkpt><trkpt lat="30.3370127" lon="-5.8395498"><ele>741.8333333333334</ele><time>2026-05-03T09:45:51.962Z</time></trkpt><trkpt lat="30.3369195" lon="-5.8395547"><ele>741.6666666666667</ele><time>2026-05-03T09:45:52.956Z</time></trkpt><trkpt lat="30.3368301" lon="-5.8395614"><ele>741.5</ele><time>2026-05-03T09:45:53.97Z</time></trkpt><trkpt lat="30.3367435" lon="-5.8395647"><ele>741.3333333333334</ele><time>2026-05-03T09:45:54.97Z</time></trkpt><trkpt lat="30.3366557" lon="-5.8395643"><ele>741.1666666666666</ele><time>2026-05-03T09:45:55.977Z</time></trkpt><trkpt lat="30.336564" lon="-5.839568"><ele>741.0</ele><time>2026-05-03T09:45:56.952Z</time></trkpt><trkpt lat="30.336471" lon="-5.8395822"><ele>740.3333333333334</ele><time>2026-05-03T09:45:57.96Z</time></trkpt><trkpt lat="30.3363787" lon="-5.8396084"><ele>739.6666666666666</ele><time>2026-05-03T09:45:58.965Z</time></trkpt><trkpt lat="30.3362899" lon="-5.8396327"><ele>739.0</ele><time>2026-05-03T09:45:59.974Z</time></trkpt><trkpt lat="30.3362116" lon="-5.8396571"><ele>738.3333333333333</ele><time>2026-05-03T09:46:00.983Z</time></trkpt><trkpt lat="30.3361391" lon="-5.8396782"><ele>737.6666666666666</ele><time>2026-05-03T09:46:01.966Z</time></trkpt><trkpt lat="30.3360715" lon="-5.8396971"><ele>737.0</ele><time>2026-05-03T09:46:02.966Z</time></trkpt><trkpt lat="30.3359998" lon="-5.8397155"><ele>737.0</ele><time>2026-05-03T09:46:03.973Z</time></trkpt><trkpt lat="30.335921" lon="-5.8397424"><ele>737.0</ele><time>2026-05-03T09:46:04.954Z</time></trkpt><trkpt lat="30.3358378" lon="-5.8397722"><ele>737.0</ele><time>2026-05-03T09:46:05.961Z</time></trkpt><trkpt lat="30.3357516" lon="-5.8398"><ele>737.0</ele><time>2026-05-03T09:46:06.955Z</time></trkpt><trkpt lat="30.335657" lon="-5.8398276"><ele>737.0</ele><time>2026-05-03T09:46:07.988Z</time></trkpt><trkpt lat="30.3355598" lon="-5.8398531"><ele>736.0</ele><time>2026-05-03T09:46:08.972Z</time></trkpt><trkpt lat="30.3354576" lon="-5.839877"><ele>735.0</ele><time>2026-05-03T09:46:09.98Z</time></trkpt><trkpt lat="30.335353" lon="-5.8398965"><ele>734.0</ele><time>2026-05-03T09:46:10.96Z</time></trkpt><trkpt lat="30.3352439" lon="-5.8399218"><ele>733.0</ele><time>2026-05-03T09:46:11.967Z</time></trkpt><trkpt lat="30.3351341" lon="-5.8399574"><ele>732.0</ele><time>2026-05-03T09:46:12.951Z</time></trkpt><trkpt lat="30.3350208" lon="-5.8399978"><ele>732.0</ele><time>2026-05-03T09:46:13.977Z</time></trkpt><trkpt lat="30.3349034" lon="-5.8400379"><ele>732.0</ele><time>2026-05-03T09:46:14.968Z</time></trkpt><trkpt lat="30.334786" lon="-5.8400788"><ele>732.0</ele><time>2026-05-03T09:46:15.97Z</time></trkpt><trkpt lat="30.3346687" lon="-5.8401192"><ele>732.0</ele><time>2026-05-03T09:46:16.971Z</time></trkpt><trkpt lat="30.3345509" lon="-5.8401604"><ele>733.5</ele><time>2026-05-03T09:46:17.956Z</time></trkpt><trkpt lat="30.3344307" lon="-5.8402002"><ele>735.0</ele><time>2026-05-03T09:46:18.956Z</time></trkpt><trkpt lat="30.3343132" lon="-5.8402365"><ele>736.5</ele><time>2026-05-03T09:46:19.953Z</time></trkpt><trkpt lat="30.3341966" lon="-5.8402747"><ele>738.0</ele><time>2026-05-03T09:46:20.954Z</time></trkpt><trkpt lat="30.3340817" lon="-5.8403138"><ele>738.0</ele><time>2026-05-03T09:46:21.964Z</time></trkpt><trkpt lat="30.3339673" lon="-5.8403533"><ele>738.0</ele><time>2026-05-03T09:46:22.96Z</time></trkpt><trkpt lat="30.3338534" lon="-5.8403893"><ele>738.0</ele><time>2026-05-03T09:46:23.975Z</time></trkpt><trkpt lat="30.3337472" lon="-5.8404226"><ele>738.0</ele><time>2026-05-03T09:46:24.952Z</time></trkpt><trkpt lat="30.333645" lon="-5.8404537"><ele>736.0</ele><time>2026-05-03T09:46:25.959Z</time></trkpt><trkpt lat="30.3335459" lon="-5.84048"><ele>734.0</ele><time>2026-05-03T09:46:26.951Z</time></trkpt><trkpt lat="30.3334416" lon="-5.8405142"><ele>732.0</ele><time>2026-05-03T09:46:27.962Z</time></trkpt><trkpt lat="30.3333338" lon="-5.8405539"><ele>730.0</ele><time>2026-05-03T09:46:28.966Z</time></trkpt><trkpt lat="30.333225" lon="-5.8405984"><ele>728.0</ele><time>2026-05-03T09:46:29.96Z</time></trkpt><trkpt lat="30.3331113" lon="-5.8406406"><ele>727.75</ele><time>2026-05-03T09:46:30.957Z</time></trkpt><trkpt lat="30.3329964" lon="-5.8406832"><ele>727.5</ele><time>2026-05-03T09:46:31.953Z</time></trkpt><trkpt lat="30.3328807" lon="-5.84073"><ele>727.25</ele><time>2026-05-03T09:46:32.952Z</time></trkpt><trkpt lat="30.332764" lon="-5.8407769"><ele>727.0</ele><time>2026-05-03T09:46:33.962Z</time></trkpt><trkpt lat="30.3326493" lon="-5.8408258"><ele>727.0</ele><time>2026-05-03T09:46:34.956Z</time></trkpt><trkpt lat="30.3325345" lon="-5.8408748"><ele>727.0</ele><time>2026-05-03T09:46:35.972Z</time></trkpt><trkpt lat="30.332425" lon="-5.8409213"><ele>727.0</ele><time>2026-05-03T09:46:36.97Z</time></trkpt><trkpt lat="30.3322112" lon="-5.8409985"><ele>726.5</ele><time>2026-05-03T09:46:38.956Z</time></trkpt><trkpt lat="30.3321006" lon="-5.8410359"><ele>726.0</ele><time>2026-05-03T09:46:39.975Z</time></trkpt><trkpt lat="30.3319898" lon="-5.8410808"><ele>725.5</ele><time>2026-05-03T09:46:40.964Z</time></trkpt><trkpt lat="30.3318783" lon="-5.8411323"><ele>725.0</ele><time>2026-05-03T09:46:41.961Z</time></trkpt><trkpt lat="30.3317716" lon="-5.8411847"><ele>725.0</ele><time>2026-05-03T09:46:42.973Z</time></trkpt><trkpt lat="30.3316816" lon="-5.8412301"><ele>725.0</ele><time>2026-05-03T09:46:43.966Z</time></trkpt><trkpt lat="30.3316034" lon="-5.841266"><ele>725.0</ele><time>2026-05-03T09:46:44.975Z</time></trkpt><trkpt lat="30.3315395" lon="-5.8412953"><ele>725.0</ele><time>2026-05-03T09:46:45.96Z</time></trkpt><trkpt lat="30.3314787" lon="-5.841322"><ele>725.0</ele><time>2026-05-03T09:46:46.944Z</time></trkpt><trkpt lat="30.3314172" lon="-5.8413469"><ele>725.0</ele><time>2026-05-03T09:46:47.963Z</time></trkpt><trkpt lat="30.331353" lon="-5.8413746"><ele>724.8571428571429</ele><time>2026-05-03T09:46:48.965Z</time></trkpt><trkpt lat="30.3312853" lon="-5.8414014"><ele>724.7142857142858</ele><time>2026-05-03T09:46:49.951Z</time></trkpt><trkpt lat="30.3312166" lon="-5.8414252"><ele>724.5714285714286</ele><time>2026-05-03T09:46:50.958Z</time></trkpt><trkpt lat="30.3311512" lon="-5.8414499"><ele>724.4285714285714</ele><time>2026-05-03T09:46:51.956Z</time></trkpt><trkpt lat="30.3310862" lon="-5.8414766"><ele>724.2857142857142</ele><time>2026-05-03T09:46:52.97Z</time></trkpt><trkpt lat="30.3310201" lon="-5.8415031"><ele>724.1428571428571</ele><time>2026-05-03T09:46:53.954Z</time></trkpt><trkpt lat="30.330951" lon="-5.8415313"><ele>724.0</ele><time>2026-05-03T09:46:54.981Z</time></trkpt><trkpt lat="30.3308809" lon="-5.8415607"><ele>724.0</ele><time>2026-05-03T09:46:55.95Z</time></trkpt><trkpt lat="30.3308129" lon="-5.8415914"><ele>724.0</ele><time>2026-05-03T09:46:56.96Z</time></trkpt><trkpt lat="30.3307465" lon="-5.8416201"><ele>724.0</ele><time>2026-05-03T09:46:57.969Z</time></trkpt><trkpt lat="30.3306798" lon="-5.8416453"><ele>724.0</ele><time>2026-05-03T09:46:58.975Z</time></trkpt><trkpt lat="30.3306124" lon="-5.8416681"><ele>724.0</ele><time>2026-05-03T09:46:59.956Z</time></trkpt><trkpt lat="30.3305447" lon="-5.8416931"><ele>724.0</ele><time>2026-05-03T09:47:00.974Z</time></trkpt><trkpt lat="30.3304743" lon="-5.841722"><ele>724.0</ele><time>2026-05-03T09:47:01.958Z</time></trkpt><trkpt lat="30.330402" lon="-5.8417513"><ele>724.0</ele><time>2026-05-03T09:47:02.969Z</time></trkpt><trkpt lat="30.3303304" lon="-5.8417798"><ele>724.0</ele><time>2026-05-03T09:47:03.962Z</time></trkpt><trkpt lat="30.3302611" lon="-5.8418079"><ele>724.0</ele><time>2026-05-03T09:47:04.975Z</time></trkpt><trkpt lat="30.3301939" lon="-5.8418346"><ele>724.0</ele><time>2026-05-03T09:47:05.944Z</time></trkpt><trkpt lat="30.3301267" lon="-5.8418601"><ele>724.0</ele><time>2026-05-03T09:47:06.95Z</time></trkpt><trkpt lat="30.330057" lon="-5.8418868"><ele>724.0</ele><time>2026-05-03T09:47:07.958Z</time></trkpt><trkpt lat="30.3299865" lon="-5.8419135"><ele>724.0</ele><time>2026-05-03T09:47:08.963Z</time></trkpt><trkpt lat="30.3299176" lon="-5.8419391"><ele>724.0</ele><time>2026-05-03T09:47:09.975Z</time></trkpt><trkpt lat="30.3298527" lon="-5.8419636"><ele>724.0</ele><time>2026-05-03T09:47:10.96Z</time></trkpt><trkpt lat="30.3297862" lon="-5.8419885"><ele>724.0</ele><time>2026-05-03T09:47:11.978Z</time></trkpt><trkpt lat="30.3297201" lon="-5.8420147"><ele>724.0</ele><time>2026-05-03T09:47:12.972Z</time></trkpt><trkpt lat="30.3296528" lon="-5.8420454"><ele>724.0</ele><time>2026-05-03T09:47:13.949Z</time></trkpt><trkpt lat="30.3295868" lon="-5.8420766"><ele>724.0</ele><time>2026-05-03T09:47:14.964Z</time></trkpt><trkpt lat="30.3295249" lon="-5.8421035"><ele>724.0</ele><time>2026-05-03T09:47:15.951Z</time></trkpt><trkpt lat="30.3294629" lon="-5.8421284"><ele>723.5</ele><time>2026-05-03T09:47:16.969Z</time></trkpt><trkpt lat="30.3294014" lon="-5.8421558"><ele>723.0</ele><time>2026-05-03T09:47:17.976Z</time></trkpt><trkpt lat="30.3293431" lon="-5.8421852"><ele>722.5</ele><time>2026-05-03T09:47:18.949Z</time></trkpt><trkpt lat="30.3292846" lon="-5.8422127"><ele>722.0</ele><time>2026-05-03T09:47:19.953Z</time></trkpt><trkpt lat="30.329167" lon="-5.8422629"><ele>721.5</ele><time>2026-05-03T09:47:21.96Z</time></trkpt><trkpt lat="30.3290538" lon="-5.8423172"><ele>721.0</ele><time>2026-05-03T09:47:23.987Z</time></trkpt><trkpt lat="30.3289451" lon="-5.8423877"><ele>721.6666666666667</ele><time>2026-05-03T09:47:25.946Z</time></trkpt><trkpt lat="30.3288878" lon="-5.8424327"><ele>722.3333333333334</ele><time>2026-05-03T09:47:26.962Z</time></trkpt><trkpt lat="30.3288298" lon="-5.8424786"><ele>723.0</ele><time>2026-05-03T09:47:27.958Z</time></trkpt><trkpt lat="30.3287748" lon="-5.842521"><ele>723.6666666666666</ele><time>2026-05-03T09:47:28.96Z</time></trkpt><trkpt lat="30.32867" lon="-5.8425694"><ele>724.3333333333333</ele><time>2026-05-03T09:47:30.95Z</time></trkpt><trkpt lat="30.328572" lon="-5.8425927"><ele>725.0</ele><time>2026-05-03T09:47:32.957Z</time></trkpt><trkpt lat="30.3284927" lon="-5.8426162"><ele>725.0</ele><time>2026-05-03T09:47:34.985Z</time></trkpt><trkpt lat="30.328418" lon="-5.8426407"><ele>725.0</ele><time>2026-05-03T09:47:37.039Z</time></trkpt><trkpt lat="30.3283247" lon="-5.8426745"><ele>725.0</ele><time>2026-05-03T09:47:38.947Z</time></trkpt><trkpt lat="30.3282232" lon="-5.8427048"><ele>725.0</ele><time>2026-05-03T09:47:40.95Z</time></trkpt><trkpt lat="30.3281152" lon="-5.8427378"><ele>725.0</ele><time>2026-05-03T09:47:42.964Z</time></trkpt><trkpt lat="30.3279936" lon="-5.842773"><ele>725.0</ele><time>2026-05-03T09:47:44.973Z</time></trkpt><trkpt lat="30.3278782" lon="-5.8428005"><ele>725.0</ele><time>2026-05-03T09:47:46.959Z</time></trkpt><trkpt lat="30.3278084" lon="-5.8427893"><ele>725.0</ele><time>2026-05-03T09:47:48.964Z</time></trkpt><trkpt lat="30.3278617" lon="-5.8427341"><ele>725.0</ele><time>2026-05-03T09:47:51.964Z</time></trkpt><trkpt lat="30.3279522" lon="-5.8427074"><ele>725.0</ele><time>2026-05-03T09:47:53.983Z</time></trkpt><trkpt lat="30.3280814" lon="-5.8426718"><ele>725.0</ele><time>2026-05-03T09:47:55.962Z</time></trkpt><trkpt lat="30.3281539" lon="-5.8426529"><ele>725.0</ele><time>2026-05-03T09:47:56.955Z</time></trkpt><trkpt lat="30.3282291" lon="-5.842634"><ele>725.0</ele><time>2026-05-03T09:47:57.96Z</time></trkpt><trkpt lat="30.3283042" lon="-5.842614"><ele>725.0</ele><time>2026-05-03T09:47:58.974Z</time></trkpt><trkpt lat="30.3283704" lon="-5.8425971"><ele>725.0</ele><time>2026-05-03T09:47:59.964Z</time></trkpt><trkpt lat="30.328462" lon="-5.8425687"><ele>725.0</ele><time>2026-05-03T09:48:01.953Z</time></trkpt><trkpt lat="30.3285306" lon="-5.8425415"><ele>725.0</ele><time>2026-05-03T09:48:03.974Z</time></trkpt><trkpt lat="30.3285891" lon="-5.8425043"><ele>725.0</ele><time>2026-05-03T09:48:05.976Z</time></trkpt><trkpt lat="30.3286281" lon="-5.8424231"><ele>725.0</ele><time>2026-05-03T09:48:07.979Z</time></trkpt><trkpt lat="30.3286283" lon="-5.8423269"><ele>725.0</ele><time>2026-05-03T09:48:09.97Z</time></trkpt><trkpt lat="30.3285977" lon="-5.8422079"><ele>725.0</ele><time>2026-05-03T09:48:11.974Z</time></trkpt><trkpt lat="30.328562" lon="-5.8420671"><ele>725.0</ele><time>2026-05-03T09:48:13.965Z</time></trkpt><trkpt lat="30.3285413" lon="-5.84199"><ele>725.0</ele><time>2026-05-03T09:48:14.958Z</time></trkpt><trkpt lat="30.3285259" lon="-5.8419054"><ele>725.0</ele><time>2026-05-03T09:48:15.94Z</time></trkpt><trkpt lat="30.3285157" lon="-5.8418179"><ele>725.0</ele><time>2026-05-03T09:48:16.965Z</time></trkpt><trkpt lat="30.3285034" lon="-5.841739"><ele>725.0</ele><time>2026-05-03T09:48:17.962Z</time></trkpt><trkpt lat="30.3284917" lon="-5.8416598"><ele>725.0</ele><time>2026-05-03T09:48:18.954Z</time></trkpt><trkpt lat="30.328479" lon="-5.841582"><ele>725.0</ele><time>2026-05-03T09:48:19.985Z</time></trkpt><trkpt lat="30.3284677" lon="-5.8415047"><ele>726.5</ele><time>2026-05-03T09:48:20.97Z</time></trkpt><trkpt lat="30.3284593" lon="-5.841429"><ele>728.0</ele><time>2026-05-03T09:48:21.954Z</time></trkpt><trkpt lat="30.3284353" lon="-5.8412872"><ele>729.5</ele><time>2026-05-03T09:48:23.967Z</time></trkpt><trkpt lat="30.3284098" lon="-5.8412078"><ele>731.0</ele><time>2026-05-03T09:48:24.961Z</time></trkpt><trkpt lat="30.3283821" lon="-5.8411169"><ele>732.5</ele><time>2026-05-03T09:48:25.957Z</time></trkpt><trkpt lat="30.3283589" lon="-5.8410212"><ele>734.0</ele><time>2026-05-03T09:48:26.966Z</time></trkpt><trkpt lat="30.3283385" lon="-5.8409204"><ele>734.1666666666666</ele><time>2026-05-03T09:48:28.005Z</time></trkpt><trkpt lat="30.328323" lon="-5.8408215"><ele>734.3333333333333</ele><time>2026-05-03T09:48:28.972Z</time></trkpt><trkpt lat="30.3283096" lon="-5.840723"><ele>734.5</ele><time>2026-05-03T09:48:29.973Z</time></trkpt><trkpt lat="30.3282991" lon="-5.840623"><ele>734.6666666666666</ele><time>2026-05-03T09:48:30.964Z</time></trkpt><trkpt lat="30.328292" lon="-5.8405209"><ele>734.8333333333334</ele><time>2026-05-03T09:48:31.964Z</time></trkpt><trkpt lat="30.3282764" lon="-5.8404142"><ele>735.0</ele><time>2026-05-03T09:48:33.01Z</time></trkpt><trkpt lat="30.3282625" lon="-5.8403129"><ele>735.0</ele><time>2026-05-03T09:48:33.994Z</time></trkpt><trkpt lat="30.3282478" lon="-5.8402188"><ele>735.0</ele><time>2026-05-03T09:48:34.961Z</time></trkpt><trkpt lat="30.328239" lon="-5.840139"><ele>735.0</ele><time>2026-05-03T09:48:35.974Z</time></trkpt><trkpt lat="30.3282292" lon="-5.8400356"><ele>735.0</ele><time>2026-05-03T09:48:37.988Z</time></trkpt><trkpt lat="30.3281927" lon="-5.8399484"><ele>735.0</ele><time>2026-05-03T09:48:41.99Z</time></trkpt><trkpt lat="30.3281221" lon="-5.8399654"><ele>735.0</ele><time>2026-05-03T09:48:43.982Z</time></trkpt><trkpt lat="30.3280529" lon="-5.8400032"><ele>734.6666666666666</ele><time>2026-05-03T09:48:44.983Z</time></trkpt><trkpt lat="30.3279786" lon="-5.8400484"><ele>734.3333333333334</ele><time>2026-05-03T09:48:45.984Z</time></trkpt><trkpt lat="30.3279055" lon="-5.8400968"><ele>734.0</ele><time>2026-05-03T09:48:46.987Z</time></trkpt><trkpt lat="30.3278392" lon="-5.8401405"><ele>733.6666666666667</ele><time>2026-05-03T09:48:47.965Z</time></trkpt><trkpt lat="30.3277718" lon="-5.8401902"><ele>733.3333333333334</ele><time>2026-05-03T09:48:48.991Z</time></trkpt><trkpt lat="30.3277051" lon="-5.8402382"><ele>733.0</ele><time>2026-05-03T09:48:49.982Z</time></trkpt><trkpt lat="30.3276426" lon="-5.8402825"><ele>732.6666666666667</ele><time>2026-05-03T09:48:50.954Z</time></trkpt><trkpt lat="30.3275834" lon="-5.8403233"><ele>732.3333333333334</ele><time>2026-05-03T09:48:51.953Z</time></trkpt><trkpt lat="30.3275291" lon="-5.8403621"><ele>732.0</ele><time>2026-05-03T09:48:52.984Z</time></trkpt><trkpt lat="30.3274258" lon="-5.8404384"><ele>731.6666666666666</ele><time>2026-05-03T09:48:54.956Z</time></trkpt><trkpt lat="30.3273726" lon="-5.8404871"><ele>731.3333333333333</ele><time>2026-05-03T09:48:55.96Z</time></trkpt><trkpt lat="30.3273159" lon="-5.8405378"><ele>731.0</ele><time>2026-05-03T09:48:56.963Z</time></trkpt><trkpt lat="30.3272606" lon="-5.8405901"><ele>730.7142857142857</ele><time>2026-05-03T09:48:57.959Z</time></trkpt><trkpt lat="30.3272053" lon="-5.8406355"><ele>730.4285714285713</ele><time>2026-05-03T09:48:58.982Z</time></trkpt><trkpt lat="30.3271492" lon="-5.8406761"><ele>730.1428571428571</ele><time>2026-05-03T09:48:59.962Z</time></trkpt><trkpt lat="30.3270864" lon="-5.8407178"><ele>729.8571428571429</ele><time>2026-05-03T09:49:00.974Z</time></trkpt><trkpt lat="30.3270171" lon="-5.8407571"><ele>729.5714285714286</ele><time>2026-05-03T09:49:01.981Z</time></trkpt><trkpt lat="30.3269456" lon="-5.8407936"><ele>729.2857142857143</ele><time>2026-05-03T09:49:02.961Z</time></trkpt><trkpt lat="30.3268808" lon="-5.8408245"><ele>729.0</ele><time>2026-05-03T09:49:03.977Z</time></trkpt><trkpt lat="30.3267737" lon="-5.8408733"><ele>729.0</ele><time>2026-05-03T09:49:05.964Z</time></trkpt><trkpt lat="30.3266996" lon="-5.8409114"><ele>729.0</ele><time>2026-05-03T09:49:07.957Z</time></trkpt><trkpt lat="30.3266401" lon="-5.8409576"><ele>729.0</ele><time>2026-05-03T09:49:10.959Z</time></trkpt><trkpt lat="30.32657" lon="-5.8409283"><ele>729.0</ele><time>2026-05-03T09:50:09.973Z</time></trkpt><trkpt lat="30.3264683" lon="-5.8409517"><ele>729.0</ele><time>2026-05-03T09:50:11.992Z</time></trkpt><trkpt lat="30.3261383" lon="-5.841065"><ele>727.6</ele><time>2026-05-03T09:50:15.973Z</time></trkpt><trkpt lat="30.3260567" lon="-5.84113"><ele>726.2</ele><time>2026-05-03T09:50:17.964Z</time></trkpt><trkpt lat="30.32604" lon="-5.8412133"><ele>724.8000000000001</ele><time>2026-05-03T09:50:19.969Z</time></trkpt><trkpt lat="30.3260967" lon="-5.8413717"><ele>723.4000000000001</ele><time>2026-05-03T09:50:22.025Z</time></trkpt><trkpt lat="30.3261483" lon="-5.8414867"><ele>722.0</ele><time>2026-05-03T09:50:22.968Z</time></trkpt><trkpt lat="30.3261967" lon="-5.8415983"><ele>722.0</ele><time>2026-05-03T09:50:23.978Z</time></trkpt><trkpt lat="30.32625" lon="-5.8417067"><ele>722.0</ele><time>2026-05-03T09:50:24.952Z</time></trkpt><trkpt lat="30.3262983" lon="-5.8418233"><ele>722.0</ele><time>2026-05-03T09:50:25.967Z</time></trkpt><trkpt lat="30.3263517" lon="-5.841935"><ele>722.0</ele><time>2026-05-03T09:50:26.952Z</time></trkpt><trkpt lat="30.3263983" lon="-5.8420567"><ele>722.0</ele><time>2026-05-03T09:50:27.971Z</time></trkpt><trkpt lat="30.3264433" lon="-5.8421683"><ele>722.0</ele><time>2026-05-03T09:50:28.957Z</time></trkpt><trkpt lat="30.3264817" lon="-5.8422717"><ele>722.0</ele><time>2026-05-03T09:50:29.983Z</time></trkpt><trkpt lat="30.3265167" lon="-5.8423633"><ele>722.0</ele><time>2026-05-03T09:50:30.96Z</time></trkpt><trkpt lat="30.3265483" lon="-5.84245"><ele>722.0</ele><time>2026-05-03T09:50:31.957Z</time></trkpt><trkpt lat="30.3265817" lon="-5.84253"><ele>722.0</ele><time>2026-05-03T09:50:32.97Z</time></trkpt><trkpt lat="30.3266167" lon="-5.8425983"><ele>722.0</ele><time>2026-05-03T09:50:33.988Z</time></trkpt><trkpt lat="30.326745" lon="-5.84274"><ele>722.0</ele><time>2026-05-03T09:50:36.98Z</time></trkpt><trkpt lat="30.3268083" lon="-5.842765"><ele>722.0</ele><time>2026-05-03T09:50:37.983Z</time></trkpt><trkpt lat="30.3268733" lon="-5.8427867"><ele>722.0</ele><time>2026-05-03T09:50:38.981Z</time></trkpt><trkpt lat="30.32694" lon="-5.84281"><ele>722.0</ele><time>2026-05-03T09:50:40.006Z</time></trkpt><trkpt lat="30.327015" lon="-5.8428367"><ele>722.0</ele><time>2026-05-03T09:50:41.002Z</time></trkpt><trkpt lat="30.327095" lon="-5.84283"><ele>722.0</ele><time>2026-05-03T09:50:42.03Z</time></trkpt><trkpt lat="30.3271667" lon="-5.8428167"><ele>722.0</ele><time>2026-05-03T09:50:43.008Z</time></trkpt><trkpt lat="30.3272417" lon="-5.8428017"><ele>721.8</ele><time>2026-05-03T09:50:44.051Z</time></trkpt><trkpt lat="30.3273183" lon="-5.8428083"><ele>721.6</ele><time>2026-05-03T09:50:45.05Z</time></trkpt><trkpt lat="30.327425" lon="-5.8428867"><ele>721.4</ele><time>2026-05-03T09:50:47.02Z</time></trkpt><trkpt lat="30.3274433" lon="-5.8430067"><ele>721.1999999999999</ele><time>2026-05-03T09:50:49.008Z</time></trkpt><trkpt lat="30.32736" lon="-5.8431117"><ele>721.0</ele><time>2026-05-03T09:50:50.952Z</time></trkpt><trkpt lat="30.3272933" lon="-5.8431583"><ele>721.1999999999999</ele><time>2026-05-03T09:50:51.977Z</time></trkpt><trkpt lat="30.3272183" lon="-5.8432117"><ele>721.4</ele><time>2026-05-03T09:50:52.948Z</time></trkpt><trkpt lat="30.32713" lon="-5.8432733"><ele>721.6</ele><time>2026-05-03T09:50:53.961Z</time></trkpt><trkpt lat="30.32704" lon="-5.84334"><ele>721.8</ele><time>2026-05-03T09:50:54.942Z</time></trkpt><trkpt lat="30.3269483" lon="-5.8434017"><ele>722.0</ele><time>2026-05-03T09:50:55.962Z</time></trkpt><trkpt lat="30.32677" lon="-5.8435317"><ele>723.1666666666666</ele><time>2026-05-03T09:50:57.969Z</time></trkpt><trkpt lat="30.3266867" lon="-5.8435933"><ele>724.3333333333333</ele><time>2026-05-03T09:50:58.958Z</time></trkpt><trkpt lat="30.3266133" lon="-5.8436483"><ele>725.5</ele><time>2026-05-03T09:51:00Z</time></trkpt><trkpt lat="30.3265467" lon="-5.8437033"><ele>726.6666666666666</ele><time>2026-05-03T09:51:00.962Z</time></trkpt><trkpt lat="30.326485" lon="-5.8437583"><ele>727.8333333333334</ele><time>2026-05-03T09:51:01.937Z</time></trkpt><trkpt lat="30.3264183" lon="-5.84382"><ele>729.0</ele><time>2026-05-03T09:51:02.945Z</time></trkpt><trkpt lat="30.3263483" lon="-5.8438867"><ele>729.0</ele><time>2026-05-03T09:51:03.988Z</time></trkpt><trkpt lat="30.3262783" lon="-5.8439633"><ele>729.0</ele><time>2026-05-03T09:51:04.951Z</time></trkpt><trkpt lat="30.3262133" lon="-5.84405"><ele>729.0</ele><time>2026-05-03T09:51:05.962Z</time></trkpt><trkpt lat="30.326155" lon="-5.8441517"><ele>729.0</ele><time>2026-05-03T09:51:06.949Z</time></trkpt><trkpt lat="30.326105" lon="-5.8442617"><ele>729.0</ele><time>2026-05-03T09:51:07.953Z</time></trkpt><trkpt lat="30.326065" lon="-5.8443817"><ele>729.0</ele><time>2026-05-03T09:51:08.96Z</time></trkpt><trkpt lat="30.326035" lon="-5.844505"><ele>729.0</ele><time>2026-05-03T09:51:09.972Z</time></trkpt><trkpt lat="30.32602" lon="-5.844625"><ele>729.0</ele><time>2026-05-03T09:51:10.955Z</time></trkpt><trkpt lat="30.3260117" lon="-5.844745"><ele>729.0</ele><time>2026-05-03T09:51:11.946Z</time></trkpt><trkpt lat="30.3260083" lon="-5.8448683"><ele>729.0</ele><time>2026-05-03T09:51:12.954Z</time></trkpt><trkpt lat="30.326005" lon="-5.845"><ele>727.5</ele><time>2026-05-03T09:51:13.962Z</time></trkpt><trkpt lat="30.3260033" lon="-5.84514"><ele>726.0</ele><time>2026-05-03T09:51:14.956Z</time></trkpt><trkpt lat="30.326" lon="-5.84529"><ele>724.5</ele><time>2026-05-03T09:51:15.951Z</time></trkpt><trkpt lat="30.326" lon="-5.8454467"><ele>723.0</ele><time>2026-05-03T09:51:16.94Z</time></trkpt><trkpt lat="30.3260033" lon="-5.845605"><ele>723.0</ele><time>2026-05-03T09:51:17.955Z</time></trkpt><trkpt lat="30.3260067" lon="-5.8457667"><ele>723.0</ele><time>2026-05-03T09:51:18.945Z</time></trkpt><trkpt lat="30.326005" lon="-5.8459317"><ele>723.0</ele><time>2026-05-03T09:51:19.95Z</time></trkpt><trkpt lat="30.326005" lon="-5.8460917"><ele>723.0</ele><time>2026-05-03T09:51:20.939Z</time></trkpt><trkpt lat="30.3260033" lon="-5.846245"><ele>723.0</ele><time>2026-05-03T09:51:21.946Z</time></trkpt><trkpt lat="30.3260017" lon="-5.846395"><ele>723.0</ele><time>2026-05-03T09:51:22.95Z</time></trkpt><trkpt lat="30.3260017" lon="-5.8465467"><ele>723.0</ele><time>2026-05-03T09:51:23.949Z</time></trkpt><trkpt lat="30.3260017" lon="-5.8467"><ele>723.0</ele><time>2026-05-03T09:51:24.959Z</time></trkpt><trkpt lat="30.326" lon="-5.8468517"><ele>723.0</ele><time>2026-05-03T09:51:25.961Z</time></trkpt><trkpt lat="30.3260017" lon="-5.846985"><ele>723.0</ele><time>2026-05-03T09:51:26.953Z</time></trkpt><trkpt lat="30.3260017" lon="-5.8470983"><ele>723.0</ele><time>2026-05-03T09:51:27.961Z</time></trkpt><trkpt lat="30.326" lon="-5.8471983"><ele>723.0</ele><time>2026-05-03T09:51:28.961Z</time></trkpt><trkpt lat="30.325995" lon="-5.84729"><ele>723.0</ele><time>2026-05-03T09:51:29.967Z</time></trkpt><trkpt lat="30.3259883" lon="-5.8473817"><ele>723.0</ele><time>2026-05-03T09:51:30.953Z</time></trkpt><trkpt lat="30.3259867" lon="-5.8474733"><ele>723.0</ele><time>2026-05-03T09:51:31.954Z</time></trkpt><trkpt lat="30.3259867" lon="-5.8475683"><ele>723.0</ele><time>2026-05-03T09:51:32.936Z</time></trkpt><trkpt lat="30.3259883" lon="-5.84766"><ele>723.0</ele><time>2026-05-03T09:51:33.986Z</time></trkpt><trkpt lat="30.32599" lon="-5.8477483"><ele>723.0</ele><time>2026-05-03T09:51:34.955Z</time></trkpt><trkpt lat="30.3259917" lon="-5.84783"><ele>723.0</ele><time>2026-05-03T09:51:35.964Z</time></trkpt><trkpt lat="30.325995" lon="-5.8479033"><ele>722.8</ele><time>2026-05-03T09:51:36.95Z</time></trkpt><trkpt lat="30.3259933" lon="-5.8480317"><ele>722.5999999999999</ele><time>2026-05-03T09:51:38.955Z</time></trkpt><trkpt lat="30.3259917" lon="-5.84816"><ele>722.4000000000001</ele><time>2026-05-03T09:51:40.938Z</time></trkpt><trkpt lat="30.3259817" lon="-5.8482717"><ele>722.2</ele><time>2026-05-03T09:51:42.953Z</time></trkpt><trkpt lat="30.3259667" lon="-5.8483683"><ele>722.0</ele><time>2026-05-03T09:51:44.947Z</time></trkpt><trkpt lat="30.325955" lon="-5.8484633"><ele>721.6</ele><time>2026-05-03T09:51:46.967Z</time></trkpt><trkpt lat="30.3259467" lon="-5.848565"><ele>721.2</ele><time>2026-05-03T09:51:48.952Z</time></trkpt><trkpt lat="30.325945" lon="-5.848675"><ele>720.8</ele><time>2026-05-03T09:51:50.955Z</time></trkpt><trkpt lat="30.3259383" lon="-5.8487883"><ele>720.4</ele><time>2026-05-03T09:51:52.952Z</time></trkpt><trkpt lat="30.3259283" lon="-5.8488933"><ele>720.0</ele><time>2026-05-03T09:51:55.017Z</time></trkpt><trkpt lat="30.3259" lon="-5.849005"><ele>720.0</ele><time>2026-05-03T09:51:56.937Z</time></trkpt><trkpt lat="30.32584" lon="-5.8491283"><ele>720.0</ele><time>2026-05-03T09:51:58.949Z</time></trkpt><trkpt lat="30.3257983" lon="-5.84919"><ele>720.0</ele><time>2026-05-03T09:51:59.958Z</time></trkpt><trkpt lat="30.3257567" lon="-5.8492467"><ele>720.0</ele><time>2026-05-03T09:52:00.958Z</time></trkpt><trkpt lat="30.3257167" lon="-5.849305"><ele>720.0</ele><time>2026-05-03T09:52:01.974Z</time></trkpt><trkpt lat="30.325675" lon="-5.8493617"><ele>720.0</ele><time>2026-05-03T09:52:02.953Z</time></trkpt><trkpt lat="30.3255967" lon="-5.8494683"><ele>720.0</ele><time>2026-05-03T09:52:04.948Z</time></trkpt><trkpt lat="30.32554" lon="-5.8495533"><ele>720.0</ele><time>2026-05-03T09:52:06.959Z</time></trkpt><trkpt lat="30.3254967" lon="-5.8496333"><ele>720.0</ele><time>2026-05-03T09:52:09.983Z</time></trkpt><trkpt lat="30.3254367" lon="-5.8497067"><ele>720.0</ele><time>2026-05-03T09:52:12.948Z</time></trkpt><trkpt lat="30.325385" lon="-5.8497767"><ele>720.0</ele><time>2026-05-03T09:52:14.952Z</time></trkpt><trkpt lat="30.325325" lon="-5.8498533"><ele>720.0</ele><time>2026-05-03T09:52:16.946Z</time></trkpt><trkpt lat="30.325265" lon="-5.8499383"><ele>720.0</ele><time>2026-05-03T09:52:18.953Z</time></trkpt><trkpt lat="30.3252" lon="-5.8500267"><ele>720.0</ele><time>2026-05-03T09:52:20.944Z</time></trkpt><trkpt lat="30.3251367" lon="-5.85012"><ele>720.0</ele><time>2026-05-03T09:52:22.953Z</time></trkpt><trkpt lat="30.32507" lon="-5.8502167"><ele>720.0</ele><time>2026-05-03T09:52:24.944Z</time></trkpt><trkpt lat="30.3250067" lon="-5.850305"><ele>720.0</ele><time>2026-05-03T09:52:26.943Z</time></trkpt><trkpt lat="30.32494" lon="-5.8504017"><ele>719.8333333333334</ele><time>2026-05-03T09:52:28.953Z</time></trkpt><trkpt lat="30.3248917" lon="-5.8504783"><ele>719.6666666666666</ele><time>2026-05-03T09:52:30.954Z</time></trkpt><trkpt lat="30.3248417" lon="-5.8505483"><ele>719.5</ele><time>2026-05-03T09:52:32.952Z</time></trkpt><trkpt lat="30.3247917" lon="-5.85062"><ele>719.3333333333333</ele><time>2026-05-03T09:52:34.942Z</time></trkpt><trkpt lat="30.3247483" lon="-5.8506833"><ele>719.1666666666666</ele><time>2026-05-03T09:52:36.952Z</time></trkpt><trkpt lat="30.3246983" lon="-5.8507683"><ele>719.0</ele><time>2026-05-03T09:52:38.953Z</time></trkpt><trkpt lat="30.324655" lon="-5.8508317"><ele>719.0</ele><time>2026-05-03T09:52:39.971Z</time></trkpt><trkpt lat="30.3246" lon="-5.8509083"><ele>719.0</ele><time>2026-05-03T09:52:40.948Z</time></trkpt><trkpt lat="30.324535" lon="-5.850995"><ele>719.0</ele><time>2026-05-03T09:52:41.956Z</time></trkpt><trkpt lat="30.3244667" lon="-5.8510917"><ele>719.0</ele><time>2026-05-03T09:52:42.954Z</time></trkpt><trkpt lat="30.3243933" lon="-5.8511917"><ele>719.0</ele><time>2026-05-03T09:52:43.955Z</time></trkpt><trkpt lat="30.3243167" lon="-5.8512983"><ele>719.0</ele><time>2026-05-03T09:52:44.953Z</time></trkpt><trkpt lat="30.32423" lon="-5.8514117"><ele>719.0</ele><time>2026-05-03T09:52:45.965Z</time></trkpt><trkpt lat="30.3241467" lon="-5.85153"><ele>719.0</ele><time>2026-05-03T09:52:46.954Z</time></trkpt><trkpt lat="30.3240617" lon="-5.8516517"><ele>719.0</ele><time>2026-05-03T09:52:47.996Z</time></trkpt><trkpt lat="30.323975" lon="-5.85178"><ele>719.5</ele><time>2026-05-03T09:52:48.956Z</time></trkpt><trkpt lat="30.3238867" lon="-5.85191"><ele>720.0</ele><time>2026-05-03T09:52:49.958Z</time></trkpt><trkpt lat="30.3237933" lon="-5.8520467"><ele>720.5</ele><time>2026-05-03T09:52:50.953Z</time></trkpt><trkpt lat="30.3237017" lon="-5.8521833"><ele>721.0</ele><time>2026-05-03T09:52:51.98Z</time></trkpt><trkpt lat="30.32361" lon="-5.8523183"><ele>721.0</ele><time>2026-05-03T09:52:52.947Z</time></trkpt><trkpt lat="30.323515" lon="-5.8524533"><ele>721.0</ele><time>2026-05-03T09:52:53.968Z</time></trkpt><trkpt lat="30.32342" lon="-5.8525867"><ele>721.0</ele><time>2026-05-03T09:52:54.953Z</time></trkpt><trkpt lat="30.323325" lon="-5.8527217"><ele>721.25</ele><time>2026-05-03T09:52:55.962Z</time></trkpt><trkpt lat="30.323235" lon="-5.8528517"><ele>721.5</ele><time>2026-05-03T09:52:56.965Z</time></trkpt><trkpt lat="30.32315" lon="-5.8529733"><ele>721.75</ele><time>2026-05-03T09:52:57.986Z</time></trkpt><trkpt lat="30.3230717" lon="-5.8530883"><ele>722.0</ele><time>2026-05-03T09:52:58.964Z</time></trkpt><trkpt lat="30.3229967" lon="-5.8531983"><ele>721.8</ele><time>2026-05-03T09:52:59.988Z</time></trkpt><trkpt lat="30.3229217" lon="-5.8533"><ele>721.6</ele><time>2026-05-03T09:53:00.973Z</time></trkpt><trkpt lat="30.3228517" lon="-5.8533917"><ele>721.4</ele><time>2026-05-03T09:53:01.95Z</time></trkpt><trkpt lat="30.3227867" lon="-5.853485"><ele>721.1999999999999</ele><time>2026-05-03T09:53:02.96Z</time></trkpt><trkpt lat="30.3227233" lon="-5.853585"><ele>721.0</ele><time>2026-05-03T09:53:03.958Z</time></trkpt><trkpt lat="30.3226567" lon="-5.8536867"><ele>721.0</ele><time>2026-05-03T09:53:04.955Z</time></trkpt><trkpt lat="30.3225917" lon="-5.8537867"><ele>721.0</ele><time>2026-05-03T09:53:05.953Z</time></trkpt><trkpt lat="30.322525" lon="-5.8538883"><ele>721.0</ele><time>2026-05-03T09:53:06.985Z</time></trkpt><trkpt lat="30.3224533" lon="-5.85399"><ele>721.0</ele><time>2026-05-03T09:53:07.97Z</time></trkpt><trkpt lat="30.322385" lon="-5.85409"><ele>721.0</ele><time>2026-05-03T09:53:08.962Z</time></trkpt><trkpt lat="30.322316" lon="-5.854188"><ele>721.0</ele><time>2026-05-03T09:53:09.981Z</time></trkpt><trkpt lat="30.3222502" lon="-5.8542804"><ele>721.0</ele><time>2026-05-03T09:53:10.962Z</time></trkpt><trkpt lat="30.3221863" lon="-5.8543678"><ele>721.0</ele><time>2026-05-03T09:53:11.976Z</time></trkpt><trkpt lat="30.3221226" lon="-5.8544594"><ele>721.0</ele><time>2026-05-03T09:53:12.974Z</time></trkpt><trkpt lat="30.3220553" lon="-5.8545548"><ele>721.0</ele><time>2026-05-03T09:53:13.968Z</time></trkpt><trkpt lat="30.3219928" lon="-5.8546471"><ele>721.5999999999999</ele><time>2026-05-03T09:53:14.969Z</time></trkpt><trkpt lat="30.321938" lon="-5.8547345"><ele>722.2</ele><time>2026-05-03T09:53:15.969Z</time></trkpt><trkpt lat="30.3218805" lon="-5.8548234"><ele>722.8</ele><time>2026-05-03T09:53:16.958Z</time></trkpt><trkpt lat="30.3218165" lon="-5.8549163"><ele>723.4000000000001</ele><time>2026-05-03T09:53:17.959Z</time></trkpt><trkpt lat="30.3217485" lon="-5.8550097"><ele>724.0</ele><time>2026-05-03T09:53:18.947Z</time></trkpt><trkpt lat="30.3216735" lon="-5.8551066"><ele>723.5</ele><time>2026-05-03T09:53:19.96Z</time></trkpt><trkpt lat="30.3215968" lon="-5.8552113"><ele>723.0</ele><time>2026-05-03T09:53:20.949Z</time></trkpt><trkpt lat="30.321524" lon="-5.8553286"><ele>722.5</ele><time>2026-05-03T09:53:21.953Z</time></trkpt><trkpt lat="30.3214573" lon="-5.8554508"><ele>722.0</ele><time>2026-05-03T09:53:22.944Z</time></trkpt><trkpt lat="30.3213868" lon="-5.8555759"><ele>722.0</ele><time>2026-05-03T09:53:23.955Z</time></trkpt><trkpt lat="30.3213109" lon="-5.855698"><ele>722.0</ele><time>2026-05-03T09:53:24.947Z</time></trkpt><trkpt lat="30.3212272" lon="-5.8558142"><ele>722.0</ele><time>2026-05-03T09:53:25.98Z</time></trkpt><trkpt lat="30.3211445" lon="-5.8559105"><ele>722.0</ele><time>2026-05-03T09:53:26.949Z</time></trkpt><trkpt lat="30.321058" lon="-5.8559933"><ele>721.8333333333333</ele><time>2026-05-03T09:53:27.955Z</time></trkpt><trkpt lat="30.3209662" lon="-5.8560587"><ele>721.6666666666666</ele><time>2026-05-03T09:53:28.951Z</time></trkpt><trkpt lat="30.3208782" lon="-5.8561044"><ele>721.5</ele><time>2026-05-03T09:53:29.971Z</time></trkpt><trkpt lat="30.3207961" lon="-5.8561346"><ele>721.3333333333334</ele><time>2026-05-03T09:53:30.954Z</time></trkpt><trkpt lat="30.3207177" lon="-5.8561557"><ele>721.1666666666667</ele><time>2026-05-03T09:53:31.974Z</time></trkpt><trkpt lat="30.3206455" lon="-5.8561637"><ele>721.0</ele><time>2026-05-03T09:53:32.945Z</time></trkpt><trkpt lat="30.3205704" lon="-5.8561576"><ele>721.3333333333334</ele><time>2026-05-03T09:53:33.963Z</time></trkpt><trkpt lat="30.3204941" lon="-5.856141"><ele>721.6666666666667</ele><time>2026-05-03T09:53:34.962Z</time></trkpt><trkpt lat="30.3204081" lon="-5.8561229"><ele>722.0</ele><time>2026-05-03T09:53:35.958Z</time></trkpt><trkpt lat="30.320319" lon="-5.8561092"><ele>722.3333333333334</ele><time>2026-05-03T09:53:36.951Z</time></trkpt><trkpt lat="30.3202243" lon="-5.8561057"><ele>722.6666666666666</ele><time>2026-05-03T09:53:37.958Z</time></trkpt><trkpt lat="30.3201262" lon="-5.8561085"><ele>723.0</ele><time>2026-05-03T09:53:38.945Z</time></trkpt><trkpt lat="30.3200232" lon="-5.8561088"><ele>723.0</ele><time>2026-05-03T09:53:39.948Z</time></trkpt><trkpt lat="30.3199179" lon="-5.8560966"><ele>723.0</ele><time>2026-05-03T09:53:40.94Z</time></trkpt><trkpt lat="30.3198103" lon="-5.8560697"><ele>723.0</ele><time>2026-05-03T09:53:41.992Z</time></trkpt><trkpt lat="30.319719" lon="-5.8560472"><ele>723.0</ele><time>2026-05-03T09:53:42.947Z</time></trkpt><trkpt lat="30.3196289" lon="-5.856035"><ele>723.0</ele><time>2026-05-03T09:53:43.967Z</time></trkpt><trkpt lat="30.3195396" lon="-5.8560261"><ele>722.8</ele><time>2026-05-03T09:53:44.942Z</time></trkpt><trkpt lat="30.3194438" lon="-5.8560143"><ele>722.5999999999999</ele><time>2026-05-03T09:53:45.989Z</time></trkpt><trkpt lat="30.3193499" lon="-5.8560172"><ele>722.4000000000001</ele><time>2026-05-03T09:53:46.961Z</time></trkpt><trkpt lat="30.3192524" lon="-5.8560163"><ele>722.2</ele><time>2026-05-03T09:53:47.949Z</time></trkpt><trkpt lat="30.3191552" lon="-5.856007"><ele>722.0</ele><time>2026-05-03T09:53:48.945Z</time></trkpt><trkpt lat="30.3190572" lon="-5.8559984"><ele>722.0</ele><time>2026-05-03T09:53:49.963Z</time></trkpt><trkpt lat="30.3189541" lon="-5.8559945"><ele>722.0</ele><time>2026-05-03T09:53:50.953Z</time></trkpt><trkpt lat="30.3188484" lon="-5.8559905"><ele>722.0</ele><time>2026-05-03T09:53:51.958Z</time></trkpt><trkpt lat="30.3187439" lon="-5.8559817"><ele>722.0</ele><time>2026-05-03T09:53:52.952Z</time></trkpt><trkpt lat="30.3186406" lon="-5.8559648"><ele>722.0</ele><time>2026-05-03T09:53:53.972Z</time></trkpt><trkpt lat="30.3185415" lon="-5.8559414"><ele>722.4000000000001</ele><time>2026-05-03T09:53:54.949Z</time></trkpt><trkpt lat="30.3184425" lon="-5.8559142"><ele>722.8000000000001</ele><time>2026-05-03T09:53:55.972Z</time></trkpt><trkpt lat="30.3183485" lon="-5.8558863"><ele>723.2</ele><time>2026-05-03T09:53:56.943Z</time></trkpt><trkpt lat="30.3182471" lon="-5.855855"><ele>723.6</ele><time>2026-05-03T09:53:57.968Z</time></trkpt><trkpt lat="30.318143" lon="-5.8558233"><ele>724.0</ele><time>2026-05-03T09:53:58.953Z</time></trkpt><trkpt lat="30.3180371" lon="-5.8557866"><ele>724.25</ele><time>2026-05-03T09:53:59.953Z</time></trkpt><trkpt lat="30.3179278" lon="-5.8557509"><ele>724.5</ele><time>2026-05-03T09:54:00.946Z</time></trkpt><trkpt lat="30.3178084" lon="-5.8557186"><ele>724.75</ele><time>2026-05-03T09:54:01.955Z</time></trkpt><trkpt lat="30.3176795" lon="-5.8556948"><ele>725.0</ele><time>2026-05-03T09:54:02.946Z</time></trkpt><trkpt lat="30.3175416" lon="-5.8556729"><ele>725.0</ele><time>2026-05-03T09:54:03.964Z</time></trkpt><trkpt lat="30.3174057" lon="-5.8556439"><ele>725.0</ele><time>2026-05-03T09:54:04.948Z</time></trkpt><trkpt lat="30.3172724" lon="-5.8556102"><ele>725.0</ele><time>2026-05-03T09:54:05.962Z</time></trkpt><trkpt lat="30.3171484" lon="-5.8555757"><ele>725.0</ele><time>2026-05-03T09:54:06.949Z</time></trkpt><trkpt lat="30.31703" lon="-5.8555413"><ele>724.6</ele><time>2026-05-03T09:54:07.963Z</time></trkpt><trkpt lat="30.3169196" lon="-5.855511"><ele>724.2</ele><time>2026-05-03T09:54:08.94Z</time></trkpt><trkpt lat="30.3168088" lon="-5.8554801"><ele>723.8</ele><time>2026-05-03T09:54:09.96Z</time></trkpt><trkpt lat="30.3167085" lon="-5.8554528"><ele>723.4</ele><time>2026-05-03T09:54:10.95Z</time></trkpt><trkpt lat="30.3166103" lon="-5.8554188"><ele>723.0</ele><time>2026-05-03T09:54:11.972Z</time></trkpt><trkpt lat="30.3165081" lon="-5.8553849"><ele>723.25</ele><time>2026-05-03T09:54:12.957Z</time></trkpt><trkpt lat="30.3163932" lon="-5.8553581"><ele>723.5</ele><time>2026-05-03T09:54:13.947Z</time></trkpt><trkpt lat="30.3162693" lon="-5.8553315"><ele>723.75</ele><time>2026-05-03T09:54:14.943Z</time></trkpt><trkpt lat="30.3161431" lon="-5.8553046"><ele>724.0</ele><time>2026-05-03T09:54:15.942Z</time></trkpt><trkpt lat="30.3160219" lon="-5.8552824"><ele>724.0</ele><time>2026-05-03T09:54:16.936Z</time></trkpt><trkpt lat="30.3158988" lon="-5.8552661"><ele>724.0</ele><time>2026-05-03T09:54:17.949Z</time></trkpt><trkpt lat="30.3157754" lon="-5.8552502"><ele>724.0</ele><time>2026-05-03T09:54:18.943Z</time></trkpt><trkpt lat="30.3156546" lon="-5.8552332"><ele>724.0</ele><time>2026-05-03T09:54:19.954Z</time></trkpt><trkpt lat="30.3155436" lon="-5.8552165"><ele>723.6</ele><time>2026-05-03T09:54:20.955Z</time></trkpt><trkpt lat="30.3154356" lon="-5.8551956"><ele>723.2</ele><time>2026-05-03T09:54:21.96Z</time></trkpt><trkpt lat="30.3153282" lon="-5.8551835"><ele>722.8000000000001</ele><time>2026-05-03T09:54:22.944Z</time></trkpt><trkpt lat="30.3152166" lon="-5.8551841"><ele>722.4000000000001</ele><time>2026-05-03T09:54:23.954Z</time></trkpt><trkpt lat="30.3151037" lon="-5.8551894"><ele>722.0</ele><time>2026-05-03T09:54:24.954Z</time></trkpt><trkpt lat="30.3149859" lon="-5.8551904"><ele>722.0</ele><time>2026-05-03T09:54:25.964Z</time></trkpt><trkpt lat="30.3148651" lon="-5.855182"><ele>722.0</ele><time>2026-05-03T09:54:26.955Z</time></trkpt><trkpt lat="30.3147432" lon="-5.8551641"><ele>722.0</ele><time>2026-05-03T09:54:27.953Z</time></trkpt><trkpt lat="30.3146229" lon="-5.8551443"><ele>722.0</ele><time>2026-05-03T09:54:28.939Z</time></trkpt><trkpt lat="30.3145006" lon="-5.8551296"><ele>722.5</ele><time>2026-05-03T09:54:29.947Z</time></trkpt><trkpt lat="30.3143787" lon="-5.8551207"><ele>723.0</ele><time>2026-05-03T09:54:30.948Z</time></trkpt><trkpt lat="30.3142597" lon="-5.8551113"><ele>723.5</ele><time>2026-05-03T09:54:31.957Z</time></trkpt><trkpt lat="30.3141506" lon="-5.8551012"><ele>724.0</ele><time>2026-05-03T09:54:32.949Z</time></trkpt><trkpt lat="30.3140454" lon="-5.8550884"><ele>724.0</ele><time>2026-05-03T09:54:33.955Z</time></trkpt><trkpt lat="30.3139426" lon="-5.8550778"><ele>724.0</ele><time>2026-05-03T09:54:34.948Z</time></trkpt><trkpt lat="30.3138396" lon="-5.8550691"><ele>724.0</ele><time>2026-05-03T09:54:35.951Z</time></trkpt><trkpt lat="30.3137393" lon="-5.8550611"><ele>724.0</ele><time>2026-05-03T09:54:36.949Z</time></trkpt><trkpt lat="30.3136373" lon="-5.8550572"><ele>724.0</ele><time>2026-05-03T09:54:37.976Z</time></trkpt><trkpt lat="30.31354" lon="-5.8550545"><ele>724.0</ele><time>2026-05-03T09:54:38.945Z</time></trkpt><trkpt lat="30.3134408" lon="-5.8550517"><ele>724.0</ele><time>2026-05-03T09:54:39.974Z</time></trkpt><trkpt lat="30.3133394" lon="-5.8550457"><ele>724.0</ele><time>2026-05-03T09:54:40.95Z</time></trkpt><trkpt lat="30.3132332" lon="-5.8550381"><ele>724.0</ele><time>2026-05-03T09:54:41.99Z</time></trkpt><trkpt lat="30.3131264" lon="-5.8550309"><ele>724.0</ele><time>2026-05-03T09:54:42.937Z</time></trkpt><trkpt lat="30.3130152" lon="-5.8550239"><ele>724.25</ele><time>2026-05-03T09:54:43.98Z</time></trkpt><trkpt lat="30.3129065" lon="-5.8550206"><ele>724.5</ele><time>2026-05-03T09:54:44.949Z</time></trkpt><trkpt lat="30.3127924" lon="-5.8550257"><ele>724.75</ele><time>2026-05-03T09:54:45.96Z</time></trkpt><trkpt lat="30.3126787" lon="-5.8550377"><ele>725.0</ele><time>2026-05-03T09:54:46.962Z</time></trkpt><trkpt lat="30.3125661" lon="-5.8550533"><ele>725.0</ele><time>2026-05-03T09:54:47.985Z</time></trkpt><trkpt lat="30.3124552" lon="-5.8550731"><ele>725.0</ele><time>2026-05-03T09:54:48.939Z</time></trkpt><trkpt lat="30.3123418" lon="-5.8550917"><ele>725.0</ele><time>2026-05-03T09:54:49.96Z</time></trkpt><trkpt lat="30.312232" lon="-5.8551038"><ele>725.0</ele><time>2026-05-03T09:54:50.95Z</time></trkpt><trkpt lat="30.3121266" lon="-5.8551109"><ele>725.0</ele><time>2026-05-03T09:54:51.969Z</time></trkpt><trkpt lat="30.3120274" lon="-5.8551153"><ele>724.0</ele><time>2026-05-03T09:54:52.944Z</time></trkpt><trkpt lat="30.3119312" lon="-5.8551238"><ele>723.0</ele><time>2026-05-03T09:54:53.96Z</time></trkpt><trkpt lat="30.3118377" lon="-5.855134"><ele>722.0</ele><time>2026-05-03T09:54:54.945Z</time></trkpt><trkpt lat="30.3117423" lon="-5.8551449"><ele>721.0</ele><time>2026-05-03T09:54:55.978Z</time></trkpt><trkpt lat="30.3116445" lon="-5.8551546"><ele>720.0</ele><time>2026-05-03T09:54:56.949Z</time></trkpt><trkpt lat="30.3115349" lon="-5.855167"><ele>720.0</ele><time>2026-05-03T09:54:57.962Z</time></trkpt><trkpt lat="30.3114209" lon="-5.8551877"><ele>720.0</ele><time>2026-05-03T09:54:58.941Z</time></trkpt><trkpt lat="30.3113099" lon="-5.8552155"><ele>720.0</ele><time>2026-05-03T09:54:59.959Z</time></trkpt><trkpt lat="30.3112112" lon="-5.8552368"><ele>720.0</ele><time>2026-05-03T09:55:00.962Z</time></trkpt><trkpt lat="30.3111126" lon="-5.855238"><ele>720.0</ele><time>2026-05-03T09:55:01.957Z</time></trkpt><trkpt lat="30.3110082" lon="-5.8552109"><ele>720.0</ele><time>2026-05-03T09:55:02.933Z</time></trkpt><trkpt lat="30.3108998" lon="-5.8551626"><ele>720.0</ele><time>2026-05-03T09:55:03.98Z</time></trkpt><trkpt lat="30.3107974" lon="-5.8551038"><ele>720.0</ele><time>2026-05-03T09:55:04.953Z</time></trkpt><trkpt lat="30.3106932" lon="-5.8550317"><ele>720.0</ele><time>2026-05-03T09:55:05.966Z</time></trkpt><trkpt lat="30.3105934" lon="-5.8549504"><ele>720.25</ele><time>2026-05-03T09:55:06.948Z</time></trkpt><trkpt lat="30.3105016" lon="-5.8548667"><ele>720.5</ele><time>2026-05-03T09:55:07.964Z</time></trkpt><trkpt lat="30.3104145" lon="-5.854779"><ele>720.75</ele><time>2026-05-03T09:55:08.954Z</time></trkpt><trkpt lat="30.3103294" lon="-5.8546822"><ele>721.0</ele><time>2026-05-03T09:55:09.963Z</time></trkpt><trkpt lat="30.3102512" lon="-5.8545799"><ele>721.0</ele><time>2026-05-03T09:55:10.943Z</time></trkpt><trkpt lat="30.3101818" lon="-5.8544763"><ele>721.0</ele><time>2026-05-03T09:55:11.953Z</time></trkpt><trkpt lat="30.3101231" lon="-5.8543698"><ele>721.0</ele><time>2026-05-03T09:55:12.959Z</time></trkpt><trkpt lat="30.3100763" lon="-5.8542556"><ele>721.0</ele><time>2026-05-03T09:55:13.953Z</time></trkpt><trkpt lat="30.3100442" lon="-5.8541246"><ele>721.0</ele><time>2026-05-03T09:55:14.946Z</time></trkpt><trkpt lat="30.310031" lon="-5.8539825"><ele>721.25</ele><time>2026-05-03T09:55:15.961Z</time></trkpt><trkpt lat="30.3100344" lon="-5.8538381"><ele>721.5</ele><time>2026-05-03T09:55:16.943Z</time></trkpt><trkpt lat="30.3100484" lon="-5.8536914"><ele>721.75</ele><time>2026-05-03T09:55:17.959Z</time></trkpt><trkpt lat="30.3100701" lon="-5.8535548"><ele>722.0</ele><time>2026-05-03T09:55:18.943Z</time></trkpt><trkpt lat="30.3100963" lon="-5.8534215"><ele>722.0</ele><time>2026-05-03T09:55:19.954Z</time></trkpt><trkpt lat="30.3101251" lon="-5.8532848"><ele>722.0</ele><time>2026-05-03T09:55:20.949Z</time></trkpt><trkpt lat="30.3101606" lon="-5.853135"><ele>722.0</ele><time>2026-05-03T09:55:21.96Z</time></trkpt><trkpt lat="30.3102022" lon="-5.8529795"><ele>722.0</ele><time>2026-05-03T09:55:22.944Z</time></trkpt><trkpt lat="30.3102435" lon="-5.8528193"><ele>722.0</ele><time>2026-05-03T09:55:23.961Z</time></trkpt><trkpt lat="30.3102775" lon="-5.8526554"><ele>722.0</ele><time>2026-05-03T09:55:24.952Z</time></trkpt><trkpt lat="30.3103103" lon="-5.8524835"><ele>722.0</ele><time>2026-05-03T09:55:25.958Z</time></trkpt><trkpt lat="30.3103417" lon="-5.852309"><ele>721.0</ele><time>2026-05-03T09:55:26.948Z</time></trkpt><trkpt lat="30.3103722" lon="-5.8521348"><ele>720.0</ele><time>2026-05-03T09:55:27.96Z</time></trkpt><trkpt lat="30.3104007" lon="-5.8519693"><ele>719.0</ele><time>2026-05-03T09:55:28.941Z</time></trkpt><trkpt lat="30.3104277" lon="-5.8518073"><ele>718.0</ele><time>2026-05-03T09:55:29.958Z</time></trkpt><trkpt lat="30.3104485" lon="-5.8516501"><ele>718.0</ele><time>2026-05-03T09:55:30.946Z</time></trkpt><trkpt lat="30.3104679" lon="-5.8514888"><ele>718.0</ele><time>2026-05-03T09:55:31.965Z</time></trkpt><trkpt lat="30.3104843" lon="-5.8513316"><ele>718.0</ele><time>2026-05-03T09:55:32.958Z</time></trkpt><trkpt lat="30.3105018" lon="-5.8511826"><ele>718.0</ele><time>2026-05-03T09:55:33.956Z</time></trkpt><trkpt lat="30.3105215" lon="-5.8510453"><ele>718.25</ele><time>2026-05-03T09:55:34.937Z</time></trkpt><trkpt lat="30.3105421" lon="-5.8509155"><ele>718.5</ele><time>2026-05-03T09:55:35.956Z</time></trkpt><trkpt lat="30.3105591" lon="-5.8507884"><ele>718.75</ele><time>2026-05-03T09:55:36.94Z</time></trkpt><trkpt lat="30.3105654" lon="-5.8506568"><ele>719.0</ele><time>2026-05-03T09:55:37.957Z</time></trkpt><trkpt lat="30.3105563" lon="-5.8505192"><ele>719.0</ele><time>2026-05-03T09:55:38.936Z</time></trkpt><trkpt lat="30.310536" lon="-5.8503709"><ele>719.0</ele><time>2026-05-03T09:55:39.949Z</time></trkpt><trkpt lat="30.3105105" lon="-5.8502242"><ele>719.0</ele><time>2026-05-03T09:55:40.943Z</time></trkpt><trkpt lat="30.3104846" lon="-5.8500853"><ele>719.0</ele><time>2026-05-03T09:55:41.957Z</time></trkpt><trkpt lat="30.3104605" lon="-5.8499654"><ele>718.6666666666666</ele><time>2026-05-03T09:55:42.963Z</time></trkpt><trkpt lat="30.3104342" lon="-5.8498626"><ele>718.3333333333333</ele><time>2026-05-03T09:55:43.965Z</time></trkpt><trkpt lat="30.310395" lon="-5.8497783"><ele>718.0</ele><time>2026-05-03T09:55:44.945Z</time></trkpt><trkpt lat="30.3103383" lon="-5.849705"><ele>717.6666666666666</ele><time>2026-05-03T09:55:45.948Z</time></trkpt><trkpt lat="30.310265" lon="-5.8496517"><ele>717.3333333333334</ele><time>2026-05-03T09:55:46.952Z</time></trkpt><trkpt lat="30.3101767" lon="-5.849615"><ele>717.0</ele><time>2026-05-03T09:55:47.965Z</time></trkpt><trkpt lat="30.3100883" lon="-5.8495633"><ele>717.0</ele><time>2026-05-03T09:55:48.952Z</time></trkpt><trkpt lat="30.309995" lon="-5.8495117"><ele>717.0</ele><time>2026-05-03T09:55:49.975Z</time></trkpt><trkpt lat="30.3098967" lon="-5.8494667"><ele>717.0</ele><time>2026-05-03T09:55:50.947Z</time></trkpt><trkpt lat="30.3097967" lon="-5.8494283"><ele>717.0</ele><time>2026-05-03T09:55:51.955Z</time></trkpt><trkpt lat="30.30969" lon="-5.8493933"><ele>717.0</ele><time>2026-05-03T09:55:52.953Z</time></trkpt><trkpt lat="30.3095733" lon="-5.8493517"><ele>716.5</ele><time>2026-05-03T09:55:53.969Z</time></trkpt><trkpt lat="30.30945" lon="-5.8492983"><ele>716.0</ele><time>2026-05-03T09:55:54.962Z</time></trkpt><trkpt lat="30.30932" lon="-5.8492367"><ele>715.5</ele><time>2026-05-03T09:55:55.959Z</time></trkpt><trkpt lat="30.3091817" lon="-5.849175"><ele>715.0</ele><time>2026-05-03T09:55:56.946Z</time></trkpt><trkpt lat="30.3090433" lon="-5.8491183"><ele>715.0</ele><time>2026-05-03T09:55:57.974Z</time></trkpt><trkpt lat="30.308905" lon="-5.8490617"><ele>715.0</ele><time>2026-05-03T09:55:58.939Z</time></trkpt><trkpt lat="30.30877" lon="-5.8490083"><ele>715.0</ele><time>2026-05-03T09:55:59.967Z</time></trkpt><trkpt lat="30.3086433" lon="-5.8489567"><ele>715.0</ele><time>2026-05-03T09:56:00.942Z</time></trkpt><trkpt lat="30.3085217" lon="-5.8489083"><ele>715.0</ele><time>2026-05-03T09:56:01.95Z</time></trkpt><trkpt lat="30.3083983" lon="-5.84886"><ele>715.0</ele><time>2026-05-03T09:56:02.947Z</time></trkpt><trkpt lat="30.3082767" lon="-5.8488167"><ele>715.0</ele><time>2026-05-03T09:56:03.955Z</time></trkpt><trkpt lat="30.308155" lon="-5.8487767"><ele>715.0</ele><time>2026-05-03T09:56:04.95Z</time></trkpt><trkpt lat="30.3080433" lon="-5.8487333"><ele>715.2</ele><time>2026-05-03T09:56:05.98Z</time></trkpt><trkpt lat="30.3079383" lon="-5.848675"><ele>715.4</ele><time>2026-05-03T09:56:06.955Z</time></trkpt><trkpt lat="30.3078417" lon="-5.8486017"><ele>715.5999999999999</ele><time>2026-05-03T09:56:07.953Z</time></trkpt><trkpt lat="30.307755" lon="-5.8485217"><ele>715.8</ele><time>2026-05-03T09:56:08.947Z</time></trkpt><trkpt lat="30.30768" lon="-5.8484467"><ele>716.0</ele><time>2026-05-03T09:56:09.961Z</time></trkpt><trkpt lat="30.3076067" lon="-5.848375"><ele>716.0</ele><time>2026-05-03T09:56:10.948Z</time></trkpt><trkpt lat="30.3075217" lon="-5.8483117"><ele>716.0</ele><time>2026-05-03T09:56:11.967Z</time></trkpt><trkpt lat="30.3074217" lon="-5.8482633"><ele>716.0</ele><time>2026-05-03T09:56:12.938Z</time></trkpt><trkpt lat="30.3073117" lon="-5.8482333"><ele>716.0</ele><time>2026-05-03T09:56:13.951Z</time></trkpt><trkpt lat="30.307195" lon="-5.8482183"><ele>716.0</ele><time>2026-05-03T09:56:14.961Z</time></trkpt><trkpt lat="30.3070733" lon="-5.8482133"><ele>716.25</ele><time>2026-05-03T09:56:15.971Z</time></trkpt><trkpt lat="30.306955" lon="-5.8482067"><ele>716.5</ele><time>2026-05-03T09:56:16.937Z</time></trkpt><trkpt lat="30.306835" lon="-5.8481867"><ele>716.75</ele><time>2026-05-03T09:56:17.952Z</time></trkpt><trkpt lat="30.3067217" lon="-5.8481633"><ele>717.0</ele><time>2026-05-03T09:56:18.949Z</time></trkpt><trkpt lat="30.3066117" lon="-5.8481533"><ele>717.0</ele><time>2026-05-03T09:56:19.955Z</time></trkpt><trkpt lat="30.3065033" lon="-5.8481633"><ele>717.0</ele><time>2026-05-03T09:56:20.953Z</time></trkpt><trkpt lat="30.3063967" lon="-5.8481717"><ele>717.0</ele><time>2026-05-03T09:56:21.956Z</time></trkpt><trkpt lat="30.3062967" lon="-5.8481667"><ele>717.0</ele><time>2026-05-03T09:56:22.955Z</time></trkpt><trkpt lat="30.306205" lon="-5.848145"><ele>717.0</ele><time>2026-05-03T09:56:23.952Z</time></trkpt><trkpt lat="30.3061183" lon="-5.8481017"><ele>716.6</ele><time>2026-05-03T09:56:24.939Z</time></trkpt><trkpt lat="30.3060383" lon="-5.848035"><ele>716.2</ele><time>2026-05-03T09:56:25.966Z</time></trkpt><trkpt lat="30.3059683" lon="-5.847955"><ele>715.8</ele><time>2026-05-03T09:56:26.936Z</time></trkpt><trkpt lat="30.305915" lon="-5.8478567"><ele>715.4</ele><time>2026-05-03T09:56:27.958Z</time></trkpt><trkpt lat="30.3058717" lon="-5.8477567"><ele>715.0</ele><time>2026-05-03T09:56:28.93Z</time></trkpt><trkpt lat="30.305835" lon="-5.8476567"><ele>714.8333333333334</ele><time>2026-05-03T09:56:29.953Z</time></trkpt><trkpt lat="30.3057983" lon="-5.847565"><ele>714.6666666666667</ele><time>2026-05-03T09:56:30.943Z</time></trkpt><trkpt lat="30.3057483" lon="-5.8474883"><ele>714.5</ele><time>2026-05-03T09:56:31.948Z</time></trkpt><trkpt lat="30.3056833" lon="-5.847435"><ele>714.3333333333334</ele><time>2026-05-03T09:56:32.95Z</time></trkpt><trkpt lat="30.3056033" lon="-5.8474017"><ele>714.1666666666666</ele><time>2026-05-03T09:56:33.964Z</time></trkpt><trkpt lat="30.3055033" lon="-5.8473983"><ele>714.0</ele><time>2026-05-03T09:56:34.947Z</time></trkpt><trkpt lat="30.3053833" lon="-5.8474233"><ele>714.0</ele><time>2026-05-03T09:56:35.972Z</time></trkpt><trkpt lat="30.3052617" lon="-5.84745"><ele>714.0</ele><time>2026-05-03T09:56:36.946Z</time></trkpt><trkpt lat="30.3051367" lon="-5.84748"><ele>714.0</ele><time>2026-05-03T09:56:37.965Z</time></trkpt><trkpt lat="30.3050083" lon="-5.847505"><ele>714.0</ele><time>2026-05-03T09:56:38.939Z</time></trkpt><trkpt lat="30.3048817" lon="-5.8475117"><ele>714.0</ele><time>2026-05-03T09:56:39.952Z</time></trkpt><trkpt lat="30.3047567" lon="-5.8475"><ele>714.0</ele><time>2026-05-03T09:56:40.955Z</time></trkpt><trkpt lat="30.3046317" lon="-5.847465"><ele>714.0</ele><time>2026-05-03T09:56:41.968Z</time></trkpt><trkpt lat="30.30452" lon="-5.8474083"><ele>714.0</ele><time>2026-05-03T09:56:42.942Z</time></trkpt><trkpt lat="30.3044217" lon="-5.8473383"><ele>714.25</ele><time>2026-05-03T09:56:43.965Z</time></trkpt><trkpt lat="30.3043283" lon="-5.8472683"><ele>714.5</ele><time>2026-05-03T09:56:44.941Z</time></trkpt><trkpt lat="30.3042267" lon="-5.8471967"><ele>714.75</ele><time>2026-05-03T09:56:45.953Z</time></trkpt><trkpt lat="30.3041233" lon="-5.8471167"><ele>715.0</ele><time>2026-05-03T09:56:46.944Z</time></trkpt><trkpt lat="30.30402" lon="-5.847035"><ele>715.0</ele><time>2026-05-03T09:56:47.958Z</time></trkpt><trkpt lat="30.3039233" lon="-5.8469633"><ele>715.0</ele><time>2026-05-03T09:56:48.95Z</time></trkpt><trkpt lat="30.303835" lon="-5.8469017"><ele>715.0</ele><time>2026-05-03T09:56:49.992Z</time></trkpt><trkpt lat="30.3037417" lon="-5.8468417"><ele>715.0</ele><time>2026-05-03T09:56:50.939Z</time></trkpt><trkpt lat="30.30364" lon="-5.8467717"><ele>715.0</ele><time>2026-05-03T09:56:51.958Z</time></trkpt><trkpt lat="30.303535" lon="-5.8466933"><ele>715.0</ele><time>2026-05-03T09:56:52.957Z</time></trkpt><trkpt lat="30.3034367" lon="-5.8466217"><ele>715.0</ele><time>2026-05-03T09:56:53.947Z</time></trkpt><trkpt lat="30.3033467" lon="-5.8465567"><ele>715.0</ele><time>2026-05-03T09:56:54.94Z</time></trkpt><trkpt lat="30.3032567" lon="-5.8464933"><ele>715.0</ele><time>2026-05-03T09:56:55.965Z</time></trkpt><trkpt lat="30.303165" lon="-5.8464283"><ele>715.0</ele><time>2026-05-03T09:56:56.957Z</time></trkpt><trkpt lat="30.30307" lon="-5.8463583"><ele>713.75</ele><time>2026-05-03T09:56:57.948Z</time></trkpt><trkpt lat="30.3029683" lon="-5.846275"><ele>712.5</ele><time>2026-05-03T09:56:58.951Z</time></trkpt><trkpt lat="30.3028567" lon="-5.84618"><ele>711.25</ele><time>2026-05-03T09:56:59.948Z</time></trkpt><trkpt lat="30.3027417" lon="-5.8460867"><ele>710.0</ele><time>2026-05-03T09:57:00.939Z</time></trkpt><trkpt lat="30.3026267" lon="-5.8459917"><ele>710.75</ele><time>2026-05-03T09:57:01.95Z</time></trkpt><trkpt lat="30.3025083" lon="-5.84589"><ele>711.5</ele><time>2026-05-03T09:57:02.943Z</time></trkpt><trkpt lat="30.3023917" lon="-5.8457833"><ele>712.25</ele><time>2026-05-03T09:57:03.957Z</time></trkpt><trkpt lat="30.30228" lon="-5.8456817"><ele>713.0</ele><time>2026-05-03T09:57:04.947Z</time></trkpt><trkpt lat="30.3021783" lon="-5.8455883"><ele>713.5</ele><time>2026-05-03T09:57:05.947Z</time></trkpt><trkpt lat="30.30208" lon="-5.845495"><ele>714.0</ele><time>2026-05-03T09:57:06.943Z</time></trkpt><trkpt lat="30.3019783" lon="-5.8454067"><ele>714.5</ele><time>2026-05-03T09:57:07.937Z</time></trkpt><trkpt lat="30.301865" lon="-5.8453233"><ele>715.0</ele><time>2026-05-03T09:57:08.94Z</time></trkpt><trkpt lat="30.3017433" lon="-5.8452433"><ele>715.0</ele><time>2026-05-03T09:57:09.962Z</time></trkpt><trkpt lat="30.3016233" lon="-5.84516"><ele>715.0</ele><time>2026-05-03T09:57:10.937Z</time></trkpt><trkpt lat="30.30151" lon="-5.8450733"><ele>715.0</ele><time>2026-05-03T09:57:11.931Z</time></trkpt><trkpt lat="30.3014033" lon="-5.844985"><ele>715.0</ele><time>2026-05-03T09:57:12.941Z</time></trkpt><trkpt lat="30.301305" lon="-5.8448983"><ele>715.5</ele><time>2026-05-03T09:57:13.965Z</time></trkpt><trkpt lat="30.301205" lon="-5.8448"><ele>716.0</ele><time>2026-05-03T09:57:14.953Z</time></trkpt><trkpt lat="30.3011033" lon="-5.8446917"><ele>716.5</ele><time>2026-05-03T09:57:15.939Z</time></trkpt><trkpt lat="30.3010133" lon="-5.8445867"><ele>717.0</ele><time>2026-05-03T09:57:16.945Z</time></trkpt><trkpt lat="30.3009283" lon="-5.8444967"><ele>717.0</ele><time>2026-05-03T09:57:17.958Z</time></trkpt><trkpt lat="30.300835" lon="-5.84442"><ele>717.0</ele><time>2026-05-03T09:57:18.941Z</time></trkpt><trkpt lat="30.3007333" lon="-5.8443467"><ele>717.0</ele><time>2026-05-03T09:57:19.957Z</time></trkpt><trkpt lat="30.300625" lon="-5.8442667"><ele>717.0</ele><time>2026-05-03T09:57:20.96Z</time></trkpt><trkpt lat="30.3005133" lon="-5.84418"><ele>716.75</ele><time>2026-05-03T09:57:21.963Z</time></trkpt><trkpt lat="30.3004017" lon="-5.844085"><ele>716.5</ele><time>2026-05-03T09:57:22.942Z</time></trkpt><trkpt lat="30.3002883" lon="-5.84399"><ele>716.25</ele><time>2026-05-03T09:57:23.951Z</time></trkpt><trkpt lat="30.3001767" lon="-5.8438967"><ele>716.0</ele><time>2026-05-03T09:57:24.943Z</time></trkpt><trkpt lat="30.3000667" lon="-5.8438"><ele>716.0</ele><time>2026-05-03T09:57:25.953Z</time></trkpt><trkpt lat="30.2999583" lon="-5.8437083"><ele>716.0</ele><time>2026-05-03T09:57:26.955Z</time></trkpt><trkpt lat="30.2998467" lon="-5.8436217"><ele>716.0</ele><time>2026-05-03T09:57:27.974Z</time></trkpt><trkpt lat="30.2997317" lon="-5.8435367"><ele>716.0</ele><time>2026-05-03T09:57:28.944Z</time></trkpt><trkpt lat="30.2996167" lon="-5.8434533"><ele>716.25</ele><time>2026-05-03T09:57:29.958Z</time></trkpt><trkpt lat="30.2995067" lon="-5.843375"><ele>716.5</ele><time>2026-05-03T09:57:30.94Z</time></trkpt><trkpt lat="30.2994" lon="-5.8432967"><ele>716.75</ele><time>2026-05-03T09:57:31.957Z</time></trkpt><trkpt lat="30.299295" lon="-5.8432217"><ele>717.0</ele><time>2026-05-03T09:57:32.951Z</time></trkpt><trkpt lat="30.29919" lon="-5.843145"><ele>717.0</ele><time>2026-05-03T09:57:33.948Z</time></trkpt><trkpt lat="30.2990883" lon="-5.8430717"><ele>717.0</ele><time>2026-05-03T09:57:34.962Z</time></trkpt><trkpt lat="30.29899" lon="-5.8429967"><ele>717.0</ele><time>2026-05-03T09:57:35.952Z</time></trkpt><trkpt lat="30.2988883" lon="-5.8429167"><ele>717.0</ele><time>2026-05-03T09:57:36.944Z</time></trkpt><trkpt lat="30.2987833" lon="-5.842835"><ele>717.25</ele><time>2026-05-03T09:57:37.977Z</time></trkpt><trkpt lat="30.2986783" lon="-5.8427567"><ele>717.5</ele><time>2026-05-03T09:57:38.951Z</time></trkpt><trkpt lat="30.2985733" lon="-5.8426733"><ele>717.75</ele><time>2026-05-03T09:57:39.962Z</time></trkpt><trkpt lat="30.298475" lon="-5.8425883"><ele>718.0</ele><time>2026-05-03T09:57:40.952Z</time></trkpt><trkpt lat="30.2983833" lon="-5.842495"><ele>718.25</ele><time>2026-05-03T09:57:41.963Z</time></trkpt><trkpt lat="30.2982983" lon="-5.8423817"><ele>718.5</ele><time>2026-05-03T09:57:42.937Z</time></trkpt><trkpt lat="30.298215" lon="-5.8422517"><ele>718.75</ele><time>2026-05-03T09:57:43.999Z</time></trkpt><trkpt lat="30.2981367" lon="-5.8421133"><ele>719.0</ele><time>2026-05-03T09:57:44.951Z</time></trkpt><trkpt lat="30.2980617" lon="-5.8419667"><ele>719.0</ele><time>2026-05-03T09:57:45.98Z</time></trkpt><trkpt lat="30.29799" lon="-5.8418133"><ele>719.0</ele><time>2026-05-03T09:57:46.94Z</time></trkpt><trkpt lat="30.29792" lon="-5.8416567"><ele>719.0</ele><time>2026-05-03T09:57:48.009Z</time></trkpt><trkpt lat="30.2978483" lon="-5.8415"><ele>719.6666666666666</ele><time>2026-05-03T09:57:48.971Z</time></trkpt><trkpt lat="30.2977733" lon="-5.8413433"><ele>720.3333333333334</ele><time>2026-05-03T09:57:50.002Z</time></trkpt><trkpt lat="30.2976967" lon="-5.841185"><ele>721.0</ele><time>2026-05-03T09:57:50.958Z</time></trkpt><trkpt lat="30.2976183" lon="-5.84103"><ele>720.6666666666667</ele><time>2026-05-03T09:57:52.005Z</time></trkpt><trkpt lat="30.2975383" lon="-5.8408733"><ele>720.3333333333334</ele><time>2026-05-03T09:57:52.978Z</time></trkpt><trkpt lat="30.2974583" lon="-5.84072"><ele>720.0</ele><time>2026-05-03T09:57:53.956Z</time></trkpt><trkpt lat="30.29738" lon="-5.84057"><ele>720.0</ele><time>2026-05-03T09:57:54.955Z</time></trkpt><trkpt lat="30.2972983" lon="-5.8404267"><ele>720.0</ele><time>2026-05-03T09:57:55.992Z</time></trkpt><trkpt lat="30.2972167" lon="-5.84029"><ele>720.0</ele><time>2026-05-03T09:57:56.944Z</time></trkpt><trkpt lat="30.2971333" lon="-5.8401517"><ele>720.0</ele><time>2026-05-03T09:57:57.958Z</time></trkpt><trkpt lat="30.2970517" lon="-5.8400083"><ele>720.3333333333334</ele><time>2026-05-03T09:57:58.957Z</time></trkpt><trkpt lat="30.2969717" lon="-5.839855"><ele>720.6666666666667</ele><time>2026-05-03T09:57:59.985Z</time></trkpt><trkpt lat="30.296895" lon="-5.8396933"><ele>721.0</ele><time>2026-05-03T09:58:01.033Z</time></trkpt><trkpt lat="30.2968267" lon="-5.8395283"><ele>721.0</ele><time>2026-05-03T09:58:01.991Z</time></trkpt><trkpt lat="30.2967617" lon="-5.8393633"><ele>721.0</ele><time>2026-05-03T09:58:02.954Z</time></trkpt><trkpt lat="30.2966917" lon="-5.8392017"><ele>721.0</ele><time>2026-05-03T09:58:03.953Z</time></trkpt><trkpt lat="30.2966183" lon="-5.8390417"><ele>720.3333333333334</ele><time>2026-05-03T09:58:04.946Z</time></trkpt><trkpt lat="30.2965433" lon="-5.8388833"><ele>719.6666666666666</ele><time>2026-05-03T09:58:05.965Z</time></trkpt><trkpt lat="30.2964683" lon="-5.8387317"><ele>719.0</ele><time>2026-05-03T09:58:06.936Z</time></trkpt><trkpt lat="30.29639" lon="-5.8385767"><ele>719.0</ele><time>2026-05-03T09:58:07.961Z</time></trkpt><trkpt lat="30.2963133" lon="-5.8384183"><ele>719.0</ele><time>2026-05-03T09:58:08.953Z</time></trkpt><trkpt lat="30.2962333" lon="-5.8382583"><ele>719.0</ele><time>2026-05-03T09:58:09.95Z</time></trkpt><trkpt lat="30.2961533" lon="-5.8380967"><ele>719.0</ele><time>2026-05-03T09:58:10.948Z</time></trkpt><trkpt lat="30.2960717" lon="-5.8379383"><ele>719.0</ele><time>2026-05-03T09:58:11.95Z</time></trkpt><trkpt lat="30.2959867" lon="-5.8377817"><ele>719.0</ele><time>2026-05-03T09:58:12.939Z</time></trkpt><trkpt lat="30.2959017" lon="-5.8376233"><ele>719.0</ele><time>2026-05-03T09:58:13.965Z</time></trkpt><trkpt lat="30.295815" lon="-5.8374633"><ele>719.0</ele><time>2026-05-03T09:58:14.929Z</time></trkpt><trkpt lat="30.2957283" lon="-5.8372967"><ele>719.0</ele><time>2026-05-03T09:58:15.945Z</time></trkpt><trkpt lat="30.2956433" lon="-5.83713"><ele>719.0</ele><time>2026-05-03T09:58:16.946Z</time></trkpt><trkpt lat="30.2955633" lon="-5.8369633"><ele>719.0</ele><time>2026-05-03T09:58:17.953Z</time></trkpt><trkpt lat="30.295485" lon="-5.836805"><ele>719.0</ele><time>2026-05-03T09:58:18.943Z</time></trkpt><trkpt lat="30.2954133" lon="-5.8366583"><ele>718.75</ele><time>2026-05-03T09:58:19.973Z</time></trkpt><trkpt lat="30.2953467" lon="-5.8365183"><ele>718.5</ele><time>2026-05-03T09:58:20.947Z</time></trkpt><trkpt lat="30.29528" lon="-5.8363767"><ele>718.25</ele><time>2026-05-03T09:58:21.961Z</time></trkpt><trkpt lat="30.2952083" lon="-5.8362317"><ele>718.0</ele><time>2026-05-03T09:58:22.947Z</time></trkpt><trkpt lat="30.2951317" lon="-5.836085"><ele>716.6666666666667</ele><time>2026-05-03T09:58:23.962Z</time></trkpt><trkpt lat="30.2950533" lon="-5.8359317"><ele>715.3333333333334</ele><time>2026-05-03T09:58:24.957Z</time></trkpt><trkpt lat="30.29498" lon="-5.8357783"><ele>714.0</ele><time>2026-05-03T09:58:25.953Z</time></trkpt><trkpt lat="30.2949083" lon="-5.8356267"><ele>714.0</ele><time>2026-05-03T09:58:26.953Z</time></trkpt><trkpt lat="30.2948367" lon="-5.8354767"><ele>714.0</ele><time>2026-05-03T09:58:27.965Z</time></trkpt><trkpt lat="30.2947633" lon="-5.8353233"><ele>714.0</ele><time>2026-05-03T09:58:28.946Z</time></trkpt><trkpt lat="30.29469" lon="-5.83517"><ele>715.0</ele><time>2026-05-03T09:58:29.972Z</time></trkpt><trkpt lat="30.2946133" lon="-5.8350183"><ele>716.0</ele><time>2026-05-03T09:58:30.949Z</time></trkpt><trkpt lat="30.2945367" lon="-5.83487"><ele>717.0</ele><time>2026-05-03T09:58:31.985Z</time></trkpt><trkpt lat="30.2944617" lon="-5.8347233"><ele>718.0</ele><time>2026-05-03T09:58:32.934Z</time></trkpt><trkpt lat="30.29439" lon="-5.8345783"><ele>718.0</ele><time>2026-05-03T09:58:33.942Z</time></trkpt><trkpt lat="30.294325" lon="-5.8344367"><ele>718.0</ele><time>2026-05-03T09:58:34.939Z</time></trkpt><trkpt lat="30.2942633" lon="-5.8342967"><ele>718.0</ele><time>2026-05-03T09:58:35.956Z</time></trkpt><trkpt lat="30.2941967" lon="-5.8341617"><ele>718.0</ele><time>2026-05-03T09:58:36.944Z</time></trkpt><trkpt lat="30.2941283" lon="-5.83403"><ele>717.25</ele><time>2026-05-03T09:58:37.959Z</time></trkpt><trkpt lat="30.2940617" lon="-5.8339117"><ele>716.5</ele><time>2026-05-03T09:58:38.958Z</time></trkpt><trkpt lat="30.2939933" lon="-5.8337983"><ele>715.75</ele><time>2026-05-03T09:58:39.964Z</time></trkpt><trkpt lat="30.293925" lon="-5.8336817"><ele>715.0</ele><time>2026-05-03T09:58:40.934Z</time></trkpt><trkpt lat="30.2938617" lon="-5.8335533"><ele>715.0</ele><time>2026-05-03T09:58:41.95Z</time></trkpt><trkpt lat="30.2937967" lon="-5.8334183"><ele>715.0</ele><time>2026-05-03T09:58:42.943Z</time></trkpt><trkpt lat="30.2937267" lon="-5.83328"><ele>715.0</ele><time>2026-05-03T09:58:43.959Z</time></trkpt><trkpt lat="30.2936533" lon="-5.8331433"><ele>715.0</ele><time>2026-05-03T09:58:44.954Z</time></trkpt><trkpt lat="30.2935767" lon="-5.833005"><ele>715.0</ele><time>2026-05-03T09:58:45.961Z</time></trkpt><trkpt lat="30.2934967" lon="-5.8328667"><ele>715.0</ele><time>2026-05-03T09:58:46.979Z</time></trkpt><trkpt lat="30.2934217" lon="-5.8327283"><ele>715.0</ele><time>2026-05-03T09:58:47.951Z</time></trkpt><trkpt lat="30.2933533" lon="-5.8325883"><ele>715.0</ele><time>2026-05-03T09:58:48.945Z</time></trkpt><trkpt lat="30.29329" lon="-5.8324467"><ele>714.75</ele><time>2026-05-03T09:58:49.939Z</time></trkpt><trkpt lat="30.2932317" lon="-5.8322967"><ele>714.5</ele><time>2026-05-03T09:58:50.937Z</time></trkpt><trkpt lat="30.2931717" lon="-5.8321417"><ele>714.25</ele><time>2026-05-03T09:58:51.962Z</time></trkpt><trkpt lat="30.293105" lon="-5.8319867"><ele>714.0</ele><time>2026-05-03T09:58:52.945Z</time></trkpt><trkpt lat="30.2930233" lon="-5.8318367"><ele>714.6666666666666</ele><time>2026-05-03T09:58:53.951Z</time></trkpt><trkpt lat="30.29294" lon="-5.8316867"><ele>715.3333333333333</ele><time>2026-05-03T09:58:54.948Z</time></trkpt><trkpt lat="30.2928583" lon="-5.83153"><ele>716.0</ele><time>2026-05-03T09:58:55.957Z</time></trkpt><trkpt lat="30.29278" lon="-5.8313733"><ele>716.0</ele><time>2026-05-03T09:58:56.953Z</time></trkpt><trkpt lat="30.2927033" lon="-5.83122"><ele>716.0</ele><time>2026-05-03T09:58:57.956Z</time></trkpt><trkpt lat="30.292625" lon="-5.831075"><ele>716.0</ele><time>2026-05-03T09:58:58.957Z</time></trkpt><trkpt lat="30.2925483" lon="-5.83093"><ele>716.0</ele><time>2026-05-03T09:58:59.954Z</time></trkpt><trkpt lat="30.2924767" lon="-5.83078"><ele>715.75</ele><time>2026-05-03T09:59:00.945Z</time></trkpt><trkpt lat="30.2924133" lon="-5.8306283"><ele>715.5</ele><time>2026-05-03T09:59:01.953Z</time></trkpt><trkpt lat="30.2923533" lon="-5.830475"><ele>715.25</ele><time>2026-05-03T09:59:02.953Z</time></trkpt><trkpt lat="30.2922917" lon="-5.83033"><ele>715.0</ele><time>2026-05-03T09:59:04.009Z</time></trkpt><trkpt lat="30.29222" lon="-5.8301883"><ele>714.75</ele><time>2026-05-03T09:59:04.942Z</time></trkpt><trkpt lat="30.2921433" lon="-5.830055"><ele>714.5</ele><time>2026-05-03T09:59:05.96Z</time></trkpt><trkpt lat="30.2920633" lon="-5.8299167"><ele>714.25</ele><time>2026-05-03T09:59:06.939Z</time></trkpt><trkpt lat="30.291985" lon="-5.82977"><ele>714.0</ele><time>2026-05-03T09:59:07.959Z</time></trkpt><trkpt lat="30.2919083" lon="-5.8296233"><ele>714.0</ele><time>2026-05-03T09:59:08.943Z</time></trkpt><trkpt lat="30.29183" lon="-5.8294767"><ele>714.0</ele><time>2026-05-03T09:59:09.943Z</time></trkpt><trkpt lat="30.29175" lon="-5.82932"><ele>714.0</ele><time>2026-05-03T09:59:10.937Z</time></trkpt><trkpt lat="30.29167" lon="-5.82916"><ele>714.3333333333334</ele><time>2026-05-03T09:59:11.963Z</time></trkpt><trkpt lat="30.2915867" lon="-5.8289967"><ele>714.6666666666667</ele><time>2026-05-03T09:59:12.947Z</time></trkpt><trkpt lat="30.2915033" lon="-5.828835"><ele>715.0</ele><time>2026-05-03T09:59:13.95Z</time></trkpt><trkpt lat="30.2914233" lon="-5.8286817"><ele>714.3333333333334</ele><time>2026-05-03T09:59:14.945Z</time></trkpt><trkpt lat="30.2913433" lon="-5.8285267"><ele>713.6666666666666</ele><time>2026-05-03T09:59:15.968Z</time></trkpt><trkpt lat="30.2912617" lon="-5.82837"><ele>713.0</ele><time>2026-05-03T09:59:16.947Z</time></trkpt><trkpt lat="30.2911817" lon="-5.8282083"><ele>713.0</ele><time>2026-05-03T09:59:17.962Z</time></trkpt><trkpt lat="30.2911" lon="-5.8280417"><ele>713.0</ele><time>2026-05-03T09:59:18.955Z</time></trkpt><trkpt lat="30.2910167" lon="-5.8278817"><ele>713.0</ele><time>2026-05-03T09:59:19.978Z</time></trkpt><trkpt lat="30.29093" lon="-5.8277233"><ele>713.0</ele><time>2026-05-03T09:59:20.948Z</time></trkpt><trkpt lat="30.2908433" lon="-5.8275617"><ele>713.0</ele><time>2026-05-03T09:59:21.963Z</time></trkpt><trkpt lat="30.2907583" lon="-5.8274"><ele>713.0</ele><time>2026-05-03T09:59:22.945Z</time></trkpt><trkpt lat="30.2906767" lon="-5.827235"><ele>713.0</ele><time>2026-05-03T09:59:23.951Z</time></trkpt><trkpt lat="30.2905933" lon="-5.8270617"><ele>713.0</ele><time>2026-05-03T09:59:24.959Z</time></trkpt><trkpt lat="30.290505" lon="-5.8268883"><ele>713.0</ele><time>2026-05-03T09:59:25.958Z</time></trkpt><trkpt lat="30.290415" lon="-5.826715"><ele>712.6666666666666</ele><time>2026-05-03T09:59:26.965Z</time></trkpt><trkpt lat="30.2903233" lon="-5.8265467"><ele>712.3333333333334</ele><time>2026-05-03T09:59:27.947Z</time></trkpt><trkpt lat="30.2902367" lon="-5.8263783"><ele>712.0</ele><time>2026-05-03T09:59:28.939Z</time></trkpt><trkpt lat="30.2901517" lon="-5.8262117"><ele>712.0</ele><time>2026-05-03T09:59:29.964Z</time></trkpt><trkpt lat="30.2900667" lon="-5.8260433"><ele>712.0</ele><time>2026-05-03T09:59:30.935Z</time></trkpt><trkpt lat="30.2899817" lon="-5.8258717"><ele>712.0</ele><time>2026-05-03T09:59:31.951Z</time></trkpt><trkpt lat="30.2898983" lon="-5.8256967"><ele>712.0</ele><time>2026-05-03T09:59:32.944Z</time></trkpt><trkpt lat="30.289815" lon="-5.8255183"><ele>712.0</ele><time>2026-05-03T09:59:33.956Z</time></trkpt><trkpt lat="30.28973" lon="-5.82534"><ele>712.0</ele><time>2026-05-03T09:59:34.94Z</time></trkpt><trkpt lat="30.289645" lon="-5.8251617"><ele>711.6666666666667</ele><time>2026-05-03T09:59:36.005Z</time></trkpt><trkpt lat="30.2895567" lon="-5.8249833"><ele>711.3333333333334</ele><time>2026-05-03T09:59:36.956Z</time></trkpt><trkpt lat="30.2894667" lon="-5.8248067"><ele>711.0</ele><time>2026-05-03T09:59:37.973Z</time></trkpt><trkpt lat="30.2893767" lon="-5.82463"><ele>711.0</ele><time>2026-05-03T09:59:38.947Z</time></trkpt><trkpt lat="30.2892883" lon="-5.82445"><ele>711.0</ele><time>2026-05-03T09:59:39.948Z</time></trkpt><trkpt lat="30.2892017" lon="-5.8242717"><ele>711.0</ele><time>2026-05-03T09:59:40.943Z</time></trkpt><trkpt lat="30.289115" lon="-5.8240933"><ele>711.0</ele><time>2026-05-03T09:59:41.95Z</time></trkpt><trkpt lat="30.2890283" lon="-5.8239217"><ele>711.0</ele><time>2026-05-03T09:59:42.952Z</time></trkpt><trkpt lat="30.2889433" lon="-5.8237533"><ele>711.0</ele><time>2026-05-03T09:59:43.964Z</time></trkpt><trkpt lat="30.28886" lon="-5.8235867"><ele>711.3333333333334</ele><time>2026-05-03T09:59:44.94Z</time></trkpt><trkpt lat="30.2887767" lon="-5.8234183"><ele>711.6666666666667</ele><time>2026-05-03T09:59:45.953Z</time></trkpt><trkpt lat="30.2886933" lon="-5.8232483"><ele>712.0</ele><time>2026-05-03T09:59:46.951Z</time></trkpt><trkpt lat="30.2886167" lon="-5.823085"><ele>712.0</ele><time>2026-05-03T09:59:47.962Z</time></trkpt><trkpt lat="30.2885417" lon="-5.822925"><ele>712.0</ele><time>2026-05-03T09:59:48.955Z</time></trkpt><trkpt lat="30.2884667" lon="-5.8227717"><ele>712.0</ele><time>2026-05-03T09:59:49.963Z</time></trkpt><trkpt lat="30.288395" lon="-5.8226283"><ele>712.0</ele><time>2026-05-03T09:59:50.94Z</time></trkpt><trkpt lat="30.2883233" lon="-5.8224933"><ele>712.0</ele><time>2026-05-03T09:59:51.961Z</time></trkpt><trkpt lat="30.2882517" lon="-5.8223567"><ele>712.0</ele><time>2026-05-03T09:59:52.939Z</time></trkpt><trkpt lat="30.2881767" lon="-5.82221"><ele>712.0</ele><time>2026-05-03T09:59:53.949Z</time></trkpt><trkpt lat="30.2881017" lon="-5.8220583"><ele>711.3333333333334</ele><time>2026-05-03T09:59:54.949Z</time></trkpt><trkpt lat="30.28802" lon="-5.821905"><ele>710.6666666666666</ele><time>2026-05-03T09:59:55.97Z</time></trkpt><trkpt lat="30.2879333" lon="-5.82175"><ele>710.0</ele><time>2026-05-03T09:59:56.944Z</time></trkpt><trkpt lat="30.28784" lon="-5.8215983"><ele>709.3333333333333</ele><time>2026-05-03T09:59:57.976Z</time></trkpt><trkpt lat="30.287745" lon="-5.821445"><ele>708.6666666666666</ele><time>2026-05-03T09:59:58.929Z</time></trkpt><trkpt lat="30.28765" lon="-5.8212883"><ele>708.0</ele><time>2026-05-03T09:59:59.961Z</time></trkpt><trkpt lat="30.2875517" lon="-5.8211283"><ele>708.0</ele><time>2026-05-03T10:00:00.952Z</time></trkpt><trkpt lat="30.28745" lon="-5.8209667"><ele>708.0</ele><time>2026-05-03T10:00:01.961Z</time></trkpt><trkpt lat="30.2873467" lon="-5.8208067"><ele>708.0</ele><time>2026-05-03T10:00:02.948Z</time></trkpt><trkpt lat="30.2872417" lon="-5.82064"><ele>708.0</ele><time>2026-05-03T10:00:03.952Z</time></trkpt><trkpt lat="30.2871367" lon="-5.8204667"><ele>708.0</ele><time>2026-05-03T10:00:04.936Z</time></trkpt><trkpt lat="30.2870317" lon="-5.8202933"><ele>708.0</ele><time>2026-05-03T10:00:05.946Z</time></trkpt><trkpt lat="30.286925" lon="-5.82012"><ele>708.3333333333334</ele><time>2026-05-03T10:00:06.962Z</time></trkpt><trkpt lat="30.2868217" lon="-5.81995"><ele>708.6666666666667</ele><time>2026-05-03T10:00:07.948Z</time></trkpt><trkpt lat="30.28672" lon="-5.8197833"><ele>709.0</ele><time>2026-05-03T10:00:08.942Z</time></trkpt><trkpt lat="30.28662" lon="-5.819615"><ele>709.0</ele><time>2026-05-03T10:00:09.943Z</time></trkpt><trkpt lat="30.28652" lon="-5.8194467"><ele>709.0</ele><time>2026-05-03T10:00:10.942Z</time></trkpt><trkpt lat="30.286415" lon="-5.8192783"><ele>709.0</ele><time>2026-05-03T10:00:11.956Z</time></trkpt><trkpt lat="30.2863133" lon="-5.819115"><ele>710.6666666666667</ele><time>2026-05-03T10:00:12.943Z</time></trkpt><trkpt lat="30.2862183" lon="-5.8189567"><ele>712.3333333333334</ele><time>2026-05-03T10:00:13.949Z</time></trkpt><trkpt lat="30.28613" lon="-5.8188067"><ele>714.0</ele><time>2026-05-03T10:00:14.95Z</time></trkpt><trkpt lat="30.286045" lon="-5.818665"><ele>714.0</ele><time>2026-05-03T10:00:15.944Z</time></trkpt><trkpt lat="30.2859567" lon="-5.81853"><ele>714.0</ele><time>2026-05-03T10:00:16.951Z</time></trkpt><trkpt lat="30.2858717" lon="-5.818395"><ele>714.0</ele><time>2026-05-03T10:00:17.954Z</time></trkpt><trkpt lat="30.2857967" lon="-5.81827"><ele>714.0</ele><time>2026-05-03T10:00:18.939Z</time></trkpt><trkpt lat="30.28573" lon="-5.81816"><ele>714.0</ele><time>2026-05-03T10:00:19.936Z</time></trkpt><trkpt lat="30.2856617" lon="-5.81806"><ele>714.0</ele><time>2026-05-03T10:00:20.945Z</time></trkpt><trkpt lat="30.28559" lon="-5.8179783"><ele>714.0</ele><time>2026-05-03T10:00:21.969Z</time></trkpt><trkpt lat="30.2855167" lon="-5.817915"><ele>714.0</ele><time>2026-05-03T10:00:22.95Z</time></trkpt><trkpt lat="30.2854333" lon="-5.81787"><ele>714.0</ele><time>2026-05-03T10:00:23.958Z</time></trkpt><trkpt lat="30.2853417" lon="-5.817845"><ele>714.0</ele><time>2026-05-03T10:00:24.944Z</time></trkpt><trkpt lat="30.2852433" lon="-5.8178417"><ele>714.0</ele><time>2026-05-03T10:00:25.96Z</time></trkpt><trkpt lat="30.2851433" lon="-5.8178567"><ele>714.0</ele><time>2026-05-03T10:00:26.93Z</time></trkpt><trkpt lat="30.2850467" lon="-5.8178733"><ele>714.0</ele><time>2026-05-03T10:00:27.957Z</time></trkpt><trkpt lat="30.28496" lon="-5.8178783"><ele>714.0</ele><time>2026-05-03T10:00:28.95Z</time></trkpt><trkpt lat="30.284875" lon="-5.8178617"><ele>714.0</ele><time>2026-05-03T10:00:29.961Z</time></trkpt><trkpt lat="30.2848" lon="-5.8178233"><ele>714.0</ele><time>2026-05-03T10:00:30.944Z</time></trkpt><trkpt lat="30.2847267" lon="-5.817765"><ele>714.0</ele><time>2026-05-03T10:00:31.939Z</time></trkpt><trkpt lat="30.284655" lon="-5.8176867"><ele>714.0</ele><time>2026-05-03T10:00:32.958Z</time></trkpt><trkpt lat="30.2845883" lon="-5.8176"><ele>714.0</ele><time>2026-05-03T10:00:33.949Z</time></trkpt><trkpt lat="30.28451" lon="-5.8175133"><ele>713.0</ele><time>2026-05-03T10:00:34.949Z</time></trkpt><trkpt lat="30.28441" lon="-5.8174283"><ele>712.0</ele><time>2026-05-03T10:00:35.949Z</time></trkpt><trkpt lat="30.284295" lon="-5.8173483"><ele>711.0</ele><time>2026-05-03T10:00:36.949Z</time></trkpt><trkpt lat="30.2841717" lon="-5.8172733"><ele>710.0</ele><time>2026-05-03T10:00:37.942Z</time></trkpt><trkpt lat="30.2840517" lon="-5.8172"><ele>710.0</ele><time>2026-05-03T10:00:38.943Z</time></trkpt><trkpt lat="30.2839333" lon="-5.8171233"><ele>710.0</ele><time>2026-05-03T10:00:39.944Z</time></trkpt><trkpt lat="30.28382" lon="-5.8170517"><ele>710.0</ele><time>2026-05-03T10:00:40.939Z</time></trkpt><trkpt lat="30.2837083" lon="-5.816985"><ele>710.0</ele><time>2026-05-03T10:00:41.943Z</time></trkpt><trkpt lat="30.2836033" lon="-5.8169267"><ele>709.4</ele><time>2026-05-03T10:00:42.938Z</time></trkpt><trkpt lat="30.2835067" lon="-5.8168767"><ele>708.8</ele><time>2026-05-03T10:00:43.951Z</time></trkpt><trkpt lat="30.2834217" lon="-5.816825"><ele>708.2</ele><time>2026-05-03T10:00:44.937Z</time></trkpt><trkpt lat="30.2833467" lon="-5.8167617"><ele>707.6</ele><time>2026-05-03T10:00:45.952Z</time></trkpt><trkpt lat="30.2832833" lon="-5.816685"><ele>707.0</ele><time>2026-05-03T10:00:46.937Z</time></trkpt><trkpt lat="30.283235" lon="-5.816595"><ele>706.4000000000001</ele><time>2026-05-03T10:00:47.947Z</time></trkpt><trkpt lat="30.283205" lon="-5.816495"><ele>705.8000000000001</ele><time>2026-05-03T10:00:48.957Z</time></trkpt><trkpt lat="30.2831983" lon="-5.816395"><ele>705.2</ele><time>2026-05-03T10:00:49.942Z</time></trkpt><trkpt lat="30.2832033" lon="-5.816285"><ele>704.6</ele><time>2026-05-03T10:00:50.94Z</time></trkpt><trkpt lat="30.283215" lon="-5.8161583"><ele>704.0</ele><time>2026-05-03T10:00:51.963Z</time></trkpt><trkpt lat="30.2832283" lon="-5.816015"><ele>704.25</ele><time>2026-05-03T10:00:52.956Z</time></trkpt><trkpt lat="30.2832467" lon="-5.8158567"><ele>704.5</ele><time>2026-05-03T10:00:53.963Z</time></trkpt><trkpt lat="30.2832633" lon="-5.8156983"><ele>704.75</ele><time>2026-05-03T10:00:54.947Z</time></trkpt><trkpt lat="30.28329" lon="-5.815535"><ele>705.0</ele><time>2026-05-03T10:00:55.972Z</time></trkpt><trkpt lat="30.28332" lon="-5.8153717"><ele>705.0</ele><time>2026-05-03T10:00:56.962Z</time></trkpt><trkpt lat="30.28335" lon="-5.8152083"><ele>705.0</ele><time>2026-05-03T10:00:57.965Z</time></trkpt><trkpt lat="30.2833733" lon="-5.81504"><ele>705.0</ele><time>2026-05-03T10:00:58.939Z</time></trkpt><trkpt lat="30.2833983" lon="-5.81486"><ele>705.0</ele><time>2026-05-03T10:00:59.971Z</time></trkpt><trkpt lat="30.2834267" lon="-5.8146883"><ele>706.0</ele><time>2026-05-03T10:01:00.946Z</time></trkpt><trkpt lat="30.28346" lon="-5.8145317"><ele>707.0</ele><time>2026-05-03T10:01:01.968Z</time></trkpt><trkpt lat="30.28349" lon="-5.8143867"><ele>708.0</ele><time>2026-05-03T10:01:02.948Z</time></trkpt><trkpt lat="30.2835183" lon="-5.81426"><ele>709.0</ele><time>2026-05-03T10:01:03.946Z</time></trkpt><trkpt lat="30.2835383" lon="-5.8141467"><ele>709.4000000000001</ele><time>2026-05-03T10:01:04.937Z</time></trkpt><trkpt lat="30.2835467" lon="-5.8140367"><ele>709.8</ele><time>2026-05-03T10:01:05.981Z</time></trkpt><trkpt lat="30.2835367" lon="-5.8139283"><ele>710.2</ele><time>2026-05-03T10:01:06.946Z</time></trkpt><trkpt lat="30.2835033" lon="-5.813835"><ele>710.5999999999999</ele><time>2026-05-03T10:01:07.949Z</time></trkpt><trkpt lat="30.2834517" lon="-5.8137467"><ele>711.0</ele><time>2026-05-03T10:01:08.94Z</time></trkpt><trkpt lat="30.283365" lon="-5.8136817"><ele>711.0</ele><time>2026-05-03T10:01:09.962Z</time></trkpt><trkpt lat="30.2832633" lon="-5.8136233"><ele>711.0</ele><time>2026-05-03T10:01:10.959Z</time></trkpt><trkpt lat="30.2831567" lon="-5.813555"><ele>711.0</ele><time>2026-05-03T10:01:11.944Z</time></trkpt><trkpt lat="30.2830517" lon="-5.8134667"><ele>711.0</ele><time>2026-05-03T10:01:12.954Z</time></trkpt><trkpt lat="30.2829517" lon="-5.8133767"><ele>712.4</ele><time>2026-05-03T10:01:13.964Z</time></trkpt><trkpt lat="30.2828517" lon="-5.8133117"><ele>713.8</ele><time>2026-05-03T10:01:14.94Z</time></trkpt><trkpt lat="30.2827483" lon="-5.813265"><ele>715.1999999999999</ele><time>2026-05-03T10:01:15.972Z</time></trkpt><trkpt lat="30.2826533" lon="-5.813225"><ele>716.5999999999999</ele><time>2026-05-03T10:01:16.955Z</time></trkpt><trkpt lat="30.2825667" lon="-5.8131833"><ele>718.0</ele><time>2026-05-03T10:01:17.963Z</time></trkpt><trkpt lat="30.28248" lon="-5.81312"><ele>718.0</ele><time>2026-05-03T10:01:18.946Z</time></trkpt><trkpt lat="30.282395" lon="-5.81302"><ele>718.0</ele><time>2026-05-03T10:01:19.96Z</time></trkpt><trkpt lat="30.2823217" lon="-5.81289"><ele>718.0</ele><time>2026-05-03T10:01:20.938Z</time></trkpt><trkpt lat="30.2822583" lon="-5.8127367"><ele>718.0</ele><time>2026-05-03T10:01:21.952Z</time></trkpt><trkpt lat="30.2822017" lon="-5.8125817"><ele>719.0</ele><time>2026-05-03T10:01:22.945Z</time></trkpt><trkpt lat="30.2821467" lon="-5.8124367"><ele>720.0</ele><time>2026-05-03T10:01:23.95Z</time></trkpt><trkpt lat="30.2820867" lon="-5.8123017"><ele>721.0</ele><time>2026-05-03T10:01:24.943Z</time></trkpt><trkpt lat="30.28202" lon="-5.812165"><ele>722.0</ele><time>2026-05-03T10:01:25.966Z</time></trkpt><trkpt lat="30.2819417" lon="-5.81203"><ele>722.0</ele><time>2026-05-03T10:01:26.936Z</time></trkpt><trkpt lat="30.281855" lon="-5.8118917"><ele>722.0</ele><time>2026-05-03T10:01:27.957Z</time></trkpt><trkpt lat="30.2817583" lon="-5.8117483"><ele>722.0</ele><time>2026-05-03T10:01:28.926Z</time></trkpt><trkpt lat="30.2816583" lon="-5.811595"><ele>722.0</ele><time>2026-05-03T10:01:29.971Z</time></trkpt><trkpt lat="30.2815583" lon="-5.81143"><ele>722.0</ele><time>2026-05-03T10:01:30.944Z</time></trkpt><trkpt lat="30.281465" lon="-5.811255"><ele>722.0</ele><time>2026-05-03T10:01:31.939Z</time></trkpt><trkpt lat="30.281375" lon="-5.81108"><ele>721.0</ele><time>2026-05-03T10:01:32.953Z</time></trkpt><trkpt lat="30.281285" lon="-5.810905"><ele>720.0</ele><time>2026-05-03T10:01:33.95Z</time></trkpt><trkpt lat="30.2811942" lon="-5.8107313"><ele>719.0</ele><time>2026-05-03T10:01:34.948Z</time></trkpt><trkpt lat="30.2811046" lon="-5.8105602"><ele>719.0</ele><time>2026-05-03T10:01:35.962Z</time></trkpt><trkpt lat="30.281018" lon="-5.8103876"><ele>719.0</ele><time>2026-05-03T10:01:36.951Z</time></trkpt><trkpt lat="30.2809368" lon="-5.8102097"><ele>719.0</ele><time>2026-05-03T10:01:37.954Z</time></trkpt><trkpt lat="30.28086" lon="-5.8100329"><ele>719.3333333333333</ele><time>2026-05-03T10:01:38.943Z</time></trkpt><trkpt lat="30.2807813" lon="-5.8098555"><ele>719.6666666666666</ele><time>2026-05-03T10:01:39.955Z</time></trkpt><trkpt lat="30.2807033" lon="-5.8096844"><ele>720.0</ele><time>2026-05-03T10:01:40.961Z</time></trkpt><trkpt lat="30.2806238" lon="-5.8095157"><ele>720.3333333333334</ele><time>2026-05-03T10:01:41.962Z</time></trkpt><trkpt lat="30.2805439" lon="-5.8093476"><ele>720.6666666666667</ele><time>2026-05-03T10:01:42.944Z</time></trkpt><trkpt lat="30.2804632" lon="-5.8091716"><ele>721.0</ele><time>2026-05-03T10:01:43.96Z</time></trkpt><trkpt lat="30.2803818" lon="-5.8089945"><ele>721.0</ele><time>2026-05-03T10:01:44.937Z</time></trkpt><trkpt lat="30.2802982" lon="-5.8088138"><ele>721.0</ele><time>2026-05-03T10:01:45.96Z</time></trkpt><trkpt lat="30.2802156" lon="-5.8086378"><ele>721.0</ele><time>2026-05-03T10:01:46.946Z</time></trkpt><trkpt lat="30.2801332" lon="-5.8084628"><ele>720.3333333333334</ele><time>2026-05-03T10:01:47.957Z</time></trkpt><trkpt lat="30.2800565" lon="-5.8083005"><ele>719.6666666666666</ele><time>2026-05-03T10:01:48.948Z</time></trkpt><trkpt lat="30.2799854" lon="-5.8081488"><ele>719.0</ele><time>2026-05-03T10:01:49.949Z</time></trkpt><trkpt lat="30.2799114" lon="-5.8080046"><ele>719.0</ele><time>2026-05-03T10:01:50.956Z</time></trkpt><trkpt lat="30.2798356" lon="-5.8078596"><ele>719.0</ele><time>2026-05-03T10:01:51.962Z</time></trkpt><trkpt lat="30.2797639" lon="-5.8077135"><ele>719.0</ele><time>2026-05-03T10:01:52.965Z</time></trkpt><trkpt lat="30.2796939" lon="-5.8075673"><ele>719.0</ele><time>2026-05-03T10:01:53.951Z</time></trkpt><trkpt lat="30.2796263" lon="-5.8074165"><ele>719.25</ele><time>2026-05-03T10:01:54.983Z</time></trkpt><trkpt lat="30.2795642" lon="-5.8072762"><ele>719.5</ele><time>2026-05-03T10:01:55.95Z</time></trkpt><trkpt lat="30.2795049" lon="-5.807145"><ele>719.75</ele><time>2026-05-03T10:01:56.953Z</time></trkpt><trkpt lat="30.2794455" lon="-5.8070278"><ele>720.0</ele><time>2026-05-03T10:01:57.947Z</time></trkpt><trkpt lat="30.2793922" lon="-5.8069239"><ele>720.0</ele><time>2026-05-03T10:01:58.945Z</time></trkpt><trkpt lat="30.2793466" lon="-5.8068318"><ele>720.0</ele><time>2026-05-03T10:01:59.945Z</time></trkpt><trkpt lat="30.2793113" lon="-5.8067589"><ele>720.0</ele><time>2026-05-03T10:02:00.941Z</time></trkpt><trkpt lat="30.2792612" lon="-5.806656"><ele>720.0</ele><time>2026-05-03T10:02:02.942Z</time></trkpt><trkpt lat="30.2792305" lon="-5.8065836"><ele>720.0</ele><time>2026-05-03T10:02:05.984Z</time></trkpt><trkpt lat="30.2791967" lon="-5.80651"><ele>720.0</ele><time>2026-05-03T10:03:37.968Z</time></trkpt><trkpt lat="30.2791567" lon="-5.8064283"><ele>720.0</ele><time>2026-05-03T10:03:38.932Z</time></trkpt><trkpt lat="30.279105" lon="-5.806325"><ele>720.0</ele><time>2026-05-03T10:03:39.938Z</time></trkpt><trkpt lat="30.279045" lon="-5.8062083"><ele>720.0</ele><time>2026-05-03T10:03:40.945Z</time></trkpt><trkpt lat="30.27898" lon="-5.80608"><ele>720.0</ele><time>2026-05-03T10:03:41.971Z</time></trkpt><trkpt lat="30.2789117" lon="-5.805945"><ele>719.3333333333334</ele><time>2026-05-03T10:03:42.945Z</time></trkpt><trkpt lat="30.27884" lon="-5.8058017"><ele>718.6666666666667</ele><time>2026-05-03T10:03:43.955Z</time></trkpt><trkpt lat="30.2787667" lon="-5.80565"><ele>718.0</ele><time>2026-05-03T10:03:44.947Z</time></trkpt><trkpt lat="30.2786917" lon="-5.80549"><ele>718.0</ele><time>2026-05-03T10:03:45.959Z</time></trkpt><trkpt lat="30.278615" lon="-5.8053167"><ele>718.0</ele><time>2026-05-03T10:03:46.938Z</time></trkpt><trkpt lat="30.2785383" lon="-5.805145"><ele>718.0</ele><time>2026-05-03T10:03:47.942Z</time></trkpt><trkpt lat="30.278465" lon="-5.8049767"><ele>718.0</ele><time>2026-05-03T10:03:48.95Z</time></trkpt><trkpt lat="30.2783917" lon="-5.80481"><ele>718.0</ele><time>2026-05-03T10:03:49.972Z</time></trkpt><trkpt lat="30.2783217" lon="-5.8046533"><ele>718.0</ele><time>2026-05-03T10:03:50.939Z</time></trkpt><trkpt lat="30.2782533" lon="-5.8045017"><ele>718.0</ele><time>2026-05-03T10:03:51.949Z</time></trkpt><trkpt lat="30.2781817" lon="-5.804355"><ele>718.0</ele><time>2026-05-03T10:03:52.943Z</time></trkpt><trkpt lat="30.2781083" lon="-5.8042"><ele>718.0</ele><time>2026-05-03T10:03:53.958Z</time></trkpt><trkpt lat="30.2780267" lon="-5.8040367"><ele>717.6666666666667</ele><time>2026-05-03T10:03:54.942Z</time></trkpt><trkpt lat="30.2779417" lon="-5.8038683"><ele>717.3333333333334</ele><time>2026-05-03T10:03:55.954Z</time></trkpt><trkpt lat="30.277855" lon="-5.803695"><ele>717.0</ele><time>2026-05-03T10:03:56.948Z</time></trkpt><trkpt lat="30.277773" lon="-5.8035217"><ele>717.3333333333334</ele><time>2026-05-03T10:03:57.951Z</time></trkpt><trkpt lat="30.2776867" lon="-5.8033473"><ele>717.6666666666667</ele><time>2026-05-03T10:03:58.946Z</time></trkpt><trkpt lat="30.2775997" lon="-5.8031691"><ele>718.0</ele><time>2026-05-03T10:03:59.949Z</time></trkpt><trkpt lat="30.2775144" lon="-5.8029875"><ele>718.0</ele><time>2026-05-03T10:04:00.941Z</time></trkpt><trkpt lat="30.2774271" lon="-5.8027998"><ele>718.0</ele><time>2026-05-03T10:04:01.959Z</time></trkpt><trkpt lat="30.2773381" lon="-5.8026111"><ele>718.0</ele><time>2026-05-03T10:04:02.949Z</time></trkpt><trkpt lat="30.2772442" lon="-5.8024173"><ele>718.0</ele><time>2026-05-03T10:04:03.96Z</time></trkpt><trkpt lat="30.2771495" lon="-5.8022202"><ele>718.0</ele><time>2026-05-03T10:04:04.947Z</time></trkpt><trkpt lat="30.2770545" lon="-5.8020187"><ele>718.0</ele><time>2026-05-03T10:04:05.95Z</time></trkpt><trkpt lat="30.2769598" lon="-5.8018187"><ele>718.0</ele><time>2026-05-03T10:04:06.941Z</time></trkpt><trkpt lat="30.2768642" lon="-5.8016173"><ele>718.0</ele><time>2026-05-03T10:04:07.956Z</time></trkpt><trkpt lat="30.2767663" lon="-5.8014172"><ele>718.0</ele><time>2026-05-03T10:04:08.946Z</time></trkpt><trkpt lat="30.2766687" lon="-5.8012162"><ele>718.0</ele><time>2026-05-03T10:04:09.951Z</time></trkpt><trkpt lat="30.2765738" lon="-5.8010175"><ele>718.0</ele><time>2026-05-03T10:04:10.936Z</time></trkpt><trkpt lat="30.2764772" lon="-5.8008112"><ele>718.0</ele><time>2026-05-03T10:04:11.956Z</time></trkpt><trkpt lat="30.276383" lon="-5.8006072"><ele>717.6666666666667</ele><time>2026-05-03T10:04:12.935Z</time></trkpt><trkpt lat="30.2762847" lon="-5.8003952"><ele>717.3333333333334</ele><time>2026-05-03T10:04:13.971Z</time></trkpt><trkpt lat="30.2761883" lon="-5.8001897"><ele>717.0</ele><time>2026-05-03T10:04:14.933Z</time></trkpt><trkpt lat="30.2760929" lon="-5.7999859"><ele>716.6666666666666</ele><time>2026-05-03T10:04:15.943Z</time></trkpt><trkpt lat="30.2760044" lon="-5.7997995"><ele>716.3333333333333</ele><time>2026-05-03T10:04:16.94Z</time></trkpt><trkpt lat="30.2759213" lon="-5.7996303"><ele>716.0</ele><time>2026-05-03T10:04:17.967Z</time></trkpt><trkpt lat="30.275846" lon="-5.7994767"><ele>716.0</ele><time>2026-05-03T10:04:18.95Z</time></trkpt><trkpt lat="30.2757715" lon="-5.7993232"><ele>716.0</ele><time>2026-05-03T10:04:19.952Z</time></trkpt><trkpt lat="30.2757001" lon="-5.7991705"><ele>716.0</ele><time>2026-05-03T10:04:20.942Z</time></trkpt><trkpt lat="30.2756351" lon="-5.7990245"><ele>716.0</ele><time>2026-05-03T10:04:21.958Z</time></trkpt><trkpt lat="30.2755733" lon="-5.7988844"><ele>716.0</ele><time>2026-05-03T10:04:22.935Z</time></trkpt><trkpt lat="30.2755099" lon="-5.7987378"><ele>716.0</ele><time>2026-05-03T10:04:23.98Z</time></trkpt><trkpt lat="30.2754441" lon="-5.7985916"><ele>716.0</ele><time>2026-05-03T10:04:24.941Z</time></trkpt><trkpt lat="30.2753733" lon="-5.7984415"><ele>716.0</ele><time>2026-05-03T10:04:25.967Z</time></trkpt><trkpt lat="30.2753021" lon="-5.798293"><ele>716.0</ele><time>2026-05-03T10:04:26.937Z</time></trkpt><trkpt lat="30.2752275" lon="-5.7981349"><ele>716.0</ele><time>2026-05-03T10:04:27.975Z</time></trkpt><trkpt lat="30.2751562" lon="-5.7979783"><ele>716.0</ele><time>2026-05-03T10:04:28.944Z</time></trkpt><trkpt lat="30.2750825" lon="-5.7978195"><ele>715.3333333333333</ele><time>2026-05-03T10:04:29.964Z</time></trkpt><trkpt lat="30.2750054" lon="-5.797667"><ele>714.6666666666666</ele><time>2026-05-03T10:04:30.939Z</time></trkpt><trkpt lat="30.2749251" lon="-5.7975086"><ele>714.0</ele><time>2026-05-03T10:04:31.976Z</time></trkpt><trkpt lat="30.2748462" lon="-5.797357"><ele>715.0</ele><time>2026-05-03T10:04:32.946Z</time></trkpt><trkpt lat="30.2747671" lon="-5.797201"><ele>716.0</ele><time>2026-05-03T10:04:33.939Z</time></trkpt><trkpt lat="30.2746899" lon="-5.797041"><ele>717.0</ele><time>2026-05-03T10:04:34.941Z</time></trkpt><trkpt lat="30.2746148" lon="-5.796873"><ele>716.6666666666666</ele><time>2026-05-03T10:04:35.958Z</time></trkpt><trkpt lat="30.2745419" lon="-5.7966956"><ele>716.3333333333333</ele><time>2026-05-03T10:04:36.935Z</time></trkpt><trkpt lat="30.2744634" lon="-5.7965125"><ele>716.0</ele><time>2026-05-03T10:04:37.964Z</time></trkpt><trkpt lat="30.2743845" lon="-5.7963392"><ele>716.0</ele><time>2026-05-03T10:04:38.942Z</time></trkpt><trkpt lat="30.2743039" lon="-5.7961682"><ele>716.0</ele><time>2026-05-03T10:04:39.94Z</time></trkpt><trkpt lat="30.2742191" lon="-5.7959992"><ele>716.0</ele><time>2026-05-03T10:04:40.945Z</time></trkpt><trkpt lat="30.2741364" lon="-5.7958246"><ele>716.0</ele><time>2026-05-03T10:04:41.969Z</time></trkpt><trkpt lat="30.2740524" lon="-5.7956509"><ele>716.0</ele><time>2026-05-03T10:04:42.933Z</time></trkpt><trkpt lat="30.2739629" lon="-5.7954687"><ele>716.0</ele><time>2026-05-03T10:04:43.957Z</time></trkpt><trkpt lat="30.2738762" lon="-5.7952871"><ele>715.6666666666666</ele><time>2026-05-03T10:04:44.935Z</time></trkpt><trkpt lat="30.2737885" lon="-5.7950966"><ele>715.3333333333334</ele><time>2026-05-03T10:04:45.947Z</time></trkpt><trkpt lat="30.2736981" lon="-5.7949072"><ele>715.0</ele><time>2026-05-03T10:04:46.932Z</time></trkpt><trkpt lat="30.2736084" lon="-5.7947161"><ele>715.0</ele><time>2026-05-03T10:04:47.953Z</time></trkpt><trkpt lat="30.2735208" lon="-5.7945314"><ele>715.0</ele><time>2026-05-03T10:04:48.933Z</time></trkpt><trkpt lat="30.2734334" lon="-5.7943477"><ele>715.0</ele><time>2026-05-03T10:04:49.949Z</time></trkpt><trkpt lat="30.2733475" lon="-5.7941673"><ele>715.0</ele><time>2026-05-03T10:04:50.942Z</time></trkpt><trkpt lat="30.2732602" lon="-5.7939884"><ele>715.0</ele><time>2026-05-03T10:04:51.972Z</time></trkpt><trkpt lat="30.273176" lon="-5.7938166"><ele>715.0</ele><time>2026-05-03T10:04:52.938Z</time></trkpt><trkpt lat="30.2730915" lon="-5.7936391"><ele>714.6666666666667</ele><time>2026-05-03T10:04:53.95Z</time></trkpt><trkpt lat="30.2730084" lon="-5.7934601"><ele>714.3333333333334</ele><time>2026-05-03T10:04:54.946Z</time></trkpt><trkpt lat="30.2729226" lon="-5.7932783"><ele>714.0</ele><time>2026-05-03T10:04:55.946Z</time></trkpt><trkpt lat="30.2728347" lon="-5.7930949"><ele>714.0</ele><time>2026-05-03T10:04:56.945Z</time></trkpt><trkpt lat="30.2727459" lon="-5.792908"><ele>714.0</ele><time>2026-05-03T10:04:57.96Z</time></trkpt><trkpt lat="30.2726564" lon="-5.792719"><ele>714.0</ele><time>2026-05-03T10:04:58.959Z</time></trkpt><trkpt lat="30.2725649" lon="-5.7925279"><ele>715.0</ele><time>2026-05-03T10:04:59.945Z</time></trkpt><trkpt lat="30.2724709" lon="-5.7923338"><ele>716.0</ele><time>2026-05-03T10:05:00.951Z</time></trkpt><trkpt lat="30.2723762" lon="-5.7921363"><ele>717.0</ele><time>2026-05-03T10:05:02Z</time></trkpt><trkpt lat="30.2722833" lon="-5.7919394"><ele>717.3333333333334</ele><time>2026-05-03T10:05:02.959Z</time></trkpt><trkpt lat="30.2721847" lon="-5.7917376"><ele>717.6666666666667</ele><time>2026-05-03T10:05:03.953Z</time></trkpt><trkpt lat="30.2720875" lon="-5.7915421"><ele>718.0</ele><time>2026-05-03T10:05:04.954Z</time></trkpt><trkpt lat="30.2719969" lon="-5.7913535"><ele>718.0</ele><time>2026-05-03T10:05:05.947Z</time></trkpt><trkpt lat="30.2719157" lon="-5.7911768"><ele>718.0</ele><time>2026-05-03T10:05:06.941Z</time></trkpt><trkpt lat="30.2718341" lon="-5.7910067"><ele>718.0</ele><time>2026-05-03T10:05:07.967Z</time></trkpt><trkpt lat="30.2717539" lon="-5.7908467"><ele>717.5</ele><time>2026-05-03T10:05:08.947Z</time></trkpt><trkpt lat="30.2716809" lon="-5.7906898"><ele>717.0</ele><time>2026-05-03T10:05:09.957Z</time></trkpt><trkpt lat="30.2716192" lon="-5.7905479"><ele>716.5</ele><time>2026-05-03T10:05:10.946Z</time></trkpt><trkpt lat="30.2715671" lon="-5.7904174"><ele>716.0</ele><time>2026-05-03T10:05:11.949Z</time></trkpt><trkpt lat="30.271522" lon="-5.7903048"><ele>716.0</ele><time>2026-05-03T10:05:12.952Z</time></trkpt><trkpt lat="30.2714792" lon="-5.7902065"><ele>716.0</ele><time>2026-05-03T10:05:13.969Z</time></trkpt><trkpt lat="30.2714396" lon="-5.7901225"><ele>716.0</ele><time>2026-05-03T10:05:14.95Z</time></trkpt><trkpt lat="30.2714013" lon="-5.7900432"><ele>716.0</ele><time>2026-05-03T10:05:15.965Z</time></trkpt><trkpt lat="30.2713623" lon="-5.7899628"><ele>716.0</ele><time>2026-05-03T10:05:16.944Z</time></trkpt><trkpt lat="30.2713246" lon="-5.7898863"><ele>716.0</ele><time>2026-05-03T10:05:17.966Z</time></trkpt><trkpt lat="30.2712667" lon="-5.7897774"><ele>716.4</ele><time>2026-05-03T10:05:19.962Z</time></trkpt><trkpt lat="30.2712326" lon="-5.7897128"><ele>716.8</ele><time>2026-05-03T10:05:21.953Z</time></trkpt><trkpt lat="30.2711883" lon="-5.7896017"><ele>717.1999999999999</ele><time>2026-05-03T10:05:35.959Z</time></trkpt><trkpt lat="30.2711417" lon="-5.7894933"><ele>717.5999999999999</ele><time>2026-05-03T10:05:36.939Z</time></trkpt><trkpt lat="30.271085" lon="-5.7893783"><ele>718.0</ele><time>2026-05-03T10:05:37.961Z</time></trkpt><trkpt lat="30.2710217" lon="-5.7892583"><ele>718.0</ele><time>2026-05-03T10:05:38.943Z</time></trkpt><trkpt lat="30.2709517" lon="-5.7891267"><ele>718.0</ele><time>2026-05-03T10:05:39.949Z</time></trkpt><trkpt lat="30.27088" lon="-5.788995"><ele>718.0</ele><time>2026-05-03T10:05:40.943Z</time></trkpt><trkpt lat="30.27081" lon="-5.7888633"><ele>718.0</ele><time>2026-05-03T10:05:41.943Z</time></trkpt><trkpt lat="30.270745" lon="-5.788725"><ele>718.0</ele><time>2026-05-03T10:05:42.965Z</time></trkpt><trkpt lat="30.27068" lon="-5.78858"><ele>718.0</ele><time>2026-05-03T10:05:43.95Z</time></trkpt><trkpt lat="30.2706117" lon="-5.78843"><ele>718.0</ele><time>2026-05-03T10:05:44.946Z</time></trkpt><trkpt lat="30.2705383" lon="-5.7882767"><ele>718.0</ele><time>2026-05-03T10:05:45.934Z</time></trkpt><trkpt lat="30.2704683" lon="-5.7881233"><ele>717.6666666666667</ele><time>2026-05-03T10:05:46.934Z</time></trkpt><trkpt lat="30.2703967" lon="-5.7879683"><ele>717.3333333333334</ele><time>2026-05-03T10:05:47.946Z</time></trkpt><trkpt lat="30.2703217" lon="-5.78781"><ele>717.0</ele><time>2026-05-03T10:05:48.959Z</time></trkpt><trkpt lat="30.2702417" lon="-5.7876517"><ele>717.6666666666666</ele><time>2026-05-03T10:05:49.953Z</time></trkpt><trkpt lat="30.2701633" lon="-5.7874917"><ele>718.3333333333333</ele><time>2026-05-03T10:05:50.952Z</time></trkpt><trkpt lat="30.270085" lon="-5.78733"><ele>719.0</ele><time>2026-05-03T10:05:51.942Z</time></trkpt><trkpt lat="30.27001" lon="-5.7871717"><ele>719.0</ele><time>2026-05-03T10:05:52.943Z</time></trkpt><trkpt lat="30.269935" lon="-5.7870167"><ele>719.0</ele><time>2026-05-03T10:05:53.961Z</time></trkpt><trkpt lat="30.26986" lon="-5.7868617"><ele>719.0</ele><time>2026-05-03T10:05:54.941Z</time></trkpt><trkpt lat="30.2697867" lon="-5.7867033"><ele>718.3333333333333</ele><time>2026-05-03T10:05:55.962Z</time></trkpt><trkpt lat="30.2697117" lon="-5.7865417"><ele>717.6666666666666</ele><time>2026-05-03T10:05:56.938Z</time></trkpt><trkpt lat="30.269635" lon="-5.786375"><ele>717.0</ele><time>2026-05-03T10:05:57.962Z</time></trkpt><trkpt lat="30.2695567" lon="-5.7862067"><ele>717.0</ele><time>2026-05-03T10:05:58.957Z</time></trkpt><trkpt lat="30.2694767" lon="-5.7860367"><ele>717.0</ele><time>2026-05-03T10:05:59.955Z</time></trkpt><trkpt lat="30.2693967" lon="-5.7858617"><ele>717.0</ele><time>2026-05-03T10:06:00.94Z</time></trkpt><trkpt lat="30.2693133" lon="-5.7856867"><ele>717.0</ele><time>2026-05-03T10:06:01.961Z</time></trkpt><trkpt lat="30.2692317" lon="-5.785515"><ele>717.0</ele><time>2026-05-03T10:06:02.964Z</time></trkpt><trkpt lat="30.2691467" lon="-5.78534"><ele>717.0</ele><time>2026-05-03T10:06:03.961Z</time></trkpt><trkpt lat="30.269065" lon="-5.7851667"><ele>717.0</ele><time>2026-05-03T10:06:04.948Z</time></trkpt><trkpt lat="30.2689817" lon="-5.784995"><ele>717.0</ele><time>2026-05-03T10:06:05.959Z</time></trkpt><trkpt lat="30.2688983" lon="-5.784825"><ele>717.0</ele><time>2026-05-03T10:06:06.94Z</time></trkpt><trkpt lat="30.2688133" lon="-5.78466"><ele>717.0</ele><time>2026-05-03T10:06:07.955Z</time></trkpt><trkpt lat="30.2687317" lon="-5.7844983"><ele>717.0</ele><time>2026-05-03T10:06:08.949Z</time></trkpt><trkpt lat="30.2686533" lon="-5.7843417"><ele>717.0</ele><time>2026-05-03T10:06:09.955Z</time></trkpt><trkpt lat="30.2685783" lon="-5.784185"><ele>716.6666666666666</ele><time>2026-05-03T10:06:10.943Z</time></trkpt><trkpt lat="30.2685017" lon="-5.7840267"><ele>716.3333333333333</ele><time>2026-05-03T10:06:11.946Z</time></trkpt><trkpt lat="30.268425" lon="-5.7838617"><ele>716.0</ele><time>2026-05-03T10:06:12.948Z</time></trkpt><trkpt lat="30.2683467" lon="-5.7836917"><ele>716.0</ele><time>2026-05-03T10:06:13.949Z</time></trkpt><trkpt lat="30.268265" lon="-5.7835183"><ele>716.0</ele><time>2026-05-03T10:06:14.943Z</time></trkpt><trkpt lat="30.2681833" lon="-5.7833467"><ele>716.0</ele><time>2026-05-03T10:06:15.959Z</time></trkpt><trkpt lat="30.2681033" lon="-5.783175"><ele>716.0</ele><time>2026-05-03T10:06:16.944Z</time></trkpt><trkpt lat="30.2680217" lon="-5.7830033"><ele>716.0</ele><time>2026-05-03T10:06:17.955Z</time></trkpt><trkpt lat="30.2679417" lon="-5.7828317"><ele>716.0</ele><time>2026-05-03T10:06:18.941Z</time></trkpt><trkpt lat="30.2678633" lon="-5.7826617"><ele>716.3333333333333</ele><time>2026-05-03T10:06:19.962Z</time></trkpt><trkpt lat="30.267785" lon="-5.7824933"><ele>716.6666666666666</ele><time>2026-05-03T10:06:20.947Z</time></trkpt><trkpt lat="30.267705" lon="-5.78232"><ele>717.0</ele><time>2026-05-03T10:06:21.974Z</time></trkpt><trkpt lat="30.2676217" lon="-5.782145"><ele>717.0</ele><time>2026-05-03T10:06:22.956Z</time></trkpt><trkpt lat="30.2675383" lon="-5.7819667"><ele>717.0</ele><time>2026-05-03T10:06:23.957Z</time></trkpt><trkpt lat="30.2674533" lon="-5.7817867"><ele>717.0</ele><time>2026-05-03T10:06:24.954Z</time></trkpt><trkpt lat="30.267365" lon="-5.7816067"><ele>717.0</ele><time>2026-05-03T10:06:25.969Z</time></trkpt><trkpt lat="30.2672767" lon="-5.781425"><ele>717.0</ele><time>2026-05-03T10:06:26.94Z</time></trkpt><trkpt lat="30.2671867" lon="-5.7812433"><ele>717.0</ele><time>2026-05-03T10:06:27.988Z</time></trkpt><trkpt lat="30.2670983" lon="-5.7810617"><ele>716.6666666666666</ele><time>2026-05-03T10:06:28.944Z</time></trkpt><trkpt lat="30.2670083" lon="-5.7808817"><ele>716.3333333333333</ele><time>2026-05-03T10:06:29.956Z</time></trkpt><trkpt lat="30.2669217" lon="-5.7807017"><ele>716.0</ele><time>2026-05-03T10:06:30.937Z</time></trkpt><trkpt lat="30.266835" lon="-5.78052"><ele>716.0</ele><time>2026-05-03T10:06:32.001Z</time></trkpt><trkpt lat="30.2667483" lon="-5.78034"><ele>716.0</ele><time>2026-05-03T10:06:32.944Z</time></trkpt><trkpt lat="30.2666633" lon="-5.7801617"><ele>716.0</ele><time>2026-05-03T10:06:33.946Z</time></trkpt><trkpt lat="30.2665783" lon="-5.7799817"><ele>715.6666666666666</ele><time>2026-05-03T10:06:34.957Z</time></trkpt><trkpt lat="30.2664917" lon="-5.7798017"><ele>715.3333333333334</ele><time>2026-05-03T10:06:35.96Z</time></trkpt><trkpt lat="30.2664" lon="-5.7796233"><ele>715.0</ele><time>2026-05-03T10:06:36.945Z</time></trkpt><trkpt lat="30.2663083" lon="-5.7794433"><ele>714.6666666666667</ele><time>2026-05-03T10:06:37.97Z</time></trkpt><trkpt lat="30.2662167" lon="-5.779265"><ele>714.3333333333334</ele><time>2026-05-03T10:06:38.948Z</time></trkpt><trkpt lat="30.2661233" lon="-5.779085"><ele>714.0</ele><time>2026-05-03T10:06:39.975Z</time></trkpt><trkpt lat="30.2660283" lon="-5.778905"><ele>714.0</ele><time>2026-05-03T10:06:40.953Z</time></trkpt><trkpt lat="30.2659333" lon="-5.778725"><ele>714.0</ele><time>2026-05-03T10:06:41.964Z</time></trkpt><trkpt lat="30.2658367" lon="-5.778545"><ele>714.0</ele><time>2026-05-03T10:06:42.97Z</time></trkpt><trkpt lat="30.26574" lon="-5.7783633"><ele>713.6666666666666</ele><time>2026-05-03T10:06:43.952Z</time></trkpt><trkpt lat="30.265645" lon="-5.7781833"><ele>713.3333333333333</ele><time>2026-05-03T10:06:44.945Z</time></trkpt><trkpt lat="30.26555" lon="-5.7780033"><ele>713.0</ele><time>2026-05-03T10:06:45.956Z</time></trkpt><trkpt lat="30.2654533" lon="-5.7778267"><ele>712.6666666666666</ele><time>2026-05-03T10:06:46.938Z</time></trkpt><trkpt lat="30.2653567" lon="-5.7776483"><ele>712.3333333333334</ele><time>2026-05-03T10:06:47.953Z</time></trkpt><trkpt lat="30.2652583" lon="-5.7774667"><ele>712.0</ele><time>2026-05-03T10:06:48.948Z</time></trkpt><trkpt lat="30.26516" lon="-5.7772833"><ele>712.0</ele><time>2026-05-03T10:06:49.962Z</time></trkpt><trkpt lat="30.2650617" lon="-5.7770983"><ele>712.0</ele><time>2026-05-03T10:06:50.959Z</time></trkpt><trkpt lat="30.2649633" lon="-5.7769117"><ele>712.0</ele><time>2026-05-03T10:06:51.953Z</time></trkpt><trkpt lat="30.2648667" lon="-5.7767267"><ele>711.3333333333334</ele><time>2026-05-03T10:06:52.942Z</time></trkpt><trkpt lat="30.2647717" lon="-5.7765383"><ele>710.6666666666666</ele><time>2026-05-03T10:06:53.952Z</time></trkpt><trkpt lat="30.264675" lon="-5.7763483"><ele>710.0</ele><time>2026-05-03T10:06:54.951Z</time></trkpt><trkpt lat="30.2645767" lon="-5.7761583"><ele>710.0</ele><time>2026-05-03T10:06:55.963Z</time></trkpt><trkpt lat="30.2644783" lon="-5.7759667"><ele>710.0</ele><time>2026-05-03T10:06:56.952Z</time></trkpt><trkpt lat="30.2643783" lon="-5.7757733"><ele>710.0</ele><time>2026-05-03T10:06:57.967Z</time></trkpt><trkpt lat="30.2642767" lon="-5.7755767"><ele>710.0</ele><time>2026-05-03T10:06:58.966Z</time></trkpt><trkpt lat="30.264175" lon="-5.775375"><ele>710.0</ele><time>2026-05-03T10:06:59.949Z</time></trkpt><trkpt lat="30.26407" lon="-5.775175"><ele>710.0</ele><time>2026-05-03T10:07:00.944Z</time></trkpt><trkpt lat="30.2639633" lon="-5.7749767"><ele>710.3333333333333</ele><time>2026-05-03T10:07:01.961Z</time></trkpt><trkpt lat="30.26386" lon="-5.77478"><ele>710.6666666666666</ele><time>2026-05-03T10:07:02.963Z</time></trkpt><trkpt lat="30.2637567" lon="-5.7745867"><ele>711.0</ele><time>2026-05-03T10:07:03.943Z</time></trkpt><trkpt lat="30.2636517" lon="-5.77439"><ele>711.0</ele><time>2026-05-03T10:07:04.96Z</time></trkpt><trkpt lat="30.2635483" lon="-5.7741967"><ele>711.0</ele><time>2026-05-03T10:07:05.963Z</time></trkpt><trkpt lat="30.2634483" lon="-5.77401"><ele>711.0</ele><time>2026-05-03T10:07:06.948Z</time></trkpt><trkpt lat="30.2633533" lon="-5.7738267"><ele>711.0</ele><time>2026-05-03T10:07:07.975Z</time></trkpt><trkpt lat="30.26326" lon="-5.7736467"><ele>711.0</ele><time>2026-05-03T10:07:08.945Z</time></trkpt><trkpt lat="30.2631683" lon="-5.7734683"><ele>711.0</ele><time>2026-05-03T10:07:09.942Z</time></trkpt><trkpt lat="30.2630767" lon="-5.7732917"><ele>711.3333333333334</ele><time>2026-05-03T10:07:10.941Z</time></trkpt><trkpt lat="30.2629833" lon="-5.7731133"><ele>711.6666666666667</ele><time>2026-05-03T10:07:11.948Z</time></trkpt><trkpt lat="30.2628867" lon="-5.7729333"><ele>712.0</ele><time>2026-05-03T10:07:12.97Z</time></trkpt><trkpt lat="30.2627867" lon="-5.7727533"><ele>711.3333333333334</ele><time>2026-05-03T10:07:13.942Z</time></trkpt><trkpt lat="30.2626883" lon="-5.77257"><ele>710.6666666666666</ele><time>2026-05-03T10:07:14.936Z</time></trkpt><trkpt lat="30.2625883" lon="-5.7723817"><ele>710.0</ele><time>2026-05-03T10:07:15.986Z</time></trkpt><trkpt lat="30.26249" lon="-5.7721967"><ele>710.0</ele><time>2026-05-03T10:07:16.948Z</time></trkpt><trkpt lat="30.2623917" lon="-5.7720083"><ele>710.0</ele><time>2026-05-03T10:07:17.951Z</time></trkpt><trkpt lat="30.26229" lon="-5.771825"><ele>710.0</ele><time>2026-05-03T10:07:18.953Z</time></trkpt><trkpt lat="30.2621883" lon="-5.7716367"><ele>710.0</ele><time>2026-05-03T10:07:19.949Z</time></trkpt><trkpt lat="30.262085" lon="-5.7714417"><ele>710.0</ele><time>2026-05-03T10:07:20.948Z</time></trkpt><trkpt lat="30.26198" lon="-5.7712483"><ele>710.0</ele><time>2026-05-03T10:07:21.958Z</time></trkpt><trkpt lat="30.261875" lon="-5.7710517"><ele>710.0</ele><time>2026-05-03T10:07:22.948Z</time></trkpt><trkpt lat="30.2617683" lon="-5.7708533"><ele>710.0</ele><time>2026-05-03T10:07:23.969Z</time></trkpt><trkpt lat="30.2616617" lon="-5.7706567"><ele>710.0</ele><time>2026-05-03T10:07:24.941Z</time></trkpt><trkpt lat="30.2615617" lon="-5.7704683"><ele>710.0</ele><time>2026-05-03T10:07:25.958Z</time></trkpt><trkpt lat="30.2614667" lon="-5.77029"><ele>710.0</ele><time>2026-05-03T10:07:26.939Z</time></trkpt><trkpt lat="30.2613783" lon="-5.7701233"><ele>710.0</ele><time>2026-05-03T10:07:27.95Z</time></trkpt><trkpt lat="30.2612917" lon="-5.76996"><ele>710.0</ele><time>2026-05-03T10:07:28.945Z</time></trkpt><trkpt lat="30.261205" lon="-5.7697967"><ele>710.0</ele><time>2026-05-03T10:07:29.968Z</time></trkpt><trkpt lat="30.2611167" lon="-5.7696333"><ele>710.0</ele><time>2026-05-03T10:07:30.948Z</time></trkpt><trkpt lat="30.2610283" lon="-5.7694717"><ele>709.6666666666666</ele><time>2026-05-03T10:07:31.97Z</time></trkpt><trkpt lat="30.26094" lon="-5.7693083"><ele>709.3333333333334</ele><time>2026-05-03T10:07:32.946Z</time></trkpt><trkpt lat="30.260855" lon="-5.7691483"><ele>709.0</ele><time>2026-05-03T10:07:33.951Z</time></trkpt><trkpt lat="30.26077" lon="-5.7689867"><ele>709.0</ele><time>2026-05-03T10:07:34.946Z</time></trkpt><trkpt lat="30.2606833" lon="-5.7688267"><ele>709.0</ele><time>2026-05-03T10:07:35.968Z</time></trkpt><trkpt lat="30.2606" lon="-5.7686733"><ele>709.0</ele><time>2026-05-03T10:07:36.96Z</time></trkpt><trkpt lat="30.2605183" lon="-5.7685217"><ele>709.6666666666667</ele><time>2026-05-03T10:07:37.947Z</time></trkpt><trkpt lat="30.260435" lon="-5.7683667"><ele>710.3333333333334</ele><time>2026-05-03T10:07:38.951Z</time></trkpt><trkpt lat="30.26035" lon="-5.7682067"><ele>711.0</ele><time>2026-05-03T10:07:39.942Z</time></trkpt><trkpt lat="30.2602617" lon="-5.768045"><ele>711.0</ele><time>2026-05-03T10:07:40.953Z</time></trkpt><trkpt lat="30.2601733" lon="-5.76788"><ele>711.0</ele><time>2026-05-03T10:07:41.949Z</time></trkpt><trkpt lat="30.2600867" lon="-5.767715"><ele>711.0</ele><time>2026-05-03T10:07:42.931Z</time></trkpt><trkpt lat="30.2600017" lon="-5.7675533"><ele>710.6666666666666</ele><time>2026-05-03T10:07:43.942Z</time></trkpt><trkpt lat="30.2599183" lon="-5.7673917"><ele>710.3333333333333</ele><time>2026-05-03T10:07:44.944Z</time></trkpt><trkpt lat="30.2598333" lon="-5.7672317"><ele>710.0</ele><time>2026-05-03T10:07:45.947Z</time></trkpt><trkpt lat="30.2597483" lon="-5.7670733"><ele>710.0</ele><time>2026-05-03T10:07:46.947Z</time></trkpt><trkpt lat="30.2596633" lon="-5.766915"><ele>710.0</ele><time>2026-05-03T10:07:47.941Z</time></trkpt><trkpt lat="30.2595817" lon="-5.7667583"><ele>710.0</ele><time>2026-05-03T10:07:48.945Z</time></trkpt><trkpt lat="30.2595033" lon="-5.76661"><ele>709.75</ele><time>2026-05-03T10:07:49.957Z</time></trkpt><trkpt lat="30.2594317" lon="-5.7664683"><ele>709.5</ele><time>2026-05-03T10:07:50.936Z</time></trkpt><trkpt lat="30.25936" lon="-5.76633"><ele>709.25</ele><time>2026-05-03T10:07:51.967Z</time></trkpt><trkpt lat="30.2592867" lon="-5.7661917"><ele>709.0</ele><time>2026-05-03T10:07:52.929Z</time></trkpt><trkpt lat="30.25921" lon="-5.7660483"><ele>709.25</ele><time>2026-05-03T10:07:53.954Z</time></trkpt><trkpt lat="30.2591333" lon="-5.765905"><ele>709.5</ele><time>2026-05-03T10:07:54.942Z</time></trkpt><trkpt lat="30.25906" lon="-5.7657617"><ele>709.75</ele><time>2026-05-03T10:07:55.968Z</time></trkpt><trkpt lat="30.2589883" lon="-5.7656183"><ele>710.0</ele><time>2026-05-03T10:07:56.939Z</time></trkpt><trkpt lat="30.2589133" lon="-5.7654783"><ele>710.0</ele><time>2026-05-03T10:07:57.956Z</time></trkpt><trkpt lat="30.25884" lon="-5.7653383"><ele>710.0</ele><time>2026-05-03T10:07:58.939Z</time></trkpt><trkpt lat="30.2587667" lon="-5.7651983"><ele>710.0</ele><time>2026-05-03T10:07:59.957Z</time></trkpt><trkpt lat="30.2586917" lon="-5.76506"><ele>710.0</ele><time>2026-05-03T10:08:00.941Z</time></trkpt><trkpt lat="30.2586133" lon="-5.7649217"><ele>709.75</ele><time>2026-05-03T10:08:01.962Z</time></trkpt><trkpt lat="30.2585383" lon="-5.7647817"><ele>709.5</ele><time>2026-05-03T10:08:02.942Z</time></trkpt><trkpt lat="30.258465" lon="-5.7646433"><ele>709.25</ele><time>2026-05-03T10:08:03.944Z</time></trkpt><trkpt lat="30.2583933" lon="-5.7645033"><ele>709.0</ele><time>2026-05-03T10:08:04.946Z</time></trkpt><trkpt lat="30.25832" lon="-5.7643617"><ele>708.6666666666667</ele><time>2026-05-03T10:08:05.947Z</time></trkpt><trkpt lat="30.2582417" lon="-5.7642167"><ele>708.3333333333334</ele><time>2026-05-03T10:08:06.953Z</time></trkpt><trkpt lat="30.2581617" lon="-5.7640683"><ele>708.0</ele><time>2026-05-03T10:08:07.954Z</time></trkpt><trkpt lat="30.2580817" lon="-5.7639183"><ele>708.0</ele><time>2026-05-03T10:08:08.951Z</time></trkpt><trkpt lat="30.258005" lon="-5.76377"><ele>708.0</ele><time>2026-05-03T10:08:09.952Z</time></trkpt><trkpt lat="30.2579333" lon="-5.7636283"><ele>708.0</ele><time>2026-05-03T10:08:10.954Z</time></trkpt><trkpt lat="30.2578667" lon="-5.7634933"><ele>708.0</ele><time>2026-05-03T10:08:11.947Z</time></trkpt><trkpt lat="30.2578033" lon="-5.763365"><ele>708.25</ele><time>2026-05-03T10:08:12.945Z</time></trkpt><trkpt lat="30.2577417" lon="-5.7632383"><ele>708.5</ele><time>2026-05-03T10:08:13.955Z</time></trkpt><trkpt lat="30.25768" lon="-5.763115"><ele>708.75</ele><time>2026-05-03T10:08:14.935Z</time></trkpt><trkpt lat="30.2576133" lon="-5.76299"><ele>709.0</ele><time>2026-05-03T10:08:15.954Z</time></trkpt><trkpt lat="30.257545" lon="-5.762865"><ele>709.0</ele><time>2026-05-03T10:08:16.946Z</time></trkpt><trkpt lat="30.2574783" lon="-5.76274"><ele>709.0</ele><time>2026-05-03T10:08:17.957Z</time></trkpt><trkpt lat="30.2574133" lon="-5.7626183"><ele>709.0</ele><time>2026-05-03T10:08:18.946Z</time></trkpt><trkpt lat="30.2573483" lon="-5.7624983"><ele>709.0</ele><time>2026-05-03T10:08:19.947Z</time></trkpt><trkpt lat="30.25728" lon="-5.762375"><ele>709.25</ele><time>2026-05-03T10:08:20.942Z</time></trkpt><trkpt lat="30.2572117" lon="-5.7622533"><ele>709.5</ele><time>2026-05-03T10:08:21.942Z</time></trkpt><trkpt lat="30.257145" lon="-5.7621333"><ele>709.75</ele><time>2026-05-03T10:08:22.929Z</time></trkpt><trkpt lat="30.2570817" lon="-5.7620167"><ele>710.0</ele><time>2026-05-03T10:08:23.95Z</time></trkpt><trkpt lat="30.2570217" lon="-5.761905"><ele>709.8</ele><time>2026-05-03T10:08:24.933Z</time></trkpt><trkpt lat="30.2569667" lon="-5.761805"><ele>709.6</ele><time>2026-05-03T10:08:25.94Z</time></trkpt><trkpt lat="30.256915" lon="-5.761715"><ele>709.4000000000001</ele><time>2026-05-03T10:08:26.928Z</time></trkpt><trkpt lat="30.25687" lon="-5.761635"><ele>709.2</ele><time>2026-05-03T10:08:27.949Z</time></trkpt><trkpt lat="30.2568317" lon="-5.7615667"><ele>709.0</ele><time>2026-05-03T10:08:28.937Z</time></trkpt><trkpt lat="30.256775" lon="-5.761455"><ele>709.0</ele><time>2026-05-03T10:08:30.94Z</time></trkpt><trkpt lat="30.2567333" lon="-5.7613733"><ele>709.0</ele><time>2026-05-03T10:08:32.941Z</time></trkpt><trkpt lat="30.25668" lon="-5.7612767"><ele>709.0</ele><time>2026-05-03T10:08:34.942Z</time></trkpt><trkpt lat="30.25661" lon="-5.7611533"><ele>709.0</ele><time>2026-05-03T10:08:36.944Z</time></trkpt><trkpt lat="30.25657" lon="-5.76108"><ele>709.0</ele><time>2026-05-03T10:08:37.949Z</time></trkpt><trkpt lat="30.256525" lon="-5.7609917"><ele>709.0</ele><time>2026-05-03T10:08:38.95Z</time></trkpt><trkpt lat="30.2564767" lon="-5.7608833"><ele>709.0</ele><time>2026-05-03T10:08:39.961Z</time></trkpt><trkpt lat="30.25642" lon="-5.7607583"><ele>709.0</ele><time>2026-05-03T10:08:40.934Z</time></trkpt><trkpt lat="30.25636" lon="-5.7606267"><ele>709.0</ele><time>2026-05-03T10:08:41.954Z</time></trkpt><trkpt lat="30.2563067" lon="-5.7605"><ele>708.8000000000001</ele><time>2026-05-03T10:08:42.934Z</time></trkpt><trkpt lat="30.2562583" lon="-5.76038"><ele>708.6</ele><time>2026-05-03T10:08:43.934Z</time></trkpt><trkpt lat="30.256215" lon="-5.7602617"><ele>708.4</ele><time>2026-05-03T10:08:44.952Z</time></trkpt><trkpt lat="30.25617" lon="-5.7601483"><ele>708.2</ele><time>2026-05-03T10:08:45.955Z</time></trkpt><trkpt lat="30.2561217" lon="-5.760035"><ele>708.0</ele><time>2026-05-03T10:08:46.938Z</time></trkpt><trkpt lat="30.2560717" lon="-5.7599233"><ele>708.0</ele><time>2026-05-03T10:08:47.943Z</time></trkpt><trkpt lat="30.256025" lon="-5.759815"><ele>708.0</ele><time>2026-05-03T10:08:48.937Z</time></trkpt><trkpt lat="30.25598" lon="-5.7597117"><ele>708.0</ele><time>2026-05-03T10:08:49.927Z</time></trkpt><trkpt lat="30.2559333" lon="-5.75961"><ele>708.0</ele><time>2026-05-03T10:08:50.953Z</time></trkpt><trkpt lat="30.2558883" lon="-5.759505"><ele>708.0</ele><time>2026-05-03T10:08:51.963Z</time></trkpt><trkpt lat="30.2558467" lon="-5.7593983"><ele>707.5999999999999</ele><time>2026-05-03T10:08:52.938Z</time></trkpt><trkpt lat="30.2558083" lon="-5.7592967"><ele>707.1999999999999</ele><time>2026-05-03T10:08:53.94Z</time></trkpt><trkpt lat="30.2557717" lon="-5.7591967"><ele>706.8</ele><time>2026-05-03T10:08:54.961Z</time></trkpt><trkpt lat="30.25573" lon="-5.7590967"><ele>706.4</ele><time>2026-05-03T10:08:55.972Z</time></trkpt><trkpt lat="30.255685" lon="-5.7589883"><ele>706.0</ele><time>2026-05-03T10:08:56.965Z</time></trkpt><trkpt lat="30.25564" lon="-5.75887"><ele>706.0</ele><time>2026-05-03T10:08:57.944Z</time></trkpt><trkpt lat="30.255595" lon="-5.7587467"><ele>706.0</ele><time>2026-05-03T10:08:58.95Z</time></trkpt><trkpt lat="30.255545" lon="-5.7586217"><ele>706.0</ele><time>2026-05-03T10:08:59.938Z</time></trkpt><trkpt lat="30.2554967" lon="-5.7585033"><ele>706.0</ele><time>2026-05-03T10:09:00.935Z</time></trkpt><trkpt lat="30.2554483" lon="-5.758385"><ele>706.25</ele><time>2026-05-03T10:09:01.967Z</time></trkpt><trkpt lat="30.2553983" lon="-5.758265"><ele>706.5</ele><time>2026-05-03T10:09:02.939Z</time></trkpt><trkpt lat="30.25535" lon="-5.758145"><ele>706.75</ele><time>2026-05-03T10:09:03.958Z</time></trkpt><trkpt lat="30.255305" lon="-5.7580283"><ele>707.0</ele><time>2026-05-03T10:09:04.944Z</time></trkpt><trkpt lat="30.25526" lon="-5.7579083"><ele>707.0</ele><time>2026-05-03T10:09:05.967Z</time></trkpt><trkpt lat="30.2552117" lon="-5.7577917"><ele>707.0</ele><time>2026-05-03T10:09:06.937Z</time></trkpt><trkpt lat="30.2551633" lon="-5.75768"><ele>707.0</ele><time>2026-05-03T10:09:07.959Z</time></trkpt><trkpt lat="30.2551183" lon="-5.7575733"><ele>707.0</ele><time>2026-05-03T10:09:08.93Z</time></trkpt><trkpt lat="30.2550767" lon="-5.7574683"><ele>707.0</ele><time>2026-05-03T10:09:09.955Z</time></trkpt><trkpt lat="30.255035" lon="-5.7573667"><ele>706.6</ele><time>2026-05-03T10:09:10.931Z</time></trkpt><trkpt lat="30.2549917" lon="-5.757265"><ele>706.2</ele><time>2026-05-03T10:09:11.958Z</time></trkpt><trkpt lat="30.2549517" lon="-5.7571683"><ele>705.8</ele><time>2026-05-03T10:09:12.931Z</time></trkpt><trkpt lat="30.254915" lon="-5.757075"><ele>705.4</ele><time>2026-05-03T10:09:13.939Z</time></trkpt><trkpt lat="30.254875" lon="-5.7569867"><ele>705.0</ele><time>2026-05-03T10:09:14.939Z</time></trkpt><trkpt lat="30.254835" lon="-5.7568983"><ele>704.8333333333334</ele><time>2026-05-03T10:09:15.946Z</time></trkpt><trkpt lat="30.2547967" lon="-5.7568133"><ele>704.6666666666666</ele><time>2026-05-03T10:09:16.938Z</time></trkpt><trkpt lat="30.25476" lon="-5.7567267"><ele>704.5</ele><time>2026-05-03T10:09:17.962Z</time></trkpt><trkpt lat="30.2547233" lon="-5.75664"><ele>704.3333333333333</ele><time>2026-05-03T10:09:18.958Z</time></trkpt><trkpt lat="30.2546867" lon="-5.7565467"><ele>704.1666666666666</ele><time>2026-05-03T10:09:19.964Z</time></trkpt><trkpt lat="30.25465" lon="-5.7564517"><ele>704.0</ele><time>2026-05-03T10:09:20.944Z</time></trkpt><trkpt lat="30.2546117" lon="-5.756355"><ele>704.0</ele><time>2026-05-03T10:09:21.955Z</time></trkpt><trkpt lat="30.2545733" lon="-5.7562583"><ele>704.0</ele><time>2026-05-03T10:09:22.942Z</time></trkpt><trkpt lat="30.2545333" lon="-5.7561667"><ele>704.0</ele><time>2026-05-03T10:09:23.965Z</time></trkpt><trkpt lat="30.254495" lon="-5.7560783"><ele>704.0</ele><time>2026-05-03T10:09:24.946Z</time></trkpt><trkpt lat="30.25446" lon="-5.7559917"><ele>704.0</ele><time>2026-05-03T10:09:25.953Z</time></trkpt><trkpt lat="30.2544233" lon="-5.7559"><ele>704.0</ele><time>2026-05-03T10:09:26.938Z</time></trkpt><trkpt lat="30.254385" lon="-5.7557983"><ele>704.0</ele><time>2026-05-03T10:09:27.963Z</time></trkpt><trkpt lat="30.2543417" lon="-5.755685"><ele>704.0</ele><time>2026-05-03T10:09:28.95Z</time></trkpt><trkpt lat="30.254295" lon="-5.75556"><ele>704.0</ele><time>2026-05-03T10:09:29.944Z</time></trkpt><trkpt lat="30.25424" lon="-5.755425"><ele>704.0</ele><time>2026-05-03T10:09:30.946Z</time></trkpt><trkpt lat="30.2541833" lon="-5.7552817"><ele>703.75</ele><time>2026-05-03T10:09:31.958Z</time></trkpt><trkpt lat="30.254125" lon="-5.75513"><ele>703.5</ele><time>2026-05-03T10:09:32.934Z</time></trkpt><trkpt lat="30.2540633" lon="-5.7549767"><ele>703.25</ele><time>2026-05-03T10:09:33.964Z</time></trkpt><trkpt lat="30.2540017" lon="-5.7548267"><ele>703.0</ele><time>2026-05-03T10:09:34.928Z</time></trkpt><trkpt lat="30.2539383" lon="-5.7546783"><ele>703.0</ele><time>2026-05-03T10:09:35.951Z</time></trkpt><trkpt lat="30.253875" lon="-5.7545267"><ele>703.0</ele><time>2026-05-03T10:09:36.942Z</time></trkpt><trkpt lat="30.25381" lon="-5.75437"><ele>703.0</ele><time>2026-05-03T10:09:37.943Z</time></trkpt><trkpt lat="30.253745" lon="-5.7542117"><ele>703.0</ele><time>2026-05-03T10:09:38.937Z</time></trkpt><trkpt lat="30.2536817" lon="-5.754055"><ele>702.75</ele><time>2026-05-03T10:09:39.964Z</time></trkpt><trkpt lat="30.25362" lon="-5.7539017"><ele>702.5</ele><time>2026-05-03T10:09:40.949Z</time></trkpt><trkpt lat="30.25356" lon="-5.75375"><ele>702.25</ele><time>2026-05-03T10:09:41.952Z</time></trkpt><trkpt lat="30.2535033" lon="-5.7536017"><ele>702.0</ele><time>2026-05-03T10:09:42.973Z</time></trkpt><trkpt lat="30.25339" lon="-5.7532983"><ele>701.3333333333334</ele><time>2026-05-03T10:09:44.941Z</time></trkpt><trkpt lat="30.25333" lon="-5.7531317"><ele>700.6666666666667</ele><time>2026-05-03T10:09:45.948Z</time></trkpt><trkpt lat="30.2532633" lon="-5.7529517"><ele>700.0</ele><time>2026-05-03T10:09:46.944Z</time></trkpt><trkpt lat="30.2531883" lon="-5.7527667"><ele>700.3333333333334</ele><time>2026-05-03T10:09:47.951Z</time></trkpt><trkpt lat="30.2531083" lon="-5.7525767"><ele>700.6666666666666</ele><time>2026-05-03T10:09:48.94Z</time></trkpt><trkpt lat="30.2530217" lon="-5.7523817"><ele>701.0</ele><time>2026-05-03T10:09:49.959Z</time></trkpt><trkpt lat="30.2529333" lon="-5.7521883"><ele>701.0</ele><time>2026-05-03T10:09:50.957Z</time></trkpt><trkpt lat="30.25285" lon="-5.75199"><ele>701.0</ele><time>2026-05-03T10:09:51.962Z</time></trkpt><trkpt lat="30.2527683" lon="-5.75179"><ele>701.0</ele><time>2026-05-03T10:09:53.003Z</time></trkpt><trkpt lat="30.2526883" lon="-5.75159"><ele>700.3333333333333</ele><time>2026-05-03T10:09:53.963Z</time></trkpt><trkpt lat="30.25261" lon="-5.7513967"><ele>699.6666666666666</ele><time>2026-05-03T10:09:54.942Z</time></trkpt><trkpt lat="30.252535" lon="-5.7512083"><ele>699.0</ele><time>2026-05-03T10:09:55.94Z</time></trkpt><trkpt lat="30.2524617" lon="-5.75102"><ele>698.6666666666666</ele><time>2026-05-03T10:09:56.942Z</time></trkpt><trkpt lat="30.2523867" lon="-5.750835"><ele>698.3333333333333</ele><time>2026-05-03T10:09:57.954Z</time></trkpt><trkpt lat="30.2523117" lon="-5.7506517"><ele>698.0</ele><time>2026-05-03T10:09:58.944Z</time></trkpt><trkpt lat="30.252235" lon="-5.7504717"><ele>699.3333333333333</ele><time>2026-05-03T10:09:59.957Z</time></trkpt><trkpt lat="30.25216" lon="-5.7502883"><ele>700.6666666666666</ele><time>2026-05-03T10:10:00.948Z</time></trkpt><trkpt lat="30.2520867" lon="-5.7501033"><ele>702.0</ele><time>2026-05-03T10:10:01.947Z</time></trkpt><trkpt lat="30.2520133" lon="-5.74992"><ele>702.0</ele><time>2026-05-03T10:10:02.939Z</time></trkpt><trkpt lat="30.2519433" lon="-5.7497383"><ele>702.0</ele><time>2026-05-03T10:10:04.012Z</time></trkpt><trkpt lat="30.2518717" lon="-5.7495533"><ele>702.0</ele><time>2026-05-03T10:10:04.94Z</time></trkpt><trkpt lat="30.2517983" lon="-5.7493683"><ele>701.0</ele><time>2026-05-03T10:10:05.956Z</time></trkpt><trkpt lat="30.2517267" lon="-5.7491833"><ele>700.0</ele><time>2026-05-03T10:10:06.946Z</time></trkpt><trkpt lat="30.2516517" lon="-5.749"><ele>699.0</ele><time>2026-05-03T10:10:07.944Z</time></trkpt><trkpt lat="30.2515767" lon="-5.7488183"><ele>699.0</ele><time>2026-05-03T10:10:08.946Z</time></trkpt><trkpt lat="30.2515017" lon="-5.7486333"><ele>699.0</ele><time>2026-05-03T10:10:09.954Z</time></trkpt><trkpt lat="30.2514267" lon="-5.7484483"><ele>699.0</ele><time>2026-05-03T10:10:10.934Z</time></trkpt><trkpt lat="30.2513567" lon="-5.748265"><ele>699.6666666666666</ele><time>2026-05-03T10:10:11.947Z</time></trkpt><trkpt lat="30.2512867" lon="-5.7480933"><ele>700.3333333333333</ele><time>2026-05-03T10:10:12.94Z</time></trkpt><trkpt lat="30.25122" lon="-5.7479283"><ele>701.0</ele><time>2026-05-03T10:10:13.951Z</time></trkpt><trkpt lat="30.251155" lon="-5.7477567"><ele>700.6666666666666</ele><time>2026-05-03T10:10:14.947Z</time></trkpt><trkpt lat="30.251085" lon="-5.747575"><ele>700.3333333333334</ele><time>2026-05-03T10:10:15.946Z</time></trkpt><trkpt lat="30.2510117" lon="-5.74739"><ele>700.0</ele><time>2026-05-03T10:10:16.94Z</time></trkpt><trkpt lat="30.2509333" lon="-5.7472033"><ele>700.0</ele><time>2026-05-03T10:10:17.954Z</time></trkpt><trkpt lat="30.2508567" lon="-5.7470117"><ele>700.0</ele><time>2026-05-03T10:10:18.949Z</time></trkpt><trkpt lat="30.2507767" lon="-5.7468217"><ele>700.0</ele><time>2026-05-03T10:10:19.966Z</time></trkpt><trkpt lat="30.2506967" lon="-5.7466317"><ele>700.0</ele><time>2026-05-03T10:10:20.943Z</time></trkpt><trkpt lat="30.2506167" lon="-5.74644"><ele>700.0</ele><time>2026-05-03T10:10:21.963Z</time></trkpt><trkpt lat="30.250535" lon="-5.7462467"><ele>700.0</ele><time>2026-05-03T10:10:22.952Z</time></trkpt><trkpt lat="30.2504517" lon="-5.746055"><ele>700.0</ele><time>2026-05-03T10:10:23.953Z</time></trkpt><trkpt lat="30.25037" lon="-5.7458633"><ele>700.0</ele><time>2026-05-03T10:10:24.937Z</time></trkpt><trkpt lat="30.2502917" lon="-5.7456683"><ele>700.0</ele><time>2026-05-03T10:10:25.944Z</time></trkpt><trkpt lat="30.250215" lon="-5.7454667"><ele>700.0</ele><time>2026-05-03T10:10:26.951Z</time></trkpt><trkpt lat="30.2501452" lon="-5.7452622"><ele>700.0</ele><time>2026-05-03T10:10:27.956Z</time></trkpt><trkpt lat="30.2500814" lon="-5.7450548"><ele>700.0</ele><time>2026-05-03T10:10:28.946Z</time></trkpt><trkpt lat="30.2500198" lon="-5.7448467"><ele>699.0</ele><time>2026-05-03T10:10:29.958Z</time></trkpt><trkpt lat="30.2499593" lon="-5.7446386"><ele>698.0</ele><time>2026-05-03T10:10:30.956Z</time></trkpt><trkpt lat="30.2498984" lon="-5.744423"><ele>697.0</ele><time>2026-05-03T10:10:31.981Z</time></trkpt><trkpt lat="30.2498414" lon="-5.7442091"><ele>697.0</ele><time>2026-05-03T10:10:32.939Z</time></trkpt><trkpt lat="30.2497835" lon="-5.7439835"><ele>697.0</ele><time>2026-05-03T10:10:33.979Z</time></trkpt><trkpt lat="30.2497281" lon="-5.743767"><ele>697.0</ele><time>2026-05-03T10:10:34.939Z</time></trkpt><trkpt lat="30.2496693" lon="-5.7435421"><ele>696.3333333333334</ele><time>2026-05-03T10:10:35.955Z</time></trkpt><trkpt lat="30.2496102" lon="-5.7433214"><ele>695.6666666666666</ele><time>2026-05-03T10:10:36.946Z</time></trkpt><trkpt lat="30.2495502" lon="-5.7430995"><ele>695.0</ele><time>2026-05-03T10:10:37.965Z</time></trkpt><trkpt lat="30.2494928" lon="-5.7428793"><ele>695.3333333333333</ele><time>2026-05-03T10:10:38.96Z</time></trkpt><trkpt lat="30.2494344" lon="-5.7426559"><ele>695.6666666666666</ele><time>2026-05-03T10:10:39.964Z</time></trkpt><trkpt lat="30.2493732" lon="-5.7424341"><ele>696.0</ele><time>2026-05-03T10:10:40.943Z</time></trkpt><trkpt lat="30.2493121" lon="-5.7422077"><ele>696.0</ele><time>2026-05-03T10:10:41.953Z</time></trkpt><trkpt lat="30.2492511" lon="-5.7419862"><ele>696.0</ele><time>2026-05-03T10:10:42.942Z</time></trkpt><trkpt lat="30.2491898" lon="-5.7417576"><ele>696.0</ele><time>2026-05-03T10:10:43.984Z</time></trkpt><trkpt lat="30.2491293" lon="-5.7415356"><ele>696.3333333333334</ele><time>2026-05-03T10:10:44.959Z</time></trkpt><trkpt lat="30.2490689" lon="-5.7413093"><ele>696.6666666666667</ele><time>2026-05-03T10:10:45.945Z</time></trkpt><trkpt lat="30.2490084" lon="-5.7410816"><ele>697.0</ele><time>2026-05-03T10:10:46.946Z</time></trkpt><trkpt lat="30.2489467" lon="-5.7408503"><ele>697.0</ele><time>2026-05-03T10:10:47.969Z</time></trkpt><trkpt lat="30.2488844" lon="-5.7406209"><ele>697.0</ele><time>2026-05-03T10:10:48.954Z</time></trkpt><trkpt lat="30.2488218" lon="-5.7403884"><ele>697.0</ele><time>2026-05-03T10:10:49.976Z</time></trkpt><trkpt lat="30.2487608" lon="-5.7401602"><ele>697.6666666666667</ele><time>2026-05-03T10:10:50.945Z</time></trkpt><trkpt lat="30.2486986" lon="-5.7399266"><ele>698.3333333333334</ele><time>2026-05-03T10:10:51.955Z</time></trkpt><trkpt lat="30.2486392" lon="-5.7396937"><ele>699.0</ele><time>2026-05-03T10:10:52.948Z</time></trkpt><trkpt lat="30.2485779" lon="-5.739457"><ele>698.3333333333334</ele><time>2026-05-03T10:10:53.951Z</time></trkpt><trkpt lat="30.2485166" lon="-5.7392211"><ele>697.6666666666667</ele><time>2026-05-03T10:10:54.943Z</time></trkpt><trkpt lat="30.2484536" lon="-5.7389836"><ele>697.0</ele><time>2026-05-03T10:10:55.943Z</time></trkpt><trkpt lat="30.2483914" lon="-5.7387475"><ele>695.6666666666667</ele><time>2026-05-03T10:10:56.941Z</time></trkpt><trkpt lat="30.2483261" lon="-5.7385098"><ele>694.3333333333334</ele><time>2026-05-03T10:10:57.945Z</time></trkpt><trkpt lat="30.2482589" lon="-5.738271"><ele>693.0</ele><time>2026-05-03T10:10:58.94Z</time></trkpt><trkpt lat="30.2481922" lon="-5.7380253"><ele>693.0</ele><time>2026-05-03T10:11:00.025Z</time></trkpt><trkpt lat="30.248131" lon="-5.7378017"><ele>693.0</ele><time>2026-05-03T10:11:00.978Z</time></trkpt><trkpt lat="30.2480696" lon="-5.7375775"><ele>693.0</ele><time>2026-05-03T10:11:01.951Z</time></trkpt><trkpt lat="30.2480079" lon="-5.7373545"><ele>693.6666666666666</ele><time>2026-05-03T10:11:02.95Z</time></trkpt><trkpt lat="30.2479474" lon="-5.7371324"><ele>694.3333333333333</ele><time>2026-05-03T10:11:03.954Z</time></trkpt><trkpt lat="30.2478873" lon="-5.7369062"><ele>695.0</ele><time>2026-05-03T10:11:04.943Z</time></trkpt><trkpt lat="30.2478257" lon="-5.7366723"><ele>695.0</ele><time>2026-05-03T10:11:05.985Z</time></trkpt><trkpt lat="30.2477646" lon="-5.7364468"><ele>695.0</ele><time>2026-05-03T10:11:06.949Z</time></trkpt><trkpt lat="30.2477013" lon="-5.7362157"><ele>695.0</ele><time>2026-05-03T10:11:07.947Z</time></trkpt><trkpt lat="30.2476368" lon="-5.7359854"><ele>695.0</ele><time>2026-05-03T10:11:08.943Z</time></trkpt><trkpt lat="30.2475726" lon="-5.7357512"><ele>695.0</ele><time>2026-05-03T10:11:09.957Z</time></trkpt><trkpt lat="30.2475094" lon="-5.7355213"><ele>695.0</ele><time>2026-05-03T10:11:10.944Z</time></trkpt><trkpt lat="30.247448" lon="-5.7352887"><ele>695.3333333333333</ele><time>2026-05-03T10:11:11.946Z</time></trkpt><trkpt lat="30.2473867" lon="-5.7350588"><ele>695.6666666666666</ele><time>2026-05-03T10:11:12.944Z</time></trkpt><trkpt lat="30.2473263" lon="-5.73483"><ele>696.0</ele><time>2026-05-03T10:11:13.946Z</time></trkpt><trkpt lat="30.2472667" lon="-5.7346063"><ele>696.0</ele><time>2026-05-03T10:11:14.931Z</time></trkpt><trkpt lat="30.2472045" lon="-5.7343843"><ele>696.0</ele><time>2026-05-03T10:11:15.949Z</time></trkpt><trkpt lat="30.2471442" lon="-5.7341619"><ele>696.0</ele><time>2026-05-03T10:11:16.947Z</time></trkpt><trkpt lat="30.2470846" lon="-5.7339358"><ele>696.0</ele><time>2026-05-03T10:11:17.963Z</time></trkpt><trkpt lat="30.2470243" lon="-5.7337114"><ele>696.0</ele><time>2026-05-03T10:11:18.95Z</time></trkpt><trkpt lat="30.2469611" lon="-5.7334822"><ele>696.0</ele><time>2026-05-03T10:11:19.959Z</time></trkpt><trkpt lat="30.2469016" lon="-5.7332542"><ele>696.0</ele><time>2026-05-03T10:11:20.941Z</time></trkpt><trkpt lat="30.2468401" lon="-5.7330246"><ele>696.0</ele><time>2026-05-03T10:11:21.94Z</time></trkpt><trkpt lat="30.2467793" lon="-5.7328002"><ele>696.0</ele><time>2026-05-03T10:11:22.927Z</time></trkpt><trkpt lat="30.2467185" lon="-5.7325736"><ele>695.3333333333334</ele><time>2026-05-03T10:11:23.949Z</time></trkpt><trkpt lat="30.2466596" lon="-5.7323495"><ele>694.6666666666667</ele><time>2026-05-03T10:11:24.949Z</time></trkpt><trkpt lat="30.246597" lon="-5.7321284"><ele>694.0</ele><time>2026-05-03T10:11:25.941Z</time></trkpt><trkpt lat="30.2465338" lon="-5.731903"><ele>694.0</ele><time>2026-05-03T10:11:26.944Z</time></trkpt><trkpt lat="30.2464703" lon="-5.7316796"><ele>694.0</ele><time>2026-05-03T10:11:27.951Z</time></trkpt><trkpt lat="30.2464106" lon="-5.7314586"><ele>694.0</ele><time>2026-05-03T10:11:28.938Z</time></trkpt><trkpt lat="30.2463501" lon="-5.7312343"><ele>693.0</ele><time>2026-05-03T10:11:29.971Z</time></trkpt><trkpt lat="30.246294" lon="-5.7310146"><ele>692.0</ele><time>2026-05-03T10:11:30.939Z</time></trkpt><trkpt lat="30.2462367" lon="-5.7307884"><ele>691.0</ele><time>2026-05-03T10:11:31.974Z</time></trkpt><trkpt lat="30.2461823" lon="-5.7305715"><ele>691.0</ele><time>2026-05-03T10:11:32.938Z</time></trkpt><trkpt lat="30.2461281" lon="-5.7303548"><ele>691.0</ele><time>2026-05-03T10:11:33.949Z</time></trkpt><trkpt lat="30.2460736" lon="-5.7301449"><ele>691.0</ele><time>2026-05-03T10:11:34.936Z</time></trkpt><trkpt lat="30.2460168" lon="-5.7299319"><ele>691.3333333333334</ele><time>2026-05-03T10:11:35.949Z</time></trkpt><trkpt lat="30.2459605" lon="-5.72972"><ele>691.6666666666666</ele><time>2026-05-03T10:11:36.939Z</time></trkpt><trkpt lat="30.2459065" lon="-5.7295056"><ele>692.0</ele><time>2026-05-03T10:11:37.955Z</time></trkpt><trkpt lat="30.2458511" lon="-5.7292952"><ele>692.0</ele><time>2026-05-03T10:11:38.938Z</time></trkpt><trkpt lat="30.2457915" lon="-5.7290804"><ele>692.0</ele><time>2026-05-03T10:11:39.937Z</time></trkpt><trkpt lat="30.2457326" lon="-5.7288646"><ele>692.0</ele><time>2026-05-03T10:11:40.946Z</time></trkpt><trkpt lat="30.245675" lon="-5.7286519"><ele>691.0</ele><time>2026-05-03T10:11:41.939Z</time></trkpt><trkpt lat="30.2456182" lon="-5.7284388"><ele>690.0</ele><time>2026-05-03T10:11:42.93Z</time></trkpt><trkpt lat="30.2455591" lon="-5.7282241"><ele>689.0</ele><time>2026-05-03T10:11:43.949Z</time></trkpt><trkpt lat="30.245501" lon="-5.7280146"><ele>689.0</ele><time>2026-05-03T10:11:44.944Z</time></trkpt><trkpt lat="30.2454402" lon="-5.7278037"><ele>689.0</ele><time>2026-05-03T10:11:45.939Z</time></trkpt><trkpt lat="30.2453782" lon="-5.7275923"><ele>689.0</ele><time>2026-05-03T10:11:46.939Z</time></trkpt><trkpt lat="30.2453187" lon="-5.7273802"><ele>689.6666666666666</ele><time>2026-05-03T10:11:47.947Z</time></trkpt><trkpt lat="30.245261" lon="-5.7271666"><ele>690.3333333333334</ele><time>2026-05-03T10:11:48.93Z</time></trkpt><trkpt lat="30.2452038" lon="-5.726946"><ele>691.0</ele><time>2026-05-03T10:11:49.962Z</time></trkpt><trkpt lat="30.2451478" lon="-5.7267283"><ele>691.6666666666667</ele><time>2026-05-03T10:11:50.943Z</time></trkpt><trkpt lat="30.2450906" lon="-5.7265047"><ele>692.3333333333334</ele><time>2026-05-03T10:11:51.965Z</time></trkpt><trkpt lat="30.2450332" lon="-5.7262854"><ele>693.0</ele><time>2026-05-03T10:11:52.937Z</time></trkpt><trkpt lat="30.2449737" lon="-5.726062"><ele>693.0</ele><time>2026-05-03T10:11:53.944Z</time></trkpt><trkpt lat="30.2449128" lon="-5.7258461"><ele>693.0</ele><time>2026-05-03T10:11:54.934Z</time></trkpt><trkpt lat="30.2448531" lon="-5.7256277"><ele>693.0</ele><time>2026-05-03T10:11:55.94Z</time></trkpt><trkpt lat="30.244795" lon="-5.7254093"><ele>693.0</ele><time>2026-05-03T10:11:56.938Z</time></trkpt><trkpt lat="30.2447385" lon="-5.7251852"><ele>693.0</ele><time>2026-05-03T10:11:57.942Z</time></trkpt><trkpt lat="30.2446821" lon="-5.7249666"><ele>693.0</ele><time>2026-05-03T10:11:58.94Z</time></trkpt><trkpt lat="30.2446279" lon="-5.7247529"><ele>693.0</ele><time>2026-05-03T10:11:59.971Z</time></trkpt><trkpt lat="30.2445736" lon="-5.7245486"><ele>693.0</ele><time>2026-05-03T10:12:00.938Z</time></trkpt><trkpt lat="30.2445134" lon="-5.7243398"><ele>693.0</ele><time>2026-05-03T10:12:01.951Z</time></trkpt><trkpt lat="30.2444473" lon="-5.724136"><ele>693.0</ele><time>2026-05-03T10:12:02.95Z</time></trkpt><trkpt lat="30.2443709" lon="-5.7239308"><ele>693.0</ele><time>2026-05-03T10:12:03.936Z</time></trkpt><trkpt lat="30.2442846" lon="-5.7237209"><ele>693.0</ele><time>2026-05-03T10:12:04.935Z</time></trkpt><trkpt lat="30.2441902" lon="-5.7235087"><ele>693.0</ele><time>2026-05-03T10:12:05.952Z</time></trkpt><trkpt lat="30.2440952" lon="-5.7232921"><ele>693.0</ele><time>2026-05-03T10:12:06.949Z</time></trkpt><trkpt lat="30.2439981" lon="-5.7230731"><ele>693.0</ele><time>2026-05-03T10:12:07.963Z</time></trkpt><trkpt lat="30.2439034" lon="-5.7228569"><ele>692.0</ele><time>2026-05-03T10:12:08.943Z</time></trkpt><trkpt lat="30.2438078" lon="-5.7226373"><ele>691.0</ele><time>2026-05-03T10:12:09.949Z</time></trkpt><trkpt lat="30.2437126" lon="-5.7224176"><ele>690.0</ele><time>2026-05-03T10:12:10.942Z</time></trkpt><trkpt lat="30.2436162" lon="-5.7221972"><ele>690.0</ele><time>2026-05-03T10:12:11.944Z</time></trkpt><trkpt lat="30.2435203" lon="-5.7219727"><ele>690.0</ele><time>2026-05-03T10:12:12.955Z</time></trkpt><trkpt lat="30.2434268" lon="-5.721754"><ele>690.0</ele><time>2026-05-03T10:12:13.951Z</time></trkpt><trkpt lat="30.2433343" lon="-5.721541"><ele>690.0</ele><time>2026-05-03T10:12:14.938Z</time></trkpt><trkpt lat="30.2432421" lon="-5.721327"><ele>690.0</ele><time>2026-05-03T10:12:15.947Z</time></trkpt><trkpt lat="30.2431511" lon="-5.721119"><ele>690.0</ele><time>2026-05-03T10:12:16.938Z</time></trkpt><trkpt lat="30.2430605" lon="-5.72091"><ele>690.6666666666666</ele><time>2026-05-03T10:12:17.948Z</time></trkpt><trkpt lat="30.2429696" lon="-5.7207003"><ele>691.3333333333333</ele><time>2026-05-03T10:12:18.937Z</time></trkpt><trkpt lat="30.2428772" lon="-5.7204856"><ele>692.0</ele><time>2026-05-03T10:12:19.952Z</time></trkpt><trkpt lat="30.2427866" lon="-5.72027"><ele>691.6666666666666</ele><time>2026-05-03T10:12:20.937Z</time></trkpt><trkpt lat="30.2426942" lon="-5.7200487"><ele>691.3333333333334</ele><time>2026-05-03T10:12:21.949Z</time></trkpt><trkpt lat="30.2426017" lon="-5.719831"><ele>691.0</ele><time>2026-05-03T10:12:22.941Z</time></trkpt><trkpt lat="30.2425088" lon="-5.7196126"><ele>691.0</ele><time>2026-05-03T10:12:23.946Z</time></trkpt><trkpt lat="30.2424179" lon="-5.7193926"><ele>691.0</ele><time>2026-05-03T10:12:24.933Z</time></trkpt><trkpt lat="30.2423236" lon="-5.7191698"><ele>691.0</ele><time>2026-05-03T10:12:25.945Z</time></trkpt><trkpt lat="30.2422313" lon="-5.7189483"><ele>691.0</ele><time>2026-05-03T10:12:26.949Z</time></trkpt><trkpt lat="30.2421396" lon="-5.7187271"><ele>691.0</ele><time>2026-05-03T10:12:27.942Z</time></trkpt><trkpt lat="30.2420477" lon="-5.7185036"><ele>691.0</ele><time>2026-05-03T10:12:28.944Z</time></trkpt><trkpt lat="30.241956" lon="-5.7182803"><ele>690.3333333333334</ele><time>2026-05-03T10:12:29.945Z</time></trkpt><trkpt lat="30.2418631" lon="-5.718057"><ele>689.6666666666666</ele><time>2026-05-03T10:12:30.942Z</time></trkpt><trkpt lat="30.2417689" lon="-5.7178314"><ele>689.0</ele><time>2026-05-03T10:12:31.938Z</time></trkpt><trkpt lat="30.2416737" lon="-5.717603"><ele>689.0</ele><time>2026-05-03T10:12:32.942Z</time></trkpt><trkpt lat="30.2415765" lon="-5.7173713"><ele>689.0</ele><time>2026-05-03T10:12:33.961Z</time></trkpt><trkpt lat="30.2414809" lon="-5.7171448"><ele>689.0</ele><time>2026-05-03T10:12:34.941Z</time></trkpt><trkpt lat="30.2413828" lon="-5.7169179"><ele>689.3333333333333</ele><time>2026-05-03T10:12:35.948Z</time></trkpt><trkpt lat="30.2412887" lon="-5.7166977"><ele>689.6666666666666</ele><time>2026-05-03T10:12:36.938Z</time></trkpt><trkpt lat="30.2411937" lon="-5.7164757"><ele>690.0</ele><time>2026-05-03T10:12:37.947Z</time></trkpt><trkpt lat="30.2410994" lon="-5.7162517"><ele>689.0</ele><time>2026-05-03T10:12:38.962Z</time></trkpt><trkpt lat="30.2410053" lon="-5.7160257"><ele>688.0</ele><time>2026-05-03T10:12:39.982Z</time></trkpt><trkpt lat="30.2409143" lon="-5.7158037"><ele>687.0</ele><time>2026-05-03T10:12:40.956Z</time></trkpt><trkpt lat="30.2408231" lon="-5.715575"><ele>687.0</ele><time>2026-05-03T10:12:41.958Z</time></trkpt><trkpt lat="30.240731" lon="-5.715347"><ele>687.0</ele><time>2026-05-03T10:12:42.933Z</time></trkpt><trkpt lat="30.2406312" lon="-5.7151151"><ele>687.0</ele><time>2026-05-03T10:12:43.942Z</time></trkpt><trkpt lat="30.2405332" lon="-5.7148827"><ele>687.3333333333334</ele><time>2026-05-03T10:12:44.951Z</time></trkpt><trkpt lat="30.2404374" lon="-5.7146535"><ele>687.6666666666667</ele><time>2026-05-03T10:12:45.949Z</time></trkpt><trkpt lat="30.2403406" lon="-5.7144311"><ele>688.0</ele><time>2026-05-03T10:12:46.947Z</time></trkpt><trkpt lat="30.2402452" lon="-5.7142132"><ele>688.3333333333334</ele><time>2026-05-03T10:12:47.965Z</time></trkpt><trkpt lat="30.2401551" lon="-5.7139984"><ele>688.6666666666666</ele><time>2026-05-03T10:12:48.944Z</time></trkpt><trkpt lat="30.2400632" lon="-5.7137773"><ele>689.0</ele><time>2026-05-03T10:12:49.972Z</time></trkpt><trkpt lat="30.2399727" lon="-5.7135656"><ele>688.3333333333333</ele><time>2026-05-03T10:12:50.94Z</time></trkpt><trkpt lat="30.2398855" lon="-5.7133542"><ele>687.6666666666666</ele><time>2026-05-03T10:12:51.937Z</time></trkpt><trkpt lat="30.2398003" lon="-5.7131447"><ele>687.0</ele><time>2026-05-03T10:12:52.933Z</time></trkpt><trkpt lat="30.239715" lon="-5.7129354"><ele>687.0</ele><time>2026-05-03T10:12:53.949Z</time></trkpt><trkpt lat="30.2396289" lon="-5.7127272"><ele>687.0</ele><time>2026-05-03T10:12:54.955Z</time></trkpt><trkpt lat="30.2395425" lon="-5.712519"><ele>687.0</ele><time>2026-05-03T10:12:55.961Z</time></trkpt><trkpt lat="30.2394566" lon="-5.7123126"><ele>687.0</ele><time>2026-05-03T10:12:56.946Z</time></trkpt><trkpt lat="30.2393674" lon="-5.7121035"><ele>687.0</ele><time>2026-05-03T10:12:57.955Z</time></trkpt><trkpt lat="30.2392792" lon="-5.711895"><ele>687.0</ele><time>2026-05-03T10:12:58.941Z</time></trkpt><trkpt lat="30.2391905" lon="-5.7116857"><ele>687.0</ele><time>2026-05-03T10:12:59.937Z</time></trkpt><trkpt lat="30.2391021" lon="-5.711477"><ele>687.0</ele><time>2026-05-03T10:13:00.931Z</time></trkpt><trkpt lat="30.239013" lon="-5.7112642"><ele>687.0</ele><time>2026-05-03T10:13:01.954Z</time></trkpt><trkpt lat="30.2389261" lon="-5.7110544"><ele>687.3333333333334</ele><time>2026-05-03T10:13:02.933Z</time></trkpt><trkpt lat="30.2388343" lon="-5.710837"><ele>687.6666666666667</ele><time>2026-05-03T10:13:03.958Z</time></trkpt><trkpt lat="30.2387431" lon="-5.7106214"><ele>688.0</ele><time>2026-05-03T10:13:04.953Z</time></trkpt><trkpt lat="30.2386515" lon="-5.7104034"><ele>687.6666666666667</ele><time>2026-05-03T10:13:05.945Z</time></trkpt><trkpt lat="30.2385597" lon="-5.7101826"><ele>687.3333333333334</ele><time>2026-05-03T10:13:06.934Z</time></trkpt><trkpt lat="30.2384658" lon="-5.7099591"><ele>687.0</ele><time>2026-05-03T10:13:07.953Z</time></trkpt><trkpt lat="30.2383715" lon="-5.7097406"><ele>687.0</ele><time>2026-05-03T10:13:08.93Z</time></trkpt><trkpt lat="30.2382729" lon="-5.7095146"><ele>687.0</ele><time>2026-05-03T10:13:09.942Z</time></trkpt><trkpt lat="30.2381758" lon="-5.7092897"><ele>687.0</ele><time>2026-05-03T10:13:10.938Z</time></trkpt><trkpt lat="30.2380775" lon="-5.7090586"><ele>687.3333333333334</ele><time>2026-05-03T10:13:11.942Z</time></trkpt><trkpt lat="30.2379798" lon="-5.7088257"><ele>687.6666666666667</ele><time>2026-05-03T10:13:12.934Z</time></trkpt><trkpt lat="30.2378836" lon="-5.70859"><ele>688.0</ele><time>2026-05-03T10:13:13.938Z</time></trkpt><trkpt lat="30.2377859" lon="-5.7083523"><ele>688.0</ele><time>2026-05-03T10:13:14.935Z</time></trkpt><trkpt lat="30.2376869" lon="-5.7081119"><ele>688.0</ele><time>2026-05-03T10:13:15.956Z</time></trkpt><trkpt lat="30.2375864" lon="-5.7078735"><ele>688.0</ele><time>2026-05-03T10:13:16.945Z</time></trkpt><trkpt lat="30.2374825" lon="-5.7076325"><ele>688.0</ele><time>2026-05-03T10:13:17.957Z</time></trkpt><trkpt lat="30.2373799" lon="-5.7073958"><ele>687.5</ele><time>2026-05-03T10:13:18.936Z</time></trkpt><trkpt lat="30.237277" lon="-5.707157"><ele>687.0</ele><time>2026-05-03T10:13:19.95Z</time></trkpt><trkpt lat="30.2371743" lon="-5.706921"><ele>687.0</ele><time>2026-05-03T10:13:20.946Z</time></trkpt><trkpt lat="30.237071" lon="-5.706683"><ele>687.0</ele><time>2026-05-03T10:13:21.945Z</time></trkpt><trkpt lat="30.2369688" lon="-5.7064486"><ele>687.0</ele><time>2026-05-03T10:13:22.948Z</time></trkpt><trkpt lat="30.2368715" lon="-5.7062226"><ele>687.0</ele><time>2026-05-03T10:13:23.961Z</time></trkpt><trkpt lat="30.236779" lon="-5.7060076"><ele>687.0</ele><time>2026-05-03T10:13:24.933Z</time></trkpt><trkpt lat="30.2366846" lon="-5.7057873"><ele>687.0</ele><time>2026-05-03T10:13:25.963Z</time></trkpt><trkpt lat="30.2365893" lon="-5.7055708"><ele>687.0</ele><time>2026-05-03T10:13:26.958Z</time></trkpt><trkpt lat="30.2364912" lon="-5.7053558"><ele>687.0</ele><time>2026-05-03T10:13:27.955Z</time></trkpt><trkpt lat="30.2363961" lon="-5.7051469"><ele>687.3333333333334</ele><time>2026-05-03T10:13:28.932Z</time></trkpt><trkpt lat="30.236298" lon="-5.704935"><ele>687.6666666666667</ele><time>2026-05-03T10:13:29.931Z</time></trkpt><trkpt lat="30.2362009" lon="-5.7047214"><ele>688.0</ele><time>2026-05-03T10:13:30.935Z</time></trkpt><trkpt lat="30.2361029" lon="-5.7045036"><ele>688.0</ele><time>2026-05-03T10:13:31.944Z</time></trkpt><trkpt lat="30.2360066" lon="-5.7042816"><ele>688.0</ele><time>2026-05-03T10:13:32.946Z</time></trkpt><trkpt lat="30.2359082" lon="-5.7040547"><ele>688.0</ele><time>2026-05-03T10:13:33.942Z</time></trkpt><trkpt lat="30.2358079" lon="-5.7038238"><ele>688.0</ele><time>2026-05-03T10:13:34.949Z</time></trkpt><trkpt lat="30.2357062" lon="-5.7035931"><ele>688.0</ele><time>2026-05-03T10:13:35.955Z</time></trkpt><trkpt lat="30.2356057" lon="-5.7033662"><ele>688.0</ele><time>2026-05-03T10:13:36.952Z</time></trkpt><trkpt lat="30.2355071" lon="-5.7031401"><ele>687.3333333333334</ele><time>2026-05-03T10:13:37.963Z</time></trkpt><trkpt lat="30.2354115" lon="-5.7029165"><ele>686.6666666666666</ele><time>2026-05-03T10:13:38.924Z</time></trkpt><trkpt lat="30.2353141" lon="-5.7026843"><ele>686.0</ele><time>2026-05-03T10:13:39.937Z</time></trkpt><trkpt lat="30.2352202" lon="-5.7024502"><ele>686.0</ele><time>2026-05-03T10:13:40.938Z</time></trkpt><trkpt lat="30.2351254" lon="-5.7022152"><ele>686.0</ele><time>2026-05-03T10:13:41.953Z</time></trkpt><trkpt lat="30.2350298" lon="-5.7019846"><ele>686.0</ele><time>2026-05-03T10:13:42.937Z</time></trkpt><trkpt lat="30.2349353" lon="-5.7017469"><ele>685.5</ele><time>2026-05-03T10:13:43.957Z</time></trkpt><trkpt lat="30.2348413" lon="-5.7015104"><ele>685.0</ele><time>2026-05-03T10:13:44.946Z</time></trkpt><trkpt lat="30.2347458" lon="-5.7012682"><ele>685.5</ele><time>2026-05-03T10:13:45.954Z</time></trkpt><trkpt lat="30.2346498" lon="-5.7010273"><ele>686.0</ele><time>2026-05-03T10:13:46.942Z</time></trkpt><trkpt lat="30.234554" lon="-5.7007821"><ele>686.0</ele><time>2026-05-03T10:13:47.949Z</time></trkpt><trkpt lat="30.2344579" lon="-5.700537"><ele>686.0</ele><time>2026-05-03T10:13:48.946Z</time></trkpt><trkpt lat="30.2343633" lon="-5.7002869"><ele>687.0</ele><time>2026-05-03T10:13:49.93Z</time></trkpt><trkpt lat="30.2342646" lon="-5.7000315"><ele>688.0</ele><time>2026-05-03T10:13:50.942Z</time></trkpt><trkpt lat="30.2341642" lon="-5.6997774"><ele>688.0</ele><time>2026-05-03T10:13:51.951Z</time></trkpt><trkpt lat="30.2340686" lon="-5.6995352"><ele>688.0</ele><time>2026-05-03T10:13:52.938Z</time></trkpt><trkpt lat="30.2339791" lon="-5.6993037"><ele>688.0</ele><time>2026-05-03T10:13:53.945Z</time></trkpt><trkpt lat="30.2338958" lon="-5.6990896"><ele>687.3333333333334</ele><time>2026-05-03T10:13:54.939Z</time></trkpt><trkpt lat="30.2338159" lon="-5.6988868"><ele>686.6666666666666</ele><time>2026-05-03T10:13:55.953Z</time></trkpt><trkpt lat="30.2337386" lon="-5.6986939"><ele>686.0</ele><time>2026-05-03T10:13:56.938Z</time></trkpt><trkpt lat="30.2336633" lon="-5.6985052"><ele>685.3333333333333</ele><time>2026-05-03T10:13:57.946Z</time></trkpt><trkpt lat="30.2335904" lon="-5.698321"><ele>684.6666666666666</ele><time>2026-05-03T10:13:58.947Z</time></trkpt><trkpt lat="30.23352" lon="-5.6981373"><ele>684.0</ele><time>2026-05-03T10:13:59.961Z</time></trkpt><trkpt lat="30.23345" lon="-5.6979533"><ele>684.0</ele><time>2026-05-03T10:14:00.942Z</time></trkpt><trkpt lat="30.2333817" lon="-5.6977733"><ele>684.0</ele><time>2026-05-03T10:14:01.957Z</time></trkpt><trkpt lat="30.2333133" lon="-5.6975967"><ele>684.0</ele><time>2026-05-03T10:14:02.947Z</time></trkpt><trkpt lat="30.23325" lon="-5.6974267"><ele>684.0</ele><time>2026-05-03T10:14:03.944Z</time></trkpt><trkpt lat="30.23319" lon="-5.6972617"><ele>684.0</ele><time>2026-05-03T10:14:04.929Z</time></trkpt><trkpt lat="30.23313" lon="-5.6970967"><ele>684.0</ele><time>2026-05-03T10:14:05.968Z</time></trkpt><trkpt lat="30.2330617" lon="-5.6969317"><ele>684.3333333333334</ele><time>2026-05-03T10:14:06.936Z</time></trkpt><trkpt lat="30.2329917" lon="-5.69677"><ele>684.6666666666667</ele><time>2026-05-03T10:14:07.944Z</time></trkpt><trkpt lat="30.23292" lon="-5.6966067"><ele>685.0</ele><time>2026-05-03T10:14:08.944Z</time></trkpt><trkpt lat="30.2328533" lon="-5.6964467"><ele>685.0</ele><time>2026-05-03T10:14:09.958Z</time></trkpt><trkpt lat="30.23279" lon="-5.6962933"><ele>685.0</ele><time>2026-05-03T10:14:10.945Z</time></trkpt><trkpt lat="30.2327317" lon="-5.6961417"><ele>685.0</ele><time>2026-05-03T10:14:11.947Z</time></trkpt><trkpt lat="30.2326733" lon="-5.695985"><ele>685.0</ele><time>2026-05-03T10:14:12.936Z</time></trkpt><trkpt lat="30.2326167" lon="-5.6958233"><ele>684.3333333333334</ele><time>2026-05-03T10:14:13.941Z</time></trkpt><trkpt lat="30.23256" lon="-5.69566"><ele>683.6666666666666</ele><time>2026-05-03T10:14:14.934Z</time></trkpt><trkpt lat="30.2324967" lon="-5.6954967"><ele>683.0</ele><time>2026-05-03T10:14:15.942Z</time></trkpt><trkpt lat="30.2324317" lon="-5.6953317"><ele>683.6666666666666</ele><time>2026-05-03T10:14:16.963Z</time></trkpt><trkpt lat="30.2323683" lon="-5.69517"><ele>684.3333333333334</ele><time>2026-05-03T10:14:17.936Z</time></trkpt><trkpt lat="30.232305" lon="-5.69501"><ele>685.0</ele><time>2026-05-03T10:14:18.951Z</time></trkpt><trkpt lat="30.2322417" lon="-5.6948567"><ele>685.0</ele><time>2026-05-03T10:14:19.941Z</time></trkpt><trkpt lat="30.2321783" lon="-5.6947017"><ele>685.0</ele><time>2026-05-03T10:14:20.937Z</time></trkpt><trkpt lat="30.2321133" lon="-5.694545"><ele>685.0</ele><time>2026-05-03T10:14:21.953Z</time></trkpt><trkpt lat="30.2320483" lon="-5.694385"><ele>685.0</ele><time>2026-05-03T10:14:22.938Z</time></trkpt><trkpt lat="30.2319833" lon="-5.694225"><ele>685.0</ele><time>2026-05-03T10:14:23.948Z</time></trkpt><trkpt lat="30.231855" lon="-5.6938967"><ele>685.0</ele><time>2026-05-03T10:14:25.954Z</time></trkpt><trkpt lat="30.23179" lon="-5.6937283"><ele>685.0</ele><time>2026-05-03T10:14:26.938Z</time></trkpt><trkpt lat="30.2317217" lon="-5.6935583"><ele>685.0</ele><time>2026-05-03T10:14:27.943Z</time></trkpt><trkpt lat="30.23165" lon="-5.693385"><ele>685.0</ele><time>2026-05-03T10:14:28.935Z</time></trkpt><trkpt lat="30.23158" lon="-5.69321"><ele>685.0</ele><time>2026-05-03T10:14:29.946Z</time></trkpt><trkpt lat="30.2315117" lon="-5.6930333"><ele>685.0</ele><time>2026-05-03T10:14:30.942Z</time></trkpt><trkpt lat="30.2314433" lon="-5.6928567"><ele>685.6666666666667</ele><time>2026-05-03T10:14:31.967Z</time></trkpt><trkpt lat="30.2313767" lon="-5.6926783"><ele>686.3333333333334</ele><time>2026-05-03T10:14:32.939Z</time></trkpt><trkpt lat="30.2313133" lon="-5.692495"><ele>687.0</ele><time>2026-05-03T10:14:33.952Z</time></trkpt><trkpt lat="30.23125" lon="-5.6923167"><ele>687.0</ele><time>2026-05-03T10:14:34.948Z</time></trkpt><trkpt lat="30.2311867" lon="-5.6921383"><ele>687.0</ele><time>2026-05-03T10:14:35.942Z</time></trkpt><trkpt lat="30.2311217" lon="-5.69196"><ele>687.0</ele><time>2026-05-03T10:14:36.937Z</time></trkpt><trkpt lat="30.2310567" lon="-5.69178"><ele>686.0</ele><time>2026-05-03T10:14:37.945Z</time></trkpt><trkpt lat="30.2309917" lon="-5.6916"><ele>685.0</ele><time>2026-05-03T10:14:38.941Z</time></trkpt><trkpt lat="30.230925" lon="-5.69142"><ele>684.0</ele><time>2026-05-03T10:14:39.953Z</time></trkpt><trkpt lat="30.2308533" lon="-5.6912383"><ele>684.0</ele><time>2026-05-03T10:14:40.946Z</time></trkpt><trkpt lat="30.2307817" lon="-5.6910567"><ele>684.0</ele><time>2026-05-03T10:14:41.947Z</time></trkpt><trkpt lat="30.23071" lon="-5.6908767"><ele>684.0</ele><time>2026-05-03T10:14:42.959Z</time></trkpt><trkpt lat="30.23064" lon="-5.6907033"><ele>683.6666666666666</ele><time>2026-05-03T10:14:43.955Z</time></trkpt><trkpt lat="30.2305733" lon="-5.6905333"><ele>683.3333333333333</ele><time>2026-05-03T10:14:44.949Z</time></trkpt><trkpt lat="30.2305083" lon="-5.6903683"><ele>683.0</ele><time>2026-05-03T10:14:45.946Z</time></trkpt><trkpt lat="30.2304433" lon="-5.6902067"><ele>683.0</ele><time>2026-05-03T10:14:46.929Z</time></trkpt><trkpt lat="30.23038" lon="-5.690045"><ele>683.0</ele><time>2026-05-03T10:14:47.94Z</time></trkpt><trkpt lat="30.2303167" lon="-5.6898867"><ele>683.0</ele><time>2026-05-03T10:14:48.938Z</time></trkpt><trkpt lat="30.2302533" lon="-5.6897267"><ele>683.0</ele><time>2026-05-03T10:14:49.944Z</time></trkpt><trkpt lat="30.2301883" lon="-5.6895667"><ele>683.0</ele><time>2026-05-03T10:14:50.931Z</time></trkpt><trkpt lat="30.2301267" lon="-5.689405"><ele>683.0</ele><time>2026-05-03T10:14:51.954Z</time></trkpt><trkpt lat="30.230065" lon="-5.6892433"><ele>682.75</ele><time>2026-05-03T10:14:52.941Z</time></trkpt><trkpt lat="30.2300067" lon="-5.6890883"><ele>682.5</ele><time>2026-05-03T10:14:53.953Z</time></trkpt><trkpt lat="30.22995" lon="-5.68894"><ele>682.25</ele><time>2026-05-03T10:14:54.926Z</time></trkpt><trkpt lat="30.2298917" lon="-5.688795"><ele>682.0</ele><time>2026-05-03T10:14:55.95Z</time></trkpt><trkpt lat="30.229835" lon="-5.6886517"><ele>682.25</ele><time>2026-05-03T10:14:56.943Z</time></trkpt><trkpt lat="30.2297783" lon="-5.68851"><ele>682.5</ele><time>2026-05-03T10:14:57.959Z</time></trkpt><trkpt lat="30.2297233" lon="-5.6883683"><ele>682.75</ele><time>2026-05-03T10:14:58.927Z</time></trkpt><trkpt lat="30.2296733" lon="-5.68823"><ele>683.0</ele><time>2026-05-03T10:14:59.952Z</time></trkpt><trkpt lat="30.2296217" lon="-5.688095"><ele>683.0</ele><time>2026-05-03T10:15:00.938Z</time></trkpt><trkpt lat="30.2295667" lon="-5.687955"><ele>683.0</ele><time>2026-05-03T10:15:01.944Z</time></trkpt><trkpt lat="30.22951" lon="-5.6878183"><ele>683.0</ele><time>2026-05-03T10:15:02.929Z</time></trkpt><trkpt lat="30.2294543" lon="-5.6876785"><ele>683.0</ele><time>2026-05-03T10:15:03.952Z</time></trkpt><trkpt lat="30.2294019" lon="-5.6875393"><ele>682.5</ele><time>2026-05-03T10:15:04.944Z</time></trkpt><trkpt lat="30.2293502" lon="-5.687401"><ele>682.0</ele><time>2026-05-03T10:15:05.948Z</time></trkpt><trkpt lat="30.2292998" lon="-5.6872642"><ele>681.5</ele><time>2026-05-03T10:15:06.95Z</time></trkpt><trkpt lat="30.2292454" lon="-5.6871261"><ele>681.0</ele><time>2026-05-03T10:15:07.955Z</time></trkpt><trkpt lat="30.2291905" lon="-5.6869854"><ele>681.25</ele><time>2026-05-03T10:15:08.936Z</time></trkpt><trkpt lat="30.2291344" lon="-5.6868399"><ele>681.5</ele><time>2026-05-03T10:15:09.975Z</time></trkpt><trkpt lat="30.2290822" lon="-5.6866999"><ele>681.75</ele><time>2026-05-03T10:15:10.944Z</time></trkpt><trkpt lat="30.2290311" lon="-5.6865571"><ele>682.0</ele><time>2026-05-03T10:15:11.947Z</time></trkpt><trkpt lat="30.2289796" lon="-5.6864128"><ele>682.25</ele><time>2026-05-03T10:15:12.945Z</time></trkpt><trkpt lat="30.2289218" lon="-5.6862691"><ele>682.5</ele><time>2026-05-03T10:15:13.945Z</time></trkpt><trkpt lat="30.2288587" lon="-5.6861333"><ele>682.75</ele><time>2026-05-03T10:15:14.936Z</time></trkpt><trkpt lat="30.2287984" lon="-5.6860121"><ele>683.0</ele><time>2026-05-03T10:15:15.951Z</time></trkpt><trkpt lat="30.2287513" lon="-5.6859137"><ele>683.0</ele><time>2026-05-03T10:15:16.933Z</time></trkpt><trkpt lat="30.228717" lon="-5.6858328"><ele>683.0</ele><time>2026-05-03T10:15:17.94Z</time></trkpt><trkpt lat="30.2286748" lon="-5.685711"><ele>683.0</ele><time>2026-05-03T10:15:19.943Z</time></trkpt><trkpt lat="30.2286454" lon="-5.68563"><ele>683.0</ele><time>2026-05-03T10:15:21.947Z</time></trkpt><trkpt lat="30.2285861" lon="-5.6854631"><ele>683.0</ele><time>2026-05-03T10:15:37.933Z</time></trkpt><trkpt lat="30.2285365" lon="-5.6853356"><ele>683.0</ele><time>2026-05-03T10:15:38.936Z</time></trkpt><trkpt lat="30.2284825" lon="-5.685197"><ele>683.0</ele><time>2026-05-03T10:15:39.944Z</time></trkpt><trkpt lat="30.2284289" lon="-5.6850515"><ele>683.0</ele><time>2026-05-03T10:15:40.937Z</time></trkpt><trkpt lat="30.2283739" lon="-5.6849072"><ele>683.0</ele><time>2026-05-03T10:15:41.934Z</time></trkpt><trkpt lat="30.2283148" lon="-5.6847614"><ele>683.0</ele><time>2026-05-03T10:15:42.928Z</time></trkpt><trkpt lat="30.2282536" lon="-5.6846141"><ele>683.0</ele><time>2026-05-03T10:15:43.957Z</time></trkpt><trkpt lat="30.2281947" lon="-5.6844687"><ele>683.0</ele><time>2026-05-03T10:15:44.939Z</time></trkpt><trkpt lat="30.2281345" lon="-5.6843195"><ele>683.0</ele><time>2026-05-03T10:15:45.952Z</time></trkpt><trkpt lat="30.2280778" lon="-5.6841746"><ele>682.5</ele><time>2026-05-03T10:15:46.94Z</time></trkpt><trkpt lat="30.2280239" lon="-5.6840346"><ele>682.0</ele><time>2026-05-03T10:15:47.942Z</time></trkpt><trkpt lat="30.2279722" lon="-5.6838991"><ele>681.5</ele><time>2026-05-03T10:15:48.933Z</time></trkpt><trkpt lat="30.2279212" lon="-5.6837653"><ele>681.0</ele><time>2026-05-03T10:15:49.975Z</time></trkpt><trkpt lat="30.2278728" lon="-5.6836416"><ele>681.5</ele><time>2026-05-03T10:15:50.926Z</time></trkpt><trkpt lat="30.2278224" lon="-5.6835168"><ele>682.0</ele><time>2026-05-03T10:15:51.937Z</time></trkpt><trkpt lat="30.2277748" lon="-5.6833948"><ele>682.5</ele><time>2026-05-03T10:15:52.952Z</time></trkpt><trkpt lat="30.2277313" lon="-5.6832737"><ele>683.0</ele><time>2026-05-03T10:15:53.953Z</time></trkpt><trkpt lat="30.2276943" lon="-5.6831487"><ele>683.0</ele><time>2026-05-03T10:15:54.94Z</time></trkpt><trkpt lat="30.2276568" lon="-5.6830206"><ele>683.0</ele><time>2026-05-03T10:15:55.977Z</time></trkpt><trkpt lat="30.2276162" lon="-5.6828945"><ele>683.0</ele><time>2026-05-03T10:15:56.944Z</time></trkpt><trkpt lat="30.2275655" lon="-5.6827653"><ele>683.0</ele><time>2026-05-03T10:15:57.953Z</time></trkpt><trkpt lat="30.2275094" lon="-5.6826332"><ele>683.0</ele><time>2026-05-03T10:15:58.943Z</time></trkpt><trkpt lat="30.2274501" lon="-5.6824927"><ele>683.0</ele><time>2026-05-03T10:15:59.957Z</time></trkpt><trkpt lat="30.2273943" lon="-5.6823539"><ele>683.0</ele><time>2026-05-03T10:16:00.939Z</time></trkpt><trkpt lat="30.2273385" lon="-5.6822127"><ele>683.0</ele><time>2026-05-03T10:16:01.95Z</time></trkpt><trkpt lat="30.2272834" lon="-5.6820725"><ele>683.0</ele><time>2026-05-03T10:16:02.94Z</time></trkpt><trkpt lat="30.2272307" lon="-5.6819389"><ele>683.0</ele><time>2026-05-03T10:16:03.949Z</time></trkpt><trkpt lat="30.2271797" lon="-5.6818174"><ele>683.0</ele><time>2026-05-03T10:16:04.943Z</time></trkpt><trkpt lat="30.2271254" lon="-5.6817009"><ele>683.0</ele><time>2026-05-03T10:16:05.961Z</time></trkpt><trkpt lat="30.2270695" lon="-5.6815864"><ele>682.75</ele><time>2026-05-03T10:16:06.936Z</time></trkpt><trkpt lat="30.2270134" lon="-5.6814643"><ele>682.5</ele><time>2026-05-03T10:16:07.959Z</time></trkpt><trkpt lat="30.226966" lon="-5.68134"><ele>682.25</ele><time>2026-05-03T10:16:08.952Z</time></trkpt><trkpt lat="30.2269288" lon="-5.6812121"><ele>682.0</ele><time>2026-05-03T10:16:09.942Z</time></trkpt><trkpt lat="30.2268961" lon="-5.681082"><ele>682.0</ele><time>2026-05-03T10:16:10.962Z</time></trkpt><trkpt lat="30.2268622" lon="-5.6809538"><ele>682.0</ele><time>2026-05-03T10:16:11.957Z</time></trkpt><trkpt lat="30.2268202" lon="-5.6808295"><ele>682.0</ele><time>2026-05-03T10:16:12.947Z</time></trkpt><trkpt lat="30.2267719" lon="-5.6807073"><ele>682.0</ele><time>2026-05-03T10:16:13.95Z</time></trkpt><trkpt lat="30.2267225" lon="-5.680587"><ele>682.0</ele><time>2026-05-03T10:16:14.968Z</time></trkpt><trkpt lat="30.2266767" lon="-5.6804702"><ele>682.0</ele><time>2026-05-03T10:16:15.947Z</time></trkpt><trkpt lat="30.2266325" lon="-5.6803575"><ele>682.0</ele><time>2026-05-03T10:16:16.951Z</time></trkpt><trkpt lat="30.2265878" lon="-5.6802505"><ele>682.0</ele><time>2026-05-03T10:16:17.969Z</time></trkpt><trkpt lat="30.2265417" lon="-5.6801541"><ele>682.0</ele><time>2026-05-03T10:16:18.95Z</time></trkpt><trkpt lat="30.2264915" lon="-5.6800649"><ele>681.8333333333334</ele><time>2026-05-03T10:16:19.967Z</time></trkpt><trkpt lat="30.226439" lon="-5.6799904"><ele>681.6666666666667</ele><time>2026-05-03T10:16:20.957Z</time></trkpt><trkpt lat="30.2263786" lon="-5.6799284"><ele>681.5</ele><time>2026-05-03T10:16:21.945Z</time></trkpt><trkpt lat="30.226313" lon="-5.6798829"><ele>681.3333333333334</ele><time>2026-05-03T10:16:22.952Z</time></trkpt><trkpt lat="30.2262454" lon="-5.6798514"><ele>681.1666666666666</ele><time>2026-05-03T10:16:23.966Z</time></trkpt><trkpt lat="30.2261784" lon="-5.6798319"><ele>681.0</ele><time>2026-05-03T10:16:24.962Z</time></trkpt><trkpt lat="30.2261104" lon="-5.679821"><ele>681.0</ele><time>2026-05-03T10:16:25.951Z</time></trkpt><trkpt lat="30.2260362" lon="-5.6798196"><ele>681.0</ele><time>2026-05-03T10:16:26.946Z</time></trkpt><trkpt lat="30.2259534" lon="-5.6798252"><ele>681.0</ele><time>2026-05-03T10:16:27.959Z</time></trkpt><trkpt lat="30.2258676" lon="-5.6798346"><ele>681.0</ele><time>2026-05-03T10:16:28.979Z</time></trkpt><trkpt lat="30.2257884" lon="-5.6798434"><ele>681.0</ele><time>2026-05-03T10:16:29.956Z</time></trkpt><trkpt lat="30.2257173" lon="-5.6798521"><ele>681.0</ele><time>2026-05-03T10:16:30.953Z</time></trkpt><trkpt lat="30.2256143" lon="-5.6798666"><ele>681.0</ele><time>2026-05-03T10:16:32.979Z</time></trkpt><trkpt lat="30.2255477" lon="-5.6798369"><ele>681.0</ele><time>2026-05-03T10:18:37.953Z</time></trkpt><trkpt lat="30.2255717" lon="-5.6797633"><ele>681.0</ele><time>2026-05-03T10:18:47.962Z</time></trkpt><trkpt lat="30.225625" lon="-5.6796817"><ele>681.0</ele><time>2026-05-03T10:18:49.958Z</time></trkpt><trkpt lat="30.2256667" lon="-5.679625"><ele>681.0</ele><time>2026-05-03T10:18:50.948Z</time></trkpt><trkpt lat="30.2257117" lon="-5.6795633"><ele>681.0</ele><time>2026-05-03T10:18:51.98Z</time></trkpt><trkpt lat="30.2258033" lon="-5.67944"><ele>681.1999999999999</ele><time>2026-05-03T10:18:53.959Z</time></trkpt><trkpt lat="30.2258517" lon="-5.6793767"><ele>681.4</ele><time>2026-05-03T10:18:54.934Z</time></trkpt><trkpt lat="30.2259017" lon="-5.679315"><ele>681.6</ele><time>2026-05-03T10:18:55.974Z</time></trkpt><trkpt lat="30.225955" lon="-5.6792467"><ele>681.8</ele><time>2026-05-03T10:18:56.929Z</time></trkpt><trkpt lat="30.226055" lon="-5.6791117"><ele>682.0</ele><time>2026-05-03T10:18:58.931Z</time></trkpt><trkpt lat="30.2261067" lon="-5.6790117"><ele>682.0</ele><time>2026-05-03T10:19:00.945Z</time></trkpt><trkpt lat="30.22608" lon="-5.6789433"><ele>682.0</ele><time>2026-05-03T10:19:02.959Z</time></trkpt><trkpt lat="30.2260367" lon="-5.678845"><ele>682.0</ele><time>2026-05-03T10:19:04.97Z</time></trkpt><trkpt lat="30.225965" lon="-5.6787383"><ele>682.0</ele><time>2026-05-03T10:19:06.966Z</time></trkpt><trkpt lat="30.2258783" lon="-5.678655"><ele>682.0</ele><time>2026-05-03T10:19:08.978Z</time></trkpt><trkpt lat="30.2257967" lon="-5.6785617"><ele>682.0</ele><time>2026-05-03T10:19:10.948Z</time></trkpt><trkpt lat="30.22573" lon="-5.6785067"><ele>682.0</ele><time>2026-05-03T10:19:12.993Z</time></trkpt><trkpt lat="30.2256483" lon="-5.6784533"><ele>682.0</ele><time>2026-05-03T10:19:14.956Z</time></trkpt><trkpt lat="30.2255283" lon="-5.6783983"><ele>682.0</ele><time>2026-05-03T10:19:16.948Z</time></trkpt><trkpt lat="30.2254633" lon="-5.6783683"><ele>682.0</ele><time>2026-05-03T10:19:17.945Z</time></trkpt><trkpt lat="30.2253967" lon="-5.678335"><ele>682.0</ele><time>2026-05-03T10:19:18.951Z</time></trkpt><trkpt lat="30.2253317" lon="-5.678305"><ele>682.0</ele><time>2026-05-03T10:19:19.971Z</time></trkpt><trkpt lat="30.22522" lon="-5.6782533"><ele>682.0</ele><time>2026-05-03T10:19:21.954Z</time></trkpt><trkpt lat="30.2251283" lon="-5.6782183"><ele>682.0</ele><time>2026-05-03T10:19:23.955Z</time></trkpt><trkpt lat="30.2250667" lon="-5.6781933"><ele>682.0</ele><time>2026-05-03T10:19:25.963Z</time></trkpt><trkpt lat="30.2249967" lon="-5.678185"><ele>682.0</ele><time>2026-05-03T10:19:28.945Z</time></trkpt><trkpt lat="30.22488" lon="-5.6781233"><ele>682.0</ele><time>2026-05-03T10:19:39.956Z</time></trkpt><trkpt lat="30.2247817" lon="-5.67804"><ele>682.0</ele><time>2026-05-03T10:19:41.962Z</time></trkpt><trkpt lat="30.22469" lon="-5.6779717"><ele>682.0</ele><time>2026-05-03T10:19:43.982Z</time></trkpt><trkpt lat="30.2245967" lon="-5.6779383"><ele>682.0</ele><time>2026-05-03T10:19:45.964Z</time></trkpt><trkpt lat="30.2244933" lon="-5.677945"><ele>682.0</ele><time>2026-05-03T10:19:47.986Z</time></trkpt><trkpt lat="30.224385" lon="-5.6780083"><ele>682.0</ele><time>2026-05-03T10:19:49.968Z</time></trkpt><trkpt lat="30.2242817" lon="-5.6780933"><ele>682.0</ele><time>2026-05-03T10:19:51.968Z</time></trkpt><trkpt lat="30.2241533" lon="-5.6781633"><ele>682.0</ele><time>2026-05-03T10:19:53.999Z</time></trkpt><trkpt lat="30.224005" lon="-5.6782467"><ele>682.0</ele><time>2026-05-03T10:19:55.946Z</time></trkpt><trkpt lat="30.223925" lon="-5.6782883"><ele>681.8</ele><time>2026-05-03T10:19:56.942Z</time></trkpt><trkpt lat="30.223775" lon="-5.6783517"><ele>681.6</ele><time>2026-05-03T10:19:58.965Z</time></trkpt><trkpt lat="30.22371" lon="-5.6783767"><ele>681.4</ele><time>2026-05-03T10:19:59.974Z</time></trkpt><trkpt lat="30.2235983" lon="-5.6784067"><ele>681.1999999999999</ele><time>2026-05-03T10:20:01.966Z</time></trkpt><trkpt lat="30.2235233" lon="-5.6784167"><ele>681.0</ele><time>2026-05-03T10:20:03.978Z</time></trkpt><trkpt lat="30.2235367" lon="-5.6784883"><ele>681.0</ele><time>2026-05-03T10:20:55.988Z</time></trkpt><trkpt lat="30.2236067" lon="-5.6785033"><ele>681.0</ele><time>2026-05-03T10:21:04.961Z</time></trkpt><trkpt lat="30.223675" lon="-5.6784583"><ele>681.0</ele><time>2026-05-03T10:21:06.954Z</time></trkpt><trkpt lat="30.2237517" lon="-5.67841"><ele>681.0</ele><time>2026-05-03T10:21:08.944Z</time></trkpt><trkpt lat="30.223845" lon="-5.6783417"><ele>681.0</ele><time>2026-05-03T10:21:10.941Z</time></trkpt><trkpt lat="30.2239533" lon="-5.6782717"><ele>681.1666666666666</ele><time>2026-05-03T10:21:12.945Z</time></trkpt><trkpt lat="30.2240117" lon="-5.67824"><ele>681.3333333333334</ele><time>2026-05-03T10:21:13.957Z</time></trkpt><trkpt lat="30.224075" lon="-5.6782067"><ele>681.5</ele><time>2026-05-03T10:21:14.964Z</time></trkpt><trkpt lat="30.2241433" lon="-5.6781683"><ele>681.6666666666667</ele><time>2026-05-03T10:21:15.949Z</time></trkpt><trkpt lat="30.2242167" lon="-5.6781267"><ele>681.8333333333334</ele><time>2026-05-03T10:21:16.94Z</time></trkpt><trkpt lat="30.2242817" lon="-5.6780833"><ele>682.0</ele><time>2026-05-03T10:21:17.995Z</time></trkpt><trkpt lat="30.22439" lon="-5.6779883"><ele>682.0</ele><time>2026-05-03T10:21:19.945Z</time></trkpt><trkpt lat="30.2244717" lon="-5.6779083"><ele>682.0</ele><time>2026-05-03T10:21:21.971Z</time></trkpt><trkpt lat="30.2245332" lon="-5.6778589"><ele>682.0</ele><time>2026-05-03T10:21:23.962Z</time></trkpt><trkpt lat="30.2246165" lon="-5.6778585"><ele>682.0</ele><time>2026-05-03T10:21:26.969Z</time></trkpt><trkpt lat="30.2246989" lon="-5.6779331"><ele>682.0</ele><time>2026-05-03T10:21:28.953Z</time></trkpt><trkpt lat="30.2247484" lon="-5.6779944"><ele>682.0</ele><time>2026-05-03T10:21:29.964Z</time></trkpt><trkpt lat="30.2248082" lon="-5.6780608"><ele>682.0</ele><time>2026-05-03T10:21:30.95Z</time></trkpt><trkpt lat="30.2248828" lon="-5.6781253"><ele>682.0</ele><time>2026-05-03T10:21:31.983Z</time></trkpt><trkpt lat="30.2249623" lon="-5.6781773"><ele>682.0</ele><time>2026-05-03T10:21:32.979Z</time></trkpt><trkpt lat="30.225043" lon="-5.6782182"><ele>682.0</ele><time>2026-05-03T10:21:33.961Z</time></trkpt><trkpt lat="30.2251234" lon="-5.6782538"><ele>682.0</ele><time>2026-05-03T10:21:34.939Z</time></trkpt><trkpt lat="30.2252043" lon="-5.6782881"><ele>682.0</ele><time>2026-05-03T10:21:35.963Z</time></trkpt><trkpt lat="30.2253517" lon="-5.6783566"><ele>682.0</ele><time>2026-05-03T10:21:37.947Z</time></trkpt><trkpt lat="30.2254238" lon="-5.6783889"><ele>682.0</ele><time>2026-05-03T10:21:38.935Z</time></trkpt><trkpt lat="30.2254965" lon="-5.6784166"><ele>682.0</ele><time>2026-05-03T10:21:39.964Z</time></trkpt><trkpt lat="30.2255615" lon="-5.6784437"><ele>682.0</ele><time>2026-05-03T10:21:40.939Z</time></trkpt><trkpt lat="30.2256234" lon="-5.6784728"><ele>682.0</ele><time>2026-05-03T10:21:41.937Z</time></trkpt><trkpt lat="30.2257298" lon="-5.6785287"><ele>682.0</ele><time>2026-05-03T10:21:43.98Z</time></trkpt><trkpt lat="30.2257952" lon="-5.6785534"><ele>682.0</ele><time>2026-05-03T10:21:45.936Z</time></trkpt><trkpt lat="30.2257056" lon="-5.6785135"><ele>682.0</ele><time>2026-05-03T10:21:55.982Z</time></trkpt><trkpt lat="30.2256293" lon="-5.6784592"><ele>682.0</ele><time>2026-05-03T10:21:57.955Z</time></trkpt><trkpt lat="30.2255418" lon="-5.6784072"><ele>682.0</ele><time>2026-05-03T10:21:59.938Z</time></trkpt><trkpt lat="30.2254233" lon="-5.6783617"><ele>682.0</ele><time>2026-05-03T10:22:01.947Z</time></trkpt><trkpt lat="30.2253133" lon="-5.6783117"><ele>682.0</ele><time>2026-05-03T10:22:03.954Z</time></trkpt><trkpt lat="30.2252" lon="-5.678255"><ele>682.0</ele><time>2026-05-03T10:22:05.934Z</time></trkpt><trkpt lat="30.2250867" lon="-5.678215"><ele>682.0</ele><time>2026-05-03T10:22:07.945Z</time></trkpt><trkpt lat="30.2250217" lon="-5.6781917"><ele>682.0</ele><time>2026-05-03T10:22:08.951Z</time></trkpt><trkpt lat="30.2249533" lon="-5.6781533"><ele>682.0</ele><time>2026-05-03T10:22:09.952Z</time></trkpt><trkpt lat="30.224885" lon="-5.6781067"><ele>682.0</ele><time>2026-05-03T10:22:10.946Z</time></trkpt><trkpt lat="30.2248183" lon="-5.678055"><ele>682.0</ele><time>2026-05-03T10:22:11.944Z</time></trkpt><trkpt lat="30.224755" lon="-5.6780033"><ele>682.0</ele><time>2026-05-03T10:22:12.952Z</time></trkpt><trkpt lat="30.224695" lon="-5.6779567"><ele>682.0</ele><time>2026-05-03T10:22:13.954Z</time></trkpt><trkpt lat="30.2245867" lon="-5.6778983"><ele>682.0</ele><time>2026-05-03T10:22:15.951Z</time></trkpt><trkpt lat="30.2244867" lon="-5.6778933"><ele>682.0</ele><time>2026-05-03T10:22:17.972Z</time></trkpt><trkpt lat="30.2243783" lon="-5.67798"><ele>682.0</ele><time>2026-05-03T10:22:19.95Z</time></trkpt><trkpt lat="30.22431" lon="-5.6780333"><ele>682.0</ele><time>2026-05-03T10:22:20.952Z</time></trkpt><trkpt lat="30.224235" lon="-5.67809"><ele>682.0</ele><time>2026-05-03T10:22:21.967Z</time></trkpt><trkpt lat="30.2241583" lon="-5.678145"><ele>682.0</ele><time>2026-05-03T10:22:22.95Z</time></trkpt><trkpt lat="30.224075" lon="-5.6781967"><ele>682.0</ele><time>2026-05-03T10:22:23.938Z</time></trkpt><trkpt lat="30.2239833" lon="-5.678245"><ele>682.0</ele><time>2026-05-03T10:22:24.978Z</time></trkpt><trkpt lat="30.22389" lon="-5.6782883"><ele>682.0</ele><time>2026-05-03T10:22:25.973Z</time></trkpt><trkpt lat="30.2237133" lon="-5.6783483"><ele>682.0</ele><time>2026-05-03T10:22:27.956Z</time></trkpt><trkpt lat="30.2236367" lon="-5.6783683"><ele>681.8333333333334</ele><time>2026-05-03T10:22:28.951Z</time></trkpt><trkpt lat="30.2235717" lon="-5.6783817"><ele>681.6666666666667</ele><time>2026-05-03T10:22:29.94Z</time></trkpt><trkpt lat="30.2234733" lon="-5.67838"><ele>681.5</ele><time>2026-05-03T10:22:31.944Z</time></trkpt><trkpt lat="30.223375" lon="-5.6783233"><ele>681.3333333333334</ele><time>2026-05-03T10:22:33.938Z</time></trkpt><trkpt lat="30.2233183" lon="-5.6782717"><ele>681.1666666666666</ele><time>2026-05-03T10:22:34.933Z</time></trkpt><trkpt lat="30.2232583" lon="-5.6782017"><ele>681.0</ele><time>2026-05-03T10:22:35.953Z</time></trkpt><trkpt lat="30.2231917" lon="-5.6781183"><ele>680.5999999999999</ele><time>2026-05-03T10:22:36.945Z</time></trkpt><trkpt lat="30.2231183" lon="-5.6780233"><ele>680.2</ele><time>2026-05-03T10:22:37.947Z</time></trkpt><trkpt lat="30.22305" lon="-5.67792"><ele>679.8</ele><time>2026-05-03T10:22:38.931Z</time></trkpt><trkpt lat="30.2229867" lon="-5.6778183"><ele>679.4000000000001</ele><time>2026-05-03T10:22:39.945Z</time></trkpt><trkpt lat="30.2229267" lon="-5.677715"><ele>679.0</ele><time>2026-05-03T10:22:40.95Z</time></trkpt><trkpt lat="30.2228733" lon="-5.677615"><ele>678.8333333333334</ele><time>2026-05-03T10:22:41.97Z</time></trkpt><trkpt lat="30.22283" lon="-5.67752"><ele>678.6666666666667</ele><time>2026-05-03T10:22:42.923Z</time></trkpt><trkpt lat="30.2227983" lon="-5.6774283"><ele>678.5</ele><time>2026-05-03T10:22:43.943Z</time></trkpt><trkpt lat="30.2227833" lon="-5.6773417"><ele>678.3333333333334</ele><time>2026-05-03T10:22:44.937Z</time></trkpt><trkpt lat="30.2227867" lon="-5.677255"><ele>678.1666666666666</ele><time>2026-05-03T10:22:45.968Z</time></trkpt><trkpt lat="30.2228133" lon="-5.67717"><ele>678.0</ele><time>2026-05-03T10:22:46.954Z</time></trkpt><trkpt lat="30.222855" lon="-5.67708"><ele>678.0</ele><time>2026-05-03T10:22:47.935Z</time></trkpt><trkpt lat="30.2229033" lon="-5.6769817"><ele>678.0</ele><time>2026-05-03T10:22:48.935Z</time></trkpt><trkpt lat="30.22295" lon="-5.67688"><ele>678.0</ele><time>2026-05-03T10:22:49.959Z</time></trkpt><trkpt lat="30.2229883" lon="-5.67678"><ele>678.0</ele><time>2026-05-03T10:22:50.945Z</time></trkpt><trkpt lat="30.2230117" lon="-5.6766867"><ele>678.0</ele><time>2026-05-03T10:22:51.949Z</time></trkpt><trkpt lat="30.223015" lon="-5.6765983"><ele>678.5999999999999</ele><time>2026-05-03T10:22:52.93Z</time></trkpt><trkpt lat="30.2229983" lon="-5.6765133"><ele>679.1999999999999</ele><time>2026-05-03T10:22:53.941Z</time></trkpt><trkpt lat="30.2229583" lon="-5.6764283"><ele>679.8</ele><time>2026-05-03T10:22:54.943Z</time></trkpt><trkpt lat="30.2228983" lon="-5.67635"><ele>680.4</ele><time>2026-05-03T10:22:55.95Z</time></trkpt><trkpt lat="30.2228033" lon="-5.6762817"><ele>681.0</ele><time>2026-05-03T10:22:56.943Z</time></trkpt><trkpt lat="30.2226883" lon="-5.67621"><ele>681.0</ele><time>2026-05-03T10:22:57.945Z</time></trkpt><trkpt lat="30.222575" lon="-5.67614"><ele>681.0</ele><time>2026-05-03T10:22:58.965Z</time></trkpt><trkpt lat="30.2224733" lon="-5.6760717"><ele>681.0</ele><time>2026-05-03T10:22:59.963Z</time></trkpt><trkpt lat="30.2223783" lon="-5.676"><ele>681.0</ele><time>2026-05-03T10:23:00.946Z</time></trkpt><trkpt lat="30.2222917" lon="-5.67593"><ele>680.5999999999999</ele><time>2026-05-03T10:23:01.963Z</time></trkpt><trkpt lat="30.2222083" lon="-5.6758633"><ele>680.2</ele><time>2026-05-03T10:23:02.946Z</time></trkpt><trkpt lat="30.2221309" lon="-5.675789"><ele>679.8</ele><time>2026-05-03T10:23:03.945Z</time></trkpt><trkpt lat="30.2220562" lon="-5.6757097"><ele>679.4000000000001</ele><time>2026-05-03T10:23:04.948Z</time></trkpt><trkpt lat="30.2219843" lon="-5.6756268"><ele>679.0</ele><time>2026-05-03T10:23:05.947Z</time></trkpt><trkpt lat="30.221916" lon="-5.6755413"><ele>679.0</ele><time>2026-05-03T10:23:06.938Z</time></trkpt><trkpt lat="30.221849" lon="-5.6754484"><ele>679.0</ele><time>2026-05-03T10:23:07.956Z</time></trkpt><trkpt lat="30.2217857" lon="-5.6753525"><ele>679.0</ele><time>2026-05-03T10:23:08.938Z</time></trkpt><trkpt lat="30.2217232" lon="-5.6752511"><ele>679.0</ele><time>2026-05-03T10:23:09.977Z</time></trkpt><trkpt lat="30.2216629" lon="-5.6751553"><ele>679.0</ele><time>2026-05-03T10:23:10.932Z</time></trkpt><trkpt lat="30.2216033" lon="-5.6750614"><ele>679.1666666666667</ele><time>2026-05-03T10:23:11.945Z</time></trkpt><trkpt lat="30.2215428" lon="-5.6749807"><ele>679.3333333333334</ele><time>2026-05-03T10:23:12.932Z</time></trkpt><trkpt lat="30.2214732" lon="-5.6749131"><ele>679.5</ele><time>2026-05-03T10:23:13.957Z</time></trkpt><trkpt lat="30.2214001" lon="-5.6748568"><ele>679.6666666666666</ele><time>2026-05-03T10:23:14.934Z</time></trkpt><trkpt lat="30.2213252" lon="-5.6748018"><ele>679.8333333333333</ele><time>2026-05-03T10:23:15.963Z</time></trkpt><trkpt lat="30.2212599" lon="-5.6747432"><ele>680.0</ele><time>2026-05-03T10:23:16.932Z</time></trkpt><trkpt lat="30.2212016" lon="-5.6746736"><ele>680.0</ele><time>2026-05-03T10:23:17.934Z</time></trkpt><trkpt lat="30.2211473" lon="-5.6745856"><ele>680.0</ele><time>2026-05-03T10:23:18.945Z</time></trkpt><trkpt lat="30.2210867" lon="-5.6744822"><ele>680.0</ele><time>2026-05-03T10:23:19.953Z</time></trkpt><trkpt lat="30.2210179" lon="-5.6743696"><ele>680.0</ele><time>2026-05-03T10:23:20.936Z</time></trkpt><trkpt lat="30.2209387" lon="-5.6742514"><ele>679.75</ele><time>2026-05-03T10:23:21.96Z</time></trkpt><trkpt lat="30.2208625" lon="-5.6741402"><ele>679.5</ele><time>2026-05-03T10:23:22.946Z</time></trkpt><trkpt lat="30.2207875" lon="-5.6740305"><ele>679.25</ele><time>2026-05-03T10:23:23.94Z</time></trkpt><trkpt lat="30.220711" lon="-5.6739191"><ele>679.0</ele><time>2026-05-03T10:23:24.938Z</time></trkpt><trkpt lat="30.2206317" lon="-5.6738049"><ele>679.5</ele><time>2026-05-03T10:23:25.958Z</time></trkpt><trkpt lat="30.2205521" lon="-5.67369"><ele>680.0</ele><time>2026-05-03T10:23:26.931Z</time></trkpt><trkpt lat="30.2204691" lon="-5.6735663"><ele>680.5</ele><time>2026-05-03T10:23:27.948Z</time></trkpt><trkpt lat="30.2203927" lon="-5.6734479"><ele>681.0</ele><time>2026-05-03T10:23:28.937Z</time></trkpt><trkpt lat="30.2203249" lon="-5.6733429"><ele>681.0</ele><time>2026-05-03T10:23:29.956Z</time></trkpt><trkpt lat="30.2202654" lon="-5.6732598"><ele>681.0</ele><time>2026-05-03T10:23:30.934Z</time></trkpt><trkpt lat="30.2202084" lon="-5.6731954"><ele>681.0</ele><time>2026-05-03T10:23:31.93Z</time></trkpt><trkpt lat="30.2201551" lon="-5.6731503"><ele>681.0</ele><time>2026-05-03T10:23:32.94Z</time></trkpt><trkpt lat="30.2200691" lon="-5.6731062"><ele>681.0</ele><time>2026-05-03T10:23:34.955Z</time></trkpt><trkpt lat="30.2199997" lon="-5.6731138"><ele>681.0</ele><time>2026-05-03T10:23:37.983Z</time></trkpt><trkpt lat="30.2199084" lon="-5.6730479"><ele>681.0</ele><time>2026-05-03T10:23:40.948Z</time></trkpt><trkpt lat="30.2198757" lon="-5.6729772"><ele>681.0</ele><time>2026-05-03T10:23:41.97Z</time></trkpt><trkpt lat="30.2198415" lon="-5.6728927"><ele>681.0</ele><time>2026-05-03T10:23:42.935Z</time></trkpt><trkpt lat="30.219799" lon="-5.6727916"><ele>681.0</ele><time>2026-05-03T10:23:43.943Z</time></trkpt><trkpt lat="30.2197494" lon="-5.6726792"><ele>681.0</ele><time>2026-05-03T10:23:44.93Z</time></trkpt><trkpt lat="30.2196951" lon="-5.6725611"><ele>680.75</ele><time>2026-05-03T10:23:45.954Z</time></trkpt><trkpt lat="30.2196357" lon="-5.672443"><ele>680.5</ele><time>2026-05-03T10:23:46.942Z</time></trkpt><trkpt lat="30.2195657" lon="-5.6723244"><ele>680.25</ele><time>2026-05-03T10:23:47.968Z</time></trkpt><trkpt lat="30.2194928" lon="-5.6722143"><ele>680.0</ele><time>2026-05-03T10:23:48.94Z</time></trkpt><trkpt lat="30.2194145" lon="-5.6721013"><ele>680.0</ele><time>2026-05-03T10:23:49.943Z</time></trkpt><trkpt lat="30.2193356" lon="-5.6719869"><ele>680.0</ele><time>2026-05-03T10:23:50.925Z</time></trkpt><trkpt lat="30.2192515" lon="-5.6718645"><ele>680.0</ele><time>2026-05-03T10:23:51.952Z</time></trkpt><trkpt lat="30.2191639" lon="-5.6717361"><ele>680.0</ele><time>2026-05-03T10:23:52.935Z</time></trkpt><trkpt lat="30.2190687" lon="-5.6715987"><ele>680.0</ele><time>2026-05-03T10:23:53.944Z</time></trkpt><trkpt lat="30.2189689" lon="-5.6714577"><ele>680.0</ele><time>2026-05-03T10:23:54.934Z</time></trkpt><trkpt lat="30.2188647" lon="-5.6713156"><ele>680.0</ele><time>2026-05-03T10:23:55.959Z</time></trkpt><trkpt lat="30.2187646" lon="-5.6711764"><ele>680.3333333333333</ele><time>2026-05-03T10:23:56.937Z</time></trkpt><trkpt lat="30.2186624" lon="-5.6710294"><ele>680.6666666666666</ele><time>2026-05-03T10:23:57.949Z</time></trkpt><trkpt lat="30.2185611" lon="-5.6708803"><ele>681.0</ele><time>2026-05-03T10:23:58.935Z</time></trkpt><trkpt lat="30.218456" lon="-5.6707289"><ele>681.0</ele><time>2026-05-03T10:23:59.946Z</time></trkpt><trkpt lat="30.2183514" lon="-5.670581"><ele>681.0</ele><time>2026-05-03T10:24:00.929Z</time></trkpt><trkpt lat="30.2182469" lon="-5.6704314"><ele>681.0</ele><time>2026-05-03T10:24:01.944Z</time></trkpt><trkpt lat="30.2181438" lon="-5.6702817"><ele>679.6666666666666</ele><time>2026-05-03T10:24:02.947Z</time></trkpt><trkpt lat="30.2180385" lon="-5.6701308"><ele>678.3333333333333</ele><time>2026-05-03T10:24:03.97Z</time></trkpt><trkpt lat="30.2179335" lon="-5.6699844"><ele>677.0</ele><time>2026-05-03T10:24:04.933Z</time></trkpt><trkpt lat="30.217821" lon="-5.6698355"><ele>677.0</ele><time>2026-05-03T10:24:05.954Z</time></trkpt><trkpt lat="30.2177082" lon="-5.6696884"><ele>677.0</ele><time>2026-05-03T10:24:06.942Z</time></trkpt><trkpt lat="30.2175913" lon="-5.6695407"><ele>677.0</ele><time>2026-05-03T10:24:07.957Z</time></trkpt><trkpt lat="30.2174752" lon="-5.6693966"><ele>677.6666666666666</ele><time>2026-05-03T10:24:08.938Z</time></trkpt><trkpt lat="30.2173578" lon="-5.669251"><ele>678.3333333333334</ele><time>2026-05-03T10:24:09.944Z</time></trkpt><trkpt lat="30.2172415" lon="-5.6691065"><ele>679.0</ele><time>2026-05-03T10:24:10.936Z</time></trkpt><trkpt lat="30.2171242" lon="-5.6689597"><ele>679.0</ele><time>2026-05-03T10:24:11.944Z</time></trkpt><trkpt lat="30.217007" lon="-5.6688124"><ele>679.0</ele><time>2026-05-03T10:24:12.964Z</time></trkpt><trkpt lat="30.2168888" lon="-5.6686684"><ele>679.0</ele><time>2026-05-03T10:24:13.943Z</time></trkpt><trkpt lat="30.2167618" lon="-5.6685193"><ele>679.3333333333334</ele><time>2026-05-03T10:24:14.926Z</time></trkpt><trkpt lat="30.2166314" lon="-5.6683689"><ele>679.6666666666666</ele><time>2026-05-03T10:24:15.948Z</time></trkpt><trkpt lat="30.216508" lon="-5.6682236"><ele>680.0</ele><time>2026-05-03T10:24:16.96Z</time></trkpt><trkpt lat="30.2163888" lon="-5.6680854"><ele>680.0</ele><time>2026-05-03T10:24:17.949Z</time></trkpt><trkpt lat="30.2162708" lon="-5.6679491"><ele>680.0</ele><time>2026-05-03T10:24:18.947Z</time></trkpt><trkpt lat="30.2161554" lon="-5.6678139"><ele>680.0</ele><time>2026-05-03T10:24:19.955Z</time></trkpt><trkpt lat="30.2160423" lon="-5.6676778"><ele>679.3333333333333</ele><time>2026-05-03T10:24:20.95Z</time></trkpt><trkpt lat="30.2159287" lon="-5.6675369"><ele>678.6666666666666</ele><time>2026-05-03T10:24:21.964Z</time></trkpt><trkpt lat="30.2158157" lon="-5.6673911"><ele>678.0</ele><time>2026-05-03T10:24:22.941Z</time></trkpt><trkpt lat="30.2157035" lon="-5.6672334"><ele>678.0</ele><time>2026-05-03T10:24:23.958Z</time></trkpt><trkpt lat="30.215592" lon="-5.6670737"><ele>678.0</ele><time>2026-05-03T10:24:24.973Z</time></trkpt><trkpt lat="30.2154809" lon="-5.6669186"><ele>678.0</ele><time>2026-05-03T10:24:25.953Z</time></trkpt><trkpt lat="30.215364" lon="-5.6667636"><ele>678.0</ele><time>2026-05-03T10:24:26.957Z</time></trkpt><trkpt lat="30.2152432" lon="-5.6666078"><ele>678.0</ele><time>2026-05-03T10:24:27.988Z</time></trkpt><trkpt lat="30.2151234" lon="-5.6664557"><ele>678.0</ele><time>2026-05-03T10:24:28.947Z</time></trkpt><trkpt lat="30.2149992" lon="-5.6662995"><ele>678.0</ele><time>2026-05-03T10:24:29.95Z</time></trkpt><trkpt lat="30.2148767" lon="-5.6661435"><ele>678.0</ele><time>2026-05-03T10:24:30.987Z</time></trkpt><trkpt lat="30.2147603" lon="-5.6659935"><ele>678.0</ele><time>2026-05-03T10:24:31.98Z</time></trkpt><trkpt lat="30.2146471" lon="-5.665843"><ele>678.6666666666666</ele><time>2026-05-03T10:24:32.947Z</time></trkpt><trkpt lat="30.2145361" lon="-5.6656859"><ele>679.3333333333333</ele><time>2026-05-03T10:24:33.953Z</time></trkpt><trkpt lat="30.2144318" lon="-5.665525"><ele>680.0</ele><time>2026-05-03T10:24:34.962Z</time></trkpt><trkpt lat="30.2143368" lon="-5.6653601"><ele>679.3333333333333</ele><time>2026-05-03T10:24:35.984Z</time></trkpt><trkpt lat="30.2142528" lon="-5.6651981"><ele>678.6666666666666</ele><time>2026-05-03T10:24:36.954Z</time></trkpt><trkpt lat="30.2141726" lon="-5.665038"><ele>678.0</ele><time>2026-05-03T10:24:37.945Z</time></trkpt><trkpt lat="30.214097" lon="-5.6648827"><ele>678.0</ele><time>2026-05-03T10:24:38.94Z</time></trkpt><trkpt lat="30.2140288" lon="-5.6647372"><ele>678.0</ele><time>2026-05-03T10:24:39.956Z</time></trkpt><trkpt lat="30.2139694" lon="-5.6646036"><ele>678.0</ele><time>2026-05-03T10:24:40.943Z</time></trkpt><trkpt lat="30.213915" lon="-5.6644847"><ele>678.0</ele><time>2026-05-03T10:24:41.933Z</time></trkpt><trkpt lat="30.2138679" lon="-5.6643856"><ele>678.0</ele><time>2026-05-03T10:24:42.937Z</time></trkpt><trkpt lat="30.2138277" lon="-5.6643001"><ele>678.0</ele><time>2026-05-03T10:24:43.947Z</time></trkpt><trkpt lat="30.2137948" lon="-5.6642245"><ele>678.0</ele><time>2026-05-03T10:24:44.947Z</time></trkpt><trkpt lat="30.2137416" lon="-5.6641147"><ele>678.0</ele><time>2026-05-03T10:24:46.937Z</time></trkpt><trkpt lat="30.213693" lon="-5.6640281"><ele>678.0</ele><time>2026-05-03T10:24:48.945Z</time></trkpt><trkpt lat="30.213773" lon="-5.6641184"><ele>678.0</ele><time>2026-05-03T10:25:01.945Z</time></trkpt><trkpt lat="30.213809" lon="-5.6641951"><ele>678.0</ele><time>2026-05-03T10:25:02.933Z</time></trkpt><trkpt lat="30.2138558" lon="-5.664298"><ele>678.0</ele><time>2026-05-03T10:25:03.945Z</time></trkpt><trkpt lat="30.2139087" lon="-5.6644208"><ele>678.0</ele><time>2026-05-03T10:25:04.936Z</time></trkpt><trkpt lat="30.2139681" lon="-5.6645567"><ele>678.0</ele><time>2026-05-03T10:25:05.979Z</time></trkpt><trkpt lat="30.2140336" lon="-5.6646991"><ele>678.0</ele><time>2026-05-03T10:25:06.941Z</time></trkpt><trkpt lat="30.2141088" lon="-5.6648515"><ele>678.0</ele><time>2026-05-03T10:25:07.953Z</time></trkpt><trkpt lat="30.2141859" lon="-5.6650036"><ele>678.0</ele><time>2026-05-03T10:25:08.93Z</time></trkpt><trkpt lat="30.2142678" lon="-5.6651598"><ele>679.0</ele><time>2026-05-03T10:25:09.926Z</time></trkpt><trkpt lat="30.2144328" lon="-5.6654605"><ele>680.0</ele><time>2026-05-03T10:25:11.959Z</time></trkpt><trkpt lat="30.2145137" lon="-5.6655972"><ele>680.0</ele><time>2026-05-03T10:25:12.94Z</time></trkpt><trkpt lat="30.2146068" lon="-5.6657383"><ele>680.0</ele><time>2026-05-03T10:25:13.982Z</time></trkpt><trkpt lat="30.2147071" lon="-5.6658804"><ele>680.0</ele><time>2026-05-03T10:25:14.958Z</time></trkpt><trkpt lat="30.2148152" lon="-5.6660265"><ele>679.3333333333333</ele><time>2026-05-03T10:25:15.929Z</time></trkpt><trkpt lat="30.2149298" lon="-5.6661768"><ele>678.6666666666666</ele><time>2026-05-03T10:25:16.945Z</time></trkpt><trkpt lat="30.2150466" lon="-5.6663271"><ele>678.0</ele><time>2026-05-03T10:25:17.955Z</time></trkpt><trkpt lat="30.2151664" lon="-5.6664797"><ele>678.0</ele><time>2026-05-03T10:25:18.957Z</time></trkpt><trkpt lat="30.2152882" lon="-5.666632"><ele>678.0</ele><time>2026-05-03T10:25:19.956Z</time></trkpt><trkpt lat="30.2154073" lon="-5.6667868"><ele>678.0</ele><time>2026-05-03T10:25:20.952Z</time></trkpt><trkpt lat="30.2155236" lon="-5.666943"><ele>678.0</ele><time>2026-05-03T10:25:21.963Z</time></trkpt><trkpt lat="30.2156335" lon="-5.66709"><ele>678.0</ele><time>2026-05-03T10:25:22.941Z</time></trkpt><trkpt lat="30.2157372" lon="-5.6672277"><ele>678.0</ele><time>2026-05-03T10:25:23.938Z</time></trkpt><trkpt lat="30.2158358" lon="-5.6673597"><ele>678.0</ele><time>2026-05-03T10:25:24.951Z</time></trkpt><trkpt lat="30.2159291" lon="-5.6674877"><ele>678.0</ele><time>2026-05-03T10:25:25.962Z</time></trkpt><trkpt lat="30.2160138" lon="-5.667605"><ele>678.0</ele><time>2026-05-03T10:25:26.935Z</time></trkpt><trkpt lat="30.2160915" lon="-5.6677073"><ele>678.0</ele><time>2026-05-03T10:25:27.937Z</time></trkpt><trkpt lat="30.2161597" lon="-5.667787"><ele>678.0</ele><time>2026-05-03T10:25:28.929Z</time></trkpt><trkpt lat="30.2162172" lon="-5.6678494"><ele>678.0</ele><time>2026-05-03T10:25:29.952Z</time></trkpt><trkpt lat="30.216289" lon="-5.6679206"><ele>678.0</ele><time>2026-05-03T10:25:31.951Z</time></trkpt><trkpt lat="30.2162083" lon="-5.6678917"><ele>678.0</ele><time>2026-05-03T10:26:40.934Z</time></trkpt><trkpt lat="30.215965" lon="-5.6675583"><ele>678.0</ele><time>2026-05-03T10:26:44.931Z</time></trkpt><trkpt lat="30.21588" lon="-5.66744"><ele>678.0</ele><time>2026-05-03T10:26:45.939Z</time></trkpt><trkpt lat="30.2157883" lon="-5.6673117"><ele>678.0</ele><time>2026-05-03T10:26:46.965Z</time></trkpt><trkpt lat="30.2156867" lon="-5.6671717"><ele>678.0</ele><time>2026-05-03T10:26:47.968Z</time></trkpt><trkpt lat="30.2155783" lon="-5.6670233"><ele>678.0</ele><time>2026-05-03T10:26:48.949Z</time></trkpt><trkpt lat="30.2154683" lon="-5.666875"><ele>678.0</ele><time>2026-05-03T10:26:49.944Z</time></trkpt><trkpt lat="30.2153583" lon="-5.666725"><ele>678.0</ele><time>2026-05-03T10:26:50.944Z</time></trkpt><trkpt lat="30.2152483" lon="-5.666575"><ele>678.0</ele><time>2026-05-03T10:26:51.958Z</time></trkpt><trkpt lat="30.2151317" lon="-5.666425"><ele>678.0</ele><time>2026-05-03T10:26:52.943Z</time></trkpt><trkpt lat="30.2150117" lon="-5.6662733"><ele>678.0</ele><time>2026-05-03T10:26:53.952Z</time></trkpt><trkpt lat="30.21489" lon="-5.6661233"><ele>678.6666666666666</ele><time>2026-05-03T10:26:54.966Z</time></trkpt><trkpt lat="30.2147733" lon="-5.665975"><ele>679.3333333333333</ele><time>2026-05-03T10:26:55.942Z</time></trkpt><trkpt lat="30.2146617" lon="-5.665825"><ele>680.0</ele><time>2026-05-03T10:26:56.951Z</time></trkpt><trkpt lat="30.21455" lon="-5.6656683"><ele>680.0</ele><time>2026-05-03T10:26:57.971Z</time></trkpt><trkpt lat="30.214445" lon="-5.6655033"><ele>680.0</ele><time>2026-05-03T10:26:58.951Z</time></trkpt><trkpt lat="30.2143467" lon="-5.66533"><ele>680.0</ele><time>2026-05-03T10:26:59.97Z</time></trkpt><trkpt lat="30.2142533" lon="-5.6651517"><ele>679.3333333333333</ele><time>2026-05-03T10:27:00.939Z</time></trkpt><trkpt lat="30.2141633" lon="-5.6649717"><ele>678.6666666666666</ele><time>2026-05-03T10:27:01.948Z</time></trkpt><trkpt lat="30.214075" lon="-5.6647917"><ele>678.0</ele><time>2026-05-03T10:27:02.93Z</time></trkpt><trkpt lat="30.2139883" lon="-5.6646067"><ele>678.0</ele><time>2026-05-03T10:27:03.953Z</time></trkpt><trkpt lat="30.2139017" lon="-5.664415"><ele>678.0</ele><time>2026-05-03T10:27:04.933Z</time></trkpt><trkpt lat="30.213815" lon="-5.6642217"><ele>678.0</ele><time>2026-05-03T10:27:05.939Z</time></trkpt><trkpt lat="30.213725" lon="-5.66403"><ele>678.0</ele><time>2026-05-03T10:27:06.96Z</time></trkpt><trkpt lat="30.213635" lon="-5.66384"><ele>678.0</ele><time>2026-05-03T10:27:07.945Z</time></trkpt><trkpt lat="30.2135433" lon="-5.6636467"><ele>678.0</ele><time>2026-05-03T10:27:08.94Z</time></trkpt><trkpt lat="30.2134467" lon="-5.6634483"><ele>677.3333333333334</ele><time>2026-05-03T10:27:09.947Z</time></trkpt><trkpt lat="30.2133533" lon="-5.6632533"><ele>676.6666666666667</ele><time>2026-05-03T10:27:10.938Z</time></trkpt><trkpt lat="30.2132583" lon="-5.66306"><ele>676.0</ele><time>2026-05-03T10:27:11.948Z</time></trkpt><trkpt lat="30.213165" lon="-5.6628667"><ele>676.0</ele><time>2026-05-03T10:27:12.94Z</time></trkpt><trkpt lat="30.213075" lon="-5.6626717"><ele>676.0</ele><time>2026-05-03T10:27:13.986Z</time></trkpt><trkpt lat="30.2129867" lon="-5.6624833"><ele>676.0</ele><time>2026-05-03T10:27:14.945Z</time></trkpt><trkpt lat="30.2129" lon="-5.6623"><ele>676.0</ele><time>2026-05-03T10:27:15.953Z</time></trkpt><trkpt lat="30.2128169" lon="-5.66212"><ele>676.0</ele><time>2026-05-03T10:27:16.939Z</time></trkpt><trkpt lat="30.2127318" lon="-5.6619406"><ele>676.0</ele><time>2026-05-03T10:27:17.96Z</time></trkpt><trkpt lat="30.2126478" lon="-5.6617667"><ele>676.6666666666667</ele><time>2026-05-03T10:27:18.94Z</time></trkpt><trkpt lat="30.2125652" lon="-5.6615927"><ele>677.3333333333334</ele><time>2026-05-03T10:27:19.942Z</time></trkpt><trkpt lat="30.2124828" lon="-5.6614231"><ele>678.0</ele><time>2026-05-03T10:27:20.94Z</time></trkpt><trkpt lat="30.2124016" lon="-5.6612566"><ele>677.3333333333334</ele><time>2026-05-03T10:27:21.936Z</time></trkpt><trkpt lat="30.2123216" lon="-5.6610943"><ele>676.6666666666667</ele><time>2026-05-03T10:27:22.95Z</time></trkpt><trkpt lat="30.2122446" lon="-5.6609359"><ele>676.0</ele><time>2026-05-03T10:27:23.97Z</time></trkpt><trkpt lat="30.2121733" lon="-5.6607816"><ele>676.0</ele><time>2026-05-03T10:27:24.947Z</time></trkpt><trkpt lat="30.2121016" lon="-5.6606272"><ele>676.0</ele><time>2026-05-03T10:27:25.954Z</time></trkpt><trkpt lat="30.2120316" lon="-5.6604782"><ele>676.0</ele><time>2026-05-03T10:27:26.957Z</time></trkpt><trkpt lat="30.2119636" lon="-5.6603328"><ele>676.0</ele><time>2026-05-03T10:27:27.95Z</time></trkpt><trkpt lat="30.2118939" lon="-5.6601893"><ele>676.5</ele><time>2026-05-03T10:27:28.962Z</time></trkpt><trkpt lat="30.2118253" lon="-5.6600525"><ele>677.0</ele><time>2026-05-03T10:27:29.954Z</time></trkpt><trkpt lat="30.21176" lon="-5.6599187"><ele>677.5</ele><time>2026-05-03T10:27:30.942Z</time></trkpt><trkpt lat="30.211695" lon="-5.6597841"><ele>678.0</ele><time>2026-05-03T10:27:31.949Z</time></trkpt><trkpt lat="30.2116332" lon="-5.6596522"><ele>678.0</ele><time>2026-05-03T10:27:32.949Z</time></trkpt><trkpt lat="30.2115712" lon="-5.6595185"><ele>678.0</ele><time>2026-05-03T10:27:33.973Z</time></trkpt><trkpt lat="30.2115092" lon="-5.6593892"><ele>678.0</ele><time>2026-05-03T10:27:34.966Z</time></trkpt><trkpt lat="30.2114474" lon="-5.6592618"><ele>678.0</ele><time>2026-05-03T10:27:35.967Z</time></trkpt><trkpt lat="30.2113869" lon="-5.6591387"><ele>678.0</ele><time>2026-05-03T10:27:36.955Z</time></trkpt><trkpt lat="30.2113287" lon="-5.6590181"><ele>678.0</ele><time>2026-05-03T10:27:37.956Z</time></trkpt><trkpt lat="30.2112709" lon="-5.6589001"><ele>678.0</ele><time>2026-05-03T10:27:38.959Z</time></trkpt><trkpt lat="30.2112134" lon="-5.6587812"><ele>678.0</ele><time>2026-05-03T10:27:39.955Z</time></trkpt><trkpt lat="30.2111586" lon="-5.6586646"><ele>678.0</ele><time>2026-05-03T10:27:40.945Z</time></trkpt><trkpt lat="30.2111037" lon="-5.6585478"><ele>678.0</ele><time>2026-05-03T10:27:41.95Z</time></trkpt><trkpt lat="30.2110496" lon="-5.6584316"><ele>678.0</ele><time>2026-05-03T10:27:42.932Z</time></trkpt><trkpt lat="30.2109953" lon="-5.6583134"><ele>678.0</ele><time>2026-05-03T10:27:43.952Z</time></trkpt><trkpt lat="30.2109424" lon="-5.6581979"><ele>678.0</ele><time>2026-05-03T10:27:44.937Z</time></trkpt><trkpt lat="30.2108884" lon="-5.6580823"><ele>678.0</ele><time>2026-05-03T10:27:45.954Z</time></trkpt><trkpt lat="30.2108361" lon="-5.6579698"><ele>678.0</ele><time>2026-05-03T10:27:46.94Z</time></trkpt><trkpt lat="30.2107852" lon="-5.6578634"><ele>678.0</ele><time>2026-05-03T10:27:47.935Z</time></trkpt><trkpt lat="30.2107421" lon="-5.6577778"><ele>678.0</ele><time>2026-05-03T10:27:48.94Z</time></trkpt><trkpt lat="30.2106893" lon="-5.6576804"><ele>678.0</ele><time>2026-05-03T10:27:50.935Z</time></trkpt><trkpt lat="30.2107481" lon="-5.6577093"><ele>678.0</ele><time>2026-05-03T10:27:56.93Z</time></trkpt><trkpt lat="30.2108001" lon="-5.6577997"><ele>678.0</ele><time>2026-05-03T10:27:58.937Z</time></trkpt><trkpt lat="30.2108462" lon="-5.6579076"><ele>678.0</ele><time>2026-05-03T10:27:59.925Z</time></trkpt><trkpt lat="30.2108986" lon="-5.6580307"><ele>678.0</ele><time>2026-05-03T10:28:00.944Z</time></trkpt><trkpt lat="30.2109559" lon="-5.6581569"><ele>678.0</ele><time>2026-05-03T10:28:01.95Z</time></trkpt><trkpt lat="30.2110125" lon="-5.6582774"><ele>678.0</ele><time>2026-05-03T10:28:02.936Z</time></trkpt><trkpt lat="30.2110662" lon="-5.6583879"><ele>678.0</ele><time>2026-05-03T10:28:03.951Z</time></trkpt><trkpt lat="30.2111146" lon="-5.6584856"><ele>678.0</ele><time>2026-05-03T10:28:04.937Z</time></trkpt><trkpt lat="30.2111585" lon="-5.6585716"><ele>678.0</ele><time>2026-05-03T10:28:05.93Z</time></trkpt><trkpt lat="30.2111945" lon="-5.6586474"><ele>678.0</ele><time>2026-05-03T10:28:06.953Z</time></trkpt><trkpt lat="30.2112443" lon="-5.6587545"><ele>678.0</ele><time>2026-05-03T10:28:08.935Z</time></trkpt><trkpt lat="30.2113162" lon="-5.658771"><ele>678.0</ele><time>2026-05-03T10:28:11.968Z</time></trkpt><trkpt lat="30.2113517" lon="-5.658665"><ele>678.0</ele><time>2026-05-03T10:28:14.934Z</time></trkpt><trkpt lat="30.21136" lon="-5.6585883"><ele>678.0</ele><time>2026-05-03T10:28:15.978Z</time></trkpt><trkpt lat="30.2113717" lon="-5.6584917"><ele>678.0</ele><time>2026-05-03T10:28:16.937Z</time></trkpt><trkpt lat="30.2113783" lon="-5.658385"><ele>678.0</ele><time>2026-05-03T10:28:17.936Z</time></trkpt><trkpt lat="30.2113783" lon="-5.65827"><ele>678.0</ele><time>2026-05-03T10:28:18.928Z</time></trkpt><trkpt lat="30.21138" lon="-5.6581433"><ele>678.0</ele><time>2026-05-03T10:28:19.947Z</time></trkpt><trkpt lat="30.21138" lon="-5.6580083"><ele>678.0</ele><time>2026-05-03T10:28:20.927Z</time></trkpt><trkpt lat="30.2113717" lon="-5.6578667"><ele>678.0</ele><time>2026-05-03T10:28:21.992Z</time></trkpt><trkpt lat="30.2113567" lon="-5.65772"><ele>677.75</ele><time>2026-05-03T10:28:22.944Z</time></trkpt><trkpt lat="30.2113433" lon="-5.6575683"><ele>677.5</ele><time>2026-05-03T10:28:23.94Z</time></trkpt><trkpt lat="30.2113383" lon="-5.6574117"><ele>677.25</ele><time>2026-05-03T10:28:24.937Z</time></trkpt><trkpt lat="30.2113383" lon="-5.6572467"><ele>677.0</ele><time>2026-05-03T10:28:25.95Z</time></trkpt><trkpt lat="30.2113383" lon="-5.6570783"><ele>677.0</ele><time>2026-05-03T10:28:26.935Z</time></trkpt><trkpt lat="30.2113317" lon="-5.6569133"><ele>677.0</ele><time>2026-05-03T10:28:27.962Z</time></trkpt><trkpt lat="30.2113233" lon="-5.6567533"><ele>677.0</ele><time>2026-05-03T10:28:28.939Z</time></trkpt><trkpt lat="30.211315" lon="-5.6565967"><ele>677.0</ele><time>2026-05-03T10:28:29.987Z</time></trkpt><trkpt lat="30.2113183" lon="-5.6564367"><ele>677.0</ele><time>2026-05-03T10:28:30.93Z</time></trkpt><trkpt lat="30.21133" lon="-5.6562667"><ele>677.0</ele><time>2026-05-03T10:28:31.962Z</time></trkpt><trkpt lat="30.2113417" lon="-5.6561033"><ele>677.0</ele><time>2026-05-03T10:28:32.932Z</time></trkpt><trkpt lat="30.2113533" lon="-5.65595"><ele>677.0</ele><time>2026-05-03T10:28:33.961Z</time></trkpt><trkpt lat="30.2113683" lon="-5.65581"><ele>677.0</ele><time>2026-05-03T10:28:34.941Z</time></trkpt><trkpt lat="30.2113817" lon="-5.6556733"><ele>677.0</ele><time>2026-05-03T10:28:35.956Z</time></trkpt><trkpt lat="30.21139" lon="-5.655535"><ele>677.0</ele><time>2026-05-03T10:28:36.923Z</time></trkpt><trkpt lat="30.21139" lon="-5.6553917"><ele>677.0</ele><time>2026-05-03T10:28:37.957Z</time></trkpt><trkpt lat="30.2113783" lon="-5.6552433"><ele>677.0</ele><time>2026-05-03T10:28:38.932Z</time></trkpt><trkpt lat="30.2113617" lon="-5.6551"><ele>677.0</ele><time>2026-05-03T10:28:39.95Z</time></trkpt><trkpt lat="30.211345" lon="-5.6549633"><ele>677.0</ele><time>2026-05-03T10:28:40.948Z</time></trkpt><trkpt lat="30.2113383" lon="-5.6548267"><ele>677.0</ele><time>2026-05-03T10:28:41.976Z</time></trkpt><trkpt lat="30.2113367" lon="-5.6546883"><ele>677.0</ele><time>2026-05-03T10:28:42.935Z</time></trkpt><trkpt lat="30.2113333" lon="-5.654555"><ele>677.0</ele><time>2026-05-03T10:28:43.944Z</time></trkpt><trkpt lat="30.2113283" lon="-5.6544217"><ele>677.0</ele><time>2026-05-03T10:28:44.931Z</time></trkpt><trkpt lat="30.211325" lon="-5.6542883"><ele>677.0</ele><time>2026-05-03T10:28:45.953Z</time></trkpt><trkpt lat="30.2113217" lon="-5.654155"><ele>677.0</ele><time>2026-05-03T10:28:46.931Z</time></trkpt><trkpt lat="30.2113233" lon="-5.6540183"><ele>677.0</ele><time>2026-05-03T10:28:47.949Z</time></trkpt><trkpt lat="30.2113233" lon="-5.653885"><ele>677.0</ele><time>2026-05-03T10:28:48.951Z</time></trkpt><trkpt lat="30.2113167" lon="-5.6537533"><ele>677.0</ele><time>2026-05-03T10:28:49.974Z</time></trkpt><trkpt lat="30.2113067" lon="-5.65362"><ele>677.0</ele><time>2026-05-03T10:28:50.945Z</time></trkpt><trkpt lat="30.2112967" lon="-5.653485"><ele>677.0</ele><time>2026-05-03T10:28:51.971Z</time></trkpt><trkpt lat="30.211285" lon="-5.6533467"><ele>677.0</ele><time>2026-05-03T10:28:52.94Z</time></trkpt><trkpt lat="30.2112683" lon="-5.65321"><ele>677.0</ele><time>2026-05-03T10:28:53.95Z</time></trkpt><trkpt lat="30.2112483" lon="-5.6530717"><ele>677.0</ele><time>2026-05-03T10:28:54.929Z</time></trkpt><trkpt lat="30.21122" lon="-5.6529367"><ele>677.0</ele><time>2026-05-03T10:28:55.952Z</time></trkpt><trkpt lat="30.2111817" lon="-5.652805"><ele>677.0</ele><time>2026-05-03T10:28:56.938Z</time></trkpt><trkpt lat="30.2111433" lon="-5.65267"><ele>677.0</ele><time>2026-05-03T10:28:57.954Z</time></trkpt><trkpt lat="30.2111117" lon="-5.652525"><ele>677.25</ele><time>2026-05-03T10:28:58.944Z</time></trkpt><trkpt lat="30.2110767" lon="-5.65238"><ele>677.5</ele><time>2026-05-03T10:28:59.966Z</time></trkpt><trkpt lat="30.2110417" lon="-5.6522383"><ele>677.75</ele><time>2026-05-03T10:29:00.94Z</time></trkpt><trkpt lat="30.211005" lon="-5.6521033"><ele>678.0</ele><time>2026-05-03T10:29:01.945Z</time></trkpt><trkpt lat="30.2109733" lon="-5.65197"><ele>677.5</ele><time>2026-05-03T10:29:02.941Z</time></trkpt><trkpt lat="30.210945" lon="-5.65184"><ele>677.0</ele><time>2026-05-03T10:29:03.973Z</time></trkpt><trkpt lat="30.21092" lon="-5.6517083"><ele>676.5</ele><time>2026-05-03T10:29:04.933Z</time></trkpt><trkpt lat="30.2108917" lon="-5.6515783"><ele>676.0</ele><time>2026-05-03T10:29:05.951Z</time></trkpt><trkpt lat="30.21086" lon="-5.6514483"><ele>676.0</ele><time>2026-05-03T10:29:06.935Z</time></trkpt><trkpt lat="30.2108267" lon="-5.6513167"><ele>676.0</ele><time>2026-05-03T10:29:07.966Z</time></trkpt><trkpt lat="30.2107917" lon="-5.65118"><ele>676.0</ele><time>2026-05-03T10:29:08.943Z</time></trkpt><trkpt lat="30.2107633" lon="-5.6510367"><ele>676.0</ele><time>2026-05-03T10:29:09.94Z</time></trkpt><trkpt lat="30.2107283" lon="-5.65089"><ele>675.75</ele><time>2026-05-03T10:29:10.937Z</time></trkpt><trkpt lat="30.2106817" lon="-5.6507467"><ele>675.5</ele><time>2026-05-03T10:29:11.949Z</time></trkpt><trkpt lat="30.2106367" lon="-5.6505967"><ele>675.25</ele><time>2026-05-03T10:29:12.939Z</time></trkpt><trkpt lat="30.2105983" lon="-5.6504483"><ele>675.0</ele><time>2026-05-03T10:29:13.954Z</time></trkpt><trkpt lat="30.21056" lon="-5.6503117"><ele>675.5</ele><time>2026-05-03T10:29:14.945Z</time></trkpt><trkpt lat="30.210515" lon="-5.6501833"><ele>676.0</ele><time>2026-05-03T10:29:15.944Z</time></trkpt><trkpt lat="30.21046" lon="-5.6500583"><ele>676.5</ele><time>2026-05-03T10:29:16.925Z</time></trkpt><trkpt lat="30.210395" lon="-5.64993"><ele>677.0</ele><time>2026-05-03T10:29:17.933Z</time></trkpt><trkpt lat="30.210325" lon="-5.6497967"><ele>677.0</ele><time>2026-05-03T10:29:18.936Z</time></trkpt><trkpt lat="30.2102533" lon="-5.6496583"><ele>677.0</ele><time>2026-05-03T10:29:19.94Z</time></trkpt><trkpt lat="30.2101833" lon="-5.6495217"><ele>677.0</ele><time>2026-05-03T10:29:20.933Z</time></trkpt><trkpt lat="30.2101117" lon="-5.649395"><ele>677.0</ele><time>2026-05-03T10:29:21.949Z</time></trkpt><trkpt lat="30.2100383" lon="-5.64927"><ele>676.5</ele><time>2026-05-03T10:29:22.94Z</time></trkpt><trkpt lat="30.2099683" lon="-5.6491367"><ele>676.0</ele><time>2026-05-03T10:29:23.953Z</time></trkpt><trkpt lat="30.2099017" lon="-5.6489967"><ele>675.5</ele><time>2026-05-03T10:29:24.931Z</time></trkpt><trkpt lat="30.2098267" lon="-5.64886"><ele>675.0</ele><time>2026-05-03T10:29:25.945Z</time></trkpt><trkpt lat="30.20975" lon="-5.6487217"><ele>674.6666666666666</ele><time>2026-05-03T10:29:26.932Z</time></trkpt><trkpt lat="30.2096733" lon="-5.6485733"><ele>674.3333333333333</ele><time>2026-05-03T10:29:27.94Z</time></trkpt><trkpt lat="30.2096017" lon="-5.6484117"><ele>674.0</ele><time>2026-05-03T10:29:28.937Z</time></trkpt><trkpt lat="30.2095283" lon="-5.64824"><ele>674.0</ele><time>2026-05-03T10:29:29.941Z</time></trkpt><trkpt lat="30.2094567" lon="-5.648075"><ele>674.0</ele><time>2026-05-03T10:29:30.936Z</time></trkpt><trkpt lat="30.2093867" lon="-5.6479183"><ele>674.0</ele><time>2026-05-03T10:29:31.944Z</time></trkpt><trkpt lat="30.20932" lon="-5.64777"><ele>674.25</ele><time>2026-05-03T10:29:32.949Z</time></trkpt><trkpt lat="30.2092567" lon="-5.6476283"><ele>674.5</ele><time>2026-05-03T10:29:33.951Z</time></trkpt><trkpt lat="30.2091967" lon="-5.6474917"><ele>674.75</ele><time>2026-05-03T10:29:34.943Z</time></trkpt><trkpt lat="30.2091317" lon="-5.6473567"><ele>675.0</ele><time>2026-05-03T10:29:35.936Z</time></trkpt><trkpt lat="30.2090567" lon="-5.6472283"><ele>675.5</ele><time>2026-05-03T10:29:36.928Z</time></trkpt><trkpt lat="30.208975" lon="-5.647105"><ele>676.0</ele><time>2026-05-03T10:29:37.945Z</time></trkpt><trkpt lat="30.208885" lon="-5.6469883"><ele>676.5</ele><time>2026-05-03T10:29:38.932Z</time></trkpt><trkpt lat="30.2087983" lon="-5.6468683"><ele>677.0</ele><time>2026-05-03T10:29:39.957Z</time></trkpt><trkpt lat="30.2087217" lon="-5.6467317"><ele>677.0</ele><time>2026-05-03T10:29:40.932Z</time></trkpt><trkpt lat="30.2086583" lon="-5.646585"><ele>677.0</ele><time>2026-05-03T10:29:41.947Z</time></trkpt><trkpt lat="30.2086017" lon="-5.6464417"><ele>677.0</ele><time>2026-05-03T10:29:42.938Z</time></trkpt><trkpt lat="30.2085483" lon="-5.6463067"><ele>677.0</ele><time>2026-05-03T10:29:43.944Z</time></trkpt><trkpt lat="30.2085" lon="-5.6461667"><ele>676.75</ele><time>2026-05-03T10:29:44.938Z</time></trkpt><trkpt lat="30.2084583" lon="-5.64602"><ele>676.5</ele><time>2026-05-03T10:29:45.939Z</time></trkpt><trkpt lat="30.2084167" lon="-5.64587"><ele>676.25</ele><time>2026-05-03T10:29:46.938Z</time></trkpt><trkpt lat="30.2083667" lon="-5.64572"><ele>676.0</ele><time>2026-05-03T10:29:47.944Z</time></trkpt><trkpt lat="30.2083117" lon="-5.645565"><ele>676.0</ele><time>2026-05-03T10:29:48.925Z</time></trkpt><trkpt lat="30.20826" lon="-5.6454083"><ele>676.0</ele><time>2026-05-03T10:29:49.95Z</time></trkpt><trkpt lat="30.2082183" lon="-5.645245"><ele>676.0</ele><time>2026-05-03T10:29:50.937Z</time></trkpt><trkpt lat="30.2081767" lon="-5.6450867"><ele>676.0</ele><time>2026-05-03T10:29:51.961Z</time></trkpt><trkpt lat="30.20813" lon="-5.644935"><ele>675.5</ele><time>2026-05-03T10:29:52.945Z</time></trkpt><trkpt lat="30.2080833" lon="-5.6447867"><ele>675.0</ele><time>2026-05-03T10:29:53.953Z</time></trkpt><trkpt lat="30.208045" lon="-5.6446383"><ele>674.5</ele><time>2026-05-03T10:29:54.925Z</time></trkpt><trkpt lat="30.2080067" lon="-5.6444933"><ele>674.0</ele><time>2026-05-03T10:29:55.958Z</time></trkpt><trkpt lat="30.2079617" lon="-5.6443533"><ele>674.0</ele><time>2026-05-03T10:29:56.932Z</time></trkpt><trkpt lat="30.2079117" lon="-5.6442267"><ele>674.0</ele><time>2026-05-03T10:29:57.942Z</time></trkpt><trkpt lat="30.20786" lon="-5.6441"><ele>674.0</ele><time>2026-05-03T10:29:58.925Z</time></trkpt><trkpt lat="30.207805" lon="-5.6439633"><ele>674.0</ele><time>2026-05-03T10:29:59.945Z</time></trkpt><trkpt lat="30.2077483" lon="-5.6438217"><ele>674.0</ele><time>2026-05-03T10:30:00.936Z</time></trkpt><trkpt lat="30.20769" lon="-5.6436817"><ele>674.0</ele><time>2026-05-03T10:30:01.938Z</time></trkpt><trkpt lat="30.2076283" lon="-5.6435483"><ele>674.0</ele><time>2026-05-03T10:30:02.936Z</time></trkpt><trkpt lat="30.2075617" lon="-5.643425"><ele>674.0</ele><time>2026-05-03T10:30:03.952Z</time></trkpt><trkpt lat="30.2074967" lon="-5.6433033"><ele>673.6</ele><time>2026-05-03T10:30:04.951Z</time></trkpt><trkpt lat="30.2074333" lon="-5.6431867"><ele>673.2</ele><time>2026-05-03T10:30:05.94Z</time></trkpt><trkpt lat="30.20737" lon="-5.6430833"><ele>672.8000000000001</ele><time>2026-05-03T10:30:06.946Z</time></trkpt><trkpt lat="30.2073017" lon="-5.6430017"><ele>672.4000000000001</ele><time>2026-05-03T10:30:07.948Z</time></trkpt><trkpt lat="30.207235" lon="-5.6429233"><ele>672.0</ele><time>2026-05-03T10:30:08.931Z</time></trkpt><trkpt lat="30.2071833" lon="-5.6428333"><ele>672.2</ele><time>2026-05-03T10:30:09.921Z</time></trkpt><trkpt lat="30.2071467" lon="-5.6427317"><ele>672.4000000000001</ele><time>2026-05-03T10:30:10.932Z</time></trkpt><trkpt lat="30.2071167" lon="-5.6426183"><ele>672.5999999999999</ele><time>2026-05-03T10:30:11.959Z</time></trkpt><trkpt lat="30.2070833" lon="-5.6425083"><ele>672.8</ele><time>2026-05-03T10:30:13.016Z</time></trkpt><trkpt lat="30.2070517" lon="-5.6424017"><ele>673.0</ele><time>2026-05-03T10:30:13.959Z</time></trkpt><trkpt lat="30.2070283" lon="-5.6422883"><ele>673.0</ele><time>2026-05-03T10:30:14.927Z</time></trkpt><trkpt lat="30.20702" lon="-5.6421733"><ele>673.0</ele><time>2026-05-03T10:30:15.95Z</time></trkpt><trkpt lat="30.2070233" lon="-5.6420533"><ele>673.0</ele><time>2026-05-03T10:30:16.942Z</time></trkpt><trkpt lat="30.2070367" lon="-5.64194"><ele>673.0</ele><time>2026-05-03T10:30:17.944Z</time></trkpt><trkpt lat="30.2070583" lon="-5.641835"><ele>673.0</ele><time>2026-05-03T10:30:18.942Z</time></trkpt><trkpt lat="30.2070917" lon="-5.6417467"><ele>673.0</ele><time>2026-05-03T10:30:19.951Z</time></trkpt><trkpt lat="30.2071333" lon="-5.641675"><ele>673.0</ele><time>2026-05-03T10:30:20.945Z</time></trkpt><trkpt lat="30.2071883" lon="-5.6416117"><ele>673.0</ele><time>2026-05-03T10:30:21.98Z</time></trkpt><trkpt lat="30.2072533" lon="-5.64156"><ele>673.0</ele><time>2026-05-03T10:30:22.938Z</time></trkpt><trkpt lat="30.2073267" lon="-5.641505"><ele>673.0</ele><time>2026-05-03T10:30:23.938Z</time></trkpt><trkpt lat="30.2074" lon="-5.64144"><ele>673.0</ele><time>2026-05-03T10:30:24.96Z</time></trkpt><trkpt lat="30.2074717" lon="-5.641375"><ele>673.0</ele><time>2026-05-03T10:30:25.967Z</time></trkpt><trkpt lat="30.2075417" lon="-5.6413183"><ele>673.0</ele><time>2026-05-03T10:30:26.939Z</time></trkpt><trkpt lat="30.2076067" lon="-5.6412733"><ele>673.0</ele><time>2026-05-03T10:30:27.968Z</time></trkpt><trkpt lat="30.2077083" lon="-5.6412067"><ele>673.0</ele><time>2026-05-03T10:30:29.926Z</time></trkpt><trkpt lat="30.2077783" lon="-5.641135"><ele>673.0</ele><time>2026-05-03T10:30:31.941Z</time></trkpt><trkpt lat="30.20779" lon="-5.6410467"><ele>673.0</ele><time>2026-05-03T10:30:33.954Z</time></trkpt><trkpt lat="30.20775" lon="-5.64093"><ele>673.0</ele><time>2026-05-03T10:30:35.939Z</time></trkpt><trkpt lat="30.2077083" lon="-5.640795"><ele>673.0</ele><time>2026-05-03T10:30:37.944Z</time></trkpt><trkpt lat="30.2076517" lon="-5.6406783"><ele>673.0</ele><time>2026-05-03T10:30:39.949Z</time></trkpt><trkpt lat="30.2076167" lon="-5.6406067"><ele>673.0</ele><time>2026-05-03T10:30:42.952Z</time></trkpt><trkpt lat="30.2076833" lon="-5.6405283"><ele>673.0</ele><time>2026-05-03T10:30:46.941Z</time></trkpt><trkpt lat="30.20779" lon="-5.640485"><ele>673.0</ele><time>2026-05-03T10:30:48.934Z</time></trkpt><trkpt lat="30.207855" lon="-5.6404633"><ele>673.0</ele><time>2026-05-03T10:30:49.958Z</time></trkpt><trkpt lat="30.2079317" lon="-5.6404367"><ele>673.0</ele><time>2026-05-03T10:30:50.922Z</time></trkpt><trkpt lat="30.2080133" lon="-5.6404"><ele>673.0</ele><time>2026-05-03T10:30:51.955Z</time></trkpt><trkpt lat="30.2080967" lon="-5.6403433"><ele>673.0</ele><time>2026-05-03T10:30:52.934Z</time></trkpt><trkpt lat="30.2081833" lon="-5.6402683"><ele>673.0</ele><time>2026-05-03T10:30:53.958Z</time></trkpt><trkpt lat="30.2082717" lon="-5.6401917"><ele>673.5999999999999</ele><time>2026-05-03T10:30:54.934Z</time></trkpt><trkpt lat="30.2083667" lon="-5.6401217"><ele>674.1999999999999</ele><time>2026-05-03T10:30:55.939Z</time></trkpt><trkpt lat="30.2084667" lon="-5.64006"><ele>674.8</ele><time>2026-05-03T10:30:56.926Z</time></trkpt><trkpt lat="30.2085583" lon="-5.6400083"><ele>675.4</ele><time>2026-05-03T10:30:57.944Z</time></trkpt><trkpt lat="30.208645" lon="-5.6399617"><ele>676.0</ele><time>2026-05-03T10:30:58.932Z</time></trkpt><trkpt lat="30.208725" lon="-5.63992"><ele>676.0</ele><time>2026-05-03T10:30:59.951Z</time></trkpt><trkpt lat="30.20886" lon="-5.6398633"><ele>676.0</ele><time>2026-05-03T10:31:01.965Z</time></trkpt><trkpt lat="30.2089767" lon="-5.639815"><ele>676.0</ele><time>2026-05-03T10:31:03.96Z</time></trkpt><trkpt lat="30.2090533" lon="-5.639725"><ele>676.0</ele><time>2026-05-03T10:31:05.986Z</time></trkpt><trkpt lat="30.2091" lon="-5.6396533"><ele>676.0</ele><time>2026-05-03T10:31:07.946Z</time></trkpt><trkpt lat="30.2091633" lon="-5.6396367"><ele>676.0</ele><time>2026-05-03T10:31:09.941Z</time></trkpt><trkpt lat="30.2092017" lon="-5.6397133"><ele>676.0</ele><time>2026-05-03T10:31:12.937Z</time></trkpt><trkpt lat="30.2091283" lon="-5.639785"><ele>676.0</ele><time>2026-05-03T10:31:15.964Z</time></trkpt><trkpt lat="30.2090333" lon="-5.639795"><ele>676.0</ele><time>2026-05-03T10:31:17.96Z</time></trkpt><trkpt lat="30.2089183" lon="-5.6398433"><ele>676.0</ele><time>2026-05-03T10:31:19.948Z</time></trkpt><trkpt lat="30.2088467" lon="-5.6398733"><ele>676.0</ele><time>2026-05-03T10:31:20.941Z</time></trkpt><trkpt lat="30.208775" lon="-5.6399067"><ele>676.0</ele><time>2026-05-03T10:31:21.937Z</time></trkpt><trkpt lat="30.2087" lon="-5.63994"><ele>676.0</ele><time>2026-05-03T10:31:22.931Z</time></trkpt><trkpt lat="30.2086233" lon="-5.6399767"><ele>676.0</ele><time>2026-05-03T10:31:24.013Z</time></trkpt><trkpt lat="30.208555" lon="-5.6400167"><ele>676.0</ele><time>2026-05-03T10:31:24.95Z</time></trkpt><trkpt lat="30.2084933" lon="-5.6400467"><ele>676.0</ele><time>2026-05-03T10:31:25.938Z</time></trkpt><trkpt lat="30.208385" lon="-5.6401017"><ele>676.0</ele><time>2026-05-03T10:31:27.944Z</time></trkpt><trkpt lat="30.2082717" lon="-5.6401667"><ele>676.0</ele><time>2026-05-03T10:31:29.96Z</time></trkpt><trkpt lat="30.2082167" lon="-5.64021"><ele>676.0</ele><time>2026-05-03T10:31:30.934Z</time></trkpt><trkpt lat="30.20816" lon="-5.6402633"><ele>676.0</ele><time>2026-05-03T10:31:31.945Z</time></trkpt><trkpt lat="30.2081067" lon="-5.640315"><ele>675.5</ele><time>2026-05-03T10:31:32.937Z</time></trkpt><trkpt lat="30.2080133" lon="-5.640395"><ele>675.0</ele><time>2026-05-03T10:31:34.931Z</time></trkpt><trkpt lat="30.2079117" lon="-5.640455"><ele>674.5</ele><time>2026-05-03T10:31:36.924Z</time></trkpt><trkpt lat="30.2078483" lon="-5.6404817"><ele>674.0</ele><time>2026-05-03T10:31:37.949Z</time></trkpt><trkpt lat="30.207785" lon="-5.640505"><ele>673.5</ele><time>2026-05-03T10:31:38.946Z</time></trkpt><trkpt lat="30.2077217" lon="-5.6405217"><ele>673.0</ele><time>2026-05-03T10:31:39.929Z</time></trkpt><trkpt lat="30.2076267" lon="-5.6405333"><ele>673.0</ele><time>2026-05-03T10:31:41.935Z</time></trkpt><trkpt lat="30.2075817" lon="-5.6404533"><ele>673.0</ele><time>2026-05-03T10:31:44.946Z</time></trkpt><trkpt lat="30.207595" lon="-5.6403083"><ele>673.0</ele><time>2026-05-03T10:31:46.93Z</time></trkpt><trkpt lat="30.2076217" lon="-5.6402167"><ele>673.0</ele><time>2026-05-03T10:31:47.969Z</time></trkpt><trkpt lat="30.20766" lon="-5.6401233"><ele>673.0</ele><time>2026-05-03T10:31:48.937Z</time></trkpt><trkpt lat="30.2077017" lon="-5.6400433"><ele>673.0</ele><time>2026-05-03T10:31:49.945Z</time></trkpt><trkpt lat="30.20775" lon="-5.6399633"><ele>673.0</ele><time>2026-05-03T10:31:50.948Z</time></trkpt><trkpt lat="30.2077967" lon="-5.63989"><ele>673.0</ele><time>2026-05-03T10:31:51.958Z</time></trkpt><trkpt lat="30.2078317" lon="-5.6398183"><ele>673.0</ele><time>2026-05-03T10:31:52.946Z</time></trkpt><trkpt lat="30.20786" lon="-5.6396917"><ele>673.0</ele><time>2026-05-03T10:31:54.941Z</time></trkpt><trkpt lat="30.2078167" lon="-5.6395383"><ele>673.4</ele><time>2026-05-03T10:31:56.936Z</time></trkpt><trkpt lat="30.2077617" lon="-5.6394417"><ele>673.8</ele><time>2026-05-03T10:31:57.945Z</time></trkpt><trkpt lat="30.2077133" lon="-5.6393433"><ele>674.2</ele><time>2026-05-03T10:31:58.951Z</time></trkpt><trkpt lat="30.2076717" lon="-5.6392383"><ele>674.6</ele><time>2026-05-03T10:31:59.975Z</time></trkpt><trkpt lat="30.2076333" lon="-5.6391283"><ele>675.0</ele><time>2026-05-03T10:32:00.931Z</time></trkpt><trkpt lat="30.207595" lon="-5.639005"><ele>675.0</ele><time>2026-05-03T10:32:01.955Z</time></trkpt><trkpt lat="30.2075533" lon="-5.6388767"><ele>675.0</ele><time>2026-05-03T10:32:02.938Z</time></trkpt><trkpt lat="30.207505" lon="-5.6387517"><ele>675.0</ele><time>2026-05-03T10:32:03.951Z</time></trkpt><trkpt lat="30.2074567" lon="-5.6386333"><ele>675.0</ele><time>2026-05-03T10:32:04.926Z</time></trkpt><trkpt lat="30.2074083" lon="-5.6385117"><ele>674.75</ele><time>2026-05-03T10:32:05.952Z</time></trkpt><trkpt lat="30.20736" lon="-5.6383867"><ele>674.5</ele><time>2026-05-03T10:32:06.934Z</time></trkpt><trkpt lat="30.2073133" lon="-5.6382617"><ele>674.25</ele><time>2026-05-03T10:32:07.936Z</time></trkpt><trkpt lat="30.20727" lon="-5.6381383"><ele>674.0</ele><time>2026-05-03T10:32:08.94Z</time></trkpt><trkpt lat="30.207225" lon="-5.6380117"><ele>674.0</ele><time>2026-05-03T10:32:09.972Z</time></trkpt><trkpt lat="30.2071717" lon="-5.6378817"><ele>674.0</ele><time>2026-05-03T10:32:10.936Z</time></trkpt><trkpt lat="30.207105" lon="-5.6377467"><ele>674.0</ele><time>2026-05-03T10:32:11.957Z</time></trkpt><trkpt lat="30.2070333" lon="-5.6376083"><ele>674.0</ele><time>2026-05-03T10:32:12.928Z</time></trkpt><trkpt lat="30.2069633" lon="-5.6374633"><ele>673.75</ele><time>2026-05-03T10:32:13.956Z</time></trkpt><trkpt lat="30.2068933" lon="-5.6373117"><ele>673.5</ele><time>2026-05-03T10:32:14.938Z</time></trkpt><trkpt lat="30.2068183" lon="-5.63716"><ele>673.25</ele><time>2026-05-03T10:32:15.933Z</time></trkpt><trkpt lat="30.2067417" lon="-5.6370133"><ele>673.0</ele><time>2026-05-03T10:32:16.932Z</time></trkpt><trkpt lat="30.2066667" lon="-5.6368783"><ele>672.5</ele><time>2026-05-03T10:32:17.948Z</time></trkpt><trkpt lat="30.2065933" lon="-5.6367467"><ele>672.0</ele><time>2026-05-03T10:32:18.941Z</time></trkpt><trkpt lat="30.2065217" lon="-5.6366167"><ele>671.5</ele><time>2026-05-03T10:32:19.948Z</time></trkpt><trkpt lat="30.2064517" lon="-5.6364917"><ele>671.0</ele><time>2026-05-03T10:32:20.926Z</time></trkpt><trkpt lat="30.20638" lon="-5.6363717"><ele>671.0</ele><time>2026-05-03T10:32:21.938Z</time></trkpt><trkpt lat="30.2063033" lon="-5.6362483"><ele>671.0</ele><time>2026-05-03T10:32:22.938Z</time></trkpt><trkpt lat="30.2062167" lon="-5.6361267"><ele>671.0</ele><time>2026-05-03T10:32:23.941Z</time></trkpt><trkpt lat="30.20612" lon="-5.6360133"><ele>671.0</ele><time>2026-05-03T10:32:24.936Z</time></trkpt><trkpt lat="30.2060117" lon="-5.63591"><ele>671.0</ele><time>2026-05-03T10:32:25.955Z</time></trkpt><trkpt lat="30.2058983" lon="-5.6358183"><ele>671.0</ele><time>2026-05-03T10:32:26.931Z</time></trkpt><trkpt lat="30.2057883" lon="-5.6357283"><ele>671.0</ele><time>2026-05-03T10:32:27.944Z</time></trkpt><trkpt lat="30.2056817" lon="-5.6356333"><ele>671.0</ele><time>2026-05-03T10:32:28.931Z</time></trkpt><trkpt lat="30.20558" lon="-5.63553"><ele>671.25</ele><time>2026-05-03T10:32:29.945Z</time></trkpt><trkpt lat="30.2054783" lon="-5.6354217"><ele>671.5</ele><time>2026-05-03T10:32:30.939Z</time></trkpt><trkpt lat="30.2053783" lon="-5.6353083"><ele>671.75</ele><time>2026-05-03T10:32:31.949Z</time></trkpt><trkpt lat="30.2052817" lon="-5.6351983"><ele>672.0</ele><time>2026-05-03T10:32:32.953Z</time></trkpt><trkpt lat="30.205185" lon="-5.6351033"><ele>672.25</ele><time>2026-05-03T10:32:33.949Z</time></trkpt><trkpt lat="30.2050967" lon="-5.6350117"><ele>672.5</ele><time>2026-05-03T10:32:34.929Z</time></trkpt><trkpt lat="30.205025" lon="-5.634915"><ele>672.75</ele><time>2026-05-03T10:32:35.937Z</time></trkpt><trkpt lat="30.204965" lon="-5.6347983"><ele>673.0</ele><time>2026-05-03T10:32:36.936Z</time></trkpt><trkpt lat="30.2049117" lon="-5.63467"><ele>673.0</ele><time>2026-05-03T10:32:37.952Z</time></trkpt><trkpt lat="30.204845" lon="-5.634545"><ele>673.0</ele><time>2026-05-03T10:32:38.936Z</time></trkpt><trkpt lat="30.2047683" lon="-5.6344167"><ele>673.0</ele><time>2026-05-03T10:32:39.951Z</time></trkpt><trkpt lat="30.204695" lon="-5.6342767"><ele>673.0</ele><time>2026-05-03T10:32:40.942Z</time></trkpt><trkpt lat="30.2046233" lon="-5.63413"><ele>672.75</ele><time>2026-05-03T10:32:41.972Z</time></trkpt><trkpt lat="30.2045567" lon="-5.6339933"><ele>672.5</ele><time>2026-05-03T10:32:42.949Z</time></trkpt><trkpt lat="30.2044917" lon="-5.633865"><ele>672.25</ele><time>2026-05-03T10:32:43.952Z</time></trkpt><trkpt lat="30.2044233" lon="-5.6337367"><ele>672.0</ele><time>2026-05-03T10:32:44.939Z</time></trkpt><trkpt lat="30.2043583" lon="-5.6336083"><ele>671.25</ele><time>2026-05-03T10:32:45.939Z</time></trkpt><trkpt lat="30.2042967" lon="-5.6334867"><ele>670.5</ele><time>2026-05-03T10:32:46.94Z</time></trkpt><trkpt lat="30.2042433" lon="-5.6333667"><ele>669.75</ele><time>2026-05-03T10:32:47.944Z</time></trkpt><trkpt lat="30.20419" lon="-5.633245"><ele>669.0</ele><time>2026-05-03T10:32:48.935Z</time></trkpt><trkpt lat="30.2041317" lon="-5.6331233"><ele>669.0</ele><time>2026-05-03T10:32:49.937Z</time></trkpt><trkpt lat="30.2040633" lon="-5.633"><ele>669.0</ele><time>2026-05-03T10:32:50.969Z</time></trkpt><trkpt lat="30.203985" lon="-5.6328817"><ele>669.0</ele><time>2026-05-03T10:32:51.961Z</time></trkpt><trkpt lat="30.203905" lon="-5.6327583"><ele>669.0</ele><time>2026-05-03T10:32:52.926Z</time></trkpt><trkpt lat="30.203835" lon="-5.632625"><ele>669.5</ele><time>2026-05-03T10:32:53.963Z</time></trkpt><trkpt lat="30.2037667" lon="-5.6324867"><ele>670.0</ele><time>2026-05-03T10:32:54.934Z</time></trkpt><trkpt lat="30.2036983" lon="-5.6323483"><ele>670.5</ele><time>2026-05-03T10:32:55.963Z</time></trkpt><trkpt lat="30.20364" lon="-5.63222"><ele>671.0</ele><time>2026-05-03T10:32:56.934Z</time></trkpt><trkpt lat="30.20359" lon="-5.6321083"><ele>671.0</ele><time>2026-05-03T10:32:57.961Z</time></trkpt><trkpt lat="30.2035367" lon="-5.63201"><ele>671.0</ele><time>2026-05-03T10:32:58.933Z</time></trkpt><trkpt lat="30.2034717" lon="-5.63192"><ele>671.0</ele><time>2026-05-03T10:32:59.941Z</time></trkpt><trkpt lat="30.2033967" lon="-5.6318283"><ele>671.0</ele><time>2026-05-03T10:33:00.928Z</time></trkpt><trkpt lat="30.2033233" lon="-5.63173"><ele>671.0</ele><time>2026-05-03T10:33:01.938Z</time></trkpt><trkpt lat="30.2032583" lon="-5.6316233"><ele>670.75</ele><time>2026-05-03T10:33:02.975Z</time></trkpt><trkpt lat="30.203205" lon="-5.6315"><ele>670.5</ele><time>2026-05-03T10:33:03.983Z</time></trkpt><trkpt lat="30.2031717" lon="-5.6313733"><ele>670.25</ele><time>2026-05-03T10:33:04.932Z</time></trkpt><trkpt lat="30.2031483" lon="-5.6312483"><ele>670.0</ele><time>2026-05-03T10:33:05.948Z</time></trkpt><trkpt lat="30.2031117" lon="-5.6311317"><ele>670.0</ele><time>2026-05-03T10:33:06.945Z</time></trkpt><trkpt lat="30.2030567" lon="-5.6310267"><ele>670.0</ele><time>2026-05-03T10:33:07.955Z</time></trkpt><trkpt lat="30.2029933" lon="-5.63092"><ele>670.0</ele><time>2026-05-03T10:33:08.928Z</time></trkpt><trkpt lat="30.2029333" lon="-5.6307967"><ele>670.0</ele><time>2026-05-03T10:33:09.948Z</time></trkpt><trkpt lat="30.2028733" lon="-5.630675"><ele>670.0</ele><time>2026-05-03T10:33:10.924Z</time></trkpt><trkpt lat="30.2028167" lon="-5.6305567"><ele>670.0</ele><time>2026-05-03T10:33:11.949Z</time></trkpt><trkpt lat="30.2027717" lon="-5.6304283"><ele>670.0</ele><time>2026-05-03T10:33:12.941Z</time></trkpt><trkpt lat="30.2027317" lon="-5.6302933"><ele>670.0</ele><time>2026-05-03T10:33:13.945Z</time></trkpt><trkpt lat="30.2026883" lon="-5.630165"><ele>670.1666666666667</ele><time>2026-05-03T10:33:14.932Z</time></trkpt><trkpt lat="30.202645" lon="-5.6300517"><ele>670.3333333333334</ele><time>2026-05-03T10:33:15.944Z</time></trkpt><trkpt lat="30.2026017" lon="-5.6299517"><ele>670.5</ele><time>2026-05-03T10:33:16.933Z</time></trkpt><trkpt lat="30.2025667" lon="-5.6298667"><ele>670.6666666666666</ele><time>2026-05-03T10:33:17.935Z</time></trkpt><trkpt lat="30.2025383" lon="-5.6297983"><ele>670.8333333333333</ele><time>2026-05-03T10:33:18.934Z</time></trkpt><trkpt lat="30.2025033" lon="-5.629705"><ele>671.0</ele><time>2026-05-03T10:33:20.943Z</time></trkpt><trkpt lat="30.2024683" lon="-5.62961"><ele>671.0</ele><time>2026-05-03T10:33:28.931Z</time></trkpt><trkpt lat="30.2024067" lon="-5.6294683"><ele>671.0</ele><time>2026-05-03T10:33:30.938Z</time></trkpt><trkpt lat="30.2023633" lon="-5.6293883"><ele>671.0</ele><time>2026-05-03T10:33:31.945Z</time></trkpt><trkpt lat="30.2023117" lon="-5.6293117"><ele>671.0</ele><time>2026-05-03T10:33:32.943Z</time></trkpt><trkpt lat="30.2022583" lon="-5.62922"><ele>671.0</ele><time>2026-05-03T10:33:33.943Z</time></trkpt><trkpt lat="30.2022067" lon="-5.6291133"><ele>671.0</ele><time>2026-05-03T10:33:34.924Z</time></trkpt><trkpt lat="30.2021633" lon="-5.6290033"><ele>671.0</ele><time>2026-05-03T10:33:35.946Z</time></trkpt><trkpt lat="30.2021217" lon="-5.6288933"><ele>671.0</ele><time>2026-05-03T10:33:36.945Z</time></trkpt><trkpt lat="30.2020767" lon="-5.6287783"><ele>671.0</ele><time>2026-05-03T10:33:37.936Z</time></trkpt><trkpt lat="30.2020217" lon="-5.6286617"><ele>671.0</ele><time>2026-05-03T10:33:38.937Z</time></trkpt><trkpt lat="30.2019583" lon="-5.6285383"><ele>671.0</ele><time>2026-05-03T10:33:39.948Z</time></trkpt><trkpt lat="30.2018967" lon="-5.628415"><ele>671.0</ele><time>2026-05-03T10:33:40.943Z</time></trkpt><trkpt lat="30.2018417" lon="-5.628295"><ele>671.0</ele><time>2026-05-03T10:33:41.936Z</time></trkpt><trkpt lat="30.2017933" lon="-5.6281733"><ele>671.0</ele><time>2026-05-03T10:33:42.931Z</time></trkpt><trkpt lat="30.2017467" lon="-5.62805"><ele>671.0</ele><time>2026-05-03T10:33:43.953Z</time></trkpt><trkpt lat="30.2016983" lon="-5.6279283"><ele>671.0</ele><time>2026-05-03T10:33:44.927Z</time></trkpt><trkpt lat="30.2016517" lon="-5.6278067"><ele>671.0</ele><time>2026-05-03T10:33:45.942Z</time></trkpt><trkpt lat="30.201605" lon="-5.6276867"><ele>671.0</ele><time>2026-05-03T10:33:46.93Z</time></trkpt><trkpt lat="30.2015583" lon="-5.6275683"><ele>671.25</ele><time>2026-05-03T10:33:47.938Z</time></trkpt><trkpt lat="30.20151" lon="-5.6274533"><ele>671.5</ele><time>2026-05-03T10:33:48.925Z</time></trkpt><trkpt lat="30.2014567" lon="-5.6273367"><ele>671.75</ele><time>2026-05-03T10:33:49.955Z</time></trkpt><trkpt lat="30.2014" lon="-5.62722"><ele>672.0</ele><time>2026-05-03T10:33:50.94Z</time></trkpt><trkpt lat="30.2013417" lon="-5.6271033"><ele>672.0</ele><time>2026-05-03T10:33:51.94Z</time></trkpt><trkpt lat="30.2012833" lon="-5.62699"><ele>672.0</ele><time>2026-05-03T10:33:52.964Z</time></trkpt><trkpt lat="30.20123" lon="-5.62688"><ele>672.0</ele><time>2026-05-03T10:33:53.947Z</time></trkpt><trkpt lat="30.2011867" lon="-5.62678"><ele>672.0</ele><time>2026-05-03T10:33:54.951Z</time></trkpt><trkpt lat="30.2011483" lon="-5.6266883"><ele>672.0</ele><time>2026-05-03T10:33:55.976Z</time></trkpt><trkpt lat="30.20111" lon="-5.6265967"><ele>671.8</ele><time>2026-05-03T10:33:56.932Z</time></trkpt><trkpt lat="30.2010671" lon="-5.6265015"><ele>671.6</ele><time>2026-05-03T10:33:57.957Z</time></trkpt><trkpt lat="30.2010185" lon="-5.6264047"><ele>671.4</ele><time>2026-05-03T10:33:58.941Z</time></trkpt><trkpt lat="30.2009672" lon="-5.6263047"><ele>671.1999999999999</ele><time>2026-05-03T10:33:59.974Z</time></trkpt><trkpt lat="30.2009167" lon="-5.6262055"><ele>671.0</ele><time>2026-05-03T10:34:00.922Z</time></trkpt><trkpt lat="30.2008653" lon="-5.6260975"><ele>671.0</ele><time>2026-05-03T10:34:01.951Z</time></trkpt><trkpt lat="30.2008162" lon="-5.6259912"><ele>671.0</ele><time>2026-05-03T10:34:02.924Z</time></trkpt><trkpt lat="30.2007637" lon="-5.6258845"><ele>671.0</ele><time>2026-05-03T10:34:03.947Z</time></trkpt><trkpt lat="30.2007147" lon="-5.6257811"><ele>671.0</ele><time>2026-05-03T10:34:04.936Z</time></trkpt><trkpt lat="30.2006689" lon="-5.6256755"><ele>671.0</ele><time>2026-05-03T10:34:05.949Z</time></trkpt><trkpt lat="30.200626" lon="-5.6255748"><ele>671.1999999999999</ele><time>2026-05-03T10:34:06.939Z</time></trkpt><trkpt lat="30.2005869" lon="-5.6254734"><ele>671.4</ele><time>2026-05-03T10:34:07.966Z</time></trkpt><trkpt lat="30.2005481" lon="-5.6253699"><ele>671.6</ele><time>2026-05-03T10:34:08.937Z</time></trkpt><trkpt lat="30.2004985" lon="-5.6252595"><ele>671.8</ele><time>2026-05-03T10:34:09.943Z</time></trkpt><trkpt lat="30.2004381" lon="-5.6251496"><ele>672.0</ele><time>2026-05-03T10:34:10.925Z</time></trkpt><trkpt lat="30.2003696" lon="-5.6250433"><ele>671.2</ele><time>2026-05-03T10:34:11.948Z</time></trkpt><trkpt lat="30.2003027" lon="-5.6249423"><ele>670.4000000000001</ele><time>2026-05-03T10:34:12.944Z</time></trkpt><trkpt lat="30.2002389" lon="-5.6248439"><ele>669.5999999999999</ele><time>2026-05-03T10:34:13.936Z</time></trkpt><trkpt lat="30.2001756" lon="-5.6247427"><ele>668.8</ele><time>2026-05-03T10:34:14.928Z</time></trkpt><trkpt lat="30.2001119" lon="-5.6246373"><ele>668.0</ele><time>2026-05-03T10:34:15.941Z</time></trkpt><trkpt lat="30.2000488" lon="-5.6245289"><ele>668.0</ele><time>2026-05-03T10:34:16.924Z</time></trkpt><trkpt lat="30.1999865" lon="-5.6244122"><ele>668.0</ele><time>2026-05-03T10:34:17.95Z</time></trkpt><trkpt lat="30.1999256" lon="-5.6242937"><ele>668.0</ele><time>2026-05-03T10:34:18.94Z</time></trkpt><trkpt lat="30.1998626" lon="-5.6241742"><ele>668.0</ele><time>2026-05-03T10:34:19.954Z</time></trkpt><trkpt lat="30.1997981" lon="-5.6240578"><ele>668.0</ele><time>2026-05-03T10:34:20.928Z</time></trkpt><trkpt lat="30.1997317" lon="-5.6239373"><ele>668.0</ele><time>2026-05-03T10:34:21.971Z</time></trkpt><trkpt lat="30.1996663" lon="-5.6238194"><ele>668.0</ele><time>2026-05-03T10:34:22.932Z</time></trkpt><trkpt lat="30.199596" lon="-5.6236984"><ele>668.0</ele><time>2026-05-03T10:34:23.941Z</time></trkpt><trkpt lat="30.1995239" lon="-5.6235788"><ele>668.25</ele><time>2026-05-03T10:34:24.941Z</time></trkpt><trkpt lat="30.1994533" lon="-5.623458"><ele>668.5</ele><time>2026-05-03T10:34:25.956Z</time></trkpt><trkpt lat="30.1993875" lon="-5.6233337"><ele>668.75</ele><time>2026-05-03T10:34:26.925Z</time></trkpt><trkpt lat="30.1993217" lon="-5.623204"><ele>669.0</ele><time>2026-05-03T10:34:27.95Z</time></trkpt><trkpt lat="30.1992618" lon="-5.6230764"><ele>669.0</ele><time>2026-05-03T10:34:28.923Z</time></trkpt><trkpt lat="30.1992029" lon="-5.622942"><ele>669.0</ele><time>2026-05-03T10:34:29.951Z</time></trkpt><trkpt lat="30.1991454" lon="-5.6228084"><ele>669.0</ele><time>2026-05-03T10:34:30.938Z</time></trkpt><trkpt lat="30.1990828" lon="-5.6226758"><ele>669.0</ele><time>2026-05-03T10:34:31.934Z</time></trkpt><trkpt lat="30.1990178" lon="-5.622542"><ele>669.0</ele><time>2026-05-03T10:34:32.933Z</time></trkpt><trkpt lat="30.1989537" lon="-5.6224032"><ele>669.0</ele><time>2026-05-03T10:34:33.941Z</time></trkpt><trkpt lat="30.198893" lon="-5.6222598"><ele>669.0</ele><time>2026-05-03T10:34:34.957Z</time></trkpt><trkpt lat="30.1988315" lon="-5.6221126"><ele>669.0</ele><time>2026-05-03T10:34:35.992Z</time></trkpt><trkpt lat="30.1987673" lon="-5.6219641"><ele>668.75</ele><time>2026-05-03T10:34:36.944Z</time></trkpt><trkpt lat="30.1986984" lon="-5.6218074"><ele>668.5</ele><time>2026-05-03T10:34:37.953Z</time></trkpt><trkpt lat="30.1986314" lon="-5.621652"><ele>668.25</ele><time>2026-05-03T10:34:38.932Z</time></trkpt><trkpt lat="30.1985679" lon="-5.621501"><ele>668.0</ele><time>2026-05-03T10:34:39.943Z</time></trkpt><trkpt lat="30.198506" lon="-5.6213559"><ele>668.0</ele><time>2026-05-03T10:34:40.931Z</time></trkpt><trkpt lat="30.1984429" lon="-5.6212121"><ele>668.0</ele><time>2026-05-03T10:34:41.948Z</time></trkpt><trkpt lat="30.1983802" lon="-5.6210734"><ele>668.0</ele><time>2026-05-03T10:34:42.932Z</time></trkpt><trkpt lat="30.1983168" lon="-5.620935"><ele>668.0</ele><time>2026-05-03T10:34:43.94Z</time></trkpt><trkpt lat="30.1982549" lon="-5.6208018"><ele>668.0</ele><time>2026-05-03T10:34:44.935Z</time></trkpt><trkpt lat="30.1981931" lon="-5.6206729"><ele>668.0</ele><time>2026-05-03T10:34:45.95Z</time></trkpt><trkpt lat="30.1981336" lon="-5.6205532"><ele>668.0</ele><time>2026-05-03T10:34:46.946Z</time></trkpt><trkpt lat="30.1980794" lon="-5.6204413"><ele>668.0</ele><time>2026-05-03T10:34:47.953Z</time></trkpt><trkpt lat="30.1980257" lon="-5.6203375"><ele>667.75</ele><time>2026-05-03T10:34:48.932Z</time></trkpt><trkpt lat="30.1979645" lon="-5.6202341"><ele>667.5</ele><time>2026-05-03T10:34:49.941Z</time></trkpt><trkpt lat="30.1978949" lon="-5.6201249"><ele>667.25</ele><time>2026-05-03T10:34:50.95Z</time></trkpt><trkpt lat="30.1978258" lon="-5.6200056"><ele>667.0</ele><time>2026-05-03T10:34:51.95Z</time></trkpt><trkpt lat="30.1977592" lon="-5.6198723"><ele>667.0</ele><time>2026-05-03T10:34:52.94Z</time></trkpt><trkpt lat="30.1976948" lon="-5.6197289"><ele>667.0</ele><time>2026-05-03T10:34:53.959Z</time></trkpt><trkpt lat="30.1976292" lon="-5.619584"><ele>667.0</ele><time>2026-05-03T10:34:54.949Z</time></trkpt><trkpt lat="30.1975568" lon="-5.6194422"><ele>667.0</ele><time>2026-05-03T10:34:55.923Z</time></trkpt><trkpt lat="30.1974778" lon="-5.6193012"><ele>667.0</ele><time>2026-05-03T10:34:56.962Z</time></trkpt><trkpt lat="30.1974" lon="-5.6191617"><ele>667.0</ele><time>2026-05-03T10:34:57.973Z</time></trkpt><trkpt lat="30.1973217" lon="-5.6190183"><ele>667.0</ele><time>2026-05-03T10:34:58.92Z</time></trkpt><trkpt lat="30.197245" lon="-5.61888"><ele>667.0</ele><time>2026-05-03T10:34:59.956Z</time></trkpt><trkpt lat="30.1971667" lon="-5.618755"><ele>667.25</ele><time>2026-05-03T10:35:00.925Z</time></trkpt><trkpt lat="30.1970917" lon="-5.6186433"><ele>667.5</ele><time>2026-05-03T10:35:01.95Z</time></trkpt><trkpt lat="30.1970267" lon="-5.618525"><ele>667.75</ele><time>2026-05-03T10:35:02.939Z</time></trkpt><trkpt lat="30.1969683" lon="-5.6184017"><ele>668.0</ele><time>2026-05-03T10:35:03.951Z</time></trkpt><trkpt lat="30.1968983" lon="-5.6182783"><ele>668.0</ele><time>2026-05-03T10:35:04.932Z</time></trkpt><trkpt lat="30.1968167" lon="-5.61815"><ele>668.0</ele><time>2026-05-03T10:35:05.949Z</time></trkpt><trkpt lat="30.196735" lon="-5.61801"><ele>668.0</ele><time>2026-05-03T10:35:06.937Z</time></trkpt><trkpt lat="30.1966517" lon="-5.6178617"><ele>668.0</ele><time>2026-05-03T10:35:07.942Z</time></trkpt><trkpt lat="30.19657" lon="-5.6177183"><ele>667.75</ele><time>2026-05-03T10:35:08.937Z</time></trkpt><trkpt lat="30.19649" lon="-5.61759"><ele>667.5</ele><time>2026-05-03T10:35:09.938Z</time></trkpt><trkpt lat="30.1964133" lon="-5.6174667"><ele>667.25</ele><time>2026-05-03T10:35:10.928Z</time></trkpt><trkpt lat="30.19634" lon="-5.6173417"><ele>667.0</ele><time>2026-05-03T10:35:11.933Z</time></trkpt><trkpt lat="30.1962683" lon="-5.6172133"><ele>667.0</ele><time>2026-05-03T10:35:12.935Z</time></trkpt><trkpt lat="30.1961917" lon="-5.6170817"><ele>667.0</ele><time>2026-05-03T10:35:13.944Z</time></trkpt><trkpt lat="30.1961083" lon="-5.6169467"><ele>667.0</ele><time>2026-05-03T10:35:14.933Z</time></trkpt><trkpt lat="30.196025" lon="-5.6168117"><ele>667.0</ele><time>2026-05-03T10:35:15.939Z</time></trkpt><trkpt lat="30.1959433" lon="-5.616685"><ele>667.4000000000001</ele><time>2026-05-03T10:35:16.937Z</time></trkpt><trkpt lat="30.1958717" lon="-5.6165767"><ele>667.8000000000001</ele><time>2026-05-03T10:35:17.942Z</time></trkpt><trkpt lat="30.1958167" lon="-5.616495"><ele>668.2</ele><time>2026-05-03T10:35:18.95Z</time></trkpt><trkpt lat="30.1957733" lon="-5.616415"><ele>668.6</ele><time>2026-05-03T10:35:19.941Z</time></trkpt><trkpt lat="30.19573" lon="-5.6163283"><ele>669.0</ele><time>2026-05-03T10:35:20.931Z</time></trkpt><trkpt lat="30.1956767" lon="-5.616225"><ele>668.75</ele><time>2026-05-03T10:35:21.969Z</time></trkpt><trkpt lat="30.1956117" lon="-5.61612"><ele>668.5</ele><time>2026-05-03T10:35:22.947Z</time></trkpt><trkpt lat="30.19554" lon="-5.6160017"><ele>668.25</ele><time>2026-05-03T10:35:23.947Z</time></trkpt><trkpt lat="30.1954717" lon="-5.61588"><ele>668.0</ele><time>2026-05-03T10:35:24.956Z</time></trkpt><trkpt lat="30.19541" lon="-5.6157667"><ele>668.0</ele><time>2026-05-03T10:35:25.962Z</time></trkpt><trkpt lat="30.1953433" lon="-5.6156583"><ele>668.0</ele><time>2026-05-03T10:35:26.951Z</time></trkpt><trkpt lat="30.1952667" lon="-5.6155583"><ele>668.0</ele><time>2026-05-03T10:35:27.962Z</time></trkpt><trkpt lat="30.1951817" lon="-5.6154533"><ele>668.0</ele><time>2026-05-03T10:35:28.931Z</time></trkpt><trkpt lat="30.1950967" lon="-5.6153433"><ele>668.25</ele><time>2026-05-03T10:35:29.971Z</time></trkpt><trkpt lat="30.19501" lon="-5.615235"><ele>668.5</ele><time>2026-05-03T10:35:30.933Z</time></trkpt><trkpt lat="30.1949183" lon="-5.6151217"><ele>668.75</ele><time>2026-05-03T10:35:31.936Z</time></trkpt><trkpt lat="30.1948283" lon="-5.6150033"><ele>669.0</ele><time>2026-05-03T10:35:32.93Z</time></trkpt><trkpt lat="30.1947417" lon="-5.6148917"><ele>669.0</ele><time>2026-05-03T10:35:33.948Z</time></trkpt><trkpt lat="30.194655" lon="-5.6147867"><ele>669.0</ele><time>2026-05-03T10:35:34.934Z</time></trkpt><trkpt lat="30.19457" lon="-5.6146983"><ele>669.0</ele><time>2026-05-03T10:35:35.963Z</time></trkpt><trkpt lat="30.1944867" lon="-5.61462"><ele>669.0</ele><time>2026-05-03T10:35:36.927Z</time></trkpt><trkpt lat="30.19441" lon="-5.614535"><ele>668.6</ele><time>2026-05-03T10:35:37.959Z</time></trkpt><trkpt lat="30.1943417" lon="-5.61444"><ele>668.2</ele><time>2026-05-03T10:35:38.93Z</time></trkpt><trkpt lat="30.19428" lon="-5.6143383"><ele>667.8000000000001</ele><time>2026-05-03T10:35:39.942Z</time></trkpt><trkpt lat="30.194215" lon="-5.6142417"><ele>667.4000000000001</ele><time>2026-05-03T10:35:40.932Z</time></trkpt><trkpt lat="30.1941317" lon="-5.61415"><ele>667.0</ele><time>2026-05-03T10:35:41.947Z</time></trkpt><trkpt lat="30.1940317" lon="-5.6140533"><ele>667.0</ele><time>2026-05-03T10:35:42.93Z</time></trkpt><trkpt lat="30.193925" lon="-5.6139533"><ele>667.0</ele><time>2026-05-03T10:35:43.964Z</time></trkpt><trkpt lat="30.1938183" lon="-5.6138517"><ele>667.0</ele><time>2026-05-03T10:35:44.936Z</time></trkpt><trkpt lat="30.1937133" lon="-5.6137533"><ele>667.0</ele><time>2026-05-03T10:35:45.939Z</time></trkpt><trkpt lat="30.1936167" lon="-5.6136583"><ele>667.2</ele><time>2026-05-03T10:35:46.961Z</time></trkpt><trkpt lat="30.1935283" lon="-5.6135617"><ele>667.4000000000001</ele><time>2026-05-03T10:35:47.947Z</time></trkpt><trkpt lat="30.1934467" lon="-5.6134733"><ele>667.5999999999999</ele><time>2026-05-03T10:35:48.936Z</time></trkpt><trkpt lat="30.1933667" lon="-5.6133983"><ele>667.8</ele><time>2026-05-03T10:35:49.953Z</time></trkpt><trkpt lat="30.193285" lon="-5.6133417"><ele>668.0</ele><time>2026-05-03T10:35:50.936Z</time></trkpt><trkpt lat="30.1932033" lon="-5.613305"><ele>667.5999999999999</ele><time>2026-05-03T10:35:51.937Z</time></trkpt><trkpt lat="30.193115" lon="-5.6132867"><ele>667.1999999999999</ele><time>2026-05-03T10:35:52.97Z</time></trkpt><trkpt lat="30.193015" lon="-5.61329"><ele>666.8</ele><time>2026-05-03T10:35:53.937Z</time></trkpt><trkpt lat="30.1929083" lon="-5.613305"><ele>666.4</ele><time>2026-05-03T10:35:54.949Z</time></trkpt><trkpt lat="30.1927967" lon="-5.6133133"><ele>666.0</ele><time>2026-05-03T10:35:55.96Z</time></trkpt><trkpt lat="30.19269" lon="-5.6133067"><ele>666.0</ele><time>2026-05-03T10:35:56.946Z</time></trkpt><trkpt lat="30.1925917" lon="-5.6132867"><ele>666.0</ele><time>2026-05-03T10:35:57.949Z</time></trkpt><trkpt lat="30.1924967" lon="-5.61326"><ele>666.0</ele><time>2026-05-03T10:35:58.948Z</time></trkpt><trkpt lat="30.1924017" lon="-5.6132383"><ele>666.0</ele><time>2026-05-03T10:35:59.974Z</time></trkpt><trkpt lat="30.1923083" lon="-5.613225"><ele>666.0</ele><time>2026-05-03T10:36:00.969Z</time></trkpt><trkpt lat="30.1922167" lon="-5.6132217"><ele>666.1666666666666</ele><time>2026-05-03T10:36:01.941Z</time></trkpt><trkpt lat="30.192125" lon="-5.6132267"><ele>666.3333333333334</ele><time>2026-05-03T10:36:02.953Z</time></trkpt><trkpt lat="30.1920367" lon="-5.6132367"><ele>666.5</ele><time>2026-05-03T10:36:03.963Z</time></trkpt><trkpt lat="30.1919533" lon="-5.613245"><ele>666.6666666666667</ele><time>2026-05-03T10:36:04.945Z</time></trkpt><trkpt lat="30.1918783" lon="-5.6132417"><ele>666.8333333333334</ele><time>2026-05-03T10:36:05.969Z</time></trkpt><trkpt lat="30.19181" lon="-5.61322"><ele>667.0</ele><time>2026-05-03T10:36:06.967Z</time></trkpt><trkpt lat="30.1917483" lon="-5.6131717"><ele>667.0</ele><time>2026-05-03T10:36:07.995Z</time></trkpt><trkpt lat="30.1917" lon="-5.6131017"><ele>667.0</ele><time>2026-05-03T10:36:08.95Z</time></trkpt><trkpt lat="30.1916567" lon="-5.6130233"><ele>667.0</ele><time>2026-05-03T10:36:09.931Z</time></trkpt><trkpt lat="30.1916133" lon="-5.6129383"><ele>667.0</ele><time>2026-05-03T10:36:10.937Z</time></trkpt><trkpt lat="30.1915667" lon="-5.6128583"><ele>667.0</ele><time>2026-05-03T10:36:11.946Z</time></trkpt><trkpt lat="30.19152" lon="-5.612785"><ele>667.0</ele><time>2026-05-03T10:36:12.923Z</time></trkpt><trkpt lat="30.1914783" lon="-5.6127083"><ele>666.8</ele><time>2026-05-03T10:36:13.957Z</time></trkpt><trkpt lat="30.191435" lon="-5.6126233"><ele>666.6</ele><time>2026-05-03T10:36:14.927Z</time></trkpt><trkpt lat="30.1913833" lon="-5.6125267"><ele>666.4</ele><time>2026-05-03T10:36:15.924Z</time></trkpt><trkpt lat="30.1913233" lon="-5.6124317"><ele>666.1999999999999</ele><time>2026-05-03T10:36:16.939Z</time></trkpt><trkpt lat="30.19126" lon="-5.612335"><ele>666.0</ele><time>2026-05-03T10:36:17.931Z</time></trkpt><trkpt lat="30.1911967" lon="-5.6122283"><ele>666.0</ele><time>2026-05-03T10:36:18.931Z</time></trkpt><trkpt lat="30.1911333" lon="-5.6121117"><ele>666.0</ele><time>2026-05-03T10:36:19.946Z</time></trkpt><trkpt lat="30.191065" lon="-5.6119883"><ele>666.0</ele><time>2026-05-03T10:36:20.945Z</time></trkpt><trkpt lat="30.1910033" lon="-5.6118683"><ele>666.0</ele><time>2026-05-03T10:36:21.944Z</time></trkpt><trkpt lat="30.1909583" lon="-5.611745"><ele>665.75</ele><time>2026-05-03T10:36:22.941Z</time></trkpt><trkpt lat="30.19092" lon="-5.61162"><ele>665.5</ele><time>2026-05-03T10:36:23.949Z</time></trkpt><trkpt lat="30.190875" lon="-5.6114917"><ele>665.25</ele><time>2026-05-03T10:36:24.941Z</time></trkpt><trkpt lat="30.1908333" lon="-5.6113533"><ele>665.0</ele><time>2026-05-03T10:36:25.946Z</time></trkpt><trkpt lat="30.1908017" lon="-5.6112033"><ele>665.0</ele><time>2026-05-03T10:36:26.932Z</time></trkpt><trkpt lat="30.1907733" lon="-5.611055"><ele>665.0</ele><time>2026-05-03T10:36:27.941Z</time></trkpt><trkpt lat="30.190735" lon="-5.61092"><ele>665.0</ele><time>2026-05-03T10:36:28.94Z</time></trkpt><trkpt lat="30.19069" lon="-5.6107967"><ele>665.0</ele><time>2026-05-03T10:36:29.961Z</time></trkpt><trkpt lat="30.1906317" lon="-5.610685"><ele>665.0</ele><time>2026-05-03T10:36:30.936Z</time></trkpt><trkpt lat="30.1905567" lon="-5.6105867"><ele>665.0</ele><time>2026-05-03T10:36:31.923Z</time></trkpt><trkpt lat="30.19047" lon="-5.610495"><ele>665.0</ele><time>2026-05-03T10:36:32.936Z</time></trkpt><trkpt lat="30.190385" lon="-5.610405"><ele>665.0</ele><time>2026-05-03T10:36:33.934Z</time></trkpt><trkpt lat="30.190315" lon="-5.6103083"><ele>665.4</ele><time>2026-05-03T10:36:34.926Z</time></trkpt><trkpt lat="30.1902567" lon="-5.6101983"><ele>665.8</ele><time>2026-05-03T10:36:35.942Z</time></trkpt><trkpt lat="30.1902117" lon="-5.6100833"><ele>666.2</ele><time>2026-05-03T10:36:36.942Z</time></trkpt><trkpt lat="30.1901717" lon="-5.609965"><ele>666.6</ele><time>2026-05-03T10:36:37.953Z</time></trkpt><trkpt lat="30.190135" lon="-5.60985"><ele>667.0</ele><time>2026-05-03T10:36:38.933Z</time></trkpt><trkpt lat="30.1900933" lon="-5.60974"><ele>667.0</ele><time>2026-05-03T10:36:39.939Z</time></trkpt><trkpt lat="30.19005" lon="-5.6096267"><ele>667.0</ele><time>2026-05-03T10:36:40.924Z</time></trkpt><trkpt lat="30.1900033" lon="-5.6095133"><ele>667.0</ele><time>2026-05-03T10:36:41.939Z</time></trkpt><trkpt lat="30.1899583" lon="-5.6094"><ele>667.0</ele><time>2026-05-03T10:36:42.944Z</time></trkpt><trkpt lat="30.1899117" lon="-5.6092867"><ele>667.0</ele><time>2026-05-03T10:36:43.959Z</time></trkpt><trkpt lat="30.189865" lon="-5.60917"><ele>667.0</ele><time>2026-05-03T10:36:44.925Z</time></trkpt><trkpt lat="30.189815" lon="-5.6090483"><ele>667.0</ele><time>2026-05-03T10:36:45.962Z</time></trkpt><trkpt lat="30.1897667" lon="-5.6089283"><ele>667.0</ele><time>2026-05-03T10:36:46.935Z</time></trkpt><trkpt lat="30.18972" lon="-5.6088167"><ele>667.0</ele><time>2026-05-03T10:36:47.932Z</time></trkpt><trkpt lat="30.189675" lon="-5.6087133"><ele>667.0</ele><time>2026-05-03T10:36:48.932Z</time></trkpt><trkpt lat="30.1896333" lon="-5.6086117"><ele>667.0</ele><time>2026-05-03T10:36:49.971Z</time></trkpt><trkpt lat="30.1895917" lon="-5.6085083"><ele>667.0</ele><time>2026-05-03T10:36:50.929Z</time></trkpt><trkpt lat="30.1895483" lon="-5.6084033"><ele>667.0</ele><time>2026-05-03T10:36:51.939Z</time></trkpt><trkpt lat="30.189505" lon="-5.6082983"><ele>667.0</ele><time>2026-05-03T10:36:52.922Z</time></trkpt><trkpt lat="30.1894583" lon="-5.6081917"><ele>667.0</ele><time>2026-05-03T10:36:53.957Z</time></trkpt><trkpt lat="30.189415" lon="-5.6080933"><ele>667.0</ele><time>2026-05-03T10:36:54.932Z</time></trkpt><trkpt lat="30.1893783" lon="-5.6080133"><ele>667.0</ele><time>2026-05-03T10:36:55.937Z</time></trkpt><trkpt lat="30.1893267" lon="-5.6079133"><ele>667.0</ele><time>2026-05-03T10:36:57.932Z</time></trkpt><trkpt lat="30.18931" lon="-5.6078333"><ele>667.0</ele><time>2026-05-03T10:36:59.986Z</time></trkpt><trkpt lat="30.1892217" lon="-5.6078683"><ele>667.0</ele><time>2026-05-03T10:37:06.939Z</time></trkpt><trkpt lat="30.18915" lon="-5.6079117"><ele>667.0</ele><time>2026-05-03T10:37:08.928Z</time></trkpt><trkpt lat="30.1890583" lon="-5.60796"><ele>666.6</ele><time>2026-05-03T10:37:10.934Z</time></trkpt><trkpt lat="30.1889517" lon="-5.608005"><ele>666.2</ele><time>2026-05-03T10:37:12.941Z</time></trkpt><trkpt lat="30.1888567" lon="-5.6080433"><ele>665.8</ele><time>2026-05-03T10:37:14.935Z</time></trkpt><trkpt lat="30.1887817" lon="-5.6080767"><ele>665.4</ele><time>2026-05-03T10:37:16.932Z</time></trkpt><trkpt lat="30.1887183" lon="-5.6081033"><ele>665.0</ele><time>2026-05-03T10:37:18.944Z</time></trkpt><trkpt lat="30.18863" lon="-5.6081133"><ele>665.0</ele><time>2026-05-03T10:37:21.959Z</time></trkpt><trkpt lat="30.188555" lon="-5.6080883"><ele>665.0</ele><time>2026-05-03T10:37:24.939Z</time></trkpt><trkpt lat="30.18851" lon="-5.608027"><ele>665.0</ele><time>2026-05-03T10:37:26.928Z</time></trkpt><trkpt lat="30.188462" lon="-5.6079414"><ele>665.0</ele><time>2026-05-03T10:37:28.947Z</time></trkpt><trkpt lat="30.1884338" lon="-5.607856"><ele>665.0</ele><time>2026-05-03T10:37:30.942Z</time></trkpt><trkpt lat="30.1884122" lon="-5.6077757"><ele>665.0</ele><time>2026-05-03T10:37:34.94Z</time></trkpt><trkpt lat="30.1883917" lon="-5.6076933"><ele>664.8333333333333</ele><time>2026-05-03T10:37:47.959Z</time></trkpt><trkpt lat="30.1884767" lon="-5.6076267"><ele>664.6666666666666</ele><time>2026-05-03T10:37:51.962Z</time></trkpt><trkpt lat="30.1886017" lon="-5.6076117"><ele>664.5</ele><time>2026-05-03T10:37:53.964Z</time></trkpt><trkpt lat="30.188665" lon="-5.6076033"><ele>664.3333333333334</ele><time>2026-05-03T10:37:54.937Z</time></trkpt><trkpt lat="30.1887317" lon="-5.6075833"><ele>664.1666666666667</ele><time>2026-05-03T10:37:55.941Z</time></trkpt><trkpt lat="30.1887983" lon="-5.607555"><ele>664.0</ele><time>2026-05-03T10:37:56.93Z</time></trkpt><trkpt lat="30.1888567" lon="-5.607525"><ele>664.0</ele><time>2026-05-03T10:37:57.941Z</time></trkpt><trkpt lat="30.1889533" lon="-5.6074683"><ele>664.0</ele><time>2026-05-03T10:37:59.978Z</time></trkpt><trkpt lat="30.1890217" lon="-5.6074083"><ele>664.0</ele><time>2026-05-03T10:38:01.925Z</time></trkpt><trkpt lat="30.1889917" lon="-5.6074883"><ele>664.0</ele><time>2026-05-03T10:38:35.958Z</time></trkpt><trkpt lat="30.1889283" lon="-5.60752"><ele>664.0</ele><time>2026-05-03T10:38:36.94Z</time></trkpt><trkpt lat="30.1888483" lon="-5.6075533"><ele>664.0</ele><time>2026-05-03T10:38:37.92Z</time></trkpt><trkpt lat="30.1887567" lon="-5.6075817"><ele>664.0</ele><time>2026-05-03T10:38:38.93Z</time></trkpt><trkpt lat="30.1886533" lon="-5.6076217"><ele>664.0</ele><time>2026-05-03T10:38:39.949Z</time></trkpt><trkpt lat="30.1885367" lon="-5.607675"><ele>664.0</ele><time>2026-05-03T10:38:40.934Z</time></trkpt><trkpt lat="30.18842" lon="-5.6077383"><ele>664.0</ele><time>2026-05-03T10:38:41.937Z</time></trkpt><trkpt lat="30.18831" lon="-5.6078017"><ele>664.0</ele><time>2026-05-03T10:38:42.936Z</time></trkpt><trkpt lat="30.1882083" lon="-5.60786"><ele>664.0</ele><time>2026-05-03T10:38:43.945Z</time></trkpt><trkpt lat="30.188105" lon="-5.6079167"><ele>664.0</ele><time>2026-05-03T10:38:44.923Z</time></trkpt><trkpt lat="30.188" lon="-5.607975"><ele>664.0</ele><time>2026-05-03T10:38:45.936Z</time></trkpt><trkpt lat="30.1879" lon="-5.6080317"><ele>664.0</ele><time>2026-05-03T10:38:46.933Z</time></trkpt><trkpt lat="30.1878183" lon="-5.6080767"><ele>664.0</ele><time>2026-05-03T10:38:47.964Z</time></trkpt><trkpt lat="30.1877583" lon="-5.6081117"><ele>664.0</ele><time>2026-05-03T10:38:48.921Z</time></trkpt><trkpt lat="30.1876783" lon="-5.6081533"><ele>664.0</ele><time>2026-05-03T10:38:50.931Z</time></trkpt><trkpt lat="30.1875917" lon="-5.6082017"><ele>664.0</ele><time>2026-05-03T10:38:52.931Z</time></trkpt><trkpt lat="30.18749" lon="-5.6082617"><ele>664.0</ele><time>2026-05-03T10:38:54.927Z</time></trkpt><trkpt lat="30.1874317" lon="-5.6082967"><ele>664.0</ele><time>2026-05-03T10:38:55.946Z</time></trkpt><trkpt lat="30.187295" lon="-5.6083733"><ele>664.0</ele><time>2026-05-03T10:38:57.934Z</time></trkpt><trkpt lat="30.1872083" lon="-5.6084183"><ele>664.0</ele><time>2026-05-03T10:38:58.927Z</time></trkpt><trkpt lat="30.1871117" lon="-5.6084667"><ele>664.0</ele><time>2026-05-03T10:38:59.946Z</time></trkpt><trkpt lat="30.1870117" lon="-5.608525"><ele>664.4000000000001</ele><time>2026-05-03T10:39:00.94Z</time></trkpt><trkpt lat="30.1869083" lon="-5.6085867"><ele>664.8</ele><time>2026-05-03T10:39:01.934Z</time></trkpt><trkpt lat="30.1868017" lon="-5.6086467"><ele>665.2</ele><time>2026-05-03T10:39:02.93Z</time></trkpt><trkpt lat="30.1867033" lon="-5.6087"><ele>665.5999999999999</ele><time>2026-05-03T10:39:03.948Z</time></trkpt><trkpt lat="30.1866233" lon="-5.60874"><ele>666.0</ele><time>2026-05-03T10:39:04.927Z</time></trkpt><trkpt lat="30.18656" lon="-5.60877"><ele>666.0</ele><time>2026-05-03T10:39:05.965Z</time></trkpt><trkpt lat="30.18648" lon="-5.608795"><ele>666.0</ele><time>2026-05-03T10:39:07.95Z</time></trkpt><trkpt lat="30.1863983" lon="-5.608775"><ele>666.0</ele><time>2026-05-03T10:39:09.948Z</time></trkpt><trkpt lat="30.1863083" lon="-5.6086733"><ele>666.0</ele><time>2026-05-03T10:39:11.939Z</time></trkpt><trkpt lat="30.18627" lon="-5.608585"><ele>666.0</ele><time>2026-05-03T10:39:12.95Z</time></trkpt><trkpt lat="30.1862284" lon="-5.6084871"><ele>666.0</ele><time>2026-05-03T10:39:13.936Z</time></trkpt><trkpt lat="30.1861791" lon="-5.6083745"><ele>666.0</ele><time>2026-05-03T10:39:14.927Z</time></trkpt><trkpt lat="30.186124" lon="-5.6082563"><ele>666.0</ele><time>2026-05-03T10:39:15.946Z</time></trkpt><trkpt lat="30.186064" lon="-5.608135"><ele>666.0</ele><time>2026-05-03T10:39:16.915Z</time></trkpt><trkpt lat="30.1859926" lon="-5.6080003"><ele>666.0</ele><time>2026-05-03T10:39:17.937Z</time></trkpt><trkpt lat="30.1859196" lon="-5.6078595"><ele>666.0</ele><time>2026-05-03T10:39:18.938Z</time></trkpt><trkpt lat="30.1858481" lon="-5.607719"><ele>666.0</ele><time>2026-05-03T10:39:19.951Z</time></trkpt><trkpt lat="30.1857796" lon="-5.6075788"><ele>666.0</ele><time>2026-05-03T10:39:20.934Z</time></trkpt><trkpt lat="30.1857091" lon="-5.6074293"><ele>666.3333333333334</ele><time>2026-05-03T10:39:21.966Z</time></trkpt><trkpt lat="30.1856381" lon="-5.6072785"><ele>666.6666666666667</ele><time>2026-05-03T10:39:22.935Z</time></trkpt><trkpt lat="30.1855609" lon="-5.6071191"><ele>667.0</ele><time>2026-05-03T10:39:23.955Z</time></trkpt><trkpt lat="30.1854818" lon="-5.6069586"><ele>665.5</ele><time>2026-05-03T10:39:24.931Z</time></trkpt><trkpt lat="30.1853996" lon="-5.6067946"><ele>664.0</ele><time>2026-05-03T10:39:25.948Z</time></trkpt><trkpt lat="30.1852381" lon="-5.6064757"><ele>664.0</ele><time>2026-05-03T10:39:27.956Z</time></trkpt><trkpt lat="30.1851559" lon="-5.6063147"><ele>664.0</ele><time>2026-05-03T10:39:28.946Z</time></trkpt><trkpt lat="30.185074" lon="-5.6061494"><ele>664.0</ele><time>2026-05-03T10:39:29.942Z</time></trkpt><trkpt lat="30.1849925" lon="-5.6059818"><ele>664.0</ele><time>2026-05-03T10:39:30.938Z</time></trkpt><trkpt lat="30.1849135" lon="-5.6058105"><ele>664.0</ele><time>2026-05-03T10:39:31.94Z</time></trkpt><trkpt lat="30.184834" lon="-5.6056379"><ele>664.0</ele><time>2026-05-03T10:39:32.931Z</time></trkpt><trkpt lat="30.1847484" lon="-5.6054627"><ele>665.0</ele><time>2026-05-03T10:39:33.954Z</time></trkpt><trkpt lat="30.1846591" lon="-5.6052901"><ele>666.0</ele><time>2026-05-03T10:39:34.926Z</time></trkpt><trkpt lat="30.1845661" lon="-5.6051147"><ele>667.0</ele><time>2026-05-03T10:39:35.939Z</time></trkpt><trkpt lat="30.1844753" lon="-5.6049406"><ele>667.0</ele><time>2026-05-03T10:39:36.924Z</time></trkpt><trkpt lat="30.1843815" lon="-5.6047586"><ele>667.0</ele><time>2026-05-03T10:39:37.936Z</time></trkpt><trkpt lat="30.1842875" lon="-5.6045757"><ele>667.0</ele><time>2026-05-03T10:39:38.921Z</time></trkpt><trkpt lat="30.1841932" lon="-5.6043901"><ele>666.0</ele><time>2026-05-03T10:39:39.94Z</time></trkpt><trkpt lat="30.1841031" lon="-5.6042144"><ele>665.0</ele><time>2026-05-03T10:39:40.93Z</time></trkpt><trkpt lat="30.1840159" lon="-5.6040399"><ele>664.0</ele><time>2026-05-03T10:39:41.94Z</time></trkpt><trkpt lat="30.1839278" lon="-5.6038659"><ele>664.0</ele><time>2026-05-03T10:39:42.921Z</time></trkpt><trkpt lat="30.1838379" lon="-5.6036871"><ele>664.0</ele><time>2026-05-03T10:39:43.946Z</time></trkpt><trkpt lat="30.1837475" lon="-5.60351"><ele>664.0</ele><time>2026-05-03T10:39:44.935Z</time></trkpt><trkpt lat="30.1836526" lon="-5.6033261"><ele>663.6666666666667</ele><time>2026-05-03T10:39:45.955Z</time></trkpt><trkpt lat="30.1835598" lon="-5.6031459"><ele>663.3333333333334</ele><time>2026-05-03T10:39:46.927Z</time></trkpt><trkpt lat="30.1834643" lon="-5.6029612"><ele>663.0</ele><time>2026-05-03T10:39:47.94Z</time></trkpt><trkpt lat="30.1833708" lon="-5.6027783"><ele>663.0</ele><time>2026-05-03T10:39:48.933Z</time></trkpt><trkpt lat="30.183277" lon="-5.6025917"><ele>663.0</ele><time>2026-05-03T10:39:49.944Z</time></trkpt><trkpt lat="30.1831815" lon="-5.6024059"><ele>663.0</ele><time>2026-05-03T10:39:50.927Z</time></trkpt><trkpt lat="30.1830843" lon="-5.6022167"><ele>663.0</ele><time>2026-05-03T10:39:51.931Z</time></trkpt><trkpt lat="30.1829857" lon="-5.6020268"><ele>663.0</ele><time>2026-05-03T10:39:52.954Z</time></trkpt><trkpt lat="30.1828878" lon="-5.6018366"><ele>663.0</ele><time>2026-05-03T10:39:53.953Z</time></trkpt><trkpt lat="30.1827894" lon="-5.6016438"><ele>663.0</ele><time>2026-05-03T10:39:54.949Z</time></trkpt><trkpt lat="30.1826892" lon="-5.6014495"><ele>663.0</ele><time>2026-05-03T10:39:55.961Z</time></trkpt><trkpt lat="30.1825916" lon="-5.6012582"><ele>663.0</ele><time>2026-05-03T10:39:56.93Z</time></trkpt><trkpt lat="30.182489" lon="-5.6010608"><ele>663.6666666666666</ele><time>2026-05-03T10:39:57.956Z</time></trkpt><trkpt lat="30.1823871" lon="-5.6008673"><ele>664.3333333333333</ele><time>2026-05-03T10:39:58.921Z</time></trkpt><trkpt lat="30.182282" lon="-5.600669"><ele>665.0</ele><time>2026-05-03T10:39:59.951Z</time></trkpt><trkpt lat="30.1821796" lon="-5.6004754"><ele>664.3333333333333</ele><time>2026-05-03T10:40:00.937Z</time></trkpt><trkpt lat="30.1820765" lon="-5.6002775"><ele>663.6666666666666</ele><time>2026-05-03T10:40:01.931Z</time></trkpt><trkpt lat="30.1819711" lon="-5.6000785"><ele>663.0</ele><time>2026-05-03T10:40:02.939Z</time></trkpt><trkpt lat="30.181867" lon="-5.599881"><ele>663.0</ele><time>2026-05-03T10:40:03.951Z</time></trkpt><trkpt lat="30.1817646" lon="-5.5996876"><ele>663.0</ele><time>2026-05-03T10:40:04.928Z</time></trkpt><trkpt lat="30.1816602" lon="-5.5994935"><ele>663.0</ele><time>2026-05-03T10:40:05.947Z</time></trkpt><trkpt lat="30.1815593" lon="-5.5993058"><ele>663.3333333333334</ele><time>2026-05-03T10:40:06.918Z</time></trkpt><trkpt lat="30.181458" lon="-5.5991145"><ele>663.6666666666667</ele><time>2026-05-03T10:40:07.956Z</time></trkpt><trkpt lat="30.1813624" lon="-5.5989295"><ele>664.0</ele><time>2026-05-03T10:40:08.943Z</time></trkpt><trkpt lat="30.181267" lon="-5.5987449"><ele>663.0</ele><time>2026-05-03T10:40:09.96Z</time></trkpt><trkpt lat="30.181175" lon="-5.5985644"><ele>662.0</ele><time>2026-05-03T10:40:10.923Z</time></trkpt><trkpt lat="30.1810829" lon="-5.5983776"><ele>661.0</ele><time>2026-05-03T10:40:11.966Z</time></trkpt><trkpt lat="30.180993" lon="-5.598198"><ele>661.0</ele><time>2026-05-03T10:40:12.946Z</time></trkpt><trkpt lat="30.1809017" lon="-5.5980154"><ele>661.0</ele><time>2026-05-03T10:40:13.931Z</time></trkpt><trkpt lat="30.1808108" lon="-5.597833"><ele>661.0</ele><time>2026-05-03T10:40:14.925Z</time></trkpt><trkpt lat="30.1807167" lon="-5.5976493"><ele>661.3333333333334</ele><time>2026-05-03T10:40:15.956Z</time></trkpt><trkpt lat="30.1806243" lon="-5.5974685"><ele>661.6666666666666</ele><time>2026-05-03T10:40:16.936Z</time></trkpt><trkpt lat="30.1805279" lon="-5.5972828"><ele>662.0</ele><time>2026-05-03T10:40:17.949Z</time></trkpt><trkpt lat="30.180432" lon="-5.5970982"><ele>662.0</ele><time>2026-05-03T10:40:18.931Z</time></trkpt><trkpt lat="30.1803331" lon="-5.5969109"><ele>662.0</ele><time>2026-05-03T10:40:19.939Z</time></trkpt><trkpt lat="30.1802349" lon="-5.5967222"><ele>662.0</ele><time>2026-05-03T10:40:20.933Z</time></trkpt><trkpt lat="30.1801355" lon="-5.5965269"><ele>662.0</ele><time>2026-05-03T10:40:21.984Z</time></trkpt><trkpt lat="30.180038" lon="-5.596337"><ele>662.0</ele><time>2026-05-03T10:40:22.936Z</time></trkpt><trkpt lat="30.1799367" lon="-5.5961383"><ele>662.0</ele><time>2026-05-03T10:40:23.932Z</time></trkpt><trkpt lat="30.1798374" lon="-5.5959395"><ele>662.3333333333333</ele><time>2026-05-03T10:40:24.935Z</time></trkpt><trkpt lat="30.1797373" lon="-5.5957424"><ele>662.6666666666666</ele><time>2026-05-03T10:40:25.942Z</time></trkpt><trkpt lat="30.1796388" lon="-5.595545"><ele>663.0</ele><time>2026-05-03T10:40:26.94Z</time></trkpt><trkpt lat="30.1795435" lon="-5.5953487"><ele>662.0</ele><time>2026-05-03T10:40:27.936Z</time></trkpt><trkpt lat="30.1794479" lon="-5.5951537"><ele>661.0</ele><time>2026-05-03T10:40:28.931Z</time></trkpt><trkpt lat="30.1793509" lon="-5.5949573"><ele>660.0</ele><time>2026-05-03T10:40:29.937Z</time></trkpt><trkpt lat="30.1792538" lon="-5.5947591"><ele>660.0</ele><time>2026-05-03T10:40:30.946Z</time></trkpt><trkpt lat="30.1791569" lon="-5.5945618"><ele>660.0</ele><time>2026-05-03T10:40:31.957Z</time></trkpt><trkpt lat="30.1790605" lon="-5.5943669"><ele>660.0</ele><time>2026-05-03T10:40:32.957Z</time></trkpt><trkpt lat="30.1789642" lon="-5.5941751"><ele>660.0</ele><time>2026-05-03T10:40:33.949Z</time></trkpt><trkpt lat="30.1788739" lon="-5.593992"><ele>660.0</ele><time>2026-05-03T10:40:34.922Z</time></trkpt><trkpt lat="30.178789" lon="-5.5938136"><ele>660.0</ele><time>2026-05-03T10:40:36.026Z</time></trkpt><trkpt lat="30.1787165" lon="-5.5936584"><ele>660.0</ele><time>2026-05-03T10:40:36.989Z</time></trkpt><trkpt lat="30.1786484" lon="-5.5935172"><ele>660.0</ele><time>2026-05-03T10:40:37.943Z</time></trkpt><trkpt lat="30.1785857" lon="-5.5933889"><ele>660.0</ele><time>2026-05-03T10:40:38.937Z</time></trkpt><trkpt lat="30.1785298" lon="-5.5932756"><ele>660.0</ele><time>2026-05-03T10:40:39.962Z</time></trkpt><trkpt lat="30.1784814" lon="-5.5931792"><ele>660.0000000000001</ele><time>2026-05-03T10:40:40.961Z</time></trkpt><trkpt lat="30.1784371" lon="-5.5930979"><ele>660.0</ele><time>2026-05-03T10:40:41.942Z</time></trkpt><trkpt lat="30.1783954" lon="-5.5930318"><ele>660.0</ele><time>2026-05-03T10:40:42.938Z</time></trkpt><trkpt lat="30.1783569" lon="-5.5929685"><ele>660.0</ele><time>2026-05-03T10:40:43.946Z</time></trkpt><trkpt lat="30.1783228" lon="-5.5929059"><ele>660.0</ele><time>2026-05-03T10:40:44.953Z</time></trkpt><trkpt lat="30.1782871" lon="-5.5928347"><ele>660.0000000000001</ele><time>2026-05-03T10:40:45.946Z</time></trkpt><trkpt lat="30.1782611" lon="-5.592744"><ele>660.0</ele><time>2026-05-03T10:40:46.932Z</time></trkpt><trkpt lat="30.1782584" lon="-5.5926246"><ele>660.25</ele><time>2026-05-03T10:40:47.948Z</time></trkpt><trkpt lat="30.1782862" lon="-5.5924736"><ele>660.5</ele><time>2026-05-03T10:40:48.916Z</time></trkpt><trkpt lat="30.1783151" lon="-5.5923027"><ele>660.75</ele><time>2026-05-03T10:40:49.956Z</time></trkpt><trkpt lat="30.1783357" lon="-5.5921364"><ele>661.0</ele><time>2026-05-03T10:40:50.933Z</time></trkpt><trkpt lat="30.1783542" lon="-5.59197"><ele>661.3333333333334</ele><time>2026-05-03T10:40:51.94Z</time></trkpt><trkpt lat="30.178373" lon="-5.5918006"><ele>661.6666666666666</ele><time>2026-05-03T10:40:52.941Z</time></trkpt><trkpt lat="30.1783932" lon="-5.591623"><ele>662.0</ele><time>2026-05-03T10:40:53.937Z</time></trkpt><trkpt lat="30.1784328" lon="-5.5912709"><ele>662.3333333333333</ele><time>2026-05-03T10:40:55.943Z</time></trkpt><trkpt lat="30.1784534" lon="-5.5911079"><ele>662.6666666666666</ele><time>2026-05-03T10:40:56.924Z</time></trkpt><trkpt lat="30.1784688" lon="-5.5909121"><ele>663.0</ele><time>2026-05-03T10:40:57.935Z</time></trkpt><trkpt lat="30.1784864" lon="-5.5907095"><ele>663.0</ele><time>2026-05-03T10:40:58.926Z</time></trkpt><trkpt lat="30.1785065" lon="-5.5905019"><ele>663.0</ele><time>2026-05-03T10:40:59.927Z</time></trkpt><trkpt lat="30.1785278" lon="-5.5902907"><ele>663.0</ele><time>2026-05-03T10:41:00.934Z</time></trkpt><trkpt lat="30.1785478" lon="-5.5900765"><ele>662.0</ele><time>2026-05-03T10:41:01.942Z</time></trkpt><trkpt lat="30.1785653" lon="-5.589863"><ele>661.0</ele><time>2026-05-03T10:41:02.932Z</time></trkpt><trkpt lat="30.1785836" lon="-5.5896437"><ele>660.0</ele><time>2026-05-03T10:41:03.945Z</time></trkpt><trkpt lat="30.1786032" lon="-5.5894233"><ele>660.0</ele><time>2026-05-03T10:41:04.956Z</time></trkpt><trkpt lat="30.1786242" lon="-5.5892028"><ele>660.0</ele><time>2026-05-03T10:41:05.943Z</time></trkpt><trkpt lat="30.178647" lon="-5.588977"><ele>660.0</ele><time>2026-05-03T10:41:06.935Z</time></trkpt><trkpt lat="30.1786716" lon="-5.5887483"><ele>659.3333333333334</ele><time>2026-05-03T10:41:07.934Z</time></trkpt><trkpt lat="30.1786983" lon="-5.5885174"><ele>658.6666666666667</ele><time>2026-05-03T10:41:08.931Z</time></trkpt><trkpt lat="30.178724" lon="-5.5882804"><ele>658.0</ele><time>2026-05-03T10:41:09.941Z</time></trkpt><trkpt lat="30.1787485" lon="-5.5880431"><ele>658.6666666666667</ele><time>2026-05-03T10:41:10.924Z</time></trkpt><trkpt lat="30.1787724" lon="-5.5878058"><ele>659.3333333333334</ele><time>2026-05-03T10:41:11.944Z</time></trkpt><trkpt lat="30.178794" lon="-5.5875838"><ele>660.0</ele><time>2026-05-03T10:41:12.918Z</time></trkpt><trkpt lat="30.1788142" lon="-5.5873631"><ele>660.0</ele><time>2026-05-03T10:41:13.949Z</time></trkpt><trkpt lat="30.1788353" lon="-5.5871456"><ele>660.0</ele><time>2026-05-03T10:41:14.926Z</time></trkpt><trkpt lat="30.1788527" lon="-5.5869233"><ele>660.0</ele><time>2026-05-03T10:41:15.93Z</time></trkpt><trkpt lat="30.1788715" lon="-5.5866978"><ele>660.3333333333334</ele><time>2026-05-03T10:41:16.95Z</time></trkpt><trkpt lat="30.1788929" lon="-5.5864701"><ele>660.6666666666667</ele><time>2026-05-03T10:41:17.937Z</time></trkpt><trkpt lat="30.1789179" lon="-5.5862396"><ele>661.0</ele><time>2026-05-03T10:41:18.931Z</time></trkpt><trkpt lat="30.1789439" lon="-5.5860071"><ele>661.0</ele><time>2026-05-03T10:41:19.937Z</time></trkpt><trkpt lat="30.178969" lon="-5.5857762"><ele>661.0</ele><time>2026-05-03T10:41:20.922Z</time></trkpt><trkpt lat="30.1789925" lon="-5.5855415"><ele>661.0</ele><time>2026-05-03T10:41:21.943Z</time></trkpt><trkpt lat="30.1790156" lon="-5.5853112"><ele>661.0</ele><time>2026-05-03T10:41:22.952Z</time></trkpt><trkpt lat="30.1790374" lon="-5.585083"><ele>661.0</ele><time>2026-05-03T10:41:23.953Z</time></trkpt><trkpt lat="30.1790571" lon="-5.5848582"><ele>661.0</ele><time>2026-05-03T10:41:24.923Z</time></trkpt><trkpt lat="30.1790771" lon="-5.5846323"><ele>660.6666666666667</ele><time>2026-05-03T10:41:25.936Z</time></trkpt><trkpt lat="30.1790956" lon="-5.5844111"><ele>660.3333333333334</ele><time>2026-05-03T10:41:26.935Z</time></trkpt><trkpt lat="30.1791166" lon="-5.5841909"><ele>660.0</ele><time>2026-05-03T10:41:27.944Z</time></trkpt><trkpt lat="30.1791384" lon="-5.5839767"><ele>660.0</ele><time>2026-05-03T10:41:28.928Z</time></trkpt><trkpt lat="30.1791617" lon="-5.5837601"><ele>660.0</ele><time>2026-05-03T10:41:29.928Z</time></trkpt><trkpt lat="30.179188" lon="-5.5835422"><ele>660.0</ele><time>2026-05-03T10:41:30.93Z</time></trkpt><trkpt lat="30.1792149" lon="-5.5833276"><ele>659.3333333333334</ele><time>2026-05-03T10:41:31.934Z</time></trkpt><trkpt lat="30.1792436" lon="-5.5831177"><ele>658.6666666666667</ele><time>2026-05-03T10:41:32.925Z</time></trkpt><trkpt lat="30.1792796" lon="-5.5829081"><ele>658.0</ele><time>2026-05-03T10:41:33.948Z</time></trkpt><trkpt lat="30.1793206" lon="-5.5827036"><ele>658.0</ele><time>2026-05-03T10:41:34.929Z</time></trkpt><trkpt lat="30.1793747" lon="-5.5825002"><ele>658.0</ele><time>2026-05-03T10:41:35.946Z</time></trkpt><trkpt lat="30.1794408" lon="-5.5823062"><ele>658.0</ele><time>2026-05-03T10:41:36.934Z</time></trkpt><trkpt lat="30.1795154" lon="-5.5821165"><ele>658.3333333333334</ele><time>2026-05-03T10:41:37.945Z</time></trkpt><trkpt lat="30.1795992" lon="-5.5819351"><ele>658.6666666666666</ele><time>2026-05-03T10:41:38.918Z</time></trkpt><trkpt lat="30.1796965" lon="-5.5817564"><ele>659.0</ele><time>2026-05-03T10:41:39.94Z</time></trkpt><trkpt lat="30.1798065" lon="-5.5815906"><ele>659.6666666666666</ele><time>2026-05-03T10:41:40.921Z</time></trkpt><trkpt lat="30.1799312" lon="-5.5814273"><ele>660.3333333333334</ele><time>2026-05-03T10:41:41.952Z</time></trkpt><trkpt lat="30.1800641" lon="-5.5812745"><ele>661.0</ele><time>2026-05-03T10:41:42.925Z</time></trkpt><trkpt lat="30.1802096" lon="-5.5811281"><ele>661.0</ele><time>2026-05-03T10:41:43.933Z</time></trkpt><trkpt lat="30.1803665" lon="-5.5809909"><ele>661.0</ele><time>2026-05-03T10:41:44.921Z</time></trkpt><trkpt lat="30.1805384" lon="-5.5808621"><ele>661.0</ele><time>2026-05-03T10:41:46.057Z</time></trkpt><trkpt lat="30.1808865" lon="-5.5806389"><ele>661.3333333333334</ele><time>2026-05-03T10:41:47.94Z</time></trkpt><trkpt lat="30.1810695" lon="-5.5805314"><ele>661.6666666666666</ele><time>2026-05-03T10:41:48.931Z</time></trkpt><trkpt lat="30.1812508" lon="-5.5804227"><ele>662.0</ele><time>2026-05-03T10:41:49.939Z</time></trkpt><trkpt lat="30.1814302" lon="-5.5803109"><ele>661.3333333333333</ele><time>2026-05-03T10:41:50.914Z</time></trkpt><trkpt lat="30.1816127" lon="-5.5801944"><ele>660.6666666666666</ele><time>2026-05-03T10:41:51.956Z</time></trkpt><trkpt lat="30.1817897" lon="-5.5800848"><ele>660.0</ele><time>2026-05-03T10:41:52.931Z</time></trkpt><trkpt lat="30.1819702" lon="-5.579973"><ele>660.0</ele><time>2026-05-03T10:41:53.921Z</time></trkpt><trkpt lat="30.1821541" lon="-5.5798592"><ele>660.0</ele><time>2026-05-03T10:41:54.933Z</time></trkpt><trkpt lat="30.1823371" lon="-5.5797441"><ele>660.0</ele><time>2026-05-03T10:41:55.942Z</time></trkpt><trkpt lat="30.1825189" lon="-5.5796264"><ele>659.6666666666666</ele><time>2026-05-03T10:41:56.933Z</time></trkpt><trkpt lat="30.1827026" lon="-5.5795088"><ele>659.3333333333333</ele><time>2026-05-03T10:41:57.939Z</time></trkpt><trkpt lat="30.1828859" lon="-5.5793944"><ele>659.0</ele><time>2026-05-03T10:41:58.932Z</time></trkpt><trkpt lat="30.1830715" lon="-5.5792802"><ele>659.3333333333333</ele><time>2026-05-03T10:41:59.936Z</time></trkpt><trkpt lat="30.1832566" lon="-5.5791679"><ele>659.6666666666666</ele><time>2026-05-03T10:42:00.932Z</time></trkpt><trkpt lat="30.1834378" lon="-5.5790516"><ele>660.0</ele><time>2026-05-03T10:42:01.935Z</time></trkpt><trkpt lat="30.1836171" lon="-5.5789332"><ele>660.0</ele><time>2026-05-03T10:42:02.931Z</time></trkpt><trkpt lat="30.1837962" lon="-5.5788155"><ele>660.0</ele><time>2026-05-03T10:42:03.948Z</time></trkpt><trkpt lat="30.183971" lon="-5.5787038"><ele>660.0</ele><time>2026-05-03T10:42:04.934Z</time></trkpt><trkpt lat="30.1841502" lon="-5.5785921"><ele>659.6666666666666</ele><time>2026-05-03T10:42:05.953Z</time></trkpt><trkpt lat="30.1843271" lon="-5.5784815"><ele>659.3333333333333</ele><time>2026-05-03T10:42:06.938Z</time></trkpt><trkpt lat="30.1845053" lon="-5.5783681"><ele>659.0</ele><time>2026-05-03T10:42:07.944Z</time></trkpt><trkpt lat="30.1846813" lon="-5.5782542"><ele>658.6666666666666</ele><time>2026-05-03T10:42:08.933Z</time></trkpt><trkpt lat="30.1848588" lon="-5.5781405"><ele>658.3333333333334</ele><time>2026-05-03T10:42:09.964Z</time></trkpt><trkpt lat="30.1850337" lon="-5.5780303"><ele>658.0</ele><time>2026-05-03T10:42:10.931Z</time></trkpt><trkpt lat="30.1852164" lon="-5.5779152"><ele>657.0</ele><time>2026-05-03T10:42:11.952Z</time></trkpt><trkpt lat="30.1853937" lon="-5.5778052"><ele>656.0</ele><time>2026-05-03T10:42:12.936Z</time></trkpt><trkpt lat="30.1855707" lon="-5.5776943"><ele>655.0</ele><time>2026-05-03T10:42:13.955Z</time></trkpt><trkpt lat="30.1857416" lon="-5.5775876"><ele>655.0</ele><time>2026-05-03T10:42:14.928Z</time></trkpt><trkpt lat="30.1859149" lon="-5.5774789"><ele>655.0</ele><time>2026-05-03T10:42:15.965Z</time></trkpt><trkpt lat="30.1860765" lon="-5.5773769"><ele>655.0</ele><time>2026-05-03T10:42:16.935Z</time></trkpt><trkpt lat="30.1862412" lon="-5.5772727"><ele>655.0</ele><time>2026-05-03T10:42:17.986Z</time></trkpt><trkpt lat="30.1863981" lon="-5.5771728"><ele>655.0</ele><time>2026-05-03T10:42:18.946Z</time></trkpt><trkpt lat="30.1865603" lon="-5.5770701"><ele>655.0</ele><time>2026-05-03T10:42:19.939Z</time></trkpt><trkpt lat="30.186724" lon="-5.5769655"><ele>657.3333333333334</ele><time>2026-05-03T10:42:20.946Z</time></trkpt><trkpt lat="30.1868887" lon="-5.5768639"><ele>659.6666666666666</ele><time>2026-05-03T10:42:21.957Z</time></trkpt><trkpt lat="30.1870508" lon="-5.5767665"><ele>662.0</ele><time>2026-05-03T10:42:22.932Z</time></trkpt><trkpt lat="30.187217" lon="-5.5766685"><ele>661.3333333333333</ele><time>2026-05-03T10:42:23.976Z</time></trkpt><trkpt lat="30.1873805" lon="-5.5765749"><ele>660.6666666666666</ele><time>2026-05-03T10:42:24.953Z</time></trkpt><trkpt lat="30.187547" lon="-5.5764785"><ele>660.0</ele><time>2026-05-03T10:42:25.958Z</time></trkpt><trkpt lat="30.1877137" lon="-5.5763807"><ele>660.0</ele><time>2026-05-03T10:42:26.931Z</time></trkpt><trkpt lat="30.1878823" lon="-5.5762844"><ele>660.0</ele><time>2026-05-03T10:42:27.944Z</time></trkpt><trkpt lat="30.1880418" lon="-5.5761971"><ele>660.0</ele><time>2026-05-03T10:42:28.943Z</time></trkpt><trkpt lat="30.1881908" lon="-5.5761182"><ele>660.75</ele><time>2026-05-03T10:42:29.942Z</time></trkpt><trkpt lat="30.1883261" lon="-5.5760497"><ele>661.5</ele><time>2026-05-03T10:42:30.921Z</time></trkpt><trkpt lat="30.1884496" lon="-5.5759848"><ele>662.25</ele><time>2026-05-03T10:42:31.939Z</time></trkpt><trkpt lat="30.1885534" lon="-5.5759267"><ele>663.0</ele><time>2026-05-03T10:42:32.934Z</time></trkpt><trkpt lat="30.1886404" lon="-5.5758791"><ele>663.0</ele><time>2026-05-03T10:42:33.938Z</time></trkpt><trkpt lat="30.1887093" lon="-5.5758425"><ele>663.0</ele><time>2026-05-03T10:42:34.942Z</time></trkpt><trkpt lat="30.1888006" lon="-5.5757895"><ele>663.0</ele><time>2026-05-03T10:42:36.948Z</time></trkpt></trkseg></trk></gpx>